<?xml version="1.0" encoding="UTF-8" ?>
<gpx xmlns="http://www.topografix.com/GPX/1/1" version="1.1" creator="osmtracker-android" xmlns:xsi="http://www.w3.org/2001/XMLSchema-instance" xsi:schemaLocation="http://www.topografix.com/GPX/1/1 http://www.topografix.com/GPX/1/1/gpx.xsd ">
	<trk>
		<name><![CDATA[Aufgezeichnet mit OSMTracker für Android™]]></name>
		<trkseg>
			<trkpt lat="50.870712326398184" lon="6.6877116884287835">
				<ele>138.0</ele>
				<time>2011-02-15T16:49:53Z</time>
			</trkpt>
			<trkpt lat="50.87071178248524" lon="6.687709319787614">
				<ele>138.0</ele>
				<time>2011-02-15T16:49:54Z</time>
			</trkpt>
			<trkpt lat="50.87071122840033" lon="6.687706904989027">
				<ele>138.0</ele>
				<time>2011-02-15T16:49:55Z</time>
			</trkpt>
			<trkpt lat="50.870710670296276" lon="6.687704465365928">
				<ele>138.0</ele>
				<time>2011-02-15T16:49:56Z</time>
			</trkpt>
			<trkpt lat="50.87071009727934" lon="6.6877019519855425">
				<ele>138.0</ele>
				<time>2011-02-15T16:49:57Z</time>
			</trkpt>
			<trkpt lat="50.87070953369236" lon="6.6876994608317455">
				<ele>138.0</ele>
				<time>2011-02-15T16:49:58Z</time>
			</trkpt>
			<trkpt lat="50.87070898653311" lon="6.687697012757007">
				<ele>138.0</ele>
				<time>2011-02-15T16:49:59Z</time>
			</trkpt>
			<trkpt lat="50.87070846057982" lon="6.68769463723716">
				<ele>138.0</ele>
				<time>2011-02-15T16:50:00Z</time>
			</trkpt>
			<trkpt lat="50.870707955346454" lon="6.687692331856555">
				<ele>138.0</ele>
				<time>2011-02-15T16:50:01Z</time>
			</trkpt>
			<trkpt lat="50.870707955346454" lon="6.687692331856555">
				<ele>138.0</ele>
				<time>2011-02-15T16:50:02Z</time>
			</trkpt>
			<trkpt lat="50.87070745204848" lon="6.6876899608579174">
				<ele>138.0</ele>
				<time>2011-02-15T16:50:03Z</time>
			</trkpt>
			<trkpt lat="50.87070745204848" lon="6.6876899608579174">
				<ele>138.0</ele>
				<time>2011-02-15T16:50:04Z</time>
			</trkpt>
			<trkpt lat="50.87070697395818" lon="6.687687638870681">
				<ele>138.0</ele>
				<time>2011-02-15T16:50:05Z</time>
			</trkpt>
			<trkpt lat="50.87070650489978" lon="6.6876853395535605">
				<ele>138.0</ele>
				<time>2011-02-15T16:50:06Z</time>
			</trkpt>
			<trkpt lat="50.87070602958224" lon="6.687683031785933">
				<ele>138.0</ele>
				<time>2011-02-15T16:50:07Z</time>
			</trkpt>
			<trkpt lat="50.870705511383235" lon="6.687680549084422">
				<ele>138.0</ele>
				<time>2011-02-15T16:50:08Z</time>
			</trkpt>
			<trkpt lat="50.87070496601893" lon="6.687677937807191">
				<ele>138.0</ele>
				<time>2011-02-15T16:50:09Z</time>
			</trkpt>
			<trkpt lat="50.87070439104934" lon="6.687675205021747">
				<ele>138.0</ele>
				<time>2011-02-15T16:50:10Z</time>
			</trkpt>
			<trkpt lat="50.87070381081477" lon="6.687672448199009">
				<ele>138.0</ele>
				<time>2011-02-15T16:50:11Z</time>
			</trkpt>
			<trkpt lat="50.870703217916535" lon="6.687669634877464">
				<ele>138.0</ele>
				<time>2011-02-15T16:50:12Z</time>
			</trkpt>
			<trkpt lat="50.870703217916535" lon="6.687669634877464">
				<ele>138.0</ele>
				<time>2011-02-15T16:50:13Z</time>
			</trkpt>
			<trkpt lat="50.870703217916535" lon="6.687669634877464">
				<ele>138.0</ele>
				<time>2011-02-15T16:50:14Z</time>
			</trkpt>
			<trkpt lat="50.870703217916535" lon="6.687669634877464">
				<ele>138.0</ele>
				<time>2011-02-15T16:50:15Z</time>
			</trkpt>
			<trkpt lat="50.870703217916535" lon="6.687669634877464">
				<ele>138.0</ele>
				<time>2011-02-15T16:50:16Z</time>
			</trkpt>
			<trkpt lat="50.870703217916535" lon="6.687669634877464">
				<ele>138.0</ele>
				<time>2011-02-15T16:50:17Z</time>
			</trkpt>
			<trkpt lat="50.870703217916535" lon="6.687669634877464">
				<ele>138.0</ele>
				<time>2011-02-15T16:50:18Z</time>
			</trkpt>
			<trkpt lat="50.870703217916535" lon="6.687669634877464">
				<ele>138.0</ele>
				<time>2011-02-15T16:50:19Z</time>
			</trkpt>
			<trkpt lat="50.870703217916535" lon="6.687669634877464">
				<ele>138.0</ele>
				<time>2011-02-15T16:50:20Z</time>
			</trkpt>
			<trkpt lat="50.870703217916535" lon="6.687669634877464">
				<ele>138.0</ele>
				<time>2011-02-15T16:50:21Z</time>
			</trkpt>
			<trkpt lat="50.870703217916535" lon="6.687669634877464">
				<ele>138.0</ele>
				<time>2011-02-15T16:50:22Z</time>
			</trkpt>
			<trkpt lat="50.870703217916535" lon="6.687669634877464">
				<ele>138.0</ele>
				<time>2011-02-15T16:50:23Z</time>
			</trkpt>
			<trkpt lat="50.870703217916535" lon="6.687669634877464">
				<ele>138.0</ele>
				<time>2011-02-15T16:50:24Z</time>
			</trkpt>
			<trkpt lat="50.870703217916535" lon="6.687669634877464">
				<ele>138.0</ele>
				<time>2011-02-15T16:50:25Z</time>
			</trkpt>
			<trkpt lat="50.870703217916535" lon="6.687669634877464">
				<ele>138.0</ele>
				<time>2011-02-15T16:50:26Z</time>
			</trkpt>
			<trkpt lat="50.87042992580751" lon="6.687282958180886">
				<ele>138.0</ele>
				<time>2011-02-15T16:50:58Z</time>
			</trkpt>
			<trkpt lat="50.87033518140336" lon="6.687482244522975">
				<ele>138.0</ele>
				<time>2011-02-15T16:50:59Z</time>
			</trkpt>
			<trkpt lat="50.86984148747155" lon="6.687884303555872">
				<ele>138.0</ele>
				<time>2011-02-15T16:51:00Z</time>
			</trkpt>
			<trkpt lat="50.86982972976313" lon="6.68788585903313">
				<ele>138.0</ele>
				<time>2011-02-15T16:51:02Z</time>
			</trkpt>
			<trkpt lat="50.86982972976313" lon="6.68788585903313">
				<ele>138.0</ele>
				<time>2011-02-15T16:51:03Z</time>
			</trkpt>
			<trkpt lat="50.86982972976313" lon="6.68788585903313">
				<ele>138.0</ele>
				<time>2011-02-15T16:51:04Z</time>
			</trkpt>
			<trkpt lat="50.86982972976313" lon="6.68788585903313">
				<ele>138.0</ele>
				<time>2011-02-15T16:51:05Z</time>
			</trkpt>
			<trkpt lat="50.86982972976313" lon="6.68788585903313">
				<ele>138.0</ele>
				<time>2011-02-15T16:51:06Z</time>
			</trkpt>
			<trkpt lat="50.86982972976313" lon="6.68788585903313">
				<ele>138.0</ele>
				<time>2011-02-15T16:51:07Z</time>
			</trkpt>
			<trkpt lat="50.86982972976313" lon="6.68788585903313">
				<ele>138.0</ele>
				<time>2011-02-15T16:51:08Z</time>
			</trkpt>
			<trkpt lat="50.86982972976313" lon="6.68788585903313">
				<ele>138.0</ele>
				<time>2011-02-15T16:51:09Z</time>
			</trkpt>
			<trkpt lat="50.86982972976313" lon="6.68788585903313">
				<ele>138.0</ele>
				<time>2011-02-15T16:51:10Z</time>
			</trkpt>
			<trkpt lat="50.86982972976313" lon="6.68788585903313">
				<ele>138.0</ele>
				<time>2011-02-15T16:51:11Z</time>
			</trkpt>
			<trkpt lat="50.86982972976313" lon="6.68788585903313">
				<ele>138.0</ele>
				<time>2011-02-15T16:51:12Z</time>
			</trkpt>
			<trkpt lat="50.86982972976313" lon="6.68788585903313">
				<ele>138.0</ele>
				<time>2011-02-15T16:51:13Z</time>
			</trkpt>
			<trkpt lat="50.86982972976313" lon="6.68788585903313">
				<ele>138.0</ele>
				<time>2011-02-15T16:51:14Z</time>
			</trkpt>
			<trkpt lat="50.86982972976313" lon="6.68788585903313">
				<ele>138.0</ele>
				<time>2011-02-15T16:51:15Z</time>
			</trkpt>
			<trkpt lat="50.86982972976313" lon="6.68788585903313">
				<ele>138.0</ele>
				<time>2011-02-15T16:51:16Z</time>
			</trkpt>
			<trkpt lat="50.86982972976313" lon="6.68788585903313">
				<ele>138.0</ele>
				<time>2011-02-15T16:51:17Z</time>
			</trkpt>
			<trkpt lat="50.86982972976313" lon="6.68788585903313">
				<ele>138.0</ele>
				<time>2011-02-15T16:51:18Z</time>
			</trkpt>
			<trkpt lat="50.86982972976313" lon="6.68788585903313">
				<ele>138.0</ele>
				<time>2011-02-15T16:51:19Z</time>
			</trkpt>
			<trkpt lat="50.86982972976313" lon="6.68788585903313">
				<ele>138.0</ele>
				<time>2011-02-15T16:51:20Z</time>
			</trkpt>
			<trkpt lat="50.86982972976313" lon="6.68788585903313">
				<ele>138.0</ele>
				<time>2011-02-15T16:51:21Z</time>
			</trkpt>
			<trkpt lat="50.86982972976313" lon="6.68788585903313">
				<ele>138.0</ele>
				<time>2011-02-15T16:51:22Z</time>
			</trkpt>
			<trkpt lat="50.86982972976313" lon="6.68788585903313">
				<ele>138.0</ele>
				<time>2011-02-15T16:51:23Z</time>
			</trkpt>
			<trkpt lat="50.86982972976313" lon="6.68788585903313">
				<ele>138.0</ele>
				<time>2011-02-15T16:51:24Z</time>
			</trkpt>
			<trkpt lat="50.86982972976313" lon="6.68788585903313">
				<ele>138.0</ele>
				<time>2011-02-15T16:51:25Z</time>
			</trkpt>
			<trkpt lat="50.86982972976313" lon="6.68788585903313">
				<ele>138.0</ele>
				<time>2011-02-15T16:51:26Z</time>
			</trkpt>
			<trkpt lat="50.86982972976313" lon="6.68788585903313">
				<ele>138.0</ele>
				<time>2011-02-15T16:51:27Z</time>
			</trkpt>
			<trkpt lat="50.869911802331394" lon="6.687923916809746">
				<ele>138.0</ele>
				<time>2011-02-15T16:51:28Z</time>
			</trkpt>
			<trkpt lat="50.869911964614396" lon="6.687921710588054">
				<ele>138.0</ele>
				<time>2011-02-15T16:51:29Z</time>
			</trkpt>
			<trkpt lat="50.869912284446585" lon="6.687917201216628">
				<ele>138.0</ele>
				<time>2011-02-15T16:51:30Z</time>
			</trkpt>
			<trkpt lat="50.86991328536172" lon="6.687909539408666">
				<ele>138.0</ele>
				<time>2011-02-15T16:51:31Z</time>
			</trkpt>
			<trkpt lat="50.86991474366097" lon="6.687900025422542">
				<ele>138.0</ele>
				<time>2011-02-15T16:51:32Z</time>
			</trkpt>
			<trkpt lat="50.869916662254354" lon="6.6878887857204825">
				<ele>138.0</ele>
				<time>2011-02-15T16:51:33Z</time>
			</trkpt>
			<trkpt lat="50.86992025513267" lon="6.687876186269824">
				<ele>138.0</ele>
				<time>2011-02-15T16:51:34Z</time>
			</trkpt>
			<trkpt lat="50.869929769900025" lon="6.687858555064494">
				<ele>138.0</ele>
				<time>2011-02-15T16:51:35Z</time>
			</trkpt>
			<trkpt lat="50.869950895074666" lon="6.687829196142288">
				<ele>138.0</ele>
				<time>2011-02-15T16:51:36Z</time>
			</trkpt>
			<trkpt lat="50.86998568406131" lon="6.68779011104019">
				<ele>138.0</ele>
				<time>2011-02-15T16:51:37Z</time>
			</trkpt>
			<trkpt lat="50.87003442742194" lon="6.687743087708586">
				<ele>138.0</ele>
				<time>2011-02-15T16:51:38Z</time>
			</trkpt>
			<trkpt lat="50.87008491581352" lon="6.687695441283838">
				<ele>138.0</ele>
				<time>2011-02-15T16:51:39Z</time>
			</trkpt>
			<trkpt lat="50.87014988904357" lon="6.687642545008985">
				<ele>138.0</ele>
				<time>2011-02-15T16:51:40Z</time>
			</trkpt>
			<trkpt lat="50.870183838561694" lon="6.687597638370341">
				<ele>138.0</ele>
				<time>2011-02-15T16:51:41Z</time>
			</trkpt>
			<trkpt lat="50.87022783445186" lon="6.687539673958097">
				<ele>138.0</ele>
				<time>2011-02-15T16:51:42Z</time>
			</trkpt>
			<trkpt lat="50.87027791737117" lon="6.687485421796423">
				<ele>138.0</ele>
				<time>2011-02-15T16:51:43Z</time>
			</trkpt>
			<trkpt lat="50.87032961825861" lon="6.687445761649069">
				<ele>138.0</ele>
				<time>2011-02-15T16:51:44Z</time>
			</trkpt>
			<trkpt lat="50.87037862341679" lon="6.6874154465815305">
				<ele>138.0</ele>
				<time>2011-02-15T16:51:45Z</time>
			</trkpt>
			<trkpt lat="50.87042633075555" lon="6.6873865965027965">
				<ele>138.0</ele>
				<time>2011-02-15T16:51:46Z</time>
			</trkpt>
			<trkpt lat="50.87047379623852" lon="6.687346838210858">
				<ele>137.0</ele>
				<time>2011-02-15T16:51:47Z</time>
			</trkpt>
			<trkpt lat="50.870505193554195" lon="6.6873007587463">
				<ele>137.0</ele>
				<time>2011-02-15T16:51:48Z</time>
			</trkpt>
			<trkpt lat="50.87052876114474" lon="6.687260374203233">
				<ele>137.0</ele>
				<time>2011-02-15T16:51:49Z</time>
			</trkpt>
			<trkpt lat="50.870554386002006" lon="6.687234672828298">
				<ele>137.0</ele>
				<time>2011-02-15T16:51:50Z</time>
			</trkpt>
			<trkpt lat="50.870575251102636" lon="6.687208893455723">
				<ele>137.0</ele>
				<time>2011-02-15T16:51:51Z</time>
			</trkpt>
			<trkpt lat="50.870599342653065" lon="6.6871842702004125">
				<ele>137.0</ele>
				<time>2011-02-15T16:51:52Z</time>
			</trkpt>
			<trkpt lat="50.87062876896104" lon="6.687158838337755">
				<ele>137.0</ele>
				<time>2011-02-15T16:51:53Z</time>
			</trkpt>
			<trkpt lat="50.87065766611063" lon="6.687135163645535">
				<ele>137.0</ele>
				<time>2011-02-15T16:51:54Z</time>
			</trkpt>
			<trkpt lat="50.87068343970434" lon="6.687127269658124">
				<ele>137.0</ele>
				<time>2011-02-15T16:51:55Z</time>
			</trkpt>
			<trkpt lat="50.87069404226941" lon="6.687127419126307">
				<ele>137.0</ele>
				<time>2011-02-15T16:51:56Z</time>
			</trkpt>
			<trkpt lat="50.870707150036864" lon="6.6871285967681695">
				<ele>137.0</ele>
				<time>2011-02-15T16:51:57Z</time>
			</trkpt>
			<trkpt lat="50.870720125230356" lon="6.687130047463291">
				<ele>136.0</ele>
				<time>2011-02-15T16:51:58Z</time>
			</trkpt>
			<trkpt lat="50.87073173340954" lon="6.687133644737459">
				<ele>136.0</ele>
				<time>2011-02-15T16:51:59Z</time>
			</trkpt>
			<trkpt lat="50.87074233483657" lon="6.687141921867889">
				<ele>136.0</ele>
				<time>2011-02-15T16:52:00Z</time>
			</trkpt>
			<trkpt lat="50.87075289877105" lon="6.687148842602224">
				<ele>136.0</ele>
				<time>2011-02-15T16:52:01Z</time>
			</trkpt>
			<trkpt lat="50.87076522479617" lon="6.687154366639823">
				<ele>136.0</ele>
				<time>2011-02-15T16:52:02Z</time>
			</trkpt>
			<trkpt lat="50.870778522431536" lon="6.687159138136689">
				<ele>136.0</ele>
				<time>2011-02-15T16:52:03Z</time>
			</trkpt>
			<trkpt lat="50.87079195185461" lon="6.687164909398229">
				<ele>136.0</ele>
				<time>2011-02-15T16:52:04Z</time>
			</trkpt>
			<trkpt lat="50.87080803321691" lon="6.687176882546317">
				<ele>136.0</ele>
				<time>2011-02-15T16:52:05Z</time>
			</trkpt>
			<trkpt lat="50.87082675229339" lon="6.687192745005769">
				<ele>136.0</ele>
				<time>2011-02-15T16:52:06Z</time>
			</trkpt>
			<trkpt lat="50.87084861315597" lon="6.687216861705835">
				<ele>136.0</ele>
				<time>2011-02-15T16:52:07Z</time>
			</trkpt>
			<trkpt lat="50.87087508394034" lon="6.687254935426271">
				<ele>135.0</ele>
				<time>2011-02-15T16:52:08Z</time>
			</trkpt>
			<trkpt lat="50.8709034652811" lon="6.687302413676235">
				<ele>135.0</ele>
				<time>2011-02-15T16:52:09Z</time>
			</trkpt>
			<trkpt lat="50.87093698503822" lon="6.687352487154013">
				<ele>135.0</ele>
				<time>2011-02-15T16:52:10Z</time>
			</trkpt>
			<trkpt lat="50.87096964474542" lon="6.68740003755014">
				<ele>135.0</ele>
				<time>2011-02-15T16:52:11Z</time>
			</trkpt>
			<trkpt lat="50.87099801970403" lon="6.687444584297063">
				<ele>135.0</ele>
				<time>2011-02-15T16:52:12Z</time>
			</trkpt>
			<trkpt lat="50.87102359532335" lon="6.6874881413729215">
				<ele>135.0</ele>
				<time>2011-02-15T16:52:13Z</time>
			</trkpt>
			<trkpt lat="50.871047428889376" lon="6.687530451530631">
				<ele>134.0</ele>
				<time>2011-02-15T16:52:14Z</time>
			</trkpt>
			<trkpt lat="50.8710702583551" lon="6.687572600942824">
				<ele>134.0</ele>
				<time>2011-02-15T16:52:15Z</time>
			</trkpt>
			<trkpt lat="50.871093234336804" lon="6.6876154412805775">
				<ele>134.0</ele>
				<time>2011-02-15T16:52:16Z</time>
			</trkpt>
			<trkpt lat="50.871116931448796" lon="6.687659741895115">
				<ele>134.0</ele>
				<time>2011-02-15T16:52:17Z</time>
			</trkpt>
			<trkpt lat="50.871140337620545" lon="6.687705239766196">
				<ele>134.0</ele>
				<time>2011-02-15T16:52:18Z</time>
			</trkpt>
			<trkpt lat="50.871166673422834" lon="6.687755114306277">
				<ele>134.0</ele>
				<time>2011-02-15T16:52:19Z</time>
			</trkpt>
			<trkpt lat="50.871196705662165" lon="6.687809232380789">
				<ele>132.0</ele>
				<time>2011-02-15T16:52:20Z</time>
			</trkpt>
			<trkpt lat="50.87122696173158" lon="6.687867066527955">
				<ele>131.0</ele>
				<time>2011-02-15T16:52:21Z</time>
			</trkpt>
			<trkpt lat="50.871256223848086" lon="6.687926188477072">
				<ele>131.0</ele>
				<time>2011-02-15T16:52:22Z</time>
			</trkpt>
			<trkpt lat="50.87128476623732" lon="6.687984466939543">
				<ele>130.0</ele>
				<time>2011-02-15T16:52:23Z</time>
			</trkpt>
			<trkpt lat="50.87131105189373" lon="6.688046785425695">
				<ele>130.0</ele>
				<time>2011-02-15T16:52:24Z</time>
			</trkpt>
			<trkpt lat="50.87133420607043" lon="6.688113832160229">
				<ele>129.0</ele>
				<time>2011-02-15T16:52:25Z</time>
			</trkpt>
			<trkpt lat="50.87135593866629" lon="6.6881817697917345">
				<ele>129.0</ele>
				<time>2011-02-15T16:52:26Z</time>
			</trkpt>
			<trkpt lat="50.87137730631285" lon="6.688249460954587">
				<ele>128.0</ele>
				<time>2011-02-15T16:52:27Z</time>
			</trkpt>
			<trkpt lat="50.87139632051401" lon="6.688319072556119">
				<ele>128.0</ele>
				<time>2011-02-15T16:52:28Z</time>
			</trkpt>
			<trkpt lat="50.8714140841462" lon="6.688388241097467">
				<ele>128.0</ele>
				<time>2011-02-15T16:52:29Z</time>
			</trkpt>
			<trkpt lat="50.871432208155376" lon="6.688457375484809">
				<ele>127.0</ele>
				<time>2011-02-15T16:52:30Z</time>
			</trkpt>
			<trkpt lat="50.87144957710997" lon="6.688527537412092">
				<ele>127.0</ele>
				<time>2011-02-15T16:52:31Z</time>
			</trkpt>
			<trkpt lat="50.871467178043986" lon="6.688597618127657">
				<ele>127.0</ele>
				<time>2011-02-15T16:52:32Z</time>
			</trkpt>
			<trkpt lat="50.871485639168334" lon="6.688667455995266">
				<ele>127.0</ele>
				<time>2011-02-15T16:52:33Z</time>
			</trkpt>
			<trkpt lat="50.871504021436415" lon="6.688738525265407">
				<ele>127.0</ele>
				<time>2011-02-15T16:52:34Z</time>
			</trkpt>
			<trkpt lat="50.871521956180786" lon="6.68880871743988">
				<ele>127.0</ele>
				<time>2011-02-15T16:52:35Z</time>
			</trkpt>
			<trkpt lat="50.87154013154258" lon="6.688880055435127">
				<ele>127.0</ele>
				<time>2011-02-15T16:52:36Z</time>
			</trkpt>
			<trkpt lat="50.871558098916516" lon="6.688951817371724">
				<ele>127.0</ele>
				<time>2011-02-15T16:52:37Z</time>
			</trkpt>
			<trkpt lat="50.87157636012393" lon="6.689023077353899">
				<ele>127.0</ele>
				<time>2011-02-15T16:52:38Z</time>
			</trkpt>
			<trkpt lat="50.87159577238008" lon="6.689093494926114">
				<ele>127.0</ele>
				<time>2011-02-15T16:52:39Z</time>
			</trkpt>
			<trkpt lat="50.871625770607956" lon="6.689153213836089">
				<ele>128.0</ele>
				<time>2011-02-15T16:52:40Z</time>
			</trkpt>
			<trkpt lat="50.871654486949026" lon="6.68921269986889">
				<ele>128.0</ele>
				<time>2011-02-15T16:52:41Z</time>
			</trkpt>
			<trkpt lat="50.87167869633471" lon="6.689272167272869">
				<ele>128.0</ele>
				<time>2011-02-15T16:52:42Z</time>
			</trkpt>
			<trkpt lat="50.871699959879976" lon="6.689329941832013">
				<ele>128.0</ele>
				<time>2011-02-15T16:52:43Z</time>
			</trkpt>
			<trkpt lat="50.871720743944365" lon="6.689385764548098">
				<ele>127.0</ele>
				<time>2011-02-15T16:52:44Z</time>
			</trkpt>
			<trkpt lat="50.87174390240445" lon="6.689440586778479">
				<ele>127.0</ele>
				<time>2011-02-15T16:52:45Z</time>
			</trkpt>
			<trkpt lat="50.871764127422" lon="6.689496130120626">
				<ele>127.0</ele>
				<time>2011-02-15T16:52:46Z</time>
			</trkpt>
			<trkpt lat="50.871780174727036" lon="6.689552131509387">
				<ele>127.0</ele>
				<time>2011-02-15T16:52:47Z</time>
			</trkpt>
			<trkpt lat="50.871795737229" lon="6.689608363490696">
				<ele>127.0</ele>
				<time>2011-02-15T16:52:48Z</time>
			</trkpt>
			<trkpt lat="50.871809549165185" lon="6.689667404697763">
				<ele>127.0</ele>
				<time>2011-02-15T16:52:49Z</time>
			</trkpt>
			<trkpt lat="50.871822975424436" lon="6.689729215311665">
				<ele>127.0</ele>
				<time>2011-02-15T16:52:50Z</time>
			</trkpt>
			<trkpt lat="50.871837764344306" lon="6.689791972857456">
				<ele>127.0</ele>
				<time>2011-02-15T16:52:51Z</time>
			</trkpt>
			<trkpt lat="50.87185210526305" lon="6.689855332356264">
				<ele>127.0</ele>
				<time>2011-02-15T16:52:52Z</time>
			</trkpt>
			<trkpt lat="50.8718690134401" lon="6.689917970313334">
				<ele>127.0</ele>
				<time>2011-02-15T16:52:53Z</time>
			</trkpt>
			<trkpt lat="50.871886470184144" lon="6.689980765424479">
				<ele>127.0</ele>
				<time>2011-02-15T16:52:54Z</time>
			</trkpt>
			<trkpt lat="50.8719052778982" lon="6.69004389104675">
				<ele>127.0</ele>
				<time>2011-02-15T16:52:55Z</time>
			</trkpt>
			<trkpt lat="50.871925749480276" lon="6.690104942732444">
				<ele>127.0</ele>
				<time>2011-02-15T16:52:56Z</time>
			</trkpt>
			<trkpt lat="50.87194485731077" lon="6.690166733699863">
				<ele>127.0</ele>
				<time>2011-02-15T16:52:57Z</time>
			</trkpt>
			<trkpt lat="50.87196435332585" lon="6.690229441556008">
				<ele>127.0</ele>
				<time>2011-02-15T16:52:58Z</time>
			</trkpt>
			<trkpt lat="50.87198512722903" lon="6.690292384092495">
				<ele>127.0</ele>
				<time>2011-02-15T16:52:59Z</time>
			</trkpt>
			<trkpt lat="50.872007957495676" lon="6.690356188398108">
				<ele>127.0</ele>
				<time>2011-02-15T16:53:00Z</time>
			</trkpt>
			<trkpt lat="50.87203196006474" lon="6.690419963516662">
				<ele>127.0</ele>
				<time>2011-02-15T16:53:01Z</time>
			</trkpt>
			<trkpt lat="50.872055842196424" lon="6.690483438359164">
				<ele>128.0</ele>
				<time>2011-02-15T16:53:02Z</time>
			</trkpt>
			<trkpt lat="50.87207845334962" lon="6.690547864341031">
				<ele>128.0</ele>
				<time>2011-02-15T16:53:03Z</time>
			</trkpt>
			<trkpt lat="50.8721001386941" lon="6.690612118956488">
				<ele>128.0</ele>
				<time>2011-02-15T16:53:04Z</time>
			</trkpt>
			<trkpt lat="50.87211885684727" lon="6.690679448092312">
				<ele>128.0</ele>
				<time>2011-02-15T16:53:05Z</time>
			</trkpt>
			<trkpt lat="50.87213827465726" lon="6.690744481443494">
				<ele>128.0</ele>
				<time>2011-02-15T16:53:06Z</time>
			</trkpt>
			<trkpt lat="50.87215721259676" lon="6.690810060437129">
				<ele>128.0</ele>
				<time>2011-02-15T16:53:07Z</time>
			</trkpt>
			<trkpt lat="50.87217639675957" lon="6.690876904100672">
				<ele>129.0</ele>
				<time>2011-02-15T16:53:08Z</time>
			</trkpt>
			<trkpt lat="50.872194757813624" lon="6.6909436657268">
				<ele>129.0</ele>
				<time>2011-02-15T16:53:09Z</time>
			</trkpt>
			<trkpt lat="50.87221340163111" lon="6.691009601994102">
				<ele>129.0</ele>
				<time>2011-02-15T16:53:10Z</time>
			</trkpt>
			<trkpt lat="50.87223389239765" lon="6.691074287586626">
				<ele>128.0</ele>
				<time>2011-02-15T16:53:11Z</time>
			</trkpt>
			<trkpt lat="50.87225549993697" lon="6.691138141288999">
				<ele>128.0</ele>
				<time>2011-02-15T16:53:12Z</time>
			</trkpt>
			<trkpt lat="50.87227828982059" lon="6.691200635538566">
				<ele>128.0</ele>
				<time>2011-02-15T16:53:13Z</time>
			</trkpt>
			<trkpt lat="50.87230102035394" lon="6.691263486990445">
				<ele>128.0</ele>
				<time>2011-02-15T16:53:14Z</time>
			</trkpt>
			<trkpt lat="50.872325382233264" lon="6.691326754936135">
				<ele>128.0</ele>
				<time>2011-02-15T16:53:15Z</time>
			</trkpt>
			<trkpt lat="50.872349091032035" lon="6.6913915193498985">
				<ele>128.0</ele>
				<time>2011-02-15T16:53:16Z</time>
			</trkpt>
			<trkpt lat="50.87237169208683" lon="6.691455575016778">
				<ele>128.0</ele>
				<time>2011-02-15T16:53:17Z</time>
			</trkpt>
			<trkpt lat="50.872391275656476" lon="6.69152285810871">
				<ele>128.0</ele>
				<time>2011-02-15T16:53:18Z</time>
			</trkpt>
			<trkpt lat="50.87241110585223" lon="6.691589652365239">
				<ele>129.0</ele>
				<time>2011-02-15T16:53:19Z</time>
			</trkpt>
			<trkpt lat="50.87243063911146" lon="6.691653937427547">
				<ele>129.0</ele>
				<time>2011-02-15T16:53:20Z</time>
			</trkpt>
			<trkpt lat="50.87245092688761" lon="6.691716165557083">
				<ele>129.0</ele>
				<time>2011-02-15T16:53:21Z</time>
			</trkpt>
			<trkpt lat="50.872470426611706" lon="6.691775713789276">
				<ele>129.0</ele>
				<time>2011-02-15T16:53:22Z</time>
			</trkpt>
			<trkpt lat="50.87248940746458" lon="6.69183589297643">
				<ele>129.0</ele>
				<time>2011-02-15T16:53:23Z</time>
			</trkpt>
			<trkpt lat="50.87250853865322" lon="6.691896530429185">
				<ele>128.0</ele>
				<time>2011-02-15T16:53:24Z</time>
			</trkpt>
			<trkpt lat="50.87252756115074" lon="6.691956080490839">
				<ele>128.0</ele>
				<time>2011-02-15T16:53:25Z</time>
			</trkpt>
			<trkpt lat="50.87254573604467" lon="6.692015920576731">
				<ele>128.0</ele>
				<time>2011-02-15T16:53:26Z</time>
			</trkpt>
			<trkpt lat="50.872563455170315" lon="6.692073196740466">
				<ele>128.0</ele>
				<time>2011-02-15T16:53:27Z</time>
			</trkpt>
			<trkpt lat="50.87258299389569" lon="6.692128718334345">
				<ele>128.0</ele>
				<time>2011-02-15T16:53:28Z</time>
			</trkpt>
			<trkpt lat="50.87260280482149" lon="6.692184051398962">
				<ele>128.0</ele>
				<time>2011-02-15T16:53:29Z</time>
			</trkpt>
			<trkpt lat="50.87262473216388" lon="6.692237565607147">
				<ele>128.0</ele>
				<time>2011-02-15T16:53:30Z</time>
			</trkpt>
			<trkpt lat="50.87265311732323" lon="6.692277118494413">
				<ele>127.0</ele>
				<time>2011-02-15T16:53:31Z</time>
			</trkpt>
			<trkpt lat="50.87267173656168" lon="6.692289273439199">
				<ele>127.0</ele>
				<time>2011-02-15T16:53:32Z</time>
			</trkpt>
			<trkpt lat="50.87269410975526" lon="6.69229135470653">
				<ele>127.0</ele>
				<time>2011-02-15T16:53:33Z</time>
			</trkpt>
			<trkpt lat="50.87271712737572" lon="6.6922901090845786">
				<ele>127.0</ele>
				<time>2011-02-15T16:53:34Z</time>
			</trkpt>
			<trkpt lat="50.87274173343474" lon="6.692286412131127">
				<ele>127.0</ele>
				<time>2011-02-15T16:53:35Z</time>
			</trkpt>
			<trkpt lat="50.87277187458613" lon="6.692280776248389">
				<ele>127.0</ele>
				<time>2011-02-15T16:53:36Z</time>
			</trkpt>
			<trkpt lat="50.87280050302649" lon="6.692275374633282">
				<ele>127.0</ele>
				<time>2011-02-15T16:53:37Z</time>
			</trkpt>
			<trkpt lat="50.872834128508714" lon="6.692267101781687">
				<ele>127.0</ele>
				<time>2011-02-15T16:53:38Z</time>
			</trkpt>
			<trkpt lat="50.872866353029835" lon="6.692258219932152">
				<ele>127.0</ele>
				<time>2011-02-15T16:53:39Z</time>
			</trkpt>
			<trkpt lat="50.872901660736474" lon="6.692248471407082">
				<ele>127.0</ele>
				<time>2011-02-15T16:53:40Z</time>
			</trkpt>
			<trkpt lat="50.872936425075196" lon="6.692240613183834">
				<ele>127.0</ele>
				<time>2011-02-15T16:53:41Z</time>
			</trkpt>
			<trkpt lat="50.8729702997775" lon="6.692234252580742">
				<ele>127.0</ele>
				<time>2011-02-15T16:53:42Z</time>
			</trkpt>
			<trkpt lat="50.87300639091858" lon="6.692240367243884">
				<ele>127.0</ele>
				<time>2011-02-15T16:53:43Z</time>
			</trkpt>
			<trkpt lat="50.8730442701649" lon="6.692246654609222">
				<ele>127.0</ele>
				<time>2011-02-15T16:53:44Z</time>
			</trkpt>
			<trkpt lat="50.87308218681401" lon="6.692252866746108">
				<ele>126.0</ele>
				<time>2011-02-15T16:53:45Z</time>
			</trkpt>
			<trkpt lat="50.87312154556898" lon="6.692257817704674">
				<ele>126.0</ele>
				<time>2011-02-15T16:53:46Z</time>
			</trkpt>
			<trkpt lat="50.87316090224539" lon="6.692262162334814">
				<ele>126.0</ele>
				<time>2011-02-15T16:53:47Z</time>
			</trkpt>
			<trkpt lat="50.87319979092491" lon="6.6922638669789185">
				<ele>126.0</ele>
				<time>2011-02-15T16:53:48Z</time>
			</trkpt>
			<trkpt lat="50.87323768334603" lon="6.692264233556473">
				<ele>125.0</ele>
				<time>2011-02-15T16:53:49Z</time>
			</trkpt>
			<trkpt lat="50.873269633642806" lon="6.692266011058078">
				<ele>125.0</ele>
				<time>2011-02-15T16:53:50Z</time>
			</trkpt>
			<trkpt lat="50.873301132545805" lon="6.692270125020503">
				<ele>125.0</ele>
				<time>2011-02-15T16:53:51Z</time>
			</trkpt>
			<trkpt lat="50.873332043485696" lon="6.692275806053481">
				<ele>125.0</ele>
				<time>2011-02-15T16:53:52Z</time>
			</trkpt>
			<trkpt lat="50.87336531678953" lon="6.692285217869136">
				<ele>125.0</ele>
				<time>2011-02-15T16:53:53Z</time>
			</trkpt>
			<trkpt lat="50.873402373885476" lon="6.692298519623707">
				<ele>125.0</ele>
				<time>2011-02-15T16:53:54Z</time>
			</trkpt>
			<trkpt lat="50.873443185629064" lon="6.692315857333018">
				<ele>125.0</ele>
				<time>2011-02-15T16:53:55Z</time>
			</trkpt>
			<trkpt lat="50.873487646458145" lon="6.6923324589116">
				<ele>125.0</ele>
				<time>2011-02-15T16:53:56Z</time>
			</trkpt>
			<trkpt lat="50.8735332530179" lon="6.69234685915826">
				<ele>125.0</ele>
				<time>2011-02-15T16:53:57Z</time>
			</trkpt>
			<trkpt lat="50.87358052791923" lon="6.692358202054349">
				<ele>125.0</ele>
				<time>2011-02-15T16:53:58Z</time>
			</trkpt>
			<trkpt lat="50.8736304022121" lon="6.692366929879879">
				<ele>125.0</ele>
				<time>2011-02-15T16:53:59Z</time>
			</trkpt>
			<trkpt lat="50.873684919307266" lon="6.692375725982449">
				<ele>125.0</ele>
				<time>2011-02-15T16:54:00Z</time>
			</trkpt>
			<trkpt lat="50.873741171070726" lon="6.6923816184214315">
				<ele>125.0</ele>
				<time>2011-02-15T16:54:01Z</time>
			</trkpt>
			<trkpt lat="50.87379786036291" lon="6.6923875616007145">
				<ele>125.0</ele>
				<time>2011-02-15T16:54:02Z</time>
			</trkpt>
			<trkpt lat="50.873858477601935" lon="6.692398344105416">
				<ele>124.0</ele>
				<time>2011-02-15T16:54:03Z</time>
			</trkpt>
			<trkpt lat="50.87392063454046" lon="6.692415098229039">
				<ele>124.0</ele>
				<time>2011-02-15T16:54:04Z</time>
			</trkpt>
			<trkpt lat="50.87398065353875" lon="6.692454200228827">
				<ele>124.0</ele>
				<time>2011-02-15T16:54:05Z</time>
			</trkpt>
			<trkpt lat="50.87404072971396" lon="6.692492581201002">
				<ele>124.0</ele>
				<time>2011-02-15T16:54:06Z</time>
			</trkpt>
			<trkpt lat="50.87409987302815" lon="6.692525907049889">
				<ele>124.0</ele>
				<time>2011-02-15T16:54:07Z</time>
			</trkpt>
			<trkpt lat="50.87415893021221" lon="6.6925564011852705">
				<ele>124.0</ele>
				<time>2011-02-15T16:54:08Z</time>
			</trkpt>
			<trkpt lat="50.87421538163559" lon="6.692584428848079">
				<ele>124.0</ele>
				<time>2011-02-15T16:54:09Z</time>
			</trkpt>
			<trkpt lat="50.87427031130228" lon="6.69260586830826">
				<ele>124.0</ele>
				<time>2011-02-15T16:54:10Z</time>
			</trkpt>
			<trkpt lat="50.87432375664942" lon="6.692625547254662">
				<ele>124.0</ele>
				<time>2011-02-15T16:54:11Z</time>
			</trkpt>
			<trkpt lat="50.87437773032175" lon="6.692643015869322">
				<ele>124.0</ele>
				<time>2011-02-15T16:54:12Z</time>
			</trkpt>
			<trkpt lat="50.87443026316387" lon="6.692660695299729">
				<ele>124.0</ele>
				<time>2011-02-15T16:54:13Z</time>
			</trkpt>
			<trkpt lat="50.87448214715124" lon="6.6926782276895285">
				<ele>124.0</ele>
				<time>2011-02-15T16:54:14Z</time>
			</trkpt>
			<trkpt lat="50.87453386907716" lon="6.692694237228359">
				<ele>124.0</ele>
				<time>2011-02-15T16:54:15Z</time>
			</trkpt>
			<trkpt lat="50.87458285992331" lon="6.692711662338636">
				<ele>124.0</ele>
				<time>2011-02-15T16:54:16Z</time>
			</trkpt>
			<trkpt lat="50.87463177967307" lon="6.692731709537095">
				<ele>124.0</ele>
				<time>2011-02-15T16:54:17Z</time>
			</trkpt>
			<trkpt lat="50.8746806370098" lon="6.692751528570574">
				<ele>124.0</ele>
				<time>2011-02-15T16:54:18Z</time>
			</trkpt>
			<trkpt lat="50.87473105984871" lon="6.692768732261638">
				<ele>124.0</ele>
				<time>2011-02-15T16:54:19Z</time>
			</trkpt>
			<trkpt lat="50.87478159720179" lon="6.6927862088644945">
				<ele>124.0</ele>
				<time>2011-02-15T16:54:20Z</time>
			</trkpt>
			<trkpt lat="50.87483294280806" lon="6.692804642500632">
				<ele>124.0</ele>
				<time>2011-02-15T16:54:21Z</time>
			</trkpt>
			<trkpt lat="50.874883023205506" lon="6.692823833374293">
				<ele>124.0</ele>
				<time>2011-02-15T16:54:22Z</time>
			</trkpt>
			<trkpt lat="50.87493304012455" lon="6.692843203288285">
				<ele>124.0</ele>
				<time>2011-02-15T16:54:23Z</time>
			</trkpt>
			<trkpt lat="50.87498291530422" lon="6.692862288086757">
				<ele>124.0</ele>
				<time>2011-02-15T16:54:24Z</time>
			</trkpt>
			<trkpt lat="50.875033179923655" lon="6.692881787656572">
				<ele>124.0</ele>
				<time>2011-02-15T16:54:25Z</time>
			</trkpt>
			<trkpt lat="50.875082506497506" lon="6.692902834867557">
				<ele>124.0</ele>
				<time>2011-02-15T16:54:26Z</time>
			</trkpt>
			<trkpt lat="50.875133951606955" lon="6.692923836096835">
				<ele>124.0</ele>
				<time>2011-02-15T16:54:27Z</time>
			</trkpt>
			<trkpt lat="50.87518634931919" lon="6.692943698348003">
				<ele>124.0</ele>
				<time>2011-02-15T16:54:28Z</time>
			</trkpt>
			<trkpt lat="50.875238542421265" lon="6.692962776351552">
				<ele>124.0</ele>
				<time>2011-02-15T16:54:29Z</time>
			</trkpt>
			<trkpt lat="50.87529046896701" lon="6.692979707137419">
				<ele>124.0</ele>
				<time>2011-02-15T16:54:30Z</time>
			</trkpt>
			<trkpt lat="50.87534095550202" lon="6.692995972777483">
				<ele>124.0</ele>
				<time>2011-02-15T16:54:31Z</time>
			</trkpt>
			<trkpt lat="50.87538825241295" lon="6.6930138767233895">
				<ele>124.0</ele>
				<time>2011-02-15T16:54:32Z</time>
			</trkpt>
			<trkpt lat="50.875435989931226" lon="6.693032099456088">
				<ele>124.0</ele>
				<time>2011-02-15T16:54:33Z</time>
			</trkpt>
			<trkpt lat="50.875483180862574" lon="6.693048348595833">
				<ele>124.0</ele>
				<time>2011-02-15T16:54:34Z</time>
			</trkpt>
			<trkpt lat="50.87553247471969" lon="6.693064683785016">
				<ele>124.0</ele>
				<time>2011-02-15T16:54:35Z</time>
			</trkpt>
			<trkpt lat="50.8755813436689" lon="6.693081623335758">
				<ele>124.0</ele>
				<time>2011-02-15T16:54:36Z</time>
			</trkpt>
			<trkpt lat="50.87563043954691" lon="6.69309846247483">
				<ele>124.0</ele>
				<time>2011-02-15T16:54:37Z</time>
			</trkpt>
			<trkpt lat="50.87568067103051" lon="6.693115565637653">
				<ele>123.0</ele>
				<time>2011-02-15T16:54:38Z</time>
			</trkpt>
			<trkpt lat="50.8757303416625" lon="6.6931297140359085">
				<ele>123.0</ele>
				<time>2011-02-15T16:54:39Z</time>
			</trkpt>
			<trkpt lat="50.875779926503604" lon="6.693137379859649">
				<ele>123.0</ele>
				<time>2011-02-15T16:54:40Z</time>
			</trkpt>
			<trkpt lat="50.875828413339114" lon="6.693142444895169">
				<ele>123.0</ele>
				<time>2011-02-15T16:54:41Z</time>
			</trkpt>
			<trkpt lat="50.875876479156446" lon="6.693148163404613">
				<ele>123.0</ele>
				<time>2011-02-15T16:54:42Z</time>
			</trkpt>
			<trkpt lat="50.87592340103021" lon="6.693159567596075">
				<ele>123.0</ele>
				<time>2011-02-15T16:54:43Z</time>
			</trkpt>
			<trkpt lat="50.87597146983313" lon="6.693172445129627">
				<ele>123.0</ele>
				<time>2011-02-15T16:54:44Z</time>
			</trkpt>
			<trkpt lat="50.87601969069906" lon="6.693187596376438">
				<ele>123.0</ele>
				<time>2011-02-15T16:54:45Z</time>
			</trkpt>
			<trkpt lat="50.876064996827175" lon="6.693203281151818">
				<ele>123.0</ele>
				<time>2011-02-15T16:54:46Z</time>
			</trkpt>
			<trkpt lat="50.87611095372944" lon="6.6932197952964865">
				<ele>123.0</ele>
				<time>2011-02-15T16:54:47Z</time>
			</trkpt>
			<trkpt lat="50.876155462822716" lon="6.693237500902358">
				<ele>123.0</ele>
				<time>2011-02-15T16:54:48Z</time>
			</trkpt>
			<trkpt lat="50.87620060791014" lon="6.693255076960503">
				<ele>123.0</ele>
				<time>2011-02-15T16:54:49Z</time>
			</trkpt>
			<trkpt lat="50.87624667051512" lon="6.693272718221901">
				<ele>124.0</ele>
				<time>2011-02-15T16:54:50Z</time>
			</trkpt>
			<trkpt lat="50.876293270127235" lon="6.693288571742839">
				<ele>124.0</ele>
				<time>2011-02-15T16:54:51Z</time>
			</trkpt>
			<trkpt lat="50.87634071764014" lon="6.693304689803512">
				<ele>124.0</ele>
				<time>2011-02-15T16:54:52Z</time>
			</trkpt>
			<trkpt lat="50.876388487036074" lon="6.693322725592182">
				<ele>124.0</ele>
				<time>2011-02-15T16:54:53Z</time>
			</trkpt>
			<trkpt lat="50.87643476825945" lon="6.693340457987844">
				<ele>124.0</ele>
				<time>2011-02-15T16:54:54Z</time>
			</trkpt>
			<trkpt lat="50.876483457891545" lon="6.693360947261481">
				<ele>124.0</ele>
				<time>2011-02-15T16:54:55Z</time>
			</trkpt>
			<trkpt lat="50.8765328383402" lon="6.6933787044861095">
				<ele>124.0</ele>
				<time>2011-02-15T16:54:56Z</time>
			</trkpt>
			<trkpt lat="50.876584130243444" lon="6.6933969684392665">
				<ele>124.0</ele>
				<time>2011-02-15T16:54:57Z</time>
			</trkpt>
			<trkpt lat="50.87663622069145" lon="6.6934198626349">
				<ele>124.0</ele>
				<time>2011-02-15T16:54:58Z</time>
			</trkpt>
			<trkpt lat="50.87669042847976" lon="6.693446073273909">
				<ele>124.0</ele>
				<time>2011-02-15T16:54:59Z</time>
			</trkpt>
			<trkpt lat="50.876746046157365" lon="6.69346856772058">
				<ele>124.0</ele>
				<time>2011-02-15T16:55:00Z</time>
			</trkpt>
			<trkpt lat="50.87679992672268" lon="6.6934895145487125">
				<ele>124.0</ele>
				<time>2011-02-15T16:55:01Z</time>
			</trkpt>
			<trkpt lat="50.87685461697206" lon="6.693507965176127">
				<ele>124.0</ele>
				<time>2011-02-15T16:55:02Z</time>
			</trkpt>
			<trkpt lat="50.87690818122883" lon="6.6935289120620665">
				<ele>124.0</ele>
				<time>2011-02-15T16:55:03Z</time>
			</trkpt>
			<trkpt lat="50.876961426731455" lon="6.6935507308726985">
				<ele>124.0</ele>
				<time>2011-02-15T16:55:04Z</time>
			</trkpt>
			<trkpt lat="50.877014681600095" lon="6.693572365890187">
				<ele>124.0</ele>
				<time>2011-02-15T16:55:05Z</time>
			</trkpt>
			<trkpt lat="50.87706706011625" lon="6.693593084943492">
				<ele>124.0</ele>
				<time>2011-02-15T16:55:06Z</time>
			</trkpt>
			<trkpt lat="50.87712010074689" lon="6.693611293915364">
				<ele>124.0</ele>
				<time>2011-02-15T16:55:07Z</time>
			</trkpt>
			<trkpt lat="50.87717261375947" lon="6.693629527000737">
				<ele>124.0</ele>
				<time>2011-02-15T16:55:08Z</time>
			</trkpt>
			<trkpt lat="50.877224570908005" lon="6.693647375574445">
				<ele>124.0</ele>
				<time>2011-02-15T16:55:09Z</time>
			</trkpt>
			<trkpt lat="50.877276626067186" lon="6.693666602650835">
				<ele>124.0</ele>
				<time>2011-02-15T16:55:10Z</time>
			</trkpt>
			<trkpt lat="50.8773279158451" lon="6.693685048614443">
				<ele>124.0</ele>
				<time>2011-02-15T16:55:11Z</time>
			</trkpt>
			<trkpt lat="50.87737993353292" lon="6.693703746625825">
				<ele>123.0</ele>
				<time>2011-02-15T16:55:12Z</time>
			</trkpt>
			<trkpt lat="50.87743100740941" lon="6.693722067715551">
				<ele>123.0</ele>
				<time>2011-02-15T16:55:13Z</time>
			</trkpt>
			<trkpt lat="50.87748018362222" lon="6.693741418350002">
				<ele>123.0</ele>
				<time>2011-02-15T16:55:14Z</time>
			</trkpt>
			<trkpt lat="50.87753351113059" lon="6.693760076122909">
				<ele>123.0</ele>
				<time>2011-02-15T16:55:15Z</time>
			</trkpt>
			<trkpt lat="50.87758767816843" lon="6.693779147601696">
				<ele>123.0</ele>
				<time>2011-02-15T16:55:16Z</time>
			</trkpt>
			<trkpt lat="50.87763786766882" lon="6.693796484338966">
				<ele>123.0</ele>
				<time>2011-02-15T16:55:17Z</time>
			</trkpt>
			<trkpt lat="50.87768844018551" lon="6.693814025637933">
				<ele>123.0</ele>
				<time>2011-02-15T16:55:18Z</time>
			</trkpt>
			<trkpt lat="50.877738134922176" lon="6.693832457610023">
				<ele>123.0</ele>
				<time>2011-02-15T16:55:19Z</time>
			</trkpt>
			<trkpt lat="50.877789202664054" lon="6.693854236125945">
				<ele>123.0</ele>
				<time>2011-02-15T16:55:20Z</time>
			</trkpt>
			<trkpt lat="50.8778380519643" lon="6.693872807106921">
				<ele>123.0</ele>
				<time>2011-02-15T16:55:21Z</time>
			</trkpt>
			<trkpt lat="50.877885001257695" lon="6.6938905460626685">
				<ele>123.0</ele>
				<time>2011-02-15T16:55:22Z</time>
			</trkpt>
			<trkpt lat="50.87793070323831" lon="6.693907249657976">
				<ele>123.0</ele>
				<time>2011-02-15T16:55:23Z</time>
			</trkpt>
			<trkpt lat="50.87797562830664" lon="6.69392362297718">
				<ele>123.0</ele>
				<time>2011-02-15T16:55:24Z</time>
			</trkpt>
			<trkpt lat="50.878021685018886" lon="6.693940129563515">
				<ele>123.0</ele>
				<time>2011-02-15T16:55:25Z</time>
			</trkpt>
			<trkpt lat="50.87806912722604" lon="6.6939569843632105">
				<ele>122.0</ele>
				<time>2011-02-15T16:55:26Z</time>
			</trkpt>
			<trkpt lat="50.87811597364306" lon="6.6939738433160505">
				<ele>122.0</ele>
				<time>2011-02-15T16:55:27Z</time>
			</trkpt>
			<trkpt lat="50.8781623178489" lon="6.6939906007893955">
				<ele>122.0</ele>
				<time>2011-02-15T16:55:28Z</time>
			</trkpt>
			<trkpt lat="50.878205512070274" lon="6.694007513908985">
				<ele>122.0</ele>
				<time>2011-02-15T16:55:29Z</time>
			</trkpt>
			<trkpt lat="50.878250515201614" lon="6.694023629676917">
				<ele>122.0</ele>
				<time>2011-02-15T16:55:30Z</time>
			</trkpt>
			<trkpt lat="50.87829536022874" lon="6.694039801567112">
				<ele>121.0</ele>
				<time>2011-02-15T16:55:31Z</time>
			</trkpt>
			<trkpt lat="50.87834040341179" lon="6.694056294110504">
				<ele>121.0</ele>
				<time>2011-02-15T16:55:32Z</time>
			</trkpt>
			<trkpt lat="50.87838826184711" lon="6.694071482477002">
				<ele>121.0</ele>
				<time>2011-02-15T16:55:33Z</time>
			</trkpt>
			<trkpt lat="50.8784355955205" lon="6.6940863936770985">
				<ele>121.0</ele>
				<time>2011-02-15T16:55:34Z</time>
			</trkpt>
			<trkpt lat="50.87848328635193" lon="6.694099210051613">
				<ele>121.0</ele>
				<time>2011-02-15T16:55:35Z</time>
			</trkpt>
			<trkpt lat="50.87853067931159" lon="6.694112126604781">
				<ele>121.0</ele>
				<time>2011-02-15T16:55:36Z</time>
			</trkpt>
			<trkpt lat="50.87857830473945" lon="6.694123718708092">
				<ele>121.0</ele>
				<time>2011-02-15T16:55:37Z</time>
			</trkpt>
			<trkpt lat="50.878625075416714" lon="6.694134291009154">
				<ele>121.0</ele>
				<time>2011-02-15T16:55:38Z</time>
			</trkpt>
			<trkpt lat="50.87867181391155" lon="6.694146390844206">
				<ele>121.0</ele>
				<time>2011-02-15T16:55:39Z</time>
			</trkpt>
			<trkpt lat="50.87871794555937" lon="6.694159464610244">
				<ele>121.0</ele>
				<time>2011-02-15T16:55:40Z</time>
			</trkpt>
			<trkpt lat="50.878763986968366" lon="6.694172715791831">
				<ele>121.0</ele>
				<time>2011-02-15T16:55:41Z</time>
			</trkpt>
			<trkpt lat="50.878809188432825" lon="6.694187809341931">
				<ele>121.0</ele>
				<time>2011-02-15T16:55:42Z</time>
			</trkpt>
			<trkpt lat="50.878853567107846" lon="6.694206707667294">
				<ele>121.0</ele>
				<time>2011-02-15T16:55:43Z</time>
			</trkpt>
			<trkpt lat="50.878898076072026" lon="6.694226181336693">
				<ele>121.0</ele>
				<time>2011-02-15T16:55:44Z</time>
			</trkpt>
			<trkpt lat="50.87894289417186" lon="6.694245867788943">
				<ele>121.0</ele>
				<time>2011-02-15T16:55:45Z</time>
			</trkpt>
			<trkpt lat="50.878993516183264" lon="6.694266639130108">
				<ele>120.0</ele>
				<time>2011-02-15T16:55:46Z</time>
			</trkpt>
			<trkpt lat="50.879047136861004" lon="6.694285719348872">
				<ele>120.0</ele>
				<time>2011-02-15T16:55:47Z</time>
			</trkpt>
			<trkpt lat="50.87910071407668" lon="6.6943063546875425">
				<ele>120.0</ele>
				<time>2011-02-15T16:55:48Z</time>
			</trkpt>
			<trkpt lat="50.8791555498924" lon="6.694327075088558">
				<ele>120.0</ele>
				<time>2011-02-15T16:55:49Z</time>
			</trkpt>
			<trkpt lat="50.87921262305129" lon="6.69434970355593">
				<ele>120.0</ele>
				<time>2011-02-15T16:55:50Z</time>
			</trkpt>
			<trkpt lat="50.879270489273075" lon="6.6943708027465885">
				<ele>120.0</ele>
				<time>2011-02-15T16:55:51Z</time>
			</trkpt>
			<trkpt lat="50.87932825603487" lon="6.694389150369914">
				<ele>120.0</ele>
				<time>2011-02-15T16:55:52Z</time>
			</trkpt>
			<trkpt lat="50.87938639956018" lon="6.694406861282657">
				<ele>119.0</ele>
				<time>2011-02-15T16:55:53Z</time>
			</trkpt>
			<trkpt lat="50.87944376367406" lon="6.694427283228602">
				<ele>119.0</ele>
				<time>2011-02-15T16:55:54Z</time>
			</trkpt>
			<trkpt lat="50.87950248054999" lon="6.694447313420294">
				<ele>119.0</ele>
				<time>2011-02-15T16:55:55Z</time>
			</trkpt>
			<trkpt lat="50.87956191445922" lon="6.694468808528517">
				<ele>120.0</ele>
				<time>2011-02-15T16:55:56Z</time>
			</trkpt>
			<trkpt lat="50.879622338590664" lon="6.694490401348292">
				<ele>119.0</ele>
				<time>2011-02-15T16:55:57Z</time>
			</trkpt>
			<trkpt lat="50.879681903388274" lon="6.694514447529989">
				<ele>120.0</ele>
				<time>2011-02-15T16:55:58Z</time>
			</trkpt>
			<trkpt lat="50.87974436205897" lon="6.694537798545711">
				<ele>119.0</ele>
				<time>2011-02-15T16:55:59Z</time>
			</trkpt>
			<trkpt lat="50.87980492269218" lon="6.694559747829943">
				<ele>119.0</ele>
				<time>2011-02-15T16:56:00Z</time>
			</trkpt>
			<trkpt lat="50.879864904795014" lon="6.6945780142056055">
				<ele>119.0</ele>
				<time>2011-02-15T16:56:01Z</time>
			</trkpt>
			<trkpt lat="50.87992296600843" lon="6.694595362466221">
				<ele>119.0</ele>
				<time>2011-02-15T16:56:02Z</time>
			</trkpt>
			<trkpt lat="50.87997794287096" lon="6.694611760374453">
				<ele>119.0</ele>
				<time>2011-02-15T16:56:03Z</time>
			</trkpt>
			<trkpt lat="50.88003117407559" lon="6.694627876689419">
				<ele>119.0</ele>
				<time>2011-02-15T16:56:04Z</time>
			</trkpt>
			<trkpt lat="50.88008480369021" lon="6.694646070105126">
				<ele>119.0</ele>
				<time>2011-02-15T16:56:05Z</time>
			</trkpt>
			<trkpt lat="50.88013889226744" lon="6.6946645826782705">
				<ele>119.0</ele>
				<time>2011-02-15T16:56:06Z</time>
			</trkpt>
			<trkpt lat="50.88019075193516" lon="6.694682770976747">
				<ele>119.0</ele>
				<time>2011-02-15T16:56:07Z</time>
			</trkpt>
			<trkpt lat="50.88023854512194" lon="6.694702077327478">
				<ele>119.0</ele>
				<time>2011-02-15T16:56:08Z</time>
			</trkpt>
			<trkpt lat="50.88028430108634" lon="6.694723323963026">
				<ele>120.0</ele>
				<time>2011-02-15T16:56:09Z</time>
			</trkpt>
			<trkpt lat="50.88033003933666" lon="6.694743226451024">
				<ele>120.0</ele>
				<time>2011-02-15T16:56:10Z</time>
			</trkpt>
			<trkpt lat="50.880377204737236" lon="6.694763722023998">
				<ele>120.0</ele>
				<time>2011-02-15T16:56:11Z</time>
			</trkpt>
			<trkpt lat="50.88042533811881" lon="6.694783987119919">
				<ele>120.0</ele>
				<time>2011-02-15T16:56:12Z</time>
			</trkpt>
			<trkpt lat="50.88047385452987" lon="6.6948020150219305">
				<ele>121.0</ele>
				<time>2011-02-15T16:56:13Z</time>
			</trkpt>
			<trkpt lat="50.88052156944773" lon="6.69481786009255">
				<ele>121.0</ele>
				<time>2011-02-15T16:56:14Z</time>
			</trkpt>
			<trkpt lat="50.880568491311585" lon="6.694830391619959">
				<ele>121.0</ele>
				<time>2011-02-15T16:56:15Z</time>
			</trkpt>
			<trkpt lat="50.88061491965907" lon="6.6948418514859185">
				<ele>121.0</ele>
				<time>2011-02-15T16:56:16Z</time>
			</trkpt>
			<trkpt lat="50.88065885017356" lon="6.694849988770506">
				<ele>121.0</ele>
				<time>2011-02-15T16:56:17Z</time>
			</trkpt>
			<trkpt lat="50.88070498676889" lon="6.694858526862141">
				<ele>122.0</ele>
				<time>2011-02-15T16:56:18Z</time>
			</trkpt>
			<trkpt lat="50.880756972154884" lon="6.694865626987934">
				<ele>122.0</ele>
				<time>2011-02-15T16:56:19Z</time>
			</trkpt>
			<trkpt lat="50.88080891094577" lon="6.694868910463912">
				<ele>122.0</ele>
				<time>2011-02-15T16:56:20Z</time>
			</trkpt>
			<trkpt lat="50.880860803120946" lon="6.694868159019501">
				<ele>122.0</ele>
				<time>2011-02-15T16:56:21Z</time>
			</trkpt>
			<trkpt lat="50.88091355505443" lon="6.694867748277526">
				<ele>122.0</ele>
				<time>2011-02-15T16:56:22Z</time>
			</trkpt>
			<trkpt lat="50.88096497546285" lon="6.694867274687715">
				<ele>122.0</ele>
				<time>2011-02-15T16:56:23Z</time>
			</trkpt>
			<trkpt lat="50.88101678961917" lon="6.694867910871592">
				<ele>121.0</ele>
				<time>2011-02-15T16:56:24Z</time>
			</trkpt>
			<trkpt lat="50.88106757143051" lon="6.694868195691246">
				<ele>121.0</ele>
				<time>2011-02-15T16:56:25Z</time>
			</trkpt>
			<trkpt lat="50.88111919973595" lon="6.694868824918229">
				<ele>121.0</ele>
				<time>2011-02-15T16:56:26Z</time>
			</trkpt>
			<trkpt lat="50.88117405992196" lon="6.694871639895838">
				<ele>121.0</ele>
				<time>2011-02-15T16:56:27Z</time>
			</trkpt>
			<trkpt lat="50.881230080846954" lon="6.694874285058437">
				<ele>121.0</ele>
				<time>2011-02-15T16:56:28Z</time>
			</trkpt>
			<trkpt lat="50.88128643594801" lon="6.694878037883332">
				<ele>120.0</ele>
				<time>2011-02-15T16:56:29Z</time>
			</trkpt>
			<trkpt lat="50.88134063475404" lon="6.694885311503537">
				<ele>120.0</ele>
				<time>2011-02-15T16:56:30Z</time>
			</trkpt>
			<trkpt lat="50.8813940761528" lon="6.694892849863642">
				<ele>120.0</ele>
				<time>2011-02-15T16:56:31Z</time>
			</trkpt>
			<trkpt lat="50.88144420981629" lon="6.694902553432971">
				<ele>120.0</ele>
				<time>2011-02-15T16:56:32Z</time>
			</trkpt>
			<trkpt lat="50.881480310488314" lon="6.694909706440496">
				<ele>120.0</ele>
				<time>2011-02-15T16:56:33Z</time>
			</trkpt>
			<trkpt lat="50.88151783439358" lon="6.694918584872164">
				<ele>120.0</ele>
				<time>2011-02-15T16:56:34Z</time>
			</trkpt>
			<trkpt lat="50.88156023858983" lon="6.694928774636673">
				<ele>119.0</ele>
				<time>2011-02-15T16:56:35Z</time>
			</trkpt>
			<trkpt lat="50.881604087307316" lon="6.694940432819375">
				<ele>119.0</ele>
				<time>2011-02-15T16:56:36Z</time>
			</trkpt>
			<trkpt lat="50.8816472884391" lon="6.694951858822205">
				<ele>119.0</ele>
				<time>2011-02-15T16:56:37Z</time>
			</trkpt>
			<trkpt lat="50.881691011800726" lon="6.69496241025291">
				<ele>119.0</ele>
				<time>2011-02-15T16:56:38Z</time>
			</trkpt>
			<trkpt lat="50.88173225681359" lon="6.69497508401715">
				<ele>118.0</ele>
				<time>2011-02-15T16:56:39Z</time>
			</trkpt>
			<trkpt lat="50.881763437739025" lon="6.695009335506187">
				<ele>118.0</ele>
				<time>2011-02-15T16:56:40Z</time>
			</trkpt>
			<trkpt lat="50.88178766440827" lon="6.695054399140975">
				<ele>118.0</ele>
				<time>2011-02-15T16:56:41Z</time>
			</trkpt>
			<trkpt lat="50.88181487204239" lon="6.695104925940055">
				<ele>118.0</ele>
				<time>2011-02-15T16:56:42Z</time>
			</trkpt>
			<trkpt lat="50.88184303591166" lon="6.695158887053904">
				<ele>119.0</ele>
				<time>2011-02-15T16:56:43Z</time>
			</trkpt>
			<trkpt lat="50.88187274672456" lon="6.69521205818443">
				<ele>119.0</ele>
				<time>2011-02-15T16:56:44Z</time>
			</trkpt>
			<trkpt lat="50.88190483750401" lon="6.695263236261109">
				<ele>119.0</ele>
				<time>2011-02-15T16:56:45Z</time>
			</trkpt>
			<trkpt lat="50.881943209514006" lon="6.695301859831256">
				<ele>120.0</ele>
				<time>2011-02-15T16:56:46Z</time>
			</trkpt>
			<trkpt lat="50.881984617836174" lon="6.695339098951423">
				<ele>120.0</ele>
				<time>2011-02-15T16:56:47Z</time>
			</trkpt>
			<trkpt lat="50.88203563366347" lon="6.695349354914226">
				<ele>120.0</ele>
				<time>2011-02-15T16:56:48Z</time>
			</trkpt>
			<trkpt lat="50.88208736420087" lon="6.695337782036032">
				<ele>120.0</ele>
				<time>2011-02-15T16:56:49Z</time>
			</trkpt>
			<trkpt lat="50.88214361740707" lon="6.695323917110583">
				<ele>120.0</ele>
				<time>2011-02-15T16:56:50Z</time>
			</trkpt>
			<trkpt lat="50.88220350340772" lon="6.695327049044978">
				<ele>121.0</ele>
				<time>2011-02-15T16:56:51Z</time>
			</trkpt>
			<trkpt lat="50.88226397475289" lon="6.695336565566178">
				<ele>121.0</ele>
				<time>2011-02-15T16:56:52Z</time>
			</trkpt>
			<trkpt lat="50.88232389241774" lon="6.695352869718289">
				<ele>121.0</ele>
				<time>2011-02-15T16:56:53Z</time>
			</trkpt>
			<trkpt lat="50.8823778526157" lon="6.695389816057718">
				<ele>121.0</ele>
				<time>2011-02-15T16:56:54Z</time>
			</trkpt>
			<trkpt lat="50.88242939549117" lon="6.695425197290276">
				<ele>121.0</ele>
				<time>2011-02-15T16:56:55Z</time>
			</trkpt>
			<trkpt lat="50.88248159640214" lon="6.695457484179596">
				<ele>122.0</ele>
				<time>2011-02-15T16:56:56Z</time>
			</trkpt>
			<trkpt lat="50.8825336644541" lon="6.695486088031629">
				<ele>122.0</ele>
				<time>2011-02-15T16:56:57Z</time>
			</trkpt>
			<trkpt lat="50.88258402140686" lon="6.695510169766733">
				<ele>122.0</ele>
				<time>2011-02-15T16:56:58Z</time>
			</trkpt>
			<trkpt lat="50.8826337271978" lon="6.695529199629508">
				<ele>122.0</ele>
				<time>2011-02-15T16:56:59Z</time>
			</trkpt>
			<trkpt lat="50.88268378727476" lon="6.6955455437988665">
				<ele>122.0</ele>
				<time>2011-02-15T16:57:00Z</time>
			</trkpt>
			<trkpt lat="50.88273441155875" lon="6.695559392799092">
				<ele>122.0</ele>
				<time>2011-02-15T16:57:01Z</time>
			</trkpt>
			<trkpt lat="50.88278614819513" lon="6.695570974500078">
				<ele>122.0</ele>
				<time>2011-02-15T16:57:02Z</time>
			</trkpt>
			<trkpt lat="50.88283783282312" lon="6.695585424865223">
				<ele>122.0</ele>
				<time>2011-02-15T16:57:03Z</time>
			</trkpt>
			<trkpt lat="50.88288937141811" lon="6.695599827464299">
				<ele>122.0</ele>
				<time>2011-02-15T16:57:04Z</time>
			</trkpt>
			<trkpt lat="50.8829407459987" lon="6.69561526510996">
				<ele>122.0</ele>
				<time>2011-02-15T16:57:05Z</time>
			</trkpt>
			<trkpt lat="50.88299456460511" lon="6.695628394916119">
				<ele>122.0</ele>
				<time>2011-02-15T16:57:06Z</time>
			</trkpt>
			<trkpt lat="50.8830470750987" lon="6.695642096786889">
				<ele>122.0</ele>
				<time>2011-02-15T16:57:07Z</time>
			</trkpt>
			<trkpt lat="50.88309973093424" lon="6.695651845792967">
				<ele>121.0</ele>
				<time>2011-02-15T16:57:08Z</time>
			</trkpt>
			<trkpt lat="50.88315210109775" lon="6.695658224441076">
				<ele>121.0</ele>
				<time>2011-02-15T16:57:09Z</time>
			</trkpt>
			<trkpt lat="50.88320370869534" lon="6.695660623594324">
				<ele>121.0</ele>
				<time>2011-02-15T16:57:10Z</time>
			</trkpt>
			<trkpt lat="50.883253866993826" lon="6.6956589615777276">
				<ele>121.0</ele>
				<time>2011-02-15T16:57:11Z</time>
			</trkpt>
			<trkpt lat="50.88330378505882" lon="6.695652874897235">
				<ele>121.0</ele>
				<time>2011-02-15T16:57:12Z</time>
			</trkpt>
			<trkpt lat="50.88335194424376" lon="6.695642619578323">
				<ele>120.0</ele>
				<time>2011-02-15T16:57:13Z</time>
			</trkpt>
			<trkpt lat="50.883399376735866" lon="6.695630071957674">
				<ele>120.0</ele>
				<time>2011-02-15T16:57:14Z</time>
			</trkpt>
			<trkpt lat="50.88344659990327" lon="6.695615584532676">
				<ele>120.0</ele>
				<time>2011-02-15T16:57:15Z</time>
			</trkpt>
			<trkpt lat="50.883491336119036" lon="6.695600486176498">
				<ele>120.0</ele>
				<time>2011-02-15T16:57:16Z</time>
			</trkpt>
			<trkpt lat="50.88353595455618" lon="6.6955860437636545">
				<ele>119.0</ele>
				<time>2011-02-15T16:57:17Z</time>
			</trkpt>
			<trkpt lat="50.88358132020909" lon="6.695571728556755">
				<ele>119.0</ele>
				<time>2011-02-15T16:57:18Z</time>
			</trkpt>
			<trkpt lat="50.88362694126948" lon="6.695555804802286">
				<ele>119.0</ele>
				<time>2011-02-15T16:57:19Z</time>
			</trkpt>
			<trkpt lat="50.8836730421577" lon="6.695540915591977">
				<ele>119.0</ele>
				<time>2011-02-15T16:57:20Z</time>
			</trkpt>
			<trkpt lat="50.88371811662966" lon="6.695528818485">
				<ele>118.0</ele>
				<time>2011-02-15T16:57:21Z</time>
			</trkpt>
			<trkpt lat="50.88376071406221" lon="6.695517746368784">
				<ele>118.0</ele>
				<time>2011-02-15T16:57:22Z</time>
			</trkpt>
			<trkpt lat="50.88380298451561" lon="6.695507377245489">
				<ele>118.0</ele>
				<time>2011-02-15T16:57:23Z</time>
			</trkpt>
			<trkpt lat="50.883846460530755" lon="6.695496752048496">
				<ele>118.0</ele>
				<time>2011-02-15T16:57:24Z</time>
			</trkpt>
			<trkpt lat="50.88389111702935" lon="6.695485753475807">
				<ele>118.0</ele>
				<time>2011-02-15T16:57:25Z</time>
			</trkpt>
			<trkpt lat="50.883936148083194" lon="6.69547504020799">
				<ele>118.0</ele>
				<time>2011-02-15T16:57:26Z</time>
			</trkpt>
			<trkpt lat="50.883982673309035" lon="6.695463660144542">
				<ele>118.0</ele>
				<time>2011-02-15T16:57:27Z</time>
			</trkpt>
			<trkpt lat="50.88403089413192" lon="6.695451492775473">
				<ele>118.0</ele>
				<time>2011-02-15T16:57:28Z</time>
			</trkpt>
			<trkpt lat="50.88407897707849" lon="6.695437642120507">
				<ele>118.0</ele>
				<time>2011-02-15T16:57:29Z</time>
			</trkpt>
			<trkpt lat="50.88412693640375" lon="6.695423855440939">
				<ele>118.0</ele>
				<time>2011-02-15T16:57:30Z</time>
			</trkpt>
			<trkpt lat="50.88417453187565" lon="6.695410231830267">
				<ele>118.0</ele>
				<time>2011-02-15T16:57:31Z</time>
			</trkpt>
			<trkpt lat="50.884222040850894" lon="6.69539651388892">
				<ele>118.0</ele>
				<time>2011-02-15T16:57:32Z</time>
			</trkpt>
			<trkpt lat="50.88427091822252" lon="6.695382634596212">
				<ele>118.0</ele>
				<time>2011-02-15T16:57:33Z</time>
			</trkpt>
			<trkpt lat="50.88431993159683" lon="6.695368210349026">
				<ele>118.0</ele>
				<time>2011-02-15T16:57:34Z</time>
			</trkpt>
			<trkpt lat="50.88436858597978" lon="6.695354583800218">
				<ele>118.0</ele>
				<time>2011-02-15T16:57:35Z</time>
			</trkpt>
			<trkpt lat="50.88441872047345" lon="6.695340974043654">
				<ele>119.0</ele>
				<time>2011-02-15T16:57:36Z</time>
			</trkpt>
			<trkpt lat="50.88446917244358" lon="6.695328609687325">
				<ele>119.0</ele>
				<time>2011-02-15T16:57:37Z</time>
			</trkpt>
			<trkpt lat="50.8845206828697" lon="6.695316657149569">
				<ele>119.0</ele>
				<time>2011-02-15T16:57:38Z</time>
			</trkpt>
			<trkpt lat="50.884573304002956" lon="6.695306769335849">
				<ele>119.0</ele>
				<time>2011-02-15T16:57:39Z</time>
			</trkpt>
			<trkpt lat="50.884626470649046" lon="6.695296911307692">
				<ele>118.0</ele>
				<time>2011-02-15T16:57:40Z</time>
			</trkpt>
			<trkpt lat="50.884680428397125" lon="6.695284530568846">
				<ele>118.0</ele>
				<time>2011-02-15T16:57:41Z</time>
			</trkpt>
			<trkpt lat="50.88473724658666" lon="6.695270116069115">
				<ele>118.0</ele>
				<time>2011-02-15T16:57:42Z</time>
			</trkpt>
			<trkpt lat="50.88479340393392" lon="6.695255271104652">
				<ele>118.0</ele>
				<time>2011-02-15T16:57:43Z</time>
			</trkpt>
			<trkpt lat="50.88485089078656" lon="6.695240815219309">
				<ele>118.0</ele>
				<time>2011-02-15T16:57:44Z</time>
			</trkpt>
			<trkpt lat="50.88490679764242" lon="6.6952232018581705">
				<ele>118.0</ele>
				<time>2011-02-15T16:57:45Z</time>
			</trkpt>
			<trkpt lat="50.88496234442933" lon="6.695204881335812">
				<ele>118.0</ele>
				<time>2011-02-15T16:57:46Z</time>
			</trkpt>
			<trkpt lat="50.88501751485935" lon="6.695186922179445">
				<ele>118.0</ele>
				<time>2011-02-15T16:57:47Z</time>
			</trkpt>
			<trkpt lat="50.885072091881284" lon="6.695167468381136">
				<ele>118.0</ele>
				<time>2011-02-15T16:57:48Z</time>
			</trkpt>
			<trkpt lat="50.88512649563112" lon="6.695146659050328">
				<ele>118.0</ele>
				<time>2011-02-15T16:57:49Z</time>
			</trkpt>
			<trkpt lat="50.8851812054236" lon="6.6951252064076785">
				<ele>118.0</ele>
				<time>2011-02-15T16:57:50Z</time>
			</trkpt>
			<trkpt lat="50.885235162821665" lon="6.695103376247227">
				<ele>118.0</ele>
				<time>2011-02-15T16:57:51Z</time>
			</trkpt>
			<trkpt lat="50.885286263404424" lon="6.69508436546282">
				<ele>118.0</ele>
				<time>2011-02-15T16:57:52Z</time>
			</trkpt>
			<trkpt lat="50.88533723781454" lon="6.695067785088342">
				<ele>118.0</ele>
				<time>2011-02-15T16:57:53Z</time>
			</trkpt>
			<trkpt lat="50.885387210570684" lon="6.695052078878271">
				<ele>118.0</ele>
				<time>2011-02-15T16:57:54Z</time>
			</trkpt>
			<trkpt lat="50.885438197313704" lon="6.695036506794541">
				<ele>118.0</ele>
				<time>2011-02-15T16:57:55Z</time>
			</trkpt>
			<trkpt lat="50.88548912028069" lon="6.695019971706398">
				<ele>118.0</ele>
				<time>2011-02-15T16:57:56Z</time>
			</trkpt>
			<trkpt lat="50.88554008121776" lon="6.695004006838236">
				<ele>118.0</ele>
				<time>2011-02-15T16:57:57Z</time>
			</trkpt>
			<trkpt lat="50.885591298735434" lon="6.694988461841152">
				<ele>118.0</ele>
				<time>2011-02-15T16:57:58Z</time>
			</trkpt>
			<trkpt lat="50.885643915845826" lon="6.694972434789425">
				<ele>118.0</ele>
				<time>2011-02-15T16:57:59Z</time>
			</trkpt>
			<trkpt lat="50.8856943449933" lon="6.694959249661961">
				<ele>118.0</ele>
				<time>2011-02-15T16:58:00Z</time>
			</trkpt>
			<trkpt lat="50.8857453728753" lon="6.6949463917763605">
				<ele>118.0</ele>
				<time>2011-02-15T16:58:01Z</time>
			</trkpt>
			<trkpt lat="50.88579680522233" lon="6.694933408043812">
				<ele>118.0</ele>
				<time>2011-02-15T16:58:02Z</time>
			</trkpt>
			<trkpt lat="50.885848418145564" lon="6.69492051699194">
				<ele>119.0</ele>
				<time>2011-02-15T16:58:03Z</time>
			</trkpt>
			<trkpt lat="50.885900042901746" lon="6.694907176683484">
				<ele>119.0</ele>
				<time>2011-02-15T16:58:04Z</time>
			</trkpt>
			<trkpt lat="50.885952588163306" lon="6.694893960825321">
				<ele>119.0</ele>
				<time>2011-02-15T16:58:05Z</time>
			</trkpt>
			<trkpt lat="50.88600549226236" lon="6.694880207233509">
				<ele>119.0</ele>
				<time>2011-02-15T16:58:06Z</time>
			</trkpt>
			<trkpt lat="50.88605736299748" lon="6.694866355280694">
				<ele>119.0</ele>
				<time>2011-02-15T16:58:07Z</time>
			</trkpt>
			<trkpt lat="50.886108423412274" lon="6.694850920620855">
				<ele>119.0</ele>
				<time>2011-02-15T16:58:08Z</time>
			</trkpt>
			<trkpt lat="50.88615847091751" lon="6.694835405446377">
				<ele>119.0</ele>
				<time>2011-02-15T16:58:09Z</time>
			</trkpt>
			<trkpt lat="50.8862082591608" lon="6.694820030392742">
				<ele>119.0</ele>
				<time>2011-02-15T16:58:10Z</time>
			</trkpt>
			<trkpt lat="50.88625826870672" lon="6.694804546089828">
				<ele>119.0</ele>
				<time>2011-02-15T16:58:11Z</time>
			</trkpt>
			<trkpt lat="50.886308988501426" lon="6.6947877814414225">
				<ele>119.0</ele>
				<time>2011-02-15T16:58:12Z</time>
			</trkpt>
			<trkpt lat="50.88636069220492" lon="6.694771241498587">
				<ele>119.0</ele>
				<time>2011-02-15T16:58:13Z</time>
			</trkpt>
			<trkpt lat="50.88641306078212" lon="6.694754608662845">
				<ele>119.0</ele>
				<time>2011-02-15T16:58:14Z</time>
			</trkpt>
			<trkpt lat="50.88646422685643" lon="6.694737898510206">
				<ele>119.0</ele>
				<time>2011-02-15T16:58:15Z</time>
			</trkpt>
			<trkpt lat="50.886513291518824" lon="6.694718948009458">
				<ele>119.0</ele>
				<time>2011-02-15T16:58:16Z</time>
			</trkpt>
			<trkpt lat="50.88656285495073" lon="6.694700084602408">
				<ele>119.0</ele>
				<time>2011-02-15T16:58:17Z</time>
			</trkpt>
			<trkpt lat="50.88661170042139" lon="6.694681366544428">
				<ele>119.0</ele>
				<time>2011-02-15T16:58:18Z</time>
			</trkpt>
			<trkpt lat="50.88666120652048" lon="6.694658725732245">
				<ele>119.0</ele>
				<time>2011-02-15T16:58:19Z</time>
			</trkpt>
			<trkpt lat="50.88671034669515" lon="6.694635908471205">
				<ele>119.0</ele>
				<time>2011-02-15T16:58:20Z</time>
			</trkpt>
			<trkpt lat="50.88675828839733" lon="6.69461442373162">
				<ele>119.0</ele>
				<time>2011-02-15T16:58:21Z</time>
			</trkpt>
			<trkpt lat="50.886807737057325" lon="6.694597730954189">
				<ele>119.0</ele>
				<time>2011-02-15T16:58:22Z</time>
			</trkpt>
			<trkpt lat="50.88685906462298" lon="6.694585855030994">
				<ele>119.0</ele>
				<time>2011-02-15T16:58:23Z</time>
			</trkpt>
			<trkpt lat="50.886910076580975" lon="6.694596126882464">
				<ele>119.0</ele>
				<time>2011-02-15T16:58:24Z</time>
			</trkpt>
			<trkpt lat="50.886960171602254" lon="6.694611481466809">
				<ele>119.0</ele>
				<time>2011-02-15T16:58:25Z</time>
			</trkpt>
			<trkpt lat="50.887005686199466" lon="6.694646665140152">
				<ele>119.0</ele>
				<time>2011-02-15T16:58:26Z</time>
			</trkpt>
			<trkpt lat="50.887048979341714" lon="6.694686434895752">
				<ele>119.0</ele>
				<time>2011-02-15T16:58:27Z</time>
			</trkpt>
			<trkpt lat="50.8870895376054" lon="6.694729120417965">
				<ele>119.0</ele>
				<time>2011-02-15T16:58:28Z</time>
			</trkpt>
			<trkpt lat="50.887122270107646" lon="6.694787562174904">
				<ele>119.0</ele>
				<time>2011-02-15T16:58:29Z</time>
			</trkpt>
			<trkpt lat="50.887152757555164" lon="6.694849989893619">
				<ele>119.0</ele>
				<time>2011-02-15T16:58:30Z</time>
			</trkpt>
			<trkpt lat="50.887183515399634" lon="6.694914054405867">
				<ele>119.0</ele>
				<time>2011-02-15T16:58:31Z</time>
			</trkpt>
			<trkpt lat="50.887214358451644" lon="6.694976984402814">
				<ele>119.0</ele>
				<time>2011-02-15T16:58:32Z</time>
			</trkpt>
			<trkpt lat="50.88724353332902" lon="6.695040580471499">
				<ele>119.0</ele>
				<time>2011-02-15T16:58:33Z</time>
			</trkpt>
			<trkpt lat="50.88727382619311" lon="6.695104580801408">
				<ele>118.0</ele>
				<time>2011-02-15T16:58:34Z</time>
			</trkpt>
			<trkpt lat="50.88730304302527" lon="6.695169214067879">
				<ele>118.0</ele>
				<time>2011-02-15T16:58:35Z</time>
			</trkpt>
			<trkpt lat="50.88733294879517" lon="6.6952332323242585">
				<ele>118.0</ele>
				<time>2011-02-15T16:58:36Z</time>
			</trkpt>
			<trkpt lat="50.887362454839064" lon="6.69529598376936">
				<ele>118.0</ele>
				<time>2011-02-15T16:58:37Z</time>
			</trkpt>
			<trkpt lat="50.887391871025" lon="6.695358954888089">
				<ele>118.0</ele>
				<time>2011-02-15T16:58:38Z</time>
			</trkpt>
			<trkpt lat="50.88742132497752" lon="6.695423065161512">
				<ele>118.0</ele>
				<time>2011-02-15T16:58:39Z</time>
			</trkpt>
			<trkpt lat="50.8874509170525" lon="6.695488905104874">
				<ele>118.0</ele>
				<time>2011-02-15T16:58:40Z</time>
			</trkpt>
			<trkpt lat="50.887480169739874" lon="6.695553255973228">
				<ele>118.0</ele>
				<time>2011-02-15T16:58:41Z</time>
			</trkpt>
			<trkpt lat="50.88750866131838" lon="6.695620498194717">
				<ele>118.0</ele>
				<time>2011-02-15T16:58:42Z</time>
			</trkpt>
			<trkpt lat="50.88753696269637" lon="6.695686783351334">
				<ele>118.0</ele>
				<time>2011-02-15T16:58:43Z</time>
			</trkpt>
			<trkpt lat="50.88756549324529" lon="6.6957535849418965">
				<ele>119.0</ele>
				<time>2011-02-15T16:58:44Z</time>
			</trkpt>
			<trkpt lat="50.88759434870666" lon="6.695820134413534">
				<ele>119.0</ele>
				<time>2011-02-15T16:58:45Z</time>
			</trkpt>
			<trkpt lat="50.88762366131867" lon="6.695886795882373">
				<ele>119.0</ele>
				<time>2011-02-15T16:58:46Z</time>
			</trkpt>
			<trkpt lat="50.887652709381534" lon="6.69595266704424">
				<ele>119.0</ele>
				<time>2011-02-15T16:58:47Z</time>
			</trkpt>
			<trkpt lat="50.88768188778429" lon="6.696017408882058">
				<ele>119.0</ele>
				<time>2011-02-15T16:58:48Z</time>
			</trkpt>
			<trkpt lat="50.88771144344477" lon="6.696082260720828">
				<ele>119.0</ele>
				<time>2011-02-15T16:58:49Z</time>
			</trkpt>
			<trkpt lat="50.88774057937292" lon="6.696148094123935">
				<ele>120.0</ele>
				<time>2011-02-15T16:58:50Z</time>
			</trkpt>
			<trkpt lat="50.88777061104062" lon="6.69621195565233">
				<ele>120.0</ele>
				<time>2011-02-15T16:58:51Z</time>
			</trkpt>
			<trkpt lat="50.887800749757325" lon="6.696275428346946">
				<ele>120.0</ele>
				<time>2011-02-15T16:58:52Z</time>
			</trkpt>
			<trkpt lat="50.88783107705234" lon="6.696339564460455">
				<ele>120.0</ele>
				<time>2011-02-15T16:58:53Z</time>
			</trkpt>
			<trkpt lat="50.887861465775245" lon="6.696404099756438">
				<ele>120.0</ele>
				<time>2011-02-15T16:58:54Z</time>
			</trkpt>
			<trkpt lat="50.88789209492557" lon="6.696468790251251">
				<ele>120.0</ele>
				<time>2011-02-15T16:58:55Z</time>
			</trkpt>
			<trkpt lat="50.88792195652032" lon="6.6965326522888065">
				<ele>119.0</ele>
				<time>2011-02-15T16:58:56Z</time>
			</trkpt>
			<trkpt lat="50.88795198630991" lon="6.696596524725882">
				<ele>119.0</ele>
				<time>2011-02-15T16:58:57Z</time>
			</trkpt>
			<trkpt lat="50.88798168744262" lon="6.696660061318123">
				<ele>119.0</ele>
				<time>2011-02-15T16:58:58Z</time>
			</trkpt>
			<trkpt lat="50.88801103199297" lon="6.696723210651173">
				<ele>119.0</ele>
				<time>2011-02-15T16:58:59Z</time>
			</trkpt>
			<trkpt lat="50.8880401134901" lon="6.696785031463527">
				<ele>119.0</ele>
				<time>2011-02-15T16:59:00Z</time>
			</trkpt>
			<trkpt lat="50.88806942026378" lon="6.696843069924933">
				<ele>119.0</ele>
				<time>2011-02-15T16:59:01Z</time>
			</trkpt>
			<trkpt lat="50.888098449091125" lon="6.696900601706057">
				<ele>119.0</ele>
				<time>2011-02-15T16:59:02Z</time>
			</trkpt>
			<trkpt lat="50.88812653725738" lon="6.696958932126851">
				<ele>119.0</ele>
				<time>2011-02-15T16:59:03Z</time>
			</trkpt>
			<trkpt lat="50.888154059415086" lon="6.697015860592408">
				<ele>119.0</ele>
				<time>2011-02-15T16:59:04Z</time>
			</trkpt>
			<trkpt lat="50.88818119059917" lon="6.697071922176867">
				<ele>119.0</ele>
				<time>2011-02-15T16:59:05Z</time>
			</trkpt>
			<trkpt lat="50.88820821126283" lon="6.697128293598154">
				<ele>119.0</ele>
				<time>2011-02-15T16:59:06Z</time>
			</trkpt>
			<trkpt lat="50.88823526484563" lon="6.697184793472278">
				<ele>119.0</ele>
				<time>2011-02-15T16:59:07Z</time>
			</trkpt>
			<trkpt lat="50.88826260079311" lon="6.69724171078545">
				<ele>119.0</ele>
				<time>2011-02-15T16:59:08Z</time>
			</trkpt>
			<trkpt lat="50.88829053685745" lon="6.697300209130072">
				<ele>119.0</ele>
				<time>2011-02-15T16:59:09Z</time>
			</trkpt>
			<trkpt lat="50.88831983699512" lon="6.697357711984421">
				<ele>119.0</ele>
				<time>2011-02-15T16:59:10Z</time>
			</trkpt>
			<trkpt lat="50.88834787771567" lon="6.697417743590357">
				<ele>119.0</ele>
				<time>2011-02-15T16:59:11Z</time>
			</trkpt>
			<trkpt lat="50.88837608818494" lon="6.697477552804887">
				<ele>119.0</ele>
				<time>2011-02-15T16:59:12Z</time>
			</trkpt>
			<trkpt lat="50.88840483717968" lon="6.697535773980551">
				<ele>118.0</ele>
				<time>2011-02-15T16:59:13Z</time>
			</trkpt>
			<trkpt lat="50.8884334393758" lon="6.697593943178482">
				<ele>118.0</ele>
				<time>2011-02-15T16:59:14Z</time>
			</trkpt>
			<trkpt lat="50.88846217484792" lon="6.697651787650133">
				<ele>118.0</ele>
				<time>2011-02-15T16:59:15Z</time>
			</trkpt>
			<trkpt lat="50.88849100074338" lon="6.6977104218482655">
				<ele>118.0</ele>
				<time>2011-02-15T16:59:16Z</time>
			</trkpt>
			<trkpt lat="50.88852008234762" lon="6.697769290652105">
				<ele>118.0</ele>
				<time>2011-02-15T16:59:17Z</time>
			</trkpt>
			<trkpt lat="50.888549354980384" lon="6.697828118425925">
				<ele>118.0</ele>
				<time>2011-02-15T16:59:18Z</time>
			</trkpt>
			<trkpt lat="50.88857939426306" lon="6.697885640600437">
				<ele>118.0</ele>
				<time>2011-02-15T16:59:19Z</time>
			</trkpt>
			<trkpt lat="50.88860833110063" lon="6.697944681152844">
				<ele>118.0</ele>
				<time>2011-02-15T16:59:20Z</time>
			</trkpt>
			<trkpt lat="50.88863623829489" lon="6.698005673104364">
				<ele>118.0</ele>
				<time>2011-02-15T16:59:21Z</time>
			</trkpt>
			<trkpt lat="50.88866431607555" lon="6.698066800201268">
				<ele>118.0</ele>
				<time>2011-02-15T16:59:22Z</time>
			</trkpt>
			<trkpt lat="50.88869319717089" lon="6.698126867406995">
				<ele>118.0</ele>
				<time>2011-02-15T16:59:23Z</time>
			</trkpt>
			<trkpt lat="50.888721080274365" lon="6.698187859017162">
				<ele>118.0</ele>
				<time>2011-02-15T16:59:24Z</time>
			</trkpt>
			<trkpt lat="50.88874823216905" lon="6.698245949489139">
				<ele>118.0</ele>
				<time>2011-02-15T16:59:25Z</time>
			</trkpt>
			<trkpt lat="50.88877520666279" lon="6.698298696876522">
				<ele>118.0</ele>
				<time>2011-02-15T16:59:26Z</time>
			</trkpt>
			<trkpt lat="50.88880092897432" lon="6.698348766560269">
				<ele>118.0</ele>
				<time>2011-02-15T16:59:27Z</time>
			</trkpt>
			<trkpt lat="50.88882488771643" lon="6.698398012093817">
				<ele>118.0</ele>
				<time>2011-02-15T16:59:28Z</time>
			</trkpt>
			<trkpt lat="50.888848100864166" lon="6.698446301233887">
				<ele>118.0</ele>
				<time>2011-02-15T16:59:29Z</time>
			</trkpt>
			<trkpt lat="50.88887085199034" lon="6.698492907762175">
				<ele>118.0</ele>
				<time>2011-02-15T16:59:30Z</time>
			</trkpt>
			<trkpt lat="50.888893200737535" lon="6.69853867852622">
				<ele>118.0</ele>
				<time>2011-02-15T16:59:31Z</time>
			</trkpt>
			<trkpt lat="50.88891602471413" lon="6.698583355313726">
				<ele>118.0</ele>
				<time>2011-02-15T16:59:32Z</time>
			</trkpt>
			<trkpt lat="50.88893980140978" lon="6.698626592879403">
				<ele>118.0</ele>
				<time>2011-02-15T16:59:33Z</time>
			</trkpt>
			<trkpt lat="50.888964133852724" lon="6.69866835165735">
				<ele>118.0</ele>
				<time>2011-02-15T16:59:34Z</time>
			</trkpt>
			<trkpt lat="50.88898876894901" lon="6.69870904148417">
				<ele>118.0</ele>
				<time>2011-02-15T16:59:35Z</time>
			</trkpt>
			<trkpt lat="50.88901214098127" lon="6.698747613629388">
				<ele>118.0</ele>
				<time>2011-02-15T16:59:36Z</time>
			</trkpt>
			<trkpt lat="50.889034762813125" lon="6.698784999355268">
				<ele>118.0</ele>
				<time>2011-02-15T16:59:37Z</time>
			</trkpt>
			<trkpt lat="50.88905752062615" lon="6.6988226523802">
				<ele>118.0</ele>
				<time>2011-02-15T16:59:38Z</time>
			</trkpt>
			<trkpt lat="50.88908145383802" lon="6.698858824635504">
				<ele>118.0</ele>
				<time>2011-02-15T16:59:39Z</time>
			</trkpt>
			<trkpt lat="50.88910616231814" lon="6.698894257961895">
				<ele>118.0</ele>
				<time>2011-02-15T16:59:40Z</time>
			</trkpt>
			<trkpt lat="50.88913053450426" lon="6.698929129530932">
				<ele>118.0</ele>
				<time>2011-02-15T16:59:41Z</time>
			</trkpt>
			<trkpt lat="50.889155590692035" lon="6.698962210212219">
				<ele>118.0</ele>
				<time>2011-02-15T16:59:42Z</time>
			</trkpt>
			<trkpt lat="50.889180216070535" lon="6.69899473794995">
				<ele>118.0</ele>
				<time>2011-02-15T16:59:43Z</time>
			</trkpt>
			<trkpt lat="50.88920606223529" lon="6.699026031603895">
				<ele>118.0</ele>
				<time>2011-02-15T16:59:44Z</time>
			</trkpt>
			<trkpt lat="50.88923261832601" lon="6.699056114838464">
				<ele>118.0</ele>
				<time>2011-02-15T16:59:45Z</time>
			</trkpt>
			<trkpt lat="50.8892594849149" lon="6.699086740837784">
				<ele>118.0</ele>
				<time>2011-02-15T16:59:46Z</time>
			</trkpt>
			<trkpt lat="50.88928766046265" lon="6.699119057143257">
				<ele>118.0</ele>
				<time>2011-02-15T16:59:47Z</time>
			</trkpt>
			<trkpt lat="50.889316340313535" lon="6.699151966485852">
				<ele>118.0</ele>
				<time>2011-02-15T16:59:48Z</time>
			</trkpt>
			<trkpt lat="50.889339263488466" lon="6.699192648544925">
				<ele>118.0</ele>
				<time>2011-02-15T16:59:49Z</time>
			</trkpt>
			<trkpt lat="50.88936293312069" lon="6.699232165678065">
				<ele>118.0</ele>
				<time>2011-02-15T16:59:50Z</time>
			</trkpt>
			<trkpt lat="50.889388750774486" lon="6.699269939904047">
				<ele>118.0</ele>
				<time>2011-02-15T16:59:51Z</time>
			</trkpt>
			<trkpt lat="50.88941624228071" lon="6.6993061936673675">
				<ele>118.0</ele>
				<time>2011-02-15T16:59:52Z</time>
			</trkpt>
			<trkpt lat="50.889444508830245" lon="6.699343505387797">
				<ele>118.0</ele>
				<time>2011-02-15T16:59:53Z</time>
			</trkpt>
			<trkpt lat="50.889473162184615" lon="6.699381308853419">
				<ele>118.0</ele>
				<time>2011-02-15T16:59:54Z</time>
			</trkpt>
			<trkpt lat="50.8895026753643" lon="6.699420392936573">
				<ele>118.0</ele>
				<time>2011-02-15T16:59:55Z</time>
			</trkpt>
			<trkpt lat="50.889532646604245" lon="6.699459765355027">
				<ele>118.0</ele>
				<time>2011-02-15T16:59:56Z</time>
			</trkpt>
			<trkpt lat="50.88956298407875" lon="6.699499163530979">
				<ele>119.0</ele>
				<time>2011-02-15T16:59:57Z</time>
			</trkpt>
			<trkpt lat="50.88959566172552" lon="6.699539667302123">
				<ele>119.0</ele>
				<time>2011-02-15T16:59:58Z</time>
			</trkpt>
			<trkpt lat="50.88962922933936" lon="6.699580715371951">
				<ele>119.0</ele>
				<time>2011-02-15T16:59:59Z</time>
			</trkpt>
			<trkpt lat="50.88966564066789" lon="6.699624119268536">
				<ele>119.0</ele>
				<time>2011-02-15T17:00:00Z</time>
			</trkpt>
			<trkpt lat="50.88970190170595" lon="6.6996669476815764">
				<ele>119.0</ele>
				<time>2011-02-15T17:00:01Z</time>
			</trkpt>
			<trkpt lat="50.889738282177106" lon="6.699709556061577">
				<ele>119.0</ele>
				<time>2011-02-15T17:00:02Z</time>
			</trkpt>
			<trkpt lat="50.889776166703705" lon="6.699753091440301">
				<ele>119.0</ele>
				<time>2011-02-15T17:00:03Z</time>
			</trkpt>
			<trkpt lat="50.88981437997932" lon="6.699795054989906">
				<ele>119.0</ele>
				<time>2011-02-15T17:00:04Z</time>
			</trkpt>
			<trkpt lat="50.889852799630404" lon="6.6998371044115865">
				<ele>119.0</ele>
				<time>2011-02-15T17:00:05Z</time>
			</trkpt>
			<trkpt lat="50.88989260180705" lon="6.699880725788106">
				<ele>119.0</ele>
				<time>2011-02-15T17:00:06Z</time>
			</trkpt>
			<trkpt lat="50.889933807954414" lon="6.69992650191099">
				<ele>119.0</ele>
				<time>2011-02-15T17:00:07Z</time>
			</trkpt>
			<trkpt lat="50.889974569531525" lon="6.699971889412297">
				<ele>119.0</ele>
				<time>2011-02-15T17:00:08Z</time>
			</trkpt>
			<trkpt lat="50.890014567057165" lon="6.700016491230975">
				<ele>119.0</ele>
				<time>2011-02-15T17:00:09Z</time>
			</trkpt>
			<trkpt lat="50.89005555625423" lon="6.700057098135799">
				<ele>119.0</ele>
				<time>2011-02-15T17:00:10Z</time>
			</trkpt>
			<trkpt lat="50.89009271118128" lon="6.700094662790095">
				<ele>119.0</ele>
				<time>2011-02-15T17:00:11Z</time>
			</trkpt>
			<trkpt lat="50.89012613853273" lon="6.700131376697388">
				<ele>119.0</ele>
				<time>2011-02-15T17:00:12Z</time>
			</trkpt>
			<trkpt lat="50.89015164904874" lon="6.7001638600196225">
				<ele>119.0</ele>
				<time>2011-02-15T17:00:13Z</time>
			</trkpt>
			<trkpt lat="50.89017749187322" lon="6.700193506817919">
				<ele>119.0</ele>
				<time>2011-02-15T17:00:14Z</time>
			</trkpt>
			<trkpt lat="50.89020002313048" lon="6.700218089816775">
				<ele>119.0</ele>
				<time>2011-02-15T17:00:15Z</time>
			</trkpt>
			<trkpt lat="50.89021512511192" lon="6.7002337825747755">
				<ele>119.0</ele>
				<time>2011-02-15T17:00:16Z</time>
			</trkpt>
			<trkpt lat="50.89022719542025" lon="6.700247035728081">
				<ele>119.0</ele>
				<time>2011-02-15T17:00:17Z</time>
			</trkpt>
			<trkpt lat="50.89022719542025" lon="6.700247035728081">
				<ele>119.0</ele>
				<time>2011-02-15T17:00:18Z</time>
			</trkpt>
			<trkpt lat="50.89024358760858" lon="6.700275209230184">
				<ele>119.0</ele>
				<time>2011-02-15T17:00:19Z</time>
			</trkpt>
			<trkpt lat="50.89024358760858" lon="6.700275209230184">
				<ele>119.0</ele>
				<time>2011-02-15T17:00:20Z</time>
			</trkpt>
			<trkpt lat="50.890237606253585" lon="6.700307334029604">
				<ele>119.0</ele>
				<time>2011-02-15T17:00:21Z</time>
			</trkpt>
			<trkpt lat="50.890237606253585" lon="6.700307334029604">
				<ele>119.0</ele>
				<time>2011-02-15T17:00:22Z</time>
			</trkpt>
			<trkpt lat="50.890237606253585" lon="6.700307334029604">
				<ele>119.0</ele>
				<time>2011-02-15T17:00:23Z</time>
			</trkpt>
			<trkpt lat="50.89019724659054" lon="6.700338973556486">
				<ele>119.0</ele>
				<time>2011-02-15T17:00:24Z</time>
			</trkpt>
			<trkpt lat="50.890183839169545" lon="6.7003439929402475">
				<ele>119.0</ele>
				<time>2011-02-15T17:00:25Z</time>
			</trkpt>
			<trkpt lat="50.890171501375846" lon="6.700348572434559">
				<ele>119.0</ele>
				<time>2011-02-15T17:00:26Z</time>
			</trkpt>
			<trkpt lat="50.890160859632" lon="6.700358506080113">
				<ele>119.0</ele>
				<time>2011-02-15T17:00:27Z</time>
			</trkpt>
			<trkpt lat="50.890152325042216" lon="6.700371143215918">
				<ele>119.0</ele>
				<time>2011-02-15T17:00:28Z</time>
			</trkpt>
			<trkpt lat="50.890152325042216" lon="6.700371143215918">
				<ele>119.0</ele>
				<time>2011-02-15T17:00:29Z</time>
			</trkpt>
			<trkpt lat="50.890152325042216" lon="6.700371143215918">
				<ele>119.0</ele>
				<time>2011-02-15T17:00:30Z</time>
			</trkpt>
			<trkpt lat="50.890152325042216" lon="6.700371143215918">
				<ele>119.0</ele>
				<time>2011-02-15T17:00:31Z</time>
			</trkpt>
			<trkpt lat="50.890152325042216" lon="6.700371143215918">
				<ele>119.0</ele>
				<time>2011-02-15T17:00:32Z</time>
			</trkpt>
			<trkpt lat="50.890152325042216" lon="6.700371143215918">
				<ele>119.0</ele>
				<time>2011-02-15T17:00:33Z</time>
			</trkpt>
			<trkpt lat="50.890152325042216" lon="6.700371143215918">
				<ele>119.0</ele>
				<time>2011-02-15T17:00:34Z</time>
			</trkpt>
			<trkpt lat="50.890152325042216" lon="6.700371143215918">
				<ele>119.0</ele>
				<time>2011-02-15T17:00:35Z</time>
			</trkpt>
			<trkpt lat="50.890152325042216" lon="6.700371143215918">
				<ele>119.0</ele>
				<time>2011-02-15T17:00:36Z</time>
			</trkpt>
			<trkpt lat="50.890152325042216" lon="6.700371143215918">
				<ele>119.0</ele>
				<time>2011-02-15T17:00:37Z</time>
			</trkpt>
			<trkpt lat="50.890152325042216" lon="6.700371143215918">
				<ele>119.0</ele>
				<time>2011-02-15T17:00:38Z</time>
			</trkpt>
			<trkpt lat="50.890152325042216" lon="6.700371143215918">
				<ele>119.0</ele>
				<time>2011-02-15T17:00:39Z</time>
			</trkpt>
			<trkpt lat="50.890152325042216" lon="6.700371143215918">
				<ele>119.0</ele>
				<time>2011-02-15T17:00:40Z</time>
			</trkpt>
			<trkpt lat="50.890152325042216" lon="6.700371143215918">
				<ele>119.0</ele>
				<time>2011-02-15T17:00:41Z</time>
			</trkpt>
			<trkpt lat="50.890152325042216" lon="6.700371143215918">
				<ele>119.0</ele>
				<time>2011-02-15T17:00:42Z</time>
			</trkpt>
			<trkpt lat="50.89015913876732" lon="6.7003753895453695">
				<ele>119.0</ele>
				<time>2011-02-15T17:00:43Z</time>
			</trkpt>
			<trkpt lat="50.890171915768285" lon="6.700354268264429">
				<ele>119.0</ele>
				<time>2011-02-15T17:00:44Z</time>
			</trkpt>
			<trkpt lat="50.89018529767167" lon="6.700330433500422">
				<ele>119.0</ele>
				<time>2011-02-15T17:00:45Z</time>
			</trkpt>
			<trkpt lat="50.890199830722736" lon="6.700303076774755">
				<ele>119.0</ele>
				<time>2011-02-15T17:00:46Z</time>
			</trkpt>
			<trkpt lat="50.89020980352513" lon="6.70027362752308">
				<ele>119.0</ele>
				<time>2011-02-15T17:00:47Z</time>
			</trkpt>
			<trkpt lat="50.89020980352513" lon="6.70027362752308">
				<ele>119.0</ele>
				<time>2011-02-15T17:00:48Z</time>
			</trkpt>
			<trkpt lat="50.89020980352513" lon="6.70027362752308">
				<ele>119.0</ele>
				<time>2011-02-15T17:00:49Z</time>
			</trkpt>
			<trkpt lat="50.89020980352513" lon="6.70027362752308">
				<ele>119.0</ele>
				<time>2011-02-15T17:00:50Z</time>
			</trkpt>
			<trkpt lat="50.89020980352513" lon="6.70027362752308">
				<ele>119.0</ele>
				<time>2011-02-15T17:00:51Z</time>
			</trkpt>
			<trkpt lat="50.89020980352513" lon="6.70027362752308">
				<ele>119.0</ele>
				<time>2011-02-15T17:00:52Z</time>
			</trkpt>
			<trkpt lat="50.89020980352513" lon="6.70027362752308">
				<ele>119.0</ele>
				<time>2011-02-15T17:00:53Z</time>
			</trkpt>
			<trkpt lat="50.89020980352513" lon="6.70027362752308">
				<ele>119.0</ele>
				<time>2011-02-15T17:00:54Z</time>
			</trkpt>
			<trkpt lat="50.89020980352513" lon="6.70027362752308">
				<ele>119.0</ele>
				<time>2011-02-15T17:00:55Z</time>
			</trkpt>
			<trkpt lat="50.89020980352513" lon="6.70027362752308">
				<ele>119.0</ele>
				<time>2011-02-15T17:00:56Z</time>
			</trkpt>
			<trkpt lat="50.89020980352513" lon="6.70027362752308">
				<ele>119.0</ele>
				<time>2011-02-15T17:00:57Z</time>
			</trkpt>
			<trkpt lat="50.89020980352513" lon="6.70027362752308">
				<ele>119.0</ele>
				<time>2011-02-15T17:00:58Z</time>
			</trkpt>
			<trkpt lat="50.89020980352513" lon="6.70027362752308">
				<ele>119.0</ele>
				<time>2011-02-15T17:00:59Z</time>
			</trkpt>
			<trkpt lat="50.89020980352513" lon="6.70027362752308">
				<ele>119.0</ele>
				<time>2011-02-15T17:01:00Z</time>
			</trkpt>
			<trkpt lat="50.89020980352513" lon="6.70027362752308">
				<ele>119.0</ele>
				<time>2011-02-15T17:01:01Z</time>
			</trkpt>
			<trkpt lat="50.89020980352513" lon="6.70027362752308">
				<ele>119.0</ele>
				<time>2011-02-15T17:01:02Z</time>
			</trkpt>
			<trkpt lat="50.89020980352513" lon="6.70027362752308">
				<ele>119.0</ele>
				<time>2011-02-15T17:01:03Z</time>
			</trkpt>
			<trkpt lat="50.89020980352513" lon="6.70027362752308">
				<ele>119.0</ele>
				<time>2011-02-15T17:01:04Z</time>
			</trkpt>
			<trkpt lat="50.89020980352513" lon="6.70027362752308">
				<ele>119.0</ele>
				<time>2011-02-15T17:01:05Z</time>
			</trkpt>
			<trkpt lat="50.89020980352513" lon="6.70027362752308">
				<ele>119.0</ele>
				<time>2011-02-15T17:01:06Z</time>
			</trkpt>
			<trkpt lat="50.89020980352513" lon="6.70027362752308">
				<ele>119.0</ele>
				<time>2011-02-15T17:01:07Z</time>
			</trkpt>
			<trkpt lat="50.89020980352513" lon="6.70027362752308">
				<ele>119.0</ele>
				<time>2011-02-15T17:01:08Z</time>
			</trkpt>
			<trkpt lat="50.89020980352513" lon="6.70027362752308">
				<ele>119.0</ele>
				<time>2011-02-15T17:01:09Z</time>
			</trkpt>
			<trkpt lat="50.89020980352513" lon="6.70027362752308">
				<ele>119.0</ele>
				<time>2011-02-15T17:01:10Z</time>
			</trkpt>
			<trkpt lat="50.89020980352513" lon="6.70027362752308">
				<ele>119.0</ele>
				<time>2011-02-15T17:01:11Z</time>
			</trkpt>
			<trkpt lat="50.89020980352513" lon="6.70027362752308">
				<ele>119.0</ele>
				<time>2011-02-15T17:01:12Z</time>
			</trkpt>
			<trkpt lat="50.89020980352513" lon="6.70027362752308">
				<ele>119.0</ele>
				<time>2011-02-15T17:01:13Z</time>
			</trkpt>
			<trkpt lat="50.89020980352513" lon="6.70027362752308">
				<ele>119.0</ele>
				<time>2011-02-15T17:01:14Z</time>
			</trkpt>
			<trkpt lat="50.89020980352513" lon="6.70027362752308">
				<ele>119.0</ele>
				<time>2011-02-15T17:01:15Z</time>
			</trkpt>
			<trkpt lat="50.89020980352513" lon="6.70027362752308">
				<ele>119.0</ele>
				<time>2011-02-15T17:01:16Z</time>
			</trkpt>
			<trkpt lat="50.89020980352513" lon="6.70027362752308">
				<ele>119.0</ele>
				<time>2011-02-15T17:01:17Z</time>
			</trkpt>
			<trkpt lat="50.89020980352513" lon="6.70027362752308">
				<ele>119.0</ele>
				<time>2011-02-15T17:01:18Z</time>
			</trkpt>
			<trkpt lat="50.89020980352513" lon="6.70027362752308">
				<ele>119.0</ele>
				<time>2011-02-15T17:01:19Z</time>
			</trkpt>
			<trkpt lat="50.89020980352513" lon="6.70027362752308">
				<ele>119.0</ele>
				<time>2011-02-15T17:01:20Z</time>
			</trkpt>
			<trkpt lat="50.89020980352513" lon="6.70027362752308">
				<ele>119.0</ele>
				<time>2011-02-15T17:01:21Z</time>
			</trkpt>
			<trkpt lat="50.89020980352513" lon="6.70027362752308">
				<ele>119.0</ele>
				<time>2011-02-15T17:01:22Z</time>
			</trkpt>
			<trkpt lat="50.89020980352513" lon="6.70027362752308">
				<ele>119.0</ele>
				<time>2011-02-15T17:01:23Z</time>
			</trkpt>
			<trkpt lat="50.89020980352513" lon="6.70027362752308">
				<ele>119.0</ele>
				<time>2011-02-15T17:01:24Z</time>
			</trkpt>
			<trkpt lat="50.89020980352513" lon="6.70027362752308">
				<ele>119.0</ele>
				<time>2011-02-15T17:01:25Z</time>
			</trkpt>
			<trkpt lat="50.89020980352513" lon="6.70027362752308">
				<ele>119.0</ele>
				<time>2011-02-15T17:01:26Z</time>
			</trkpt>
			<trkpt lat="50.89020980352513" lon="6.70027362752308">
				<ele>119.0</ele>
				<time>2011-02-15T17:01:27Z</time>
			</trkpt>
			<trkpt lat="50.89020980352513" lon="6.70027362752308">
				<ele>119.0</ele>
				<time>2011-02-15T17:01:28Z</time>
			</trkpt>
			<trkpt lat="50.89020980352513" lon="6.70027362752308">
				<ele>119.0</ele>
				<time>2011-02-15T17:01:29Z</time>
			</trkpt>
			<trkpt lat="50.89020980352513" lon="6.70027362752308">
				<ele>119.0</ele>
				<time>2011-02-15T17:01:30Z</time>
			</trkpt>
			<trkpt lat="50.89020980352513" lon="6.70027362752308">
				<ele>119.0</ele>
				<time>2011-02-15T17:01:31Z</time>
			</trkpt>
			<trkpt lat="50.89020980352513" lon="6.70027362752308">
				<ele>119.0</ele>
				<time>2011-02-15T17:01:32Z</time>
			</trkpt>
			<trkpt lat="50.89020980352513" lon="6.70027362752308">
				<ele>119.0</ele>
				<time>2011-02-15T17:01:33Z</time>
			</trkpt>
			<trkpt lat="50.89020980352513" lon="6.70027362752308">
				<ele>119.0</ele>
				<time>2011-02-15T17:01:34Z</time>
			</trkpt>
			<trkpt lat="50.89020980352513" lon="6.70027362752308">
				<ele>119.0</ele>
				<time>2011-02-15T17:01:35Z</time>
			</trkpt>
			<trkpt lat="50.89020980352513" lon="6.70027362752308">
				<ele>119.0</ele>
				<time>2011-02-15T17:01:36Z</time>
			</trkpt>
			<trkpt lat="50.89020980352513" lon="6.70027362752308">
				<ele>119.0</ele>
				<time>2011-02-15T17:01:37Z</time>
			</trkpt>
			<trkpt lat="50.89020980352513" lon="6.70027362752308">
				<ele>119.0</ele>
				<time>2011-02-15T17:01:38Z</time>
			</trkpt>
			<trkpt lat="50.89020980352513" lon="6.70027362752308">
				<ele>119.0</ele>
				<time>2011-02-15T17:01:39Z</time>
			</trkpt>
			<trkpt lat="50.89020980352513" lon="6.70027362752308">
				<ele>119.0</ele>
				<time>2011-02-15T17:01:40Z</time>
			</trkpt>
			<trkpt lat="50.89020980352513" lon="6.70027362752308">
				<ele>119.0</ele>
				<time>2011-02-15T17:01:41Z</time>
			</trkpt>
			<trkpt lat="50.89020980352513" lon="6.70027362752308">
				<ele>119.0</ele>
				<time>2011-02-15T17:01:42Z</time>
			</trkpt>
			<trkpt lat="50.89020980352513" lon="6.70027362752308">
				<ele>119.0</ele>
				<time>2011-02-15T17:01:43Z</time>
			</trkpt>
			<trkpt lat="50.89020980352513" lon="6.70027362752308">
				<ele>119.0</ele>
				<time>2011-02-15T17:01:44Z</time>
			</trkpt>
			<trkpt lat="50.89020980352513" lon="6.70027362752308">
				<ele>119.0</ele>
				<time>2011-02-15T17:01:45Z</time>
			</trkpt>
			<trkpt lat="50.89020980352513" lon="6.70027362752308">
				<ele>119.0</ele>
				<time>2011-02-15T17:01:46Z</time>
			</trkpt>
			<trkpt lat="50.89020980352513" lon="6.70027362752308">
				<ele>119.0</ele>
				<time>2011-02-15T17:01:47Z</time>
			</trkpt>
			<trkpt lat="50.89020980352513" lon="6.70027362752308">
				<ele>119.0</ele>
				<time>2011-02-15T17:01:48Z</time>
			</trkpt>
			<trkpt lat="50.89020980352513" lon="6.70027362752308">
				<ele>119.0</ele>
				<time>2011-02-15T17:01:49Z</time>
			</trkpt>
			<trkpt lat="50.89020980352513" lon="6.70027362752308">
				<ele>119.0</ele>
				<time>2011-02-15T17:01:50Z</time>
			</trkpt>
			<trkpt lat="50.89020980352513" lon="6.70027362752308">
				<ele>119.0</ele>
				<time>2011-02-15T17:01:51Z</time>
			</trkpt>
			<trkpt lat="50.89020980352513" lon="6.70027362752308">
				<ele>119.0</ele>
				<time>2011-02-15T17:01:52Z</time>
			</trkpt>
			<trkpt lat="50.89020980352513" lon="6.70027362752308">
				<ele>119.0</ele>
				<time>2011-02-15T17:01:53Z</time>
			</trkpt>
			<trkpt lat="50.89020980352513" lon="6.70027362752308">
				<ele>119.0</ele>
				<time>2011-02-15T17:01:54Z</time>
			</trkpt>
			<trkpt lat="50.89020980352513" lon="6.70027362752308">
				<ele>119.0</ele>
				<time>2011-02-15T17:01:55Z</time>
			</trkpt>
			<trkpt lat="50.89020980352513" lon="6.70027362752308">
				<ele>119.0</ele>
				<time>2011-02-15T17:01:56Z</time>
			</trkpt>
			<trkpt lat="50.89020980352513" lon="6.70027362752308">
				<ele>119.0</ele>
				<time>2011-02-15T17:01:57Z</time>
			</trkpt>
			<trkpt lat="50.89020980352513" lon="6.70027362752308">
				<ele>119.0</ele>
				<time>2011-02-15T17:01:58Z</time>
			</trkpt>
			<trkpt lat="50.89020980352513" lon="6.70027362752308">
				<ele>119.0</ele>
				<time>2011-02-15T17:01:59Z</time>
			</trkpt>
			<trkpt lat="50.89020980352513" lon="6.70027362752308">
				<ele>119.0</ele>
				<time>2011-02-15T17:02:00Z</time>
			</trkpt>
			<trkpt lat="50.89020980352513" lon="6.70027362752308">
				<ele>119.0</ele>
				<time>2011-02-15T17:02:01Z</time>
			</trkpt>
			<trkpt lat="50.89020980352513" lon="6.70027362752308">
				<ele>119.0</ele>
				<time>2011-02-15T17:02:02Z</time>
			</trkpt>
			<trkpt lat="50.89020980352513" lon="6.70027362752308">
				<ele>119.0</ele>
				<time>2011-02-15T17:02:03Z</time>
			</trkpt>
			<trkpt lat="50.89020980352513" lon="6.70027362752308">
				<ele>119.0</ele>
				<time>2011-02-15T17:02:04Z</time>
			</trkpt>
			<trkpt lat="50.89020980352513" lon="6.70027362752308">
				<ele>119.0</ele>
				<time>2011-02-15T17:02:05Z</time>
			</trkpt>
			<trkpt lat="50.89020980352513" lon="6.70027362752308">
				<ele>119.0</ele>
				<time>2011-02-15T17:02:06Z</time>
			</trkpt>
			<trkpt lat="50.89020980352513" lon="6.70027362752308">
				<ele>119.0</ele>
				<time>2011-02-15T17:02:07Z</time>
			</trkpt>
			<trkpt lat="50.89020980352513" lon="6.70027362752308">
				<ele>119.0</ele>
				<time>2011-02-15T17:02:08Z</time>
			</trkpt>
			<trkpt lat="50.89020980352513" lon="6.70027362752308">
				<ele>119.0</ele>
				<time>2011-02-15T17:02:09Z</time>
			</trkpt>
			<trkpt lat="50.89020980352513" lon="6.70027362752308">
				<ele>119.0</ele>
				<time>2011-02-15T17:02:10Z</time>
			</trkpt>
			<trkpt lat="50.89020980352513" lon="6.70027362752308">
				<ele>119.0</ele>
				<time>2011-02-15T17:02:11Z</time>
			</trkpt>
			<trkpt lat="50.89020980352513" lon="6.70027362752308">
				<ele>119.0</ele>
				<time>2011-02-15T17:02:12Z</time>
			</trkpt>
			<trkpt lat="50.89020980352513" lon="6.70027362752308">
				<ele>119.0</ele>
				<time>2011-02-15T17:02:13Z</time>
			</trkpt>
			<trkpt lat="50.89020980352513" lon="6.70027362752308">
				<ele>119.0</ele>
				<time>2011-02-15T17:02:14Z</time>
			</trkpt>
			<trkpt lat="50.89020980352513" lon="6.70027362752308">
				<ele>119.0</ele>
				<time>2011-02-15T17:02:15Z</time>
			</trkpt>
			<trkpt lat="50.89020980352513" lon="6.70027362752308">
				<ele>119.0</ele>
				<time>2011-02-15T17:02:16Z</time>
			</trkpt>
			<trkpt lat="50.89020980352513" lon="6.70027362752308">
				<ele>119.0</ele>
				<time>2011-02-15T17:02:17Z</time>
			</trkpt>
			<trkpt lat="50.89020980352513" lon="6.70027362752308">
				<ele>119.0</ele>
				<time>2011-02-15T17:02:18Z</time>
			</trkpt>
			<trkpt lat="50.89020980352513" lon="6.70027362752308">
				<ele>119.0</ele>
				<time>2011-02-15T17:02:19Z</time>
			</trkpt>
			<trkpt lat="50.89020980352513" lon="6.70027362752308">
				<ele>119.0</ele>
				<time>2011-02-15T17:02:20Z</time>
			</trkpt>
			<trkpt lat="50.89020980352513" lon="6.70027362752308">
				<ele>119.0</ele>
				<time>2011-02-15T17:02:21Z</time>
			</trkpt>
			<trkpt lat="50.89020980352513" lon="6.70027362752308">
				<ele>119.0</ele>
				<time>2011-02-15T17:02:22Z</time>
			</trkpt>
			<trkpt lat="50.89020980352513" lon="6.70027362752308">
				<ele>119.0</ele>
				<time>2011-02-15T17:02:23Z</time>
			</trkpt>
			<trkpt lat="50.89020980352513" lon="6.70027362752308">
				<ele>119.0</ele>
				<time>2011-02-15T17:02:24Z</time>
			</trkpt>
			<trkpt lat="50.89020980352513" lon="6.70027362752308">
				<ele>119.0</ele>
				<time>2011-02-15T17:02:25Z</time>
			</trkpt>
			<trkpt lat="50.89020980352513" lon="6.70027362752308">
				<ele>119.0</ele>
				<time>2011-02-15T17:02:26Z</time>
			</trkpt>
			<trkpt lat="50.89020980352513" lon="6.70027362752308">
				<ele>119.0</ele>
				<time>2011-02-15T17:02:27Z</time>
			</trkpt>
			<trkpt lat="50.89020980352513" lon="6.70027362752308">
				<ele>119.0</ele>
				<time>2011-02-15T17:02:28Z</time>
			</trkpt>
			<trkpt lat="50.89020980352513" lon="6.70027362752308">
				<ele>119.0</ele>
				<time>2011-02-15T17:02:29Z</time>
			</trkpt>
			<trkpt lat="50.89020980352513" lon="6.70027362752308">
				<ele>119.0</ele>
				<time>2011-02-15T17:02:30Z</time>
			</trkpt>
			<trkpt lat="50.89020980352513" lon="6.70027362752308">
				<ele>119.0</ele>
				<time>2011-02-15T17:02:31Z</time>
			</trkpt>
			<trkpt lat="50.89020980352513" lon="6.70027362752308">
				<ele>119.0</ele>
				<time>2011-02-15T17:02:32Z</time>
			</trkpt>
			<trkpt lat="50.89020980352513" lon="6.70027362752308">
				<ele>119.0</ele>
				<time>2011-02-15T17:02:33Z</time>
			</trkpt>
			<trkpt lat="50.89020980352513" lon="6.70027362752308">
				<ele>119.0</ele>
				<time>2011-02-15T17:02:34Z</time>
			</trkpt>
			<trkpt lat="50.89020980352513" lon="6.70027362752308">
				<ele>119.0</ele>
				<time>2011-02-15T17:02:35Z</time>
			</trkpt>
			<trkpt lat="50.89020980352513" lon="6.70027362752308">
				<ele>119.0</ele>
				<time>2011-02-15T17:02:36Z</time>
			</trkpt>
			<trkpt lat="50.89020980352513" lon="6.70027362752308">
				<ele>119.0</ele>
				<time>2011-02-15T17:02:37Z</time>
			</trkpt>
			<trkpt lat="50.89020980352513" lon="6.70027362752308">
				<ele>119.0</ele>
				<time>2011-02-15T17:02:38Z</time>
			</trkpt>
			<trkpt lat="50.89020980352513" lon="6.70027362752308">
				<ele>119.0</ele>
				<time>2011-02-15T17:02:39Z</time>
			</trkpt>
			<trkpt lat="50.89020980352513" lon="6.70027362752308">
				<ele>119.0</ele>
				<time>2011-02-15T17:02:40Z</time>
			</trkpt>
			<trkpt lat="50.89020980352513" lon="6.70027362752308">
				<ele>119.0</ele>
				<time>2011-02-15T17:02:41Z</time>
			</trkpt>
			<trkpt lat="50.89020980352513" lon="6.70027362752308">
				<ele>119.0</ele>
				<time>2011-02-15T17:02:42Z</time>
			</trkpt>
			<trkpt lat="50.89020980352513" lon="6.70027362752308">
				<ele>119.0</ele>
				<time>2011-02-15T17:02:43Z</time>
			</trkpt>
			<trkpt lat="50.89020980352513" lon="6.70027362752308">
				<ele>119.0</ele>
				<time>2011-02-15T17:02:44Z</time>
			</trkpt>
			<trkpt lat="50.89020980352513" lon="6.70027362752308">
				<ele>119.0</ele>
				<time>2011-02-15T17:02:45Z</time>
			</trkpt>
			<trkpt lat="50.89020980352513" lon="6.70027362752308">
				<ele>119.0</ele>
				<time>2011-02-15T17:02:46Z</time>
			</trkpt>
			<trkpt lat="50.89020980352513" lon="6.70027362752308">
				<ele>119.0</ele>
				<time>2011-02-15T17:02:47Z</time>
			</trkpt>
			<trkpt lat="50.89020980352513" lon="6.70027362752308">
				<ele>119.0</ele>
				<time>2011-02-15T17:02:48Z</time>
			</trkpt>
			<trkpt lat="50.89020980352513" lon="6.70027362752308">
				<ele>119.0</ele>
				<time>2011-02-15T17:02:49Z</time>
			</trkpt>
			<trkpt lat="50.89020980352513" lon="6.70027362752308">
				<ele>119.0</ele>
				<time>2011-02-15T17:02:50Z</time>
			</trkpt>
			<trkpt lat="50.89020980352513" lon="6.70027362752308">
				<ele>119.0</ele>
				<time>2011-02-15T17:02:51Z</time>
			</trkpt>
			<trkpt lat="50.89020980352513" lon="6.70027362752308">
				<ele>119.0</ele>
				<time>2011-02-15T17:02:52Z</time>
			</trkpt>
			<trkpt lat="50.89020980352513" lon="6.70027362752308">
				<ele>119.0</ele>
				<time>2011-02-15T17:02:53Z</time>
			</trkpt>
			<trkpt lat="50.89020980352513" lon="6.70027362752308">
				<ele>119.0</ele>
				<time>2011-02-15T17:02:54Z</time>
			</trkpt>
			<trkpt lat="50.89020980352513" lon="6.70027362752308">
				<ele>119.0</ele>
				<time>2011-02-15T17:02:55Z</time>
			</trkpt>
			<trkpt lat="50.89020980352513" lon="6.70027362752308">
				<ele>119.0</ele>
				<time>2011-02-15T17:02:56Z</time>
			</trkpt>
			<trkpt lat="50.89020980352513" lon="6.70027362752308">
				<ele>119.0</ele>
				<time>2011-02-15T17:02:57Z</time>
			</trkpt>
			<trkpt lat="50.89020980352513" lon="6.70027362752308">
				<ele>119.0</ele>
				<time>2011-02-15T17:02:58Z</time>
			</trkpt>
			<trkpt lat="50.89020980352513" lon="6.70027362752308">
				<ele>119.0</ele>
				<time>2011-02-15T17:02:59Z</time>
			</trkpt>
			<trkpt lat="50.89020980352513" lon="6.70027362752308">
				<ele>119.0</ele>
				<time>2011-02-15T17:03:00Z</time>
			</trkpt>
			<trkpt lat="50.89020980352513" lon="6.70027362752308">
				<ele>119.0</ele>
				<time>2011-02-15T17:03:01Z</time>
			</trkpt>
			<trkpt lat="50.89020980352513" lon="6.70027362752308">
				<ele>119.0</ele>
				<time>2011-02-15T17:03:02Z</time>
			</trkpt>
			<trkpt lat="50.89020980352513" lon="6.70027362752308">
				<ele>119.0</ele>
				<time>2011-02-15T17:03:03Z</time>
			</trkpt>
			<trkpt lat="50.89020980352513" lon="6.70027362752308">
				<ele>119.0</ele>
				<time>2011-02-15T17:03:04Z</time>
			</trkpt>
			<trkpt lat="50.89020980352513" lon="6.70027362752308">
				<ele>119.0</ele>
				<time>2011-02-15T17:03:05Z</time>
			</trkpt>
			<trkpt lat="50.89020980352513" lon="6.70027362752308">
				<ele>119.0</ele>
				<time>2011-02-15T17:03:06Z</time>
			</trkpt>
			<trkpt lat="50.89020980352513" lon="6.70027362752308">
				<ele>119.0</ele>
				<time>2011-02-15T17:03:07Z</time>
			</trkpt>
			<trkpt lat="50.89020980352513" lon="6.70027362752308">
				<ele>119.0</ele>
				<time>2011-02-15T17:03:08Z</time>
			</trkpt>
			<trkpt lat="50.89020980352513" lon="6.70027362752308">
				<ele>119.0</ele>
				<time>2011-02-15T17:03:09Z</time>
			</trkpt>
			<trkpt lat="50.89020980352513" lon="6.70027362752308">
				<ele>119.0</ele>
				<time>2011-02-15T17:03:10Z</time>
			</trkpt>
			<trkpt lat="50.89020980352513" lon="6.70027362752308">
				<ele>119.0</ele>
				<time>2011-02-15T17:03:11Z</time>
			</trkpt>
			<trkpt lat="50.89020980352513" lon="6.70027362752308">
				<ele>119.0</ele>
				<time>2011-02-15T17:03:12Z</time>
			</trkpt>
			<trkpt lat="50.890222202172076" lon="6.70022211001471">
				<ele>121.0</ele>
				<time>2011-02-15T17:03:13Z</time>
			</trkpt>
			<trkpt lat="50.89022279094779" lon="6.700221349727384">
				<ele>121.0</ele>
				<time>2011-02-15T17:03:14Z</time>
			</trkpt>
			<trkpt lat="50.89022388473765" lon="6.700219821747913">
				<ele>121.0</ele>
				<time>2011-02-15T17:03:15Z</time>
			</trkpt>
			<trkpt lat="50.890225670754575" lon="6.700217300763471">
				<ele>121.0</ele>
				<time>2011-02-15T17:03:16Z</time>
			</trkpt>
			<trkpt lat="50.8902281264706" lon="6.700213789384721">
				<ele>121.0</ele>
				<time>2011-02-15T17:03:17Z</time>
			</trkpt>
			<trkpt lat="50.89023134667504" lon="6.7002089325534655">
				<ele>121.0</ele>
				<time>2011-02-15T17:03:18Z</time>
			</trkpt>
			<trkpt lat="50.89023521282121" lon="6.700203142671622">
				<ele>121.0</ele>
				<time>2011-02-15T17:03:19Z</time>
			</trkpt>
			<trkpt lat="50.89023953034415" lon="6.7001975998284635">
				<ele>121.0</ele>
				<time>2011-02-15T17:03:20Z</time>
			</trkpt>
			<trkpt lat="50.890244440163485" lon="6.70019268399004">
				<ele>121.0</ele>
				<time>2011-02-15T17:03:21Z</time>
			</trkpt>
			<trkpt lat="50.890249581712055" lon="6.700188621907378">
				<ele>121.0</ele>
				<time>2011-02-15T17:03:22Z</time>
			</trkpt>
			<trkpt lat="50.89025540281966" lon="6.700185229868394">
				<ele>121.0</ele>
				<time>2011-02-15T17:03:23Z</time>
			</trkpt>
			<trkpt lat="50.89026083418399" lon="6.700182771517876">
				<ele>121.0</ele>
				<time>2011-02-15T17:03:24Z</time>
			</trkpt>
			<trkpt lat="50.89026553368711" lon="6.700181140501616">
				<ele>121.0</ele>
				<time>2011-02-15T17:03:25Z</time>
			</trkpt>
			<trkpt lat="50.89026950605882" lon="6.700179867831109">
				<ele>121.0</ele>
				<time>2011-02-15T17:03:26Z</time>
			</trkpt>
			<trkpt lat="50.89027284999628" lon="6.700179159727259">
				<ele>121.0</ele>
				<time>2011-02-15T17:03:27Z</time>
			</trkpt>
			<trkpt lat="50.89027589574661" lon="6.700178783376507">
				<ele>121.0</ele>
				<time>2011-02-15T17:03:28Z</time>
			</trkpt>
			<trkpt lat="50.89027923268267" lon="6.700178106937376">
				<ele>121.0</ele>
				<time>2011-02-15T17:03:29Z</time>
			</trkpt>
			<trkpt lat="50.89028333167724" lon="6.7001768151539745">
				<ele>121.0</ele>
				<time>2011-02-15T17:03:30Z</time>
			</trkpt>
			<trkpt lat="50.89028769654179" lon="6.700175463023998">
				<ele>121.0</ele>
				<time>2011-02-15T17:03:31Z</time>
			</trkpt>
			<trkpt lat="50.890291659942264" lon="6.700174240805586">
				<ele>121.0</ele>
				<time>2011-02-15T17:03:32Z</time>
			</trkpt>
			<trkpt lat="50.89029496365082" lon="6.700172633949386">
				<ele>121.0</ele>
				<time>2011-02-15T17:03:33Z</time>
			</trkpt>
			<trkpt lat="50.89029782396311" lon="6.700171067987343">
				<ele>121.0</ele>
				<time>2011-02-15T17:03:34Z</time>
			</trkpt>
			<trkpt lat="50.89030019789412" lon="6.700169673432061">
				<ele>121.0</ele>
				<time>2011-02-15T17:03:35Z</time>
			</trkpt>
			<trkpt lat="50.89030254202727" lon="6.700168473731396">
				<ele>121.0</ele>
				<time>2011-02-15T17:03:36Z</time>
			</trkpt>
			<trkpt lat="50.89030523657098" lon="6.700167932365359">
				<ele>121.0</ele>
				<time>2011-02-15T17:03:37Z</time>
			</trkpt>
			<trkpt lat="50.890308000439774" lon="6.7001688873402845">
				<ele>121.0</ele>
				<time>2011-02-15T17:03:38Z</time>
			</trkpt>
			<trkpt lat="50.89031044240042" lon="6.700170983974452">
				<ele>121.0</ele>
				<time>2011-02-15T17:03:39Z</time>
			</trkpt>
			<trkpt lat="50.890312486830815" lon="6.70017356917114">
				<ele>121.0</ele>
				<time>2011-02-15T17:03:40Z</time>
			</trkpt>
			<trkpt lat="50.8903138261819" lon="6.700175518590694">
				<ele>121.0</ele>
				<time>2011-02-15T17:03:41Z</time>
			</trkpt>
			<trkpt lat="50.89031411699759" lon="6.70017580516846">
				<ele>121.0</ele>
				<time>2011-02-15T17:03:42Z</time>
			</trkpt>
			<trkpt lat="50.89031344105261" lon="6.700174772052996">
				<ele>121.0</ele>
				<time>2011-02-15T17:03:43Z</time>
			</trkpt>
			<trkpt lat="50.89031211892132" lon="6.700172740424687">
				<ele>121.0</ele>
				<time>2011-02-15T17:03:44Z</time>
			</trkpt>
			<trkpt lat="50.890310409583066" lon="6.700169852938014">
				<ele>121.0</ele>
				<time>2011-02-15T17:03:45Z</time>
			</trkpt>
			<trkpt lat="50.89030809925843" lon="6.7001650703632745">
				<ele>121.0</ele>
				<time>2011-02-15T17:03:46Z</time>
			</trkpt>
			<trkpt lat="50.89030158787621" lon="6.70015142568903">
				<ele>121.0</ele>
				<time>2011-02-15T17:03:47Z</time>
			</trkpt>
			<trkpt lat="50.89029727458478" lon="6.700140892781284">
				<ele>121.0</ele>
				<time>2011-02-15T17:03:48Z</time>
			</trkpt>
			<trkpt lat="50.890293568037826" lon="6.700129635175006">
				<ele>121.0</ele>
				<time>2011-02-15T17:03:49Z</time>
			</trkpt>
			<trkpt lat="50.890291351158275" lon="6.700117079636636">
				<ele>121.0</ele>
				<time>2011-02-15T17:03:50Z</time>
			</trkpt>
			<trkpt lat="50.890289786480004" lon="6.700107406789267">
				<ele>121.0</ele>
				<time>2011-02-15T17:03:51Z</time>
			</trkpt>
			<trkpt lat="50.890288473020185" lon="6.7000980078718815">
				<ele>121.0</ele>
				<time>2011-02-15T17:03:52Z</time>
			</trkpt>
			<trkpt lat="50.890287680555275" lon="6.700089051457735">
				<ele>121.0</ele>
				<time>2011-02-15T17:03:53Z</time>
			</trkpt>
			<trkpt lat="50.89028714059137" lon="6.700081507617112">
				<ele>121.0</ele>
				<time>2011-02-15T17:03:54Z</time>
			</trkpt>
			<trkpt lat="50.890286570669886" lon="6.700076441567814">
				<ele>121.0</ele>
				<time>2011-02-15T17:03:55Z</time>
			</trkpt>
			<trkpt lat="50.89028669190164" lon="6.700071649340149">
				<ele>121.0</ele>
				<time>2011-02-15T17:03:56Z</time>
			</trkpt>
			<trkpt lat="50.890287040391385" lon="6.700069660444443">
				<ele>121.0</ele>
				<time>2011-02-15T17:03:57Z</time>
			</trkpt>
			<trkpt lat="50.89028820145135" lon="6.700067393092058">
				<ele>121.0</ele>
				<time>2011-02-15T17:03:58Z</time>
			</trkpt>
			<trkpt lat="50.89028906821445" lon="6.700066195511067">
				<ele>122.0</ele>
				<time>2011-02-15T17:03:59Z</time>
			</trkpt>
			<trkpt lat="50.89029020450616" lon="6.700065527132604">
				<ele>122.0</ele>
				<time>2011-02-15T17:04:00Z</time>
			</trkpt>
			<trkpt lat="50.890291398159974" lon="6.700065758349911">
				<ele>122.0</ele>
				<time>2011-02-15T17:04:01Z</time>
			</trkpt>
			<trkpt lat="50.890293033759725" lon="6.700066408101639">
				<ele>122.0</ele>
				<time>2011-02-15T17:04:02Z</time>
			</trkpt>
			<trkpt lat="50.89029426579631" lon="6.700068180727824">
				<ele>122.0</ele>
				<time>2011-02-15T17:04:03Z</time>
			</trkpt>
			<trkpt lat="50.89029526745341" lon="6.700070031222307">
				<ele>122.0</ele>
				<time>2011-02-15T17:04:04Z</time>
			</trkpt>
			<trkpt lat="50.8902969166191" lon="6.700072219983689">
				<ele>122.0</ele>
				<time>2011-02-15T17:04:05Z</time>
			</trkpt>
			<trkpt lat="50.89029918594204" lon="6.700074810112531">
				<ele>122.0</ele>
				<time>2011-02-15T17:04:06Z</time>
			</trkpt>
			<trkpt lat="50.89030061047063" lon="6.700078816483443">
				<ele>122.0</ele>
				<time>2011-02-15T17:04:07Z</time>
			</trkpt>
			<trkpt lat="50.89030125665738" lon="6.700083869292134">
				<ele>122.0</ele>
				<time>2011-02-15T17:04:08Z</time>
			</trkpt>
			<trkpt lat="50.89030178056184" lon="6.700088172026787">
				<ele>122.0</ele>
				<time>2011-02-15T17:04:09Z</time>
			</trkpt>
			<trkpt lat="50.89030186271328" lon="6.7000908219655155">
				<ele>122.0</ele>
				<time>2011-02-15T17:04:10Z</time>
			</trkpt>
			<trkpt lat="50.890301921514464" lon="6.700092116440361">
				<ele>122.0</ele>
				<time>2011-02-15T17:04:11Z</time>
			</trkpt>
			<trkpt lat="50.890302313285524" lon="6.700094172910124">
				<ele>122.0</ele>
				<time>2011-02-15T17:04:12Z</time>
			</trkpt>
			<trkpt lat="50.89030328983296" lon="6.700097832443675">
				<ele>122.0</ele>
				<time>2011-02-15T17:04:13Z</time>
			</trkpt>
			<trkpt lat="50.8903045295681" lon="6.700102247507211">
				<ele>122.0</ele>
				<time>2011-02-15T17:04:14Z</time>
			</trkpt>
			<trkpt lat="50.890305859503044" lon="6.700106779193926">
				<ele>122.0</ele>
				<time>2011-02-15T17:04:15Z</time>
			</trkpt>
			<trkpt lat="50.890307261419785" lon="6.700111980086332">
				<ele>122.0</ele>
				<time>2011-02-15T17:04:16Z</time>
			</trkpt>
			<trkpt lat="50.89030778048721" lon="6.70011765490982">
				<ele>122.0</ele>
				<time>2011-02-15T17:04:17Z</time>
			</trkpt>
			<trkpt lat="50.89030724073103" lon="6.7001246585390675">
				<ele>122.0</ele>
				<time>2011-02-15T17:04:18Z</time>
			</trkpt>
			<trkpt lat="50.89030573212911" lon="6.700131402814128">
				<ele>122.0</ele>
				<time>2011-02-15T17:04:19Z</time>
			</trkpt>
			<trkpt lat="50.8903029274296" lon="6.70013799165308">
				<ele>122.0</ele>
				<time>2011-02-15T17:04:20Z</time>
			</trkpt>
			<trkpt lat="50.89030087857658" lon="6.700142863118375">
				<ele>122.0</ele>
				<time>2011-02-15T17:04:21Z</time>
			</trkpt>
			<trkpt lat="50.89029860637451" lon="6.7001483545993485">
				<ele>122.0</ele>
				<time>2011-02-15T17:04:22Z</time>
			</trkpt>
			<trkpt lat="50.89029602193551" lon="6.700154433346574">
				<ele>122.0</ele>
				<time>2011-02-15T17:04:23Z</time>
			</trkpt>
			<trkpt lat="50.89029291488104" lon="6.700159575128315">
				<ele>122.0</ele>
				<time>2011-02-15T17:04:24Z</time>
			</trkpt>
			<trkpt lat="50.89028917723326" lon="6.700164662302111">
				<ele>122.0</ele>
				<time>2011-02-15T17:04:25Z</time>
			</trkpt>
			<trkpt lat="50.890286053831694" lon="6.700168921581651">
				<ele>122.0</ele>
				<time>2011-02-15T17:04:26Z</time>
			</trkpt>
			<trkpt lat="50.890283388708305" lon="6.7001721107621846">
				<ele>122.0</ele>
				<time>2011-02-15T17:04:27Z</time>
			</trkpt>
			<trkpt lat="50.890279774401385" lon="6.7001754260743684">
				<ele>122.0</ele>
				<time>2011-02-15T17:04:28Z</time>
			</trkpt>
			<trkpt lat="50.89027668686515" lon="6.700177490288067">
				<ele>122.0</ele>
				<time>2011-02-15T17:04:29Z</time>
			</trkpt>
			<trkpt lat="50.890272159235224" lon="6.700179473647083">
				<ele>122.0</ele>
				<time>2011-02-15T17:04:30Z</time>
			</trkpt>
			<trkpt lat="50.89026760224761" lon="6.700179859625794">
				<ele>122.0</ele>
				<time>2011-02-15T17:04:31Z</time>
			</trkpt>
			<trkpt lat="50.89026279065294" lon="6.700179121622589">
				<ele>122.0</ele>
				<time>2011-02-15T17:04:32Z</time>
			</trkpt>
			<trkpt lat="50.890257566465316" lon="6.700178472337888">
				<ele>122.0</ele>
				<time>2011-02-15T17:04:33Z</time>
			</trkpt>
			<trkpt lat="50.890252945479" lon="6.7001777144861085">
				<ele>122.0</ele>
				<time>2011-02-15T17:04:34Z</time>
			</trkpt>
			<trkpt lat="50.890249048185154" lon="6.700176460434472">
				<ele>122.0</ele>
				<time>2011-02-15T17:04:35Z</time>
			</trkpt>
			<trkpt lat="50.89024567237848" lon="6.700175160359467">
				<ele>122.0</ele>
				<time>2011-02-15T17:04:36Z</time>
			</trkpt>
			<trkpt lat="50.89024291259979" lon="6.70017377672507">
				<ele>122.0</ele>
				<time>2011-02-15T17:04:37Z</time>
			</trkpt>
			<trkpt lat="50.8902405938387" lon="6.700172588550146">
				<ele>122.0</ele>
				<time>2011-02-15T17:04:38Z</time>
			</trkpt>
			<trkpt lat="50.890238525370364" lon="6.700171703112135">
				<ele>122.0</ele>
				<time>2011-02-15T17:04:39Z</time>
			</trkpt>
			<trkpt lat="50.890236455320135" lon="6.700171169217357">
				<ele>122.0</ele>
				<time>2011-02-15T17:04:40Z</time>
			</trkpt>
			<trkpt lat="50.890234136567855" lon="6.7001704443848284">
				<ele>122.0</ele>
				<time>2011-02-15T17:04:41Z</time>
			</trkpt>
			<trkpt lat="50.89023219632336" lon="6.700169186633964">
				<ele>122.0</ele>
				<time>2011-02-15T17:04:42Z</time>
			</trkpt>
			<trkpt lat="50.89023042511621" lon="6.700168183660314">
				<ele>122.0</ele>
				<time>2011-02-15T17:04:43Z</time>
			</trkpt>
			<trkpt lat="50.89022901704332" lon="6.700167452957512">
				<ele>122.0</ele>
				<time>2011-02-15T17:04:43Z</time>
			</trkpt>
			<trkpt lat="50.890228368488856" lon="6.700167039352097">
				<ele>122.0</ele>
				<time>2011-02-15T17:04:44Z</time>
			</trkpt>
			<trkpt lat="50.89022768536044" lon="6.7001666392631565">
				<ele>122.0</ele>
				<time>2011-02-15T17:04:45Z</time>
			</trkpt>
			<trkpt lat="50.89022711499974" lon="6.700166027900893">
				<ele>122.0</ele>
				<time>2011-02-15T17:04:46Z</time>
			</trkpt>
			<trkpt lat="50.890226581494154" lon="6.700165628211118">
				<ele>122.0</ele>
				<time>2011-02-15T17:04:47Z</time>
			</trkpt>
			<trkpt lat="50.890226010155565" lon="6.700165143169416">
				<ele>122.0</ele>
				<time>2011-02-15T17:04:48Z</time>
			</trkpt>
			<trkpt lat="50.89022536529585" lon="6.7001649889763595">
				<ele>122.0</ele>
				<time>2011-02-15T17:04:49Z</time>
			</trkpt>
			<trkpt lat="50.89022494735659" lon="6.700165047057304">
				<ele>122.0</ele>
				<time>2011-02-15T17:04:50Z</time>
			</trkpt>
			<trkpt lat="50.89022474036498" lon="6.700164892548058">
				<ele>122.0</ele>
				<time>2011-02-15T17:04:51Z</time>
			</trkpt>
			<trkpt lat="50.890224706056884" lon="6.7001651473091375">
				<ele>122.0</ele>
				<time>2011-02-15T17:04:52Z</time>
			</trkpt>
			<trkpt lat="50.89022441327326" lon="6.700164275629954">
				<ele>122.0</ele>
				<time>2011-02-15T17:04:53Z</time>
			</trkpt>
			<trkpt lat="50.890224186693594" lon="6.700162957197727">
				<ele>122.0</ele>
				<time>2011-02-15T17:04:54Z</time>
			</trkpt>
			<trkpt lat="50.890225102219354" lon="6.700160058906015">
				<ele>122.0</ele>
				<time>2011-02-15T17:04:55Z</time>
			</trkpt>
			<trkpt lat="50.890226438100264" lon="6.700158372574429">
				<ele>122.0</ele>
				<time>2011-02-15T17:04:56Z</time>
			</trkpt>
			<trkpt lat="50.8902291841575" lon="6.700157537941224">
				<ele>122.0</ele>
				<time>2011-02-15T17:04:57Z</time>
			</trkpt>
			<trkpt lat="50.890233409657014" lon="6.700159397536205">
				<ele>122.0</ele>
				<time>2011-02-15T17:04:58Z</time>
			</trkpt>
			<trkpt lat="50.89023768912731" lon="6.700161864324658">
				<ele>122.0</ele>
				<time>2011-02-15T17:04:59Z</time>
			</trkpt>
			<trkpt lat="50.89024534580281" lon="6.700167468127689">
				<ele>122.0</ele>
				<time>2011-02-15T17:05:00Z</time>
			</trkpt>
			<trkpt lat="50.89025972382838" lon="6.7001776257113885">
				<ele>122.0</ele>
				<time>2011-02-15T17:05:01Z</time>
			</trkpt>
			<trkpt lat="50.890284330254936" lon="6.700195489515121">
				<ele>122.0</ele>
				<time>2011-02-15T17:05:02Z</time>
			</trkpt>
			<trkpt lat="50.89031072568287" lon="6.700215697986965">
				<ele>122.0</ele>
				<time>2011-02-15T17:05:03Z</time>
			</trkpt>
			<trkpt lat="50.89033662130193" lon="6.700238073517736">
				<ele>122.0</ele>
				<time>2011-02-15T17:05:04Z</time>
			</trkpt>
			<trkpt lat="50.89036883377943" lon="6.700265047107843">
				<ele>122.0</ele>
				<time>2011-02-15T17:05:05Z</time>
			</trkpt>
			<trkpt lat="50.89039983007071" lon="6.700291362235225">
				<ele>122.0</ele>
				<time>2011-02-15T17:05:06Z</time>
			</trkpt>
			<trkpt lat="50.8904309562516" lon="6.700320876192896">
				<ele>122.0</ele>
				<time>2011-02-15T17:05:07Z</time>
			</trkpt>
			<trkpt lat="50.890463859546806" lon="6.70035219255668">
				<ele>122.0</ele>
				<time>2011-02-15T17:05:08Z</time>
			</trkpt>
			<trkpt lat="50.890497484608765" lon="6.700385377565195">
				<ele>122.0</ele>
				<time>2011-02-15T17:05:09Z</time>
			</trkpt>
			<trkpt lat="50.890529455223074" lon="6.7004186485374735">
				<ele>122.0</ele>
				<time>2011-02-15T17:05:10Z</time>
			</trkpt>
			<trkpt lat="50.890560086358875" lon="6.700457195977787">
				<ele>122.0</ele>
				<time>2011-02-15T17:05:11Z</time>
			</trkpt>
			<trkpt lat="50.890589928619455" lon="6.700495424690216">
				<ele>121.0</ele>
				<time>2011-02-15T17:05:12Z</time>
			</trkpt>
			<trkpt lat="50.89062069461015" lon="6.7005279552094095">
				<ele>121.0</ele>
				<time>2011-02-15T17:05:13Z</time>
			</trkpt>
			<trkpt lat="50.89065102587627" lon="6.700558449097823">
				<ele>121.0</ele>
				<time>2011-02-15T17:05:14Z</time>
			</trkpt>
			<trkpt lat="50.89068034671909" lon="6.700588371183009">
				<ele>121.0</ele>
				<time>2011-02-15T17:05:15Z</time>
			</trkpt>
			<trkpt lat="50.89070732897024" lon="6.700618533471592">
				<ele>121.0</ele>
				<time>2011-02-15T17:05:16Z</time>
			</trkpt>
			<trkpt lat="50.890734883650616" lon="6.700643941807502">
				<ele>121.0</ele>
				<time>2011-02-15T17:05:17Z</time>
			</trkpt>
			<trkpt lat="50.89076359878014" lon="6.700667746080745">
				<ele>121.0</ele>
				<time>2011-02-15T17:05:18Z</time>
			</trkpt>
			<trkpt lat="50.890790918500684" lon="6.700688237637508">
				<ele>121.0</ele>
				<time>2011-02-15T17:05:19Z</time>
			</trkpt>
			<trkpt lat="50.89081948536227" lon="6.700707171060398">
				<ele>121.0</ele>
				<time>2011-02-15T17:05:20Z</time>
			</trkpt>
			<trkpt lat="50.890848701004096" lon="6.700725491576252">
				<ele>121.0</ele>
				<time>2011-02-15T17:05:21Z</time>
			</trkpt>
			<trkpt lat="50.89087821499643" lon="6.700743956502559">
				<ele>121.0</ele>
				<time>2011-02-15T17:05:22Z</time>
			</trkpt>
			<trkpt lat="50.89090988259449" lon="6.700765817755521">
				<ele>120.0</ele>
				<time>2011-02-15T17:05:23Z</time>
			</trkpt>
			<trkpt lat="50.89094837389687" lon="6.700794709005662">
				<ele>120.0</ele>
				<time>2011-02-15T17:05:24Z</time>
			</trkpt>
			<trkpt lat="50.89098876611001" lon="6.700827118750098">
				<ele>119.0</ele>
				<time>2011-02-15T17:05:25Z</time>
			</trkpt>
			<trkpt lat="50.89103445042822" lon="6.700860109188326">
				<ele>118.0</ele>
				<time>2011-02-15T17:05:26Z</time>
			</trkpt>
			<trkpt lat="50.89108527924147" lon="6.70089268372331">
				<ele>117.0</ele>
				<time>2011-02-15T17:05:27Z</time>
			</trkpt>
			<trkpt lat="50.89113681304861" lon="6.700924795556335">
				<ele>116.0</ele>
				<time>2011-02-15T17:05:28Z</time>
			</trkpt>
			<trkpt lat="50.891189811804864" lon="6.700957965161591">
				<ele>116.0</ele>
				<time>2011-02-15T17:05:29Z</time>
			</trkpt>
			<trkpt lat="50.89124364431813" lon="6.700993433298999">
				<ele>115.0</ele>
				<time>2011-02-15T17:05:30Z</time>
			</trkpt>
			<trkpt lat="50.89129738875275" lon="6.701030287008245">
				<ele>115.0</ele>
				<time>2011-02-15T17:05:31Z</time>
			</trkpt>
			<trkpt lat="50.89135085039787" lon="6.701071375476976">
				<ele>115.0</ele>
				<time>2011-02-15T17:05:32Z</time>
			</trkpt>
			<trkpt lat="50.891403386793755" lon="6.701111901625412">
				<ele>114.0</ele>
				<time>2011-02-15T17:05:33Z</time>
			</trkpt>
			<trkpt lat="50.8914548026163" lon="6.7011535489190495">
				<ele>113.0</ele>
				<time>2011-02-15T17:05:34Z</time>
			</trkpt>
			<trkpt lat="50.891505014689415" lon="6.7011931530571">
				<ele>113.0</ele>
				<time>2011-02-15T17:05:35Z</time>
			</trkpt>
			<trkpt lat="50.891554545463976" lon="6.7012286031381265">
				<ele>113.0</ele>
				<time>2011-02-15T17:05:36Z</time>
			</trkpt>
			<trkpt lat="50.891600276154676" lon="6.70126494739675">
				<ele>113.0</ele>
				<time>2011-02-15T17:05:37Z</time>
			</trkpt>
			<trkpt lat="50.89164462364517" lon="6.701304725293409">
				<ele>113.0</ele>
				<time>2011-02-15T17:05:38Z</time>
			</trkpt>
			<trkpt lat="50.89168914812203" lon="6.701344870246076">
				<ele>113.0</ele>
				<time>2011-02-15T17:05:39Z</time>
			</trkpt>
			<trkpt lat="50.89173412345521" lon="6.701386042459489">
				<ele>112.0</ele>
				<time>2011-02-15T17:05:40Z</time>
			</trkpt>
			<trkpt lat="50.89177857110665" lon="6.7014288420893795">
				<ele>112.0</ele>
				<time>2011-02-15T17:05:41Z</time>
			</trkpt>
			<trkpt lat="50.89182412813506" lon="6.7014724106940875">
				<ele>113.0</ele>
				<time>2011-02-15T17:05:42Z</time>
			</trkpt>
			<trkpt lat="50.89187124472462" lon="6.701516449254053">
				<ele>112.0</ele>
				<time>2011-02-15T17:05:43Z</time>
			</trkpt>
			<trkpt lat="50.89191881459406" lon="6.701560306396788">
				<ele>112.0</ele>
				<time>2011-02-15T17:05:44Z</time>
			</trkpt>
			<trkpt lat="50.891966466995555" lon="6.701605580634347">
				<ele>112.0</ele>
				<time>2011-02-15T17:05:45Z</time>
			</trkpt>
			<trkpt lat="50.89201117147709" lon="6.701648232038421">
				<ele>112.0</ele>
				<time>2011-02-15T17:05:46Z</time>
			</trkpt>
			<trkpt lat="50.89205495570387" lon="6.701689904484931">
				<ele>112.0</ele>
				<time>2011-02-15T17:05:47Z</time>
			</trkpt>
			<trkpt lat="50.89209990339681" lon="6.701735202027654">
				<ele>112.0</ele>
				<time>2011-02-15T17:05:48Z</time>
			</trkpt>
			<trkpt lat="50.892148019598416" lon="6.701783376301929">
				<ele>111.0</ele>
				<time>2011-02-15T17:05:49Z</time>
			</trkpt>
			<trkpt lat="50.89219602113256" lon="6.701830671109851">
				<ele>110.0</ele>
				<time>2011-02-15T17:05:50Z</time>
			</trkpt>
			<trkpt lat="50.89224319789529" lon="6.7018772277437">
				<ele>110.0</ele>
				<time>2011-02-15T17:05:51Z</time>
			</trkpt>
			<trkpt lat="50.89229103066328" lon="6.701925787569968">
				<ele>110.0</ele>
				<time>2011-02-15T17:05:52Z</time>
			</trkpt>
			<trkpt lat="50.89233961842373" lon="6.7019733937104835">
				<ele>109.0</ele>
				<time>2011-02-15T17:05:53Z</time>
			</trkpt>
			<trkpt lat="50.892387028246645" lon="6.702023780367664">
				<ele>109.0</ele>
				<time>2011-02-15T17:05:54Z</time>
			</trkpt>
			<trkpt lat="50.89243185123582" lon="6.7020682777445995">
				<ele>109.0</ele>
				<time>2011-02-15T17:05:55Z</time>
			</trkpt>
			<trkpt lat="50.89247546623718" lon="6.702116007262063">
				<ele>108.0</ele>
				<time>2011-02-15T17:05:56Z</time>
			</trkpt>
			<trkpt lat="50.89250648915756" lon="6.702187723113967">
				<ele>108.0</ele>
				<time>2011-02-15T17:05:57Z</time>
			</trkpt>
			<trkpt lat="50.89253399292787" lon="6.702261611323676">
				<ele>108.0</ele>
				<time>2011-02-15T17:05:58Z</time>
			</trkpt>
			<trkpt lat="50.89256014596398" lon="6.7023375571386845">
				<ele>108.0</ele>
				<time>2011-02-15T17:05:59Z</time>
			</trkpt>
			<trkpt lat="50.89258440410263" lon="6.7024127850979625">
				<ele>108.0</ele>
				<time>2011-02-15T17:06:00Z</time>
			</trkpt>
			<trkpt lat="50.89260623083906" lon="6.702489798199788">
				<ele>108.0</ele>
				<time>2011-02-15T17:06:01Z</time>
			</trkpt>
			<trkpt lat="50.892626267282225" lon="6.702566502349433">
				<ele>108.0</ele>
				<time>2011-02-15T17:06:02Z</time>
			</trkpt>
			<trkpt lat="50.89264409016083" lon="6.70264604682747">
				<ele>107.0</ele>
				<time>2011-02-15T17:06:03Z</time>
			</trkpt>
			<trkpt lat="50.892661225697246" lon="6.702726323249607">
				<ele>107.0</ele>
				<time>2011-02-15T17:06:04Z</time>
			</trkpt>
			<trkpt lat="50.89267657172001" lon="6.702813061882354">
				<ele>107.0</ele>
				<time>2011-02-15T17:06:05Z</time>
			</trkpt>
			<trkpt lat="50.8926920704819" lon="6.70290057652492">
				<ele>107.0</ele>
				<time>2011-02-15T17:06:06Z</time>
			</trkpt>
			<trkpt lat="50.89270657120642" lon="6.7030063208871065">
				<ele>107.0</ele>
				<time>2011-02-15T17:06:07Z</time>
			</trkpt>
			<trkpt lat="50.89272108341034" lon="6.703130310619697">
				<ele>107.0</ele>
				<time>2011-02-15T17:06:08Z</time>
			</trkpt>
			<trkpt lat="50.89273521967047" lon="6.703253580713309">
				<ele>107.0</ele>
				<time>2011-02-15T17:06:09Z</time>
			</trkpt>
			<trkpt lat="50.892749216267795" lon="6.703365627050136">
				<ele>107.0</ele>
				<time>2011-02-15T17:06:10Z</time>
			</trkpt>
			<trkpt lat="50.89276308302365" lon="6.703470130096957">
				<ele>107.0</ele>
				<time>2011-02-15T17:06:11Z</time>
			</trkpt>
			<trkpt lat="50.89277903370991" lon="6.703561617708482">
				<ele>107.0</ele>
				<time>2011-02-15T17:06:12Z</time>
			</trkpt>
			<trkpt lat="50.892807364493734" lon="6.703635263031877">
				<ele>107.0</ele>
				<time>2011-02-15T17:06:13Z</time>
			</trkpt>
			<trkpt lat="50.89283673238122" lon="6.703702170040603">
				<ele>107.0</ele>
				<time>2011-02-15T17:06:14Z</time>
			</trkpt>
			<trkpt lat="50.89286572781581" lon="6.703768243287818">
				<ele>107.0</ele>
				<time>2011-02-15T17:06:15Z</time>
			</trkpt>
			<trkpt lat="50.89290279259288" lon="6.703819271452794">
				<ele>107.0</ele>
				<time>2011-02-15T17:06:16Z</time>
			</trkpt>
			<trkpt lat="50.89294452623484" lon="6.703861244295929">
				<ele>107.0</ele>
				<time>2011-02-15T17:06:17Z</time>
			</trkpt>
			<trkpt lat="50.892985902488164" lon="6.703897718850011">
				<ele>107.0</ele>
				<time>2011-02-15T17:06:18Z</time>
			</trkpt>
			<trkpt lat="50.893025422637855" lon="6.703930786937391">
				<ele>107.0</ele>
				<time>2011-02-15T17:06:19Z</time>
			</trkpt>
			<trkpt lat="50.893057591337985" lon="6.703973641477162">
				<ele>107.0</ele>
				<time>2011-02-15T17:06:20Z</time>
			</trkpt>
			<trkpt lat="50.89309018931029" lon="6.704013446816687">
				<ele>107.0</ele>
				<time>2011-02-15T17:06:21Z</time>
			</trkpt>
			<trkpt lat="50.89312585047661" lon="6.704052606060209">
				<ele>107.0</ele>
				<time>2011-02-15T17:06:22Z</time>
			</trkpt>
			<trkpt lat="50.8931606968263" lon="6.704088887212523">
				<ele>106.0</ele>
				<time>2011-02-15T17:06:23Z</time>
			</trkpt>
			<trkpt lat="50.893195799726094" lon="6.704124200210493">
				<ele>106.0</ele>
				<time>2011-02-15T17:06:24Z</time>
			</trkpt>
			<trkpt lat="50.8932334258302" lon="6.704153608797787">
				<ele>105.0</ele>
				<time>2011-02-15T17:06:25Z</time>
			</trkpt>
			<trkpt lat="50.893271896409175" lon="6.704182767292654">
				<ele>105.0</ele>
				<time>2011-02-15T17:06:26Z</time>
			</trkpt>
			<trkpt lat="50.89331021982285" lon="6.704213270840157">
				<ele>105.0</ele>
				<time>2011-02-15T17:06:27Z</time>
			</trkpt>
			<trkpt lat="50.89334941800337" lon="6.704247422711832">
				<ele>105.0</ele>
				<time>2011-02-15T17:06:28Z</time>
			</trkpt>
			<trkpt lat="50.89338727878338" lon="6.704284957302348">
				<ele>105.0</ele>
				<time>2011-02-15T17:06:29Z</time>
			</trkpt>
			<trkpt lat="50.89342470333458" lon="6.704324125695228">
				<ele>104.0</ele>
				<time>2011-02-15T17:06:30Z</time>
			</trkpt>
			<trkpt lat="50.89346489120779" lon="6.704358374060156">
				<ele>104.0</ele>
				<time>2011-02-15T17:06:31Z</time>
			</trkpt>
			<trkpt lat="50.89350406822959" lon="6.704395526150309">
				<ele>104.0</ele>
				<time>2011-02-15T17:06:32Z</time>
			</trkpt>
			<trkpt lat="50.893540297214734" lon="6.704434688480531">
				<ele>103.0</ele>
				<time>2011-02-15T17:06:33Z</time>
			</trkpt>
			<trkpt lat="50.89357898192324" lon="6.704473305779523">
				<ele>103.0</ele>
				<time>2011-02-15T17:06:34Z</time>
			</trkpt>
			<trkpt lat="50.89361849949726" lon="6.704510711913028">
				<ele>103.0</ele>
				<time>2011-02-15T17:06:35Z</time>
			</trkpt>
			<trkpt lat="50.89365830697095" lon="6.704545677997267">
				<ele>102.0</ele>
				<time>2011-02-15T17:06:36Z</time>
			</trkpt>
			<trkpt lat="50.8936987007196" lon="6.704578591694593">
				<ele>102.0</ele>
				<time>2011-02-15T17:06:37Z</time>
			</trkpt>
			<trkpt lat="50.89373898824063" lon="6.704609695005114">
				<ele>102.0</ele>
				<time>2011-02-15T17:06:38Z</time>
			</trkpt>
			<trkpt lat="50.89377907113584" lon="6.704639587032085">
				<ele>102.0</ele>
				<time>2011-02-15T17:06:39Z</time>
			</trkpt>
			<trkpt lat="50.893813985056276" lon="6.7046695094579665">
				<ele>102.0</ele>
				<time>2011-02-15T17:06:40Z</time>
			</trkpt>
			<trkpt lat="50.8938488551997" lon="6.704700118905838">
				<ele>102.0</ele>
				<time>2011-02-15T17:06:41Z</time>
			</trkpt>
			<trkpt lat="50.893884179048804" lon="6.704738160443434">
				<ele>102.0</ele>
				<time>2011-02-15T17:06:42Z</time>
			</trkpt>
			<trkpt lat="50.89391845035829" lon="6.7047798391812">
				<ele>102.0</ele>
				<time>2011-02-15T17:06:43Z</time>
			</trkpt>
			<trkpt lat="50.893954938185736" lon="6.704818851438162">
				<ele>102.0</ele>
				<time>2011-02-15T17:06:44Z</time>
			</trkpt>
			<trkpt lat="50.8939910006184" lon="6.704859568081352">
				<ele>102.0</ele>
				<time>2011-02-15T17:06:45Z</time>
			</trkpt>
			<trkpt lat="50.894027075183956" lon="6.704901987130824">
				<ele>102.0</ele>
				<time>2011-02-15T17:06:46Z</time>
			</trkpt>
			<trkpt lat="50.894063423202354" lon="6.70494307929336">
				<ele>101.0</ele>
				<time>2011-02-15T17:06:47Z</time>
			</trkpt>
			<trkpt lat="50.8941013964776" lon="6.704981467733461">
				<ele>101.0</ele>
				<time>2011-02-15T17:06:48Z</time>
			</trkpt>
			<trkpt lat="50.89413996044038" lon="6.705018917772445">
				<ele>101.0</ele>
				<time>2011-02-15T17:06:49Z</time>
			</trkpt>
			<trkpt lat="50.894176931170094" lon="6.705058799588137">
				<ele>101.0</ele>
				<time>2011-02-15T17:06:50Z</time>
			</trkpt>
			<trkpt lat="50.894215261478045" lon="6.705095946478185">
				<ele>101.0</ele>
				<time>2011-02-15T17:06:51Z</time>
			</trkpt>
			<trkpt lat="50.89425374951533" lon="6.705134594414591">
				<ele>100.0</ele>
				<time>2011-02-15T17:06:52Z</time>
			</trkpt>
			<trkpt lat="50.89429334672503" lon="6.705172636545828">
				<ele>100.0</ele>
				<time>2011-02-15T17:06:53Z</time>
			</trkpt>
			<trkpt lat="50.89433321375704" lon="6.7052030672197">
				<ele>100.0</ele>
				<time>2011-02-15T17:06:54Z</time>
			</trkpt>
			<trkpt lat="50.894372873934344" lon="6.705234079207902">
				<ele>100.0</ele>
				<time>2011-02-15T17:06:55Z</time>
			</trkpt>
			<trkpt lat="50.89441283830997" lon="6.705266436148565">
				<ele>100.0</ele>
				<time>2011-02-15T17:06:56Z</time>
			</trkpt>
			<trkpt lat="50.89445510465056" lon="6.705296279720756">
				<ele>99.0</ele>
				<time>2011-02-15T17:06:57Z</time>
			</trkpt>
			<trkpt lat="50.89449705557193" lon="6.705335448187701">
				<ele>98.0</ele>
				<time>2011-02-15T17:06:58Z</time>
			</trkpt>
			<trkpt lat="50.894539220995036" lon="6.70537430468701">
				<ele>98.0</ele>
				<time>2011-02-15T17:06:59Z</time>
			</trkpt>
			<trkpt lat="50.8945832487527" lon="6.7054114489976095">
				<ele>97.0</ele>
				<time>2011-02-15T17:07:00Z</time>
			</trkpt>
			<trkpt lat="50.89462665186498" lon="6.705447873824626">
				<ele>97.0</ele>
				<time>2011-02-15T17:07:01Z</time>
			</trkpt>
			<trkpt lat="50.894670341086936" lon="6.705480735833059">
				<ele>97.0</ele>
				<time>2011-02-15T17:07:02Z</time>
			</trkpt>
			<trkpt lat="50.89471277425056" lon="6.705516152192729">
				<ele>97.0</ele>
				<time>2011-02-15T17:07:03Z</time>
			</trkpt>
			<trkpt lat="50.89475637863125" lon="6.705561222645284">
				<ele>97.0</ele>
				<time>2011-02-15T17:07:04Z</time>
			</trkpt>
			<trkpt lat="50.89479938646691" lon="6.705605057738608">
				<ele>97.0</ele>
				<time>2011-02-15T17:07:05Z</time>
			</trkpt>
			<trkpt lat="50.89485098440198" lon="6.705654498281136">
				<ele>97.0</ele>
				<time>2011-02-15T17:07:06Z</time>
			</trkpt>
			<trkpt lat="50.894902614620925" lon="6.7057047437599495">
				<ele>97.0</ele>
				<time>2011-02-15T17:07:07Z</time>
			</trkpt>
			<trkpt lat="50.894955587581094" lon="6.705745147343671">
				<ele>97.0</ele>
				<time>2011-02-15T17:07:08Z</time>
			</trkpt>
			<trkpt lat="50.89500680150742" lon="6.705779133494313">
				<ele>97.0</ele>
				<time>2011-02-15T17:07:09Z</time>
			</trkpt>
			<trkpt lat="50.89505480252027" lon="6.705809433289486">
				<ele>97.0</ele>
				<time>2011-02-15T17:07:10Z</time>
			</trkpt>
			<trkpt lat="50.895100668283895" lon="6.705843034415645">
				<ele>97.0</ele>
				<time>2011-02-15T17:07:11Z</time>
			</trkpt>
			<trkpt lat="50.89514402285238" lon="6.705856201157716">
				<ele>97.0</ele>
				<time>2011-02-15T17:07:12Z</time>
			</trkpt>
			<trkpt lat="50.89519199033734" lon="6.70589610653213">
				<ele>97.0</ele>
				<time>2011-02-15T17:07:13Z</time>
			</trkpt>
			<trkpt lat="50.89523883315237" lon="6.705937763710467">
				<ele>96.0</ele>
				<time>2011-02-15T17:07:14Z</time>
			</trkpt>
			<trkpt lat="50.8952860784915" lon="6.7059769555744015">
				<ele>96.0</ele>
				<time>2011-02-15T17:07:15Z</time>
			</trkpt>
			<trkpt lat="50.895332839821485" lon="6.706019031281199">
				<ele>96.0</ele>
				<time>2011-02-15T17:07:16Z</time>
			</trkpt>
			<trkpt lat="50.89537850191495" lon="6.706061430965921">
				<ele>96.0</ele>
				<time>2011-02-15T17:07:17Z</time>
			</trkpt>
			<trkpt lat="50.895423147970114" lon="6.706106979006667">
				<ele>95.0</ele>
				<time>2011-02-15T17:07:18Z</time>
			</trkpt>
			<trkpt lat="50.89546777955173" lon="6.706147167999193">
				<ele>95.0</ele>
				<time>2011-02-15T17:07:19Z</time>
			</trkpt>
			<trkpt lat="50.895510369281965" lon="6.706193416898808">
				<ele>94.0</ele>
				<time>2011-02-15T17:07:20Z</time>
			</trkpt>
			<trkpt lat="50.89555502471063" lon="6.706233030883092">
				<ele>94.0</ele>
				<time>2011-02-15T17:07:21Z</time>
			</trkpt>
			<trkpt lat="50.895601532709385" lon="6.706274793553648">
				<ele>94.0</ele>
				<time>2011-02-15T17:07:22Z</time>
			</trkpt>
			<trkpt lat="50.89564844735605" lon="6.706318102033747">
				<ele>94.0</ele>
				<time>2011-02-15T17:07:23Z</time>
			</trkpt>
			<trkpt lat="50.89569446859638" lon="6.706361364234861">
				<ele>93.0</ele>
				<time>2011-02-15T17:07:24Z</time>
			</trkpt>
			<trkpt lat="50.89573936543826" lon="6.7064047508133235">
				<ele>93.0</ele>
				<time>2011-02-15T17:07:25Z</time>
			</trkpt>
			<trkpt lat="50.89578361857387" lon="6.706445869250033">
				<ele>93.0</ele>
				<time>2011-02-15T17:07:26Z</time>
			</trkpt>
			<trkpt lat="50.895823239620036" lon="6.7064780124274535">
				<ele>93.0</ele>
				<time>2011-02-15T17:07:27Z</time>
			</trkpt>
			<trkpt lat="50.895862964059184" lon="6.706512606824667">
				<ele>93.0</ele>
				<time>2011-02-15T17:07:28Z</time>
			</trkpt>
			<trkpt lat="50.895903968205474" lon="6.70654514367499">
				<ele>94.0</ele>
				<time>2011-02-15T17:07:29Z</time>
			</trkpt>
			<trkpt lat="50.89594595368593" lon="6.706574792611781">
				<ele>94.0</ele>
				<time>2011-02-15T17:07:30Z</time>
			</trkpt>
			<trkpt lat="50.89598868879202" lon="6.706606071146325">
				<ele>94.0</ele>
				<time>2011-02-15T17:07:31Z</time>
			</trkpt>
			<trkpt lat="50.896031119039655" lon="6.706637738961501">
				<ele>94.0</ele>
				<time>2011-02-15T17:07:32Z</time>
			</trkpt>
			<trkpt lat="50.89607218634954" lon="6.706667792840781">
				<ele>94.0</ele>
				<time>2011-02-15T17:07:33Z</time>
			</trkpt>
			<trkpt lat="50.89610820391636" lon="6.706717059109806">
				<ele>94.0</ele>
				<time>2011-02-15T17:07:34Z</time>
			</trkpt>
			<trkpt lat="50.896145004033606" lon="6.706764946815939">
				<ele>94.0</ele>
				<time>2011-02-15T17:07:35Z</time>
			</trkpt>
			<trkpt lat="50.89618336455235" lon="6.706808041574347">
				<ele>94.0</ele>
				<time>2011-02-15T17:07:36Z</time>
			</trkpt>
			<trkpt lat="50.89622528408489" lon="6.7068504966096825">
				<ele>94.0</ele>
				<time>2011-02-15T17:07:37Z</time>
			</trkpt>
			<trkpt lat="50.896272221621224" lon="6.7068799643957115">
				<ele>94.0</ele>
				<time>2011-02-15T17:07:38Z</time>
			</trkpt>
			<trkpt lat="50.89631524650967" lon="6.706907089218049">
				<ele>94.0</ele>
				<time>2011-02-15T17:07:39Z</time>
			</trkpt>
			<trkpt lat="50.89635750577174" lon="6.706938420214646">
				<ele>94.0</ele>
				<time>2011-02-15T17:07:40Z</time>
			</trkpt>
			<trkpt lat="50.896398787860605" lon="6.7069719448983305">
				<ele>95.0</ele>
				<time>2011-02-15T17:07:41Z</time>
			</trkpt>
			<trkpt lat="50.89643836509114" lon="6.7070090364974755">
				<ele>95.0</ele>
				<time>2011-02-15T17:07:42Z</time>
			</trkpt>
			<trkpt lat="50.89648018944075" lon="6.7070447831423055">
				<ele>95.0</ele>
				<time>2011-02-15T17:07:43Z</time>
			</trkpt>
			<trkpt lat="50.89652193776389" lon="6.707080681640747">
				<ele>95.0</ele>
				<time>2011-02-15T17:07:44Z</time>
			</trkpt>
			<trkpt lat="50.89656186006472" lon="6.707120076473879">
				<ele>95.0</ele>
				<time>2011-02-15T17:07:45Z</time>
			</trkpt>
			<trkpt lat="50.89659909445258" lon="6.707160393251314">
				<ele>95.0</ele>
				<time>2011-02-15T17:07:46Z</time>
			</trkpt>
			<trkpt lat="50.896638113696994" lon="6.707199257583158">
				<ele>95.0</ele>
				<time>2011-02-15T17:07:47Z</time>
			</trkpt>
			<trkpt lat="50.89667673767665" lon="6.707235298375096">
				<ele>95.0</ele>
				<time>2011-02-15T17:07:48Z</time>
			</trkpt>
			<trkpt lat="50.8967098304638" lon="6.7072834271784725">
				<ele>95.0</ele>
				<time>2011-02-15T17:07:49Z</time>
			</trkpt>
			<trkpt lat="50.896744843530264" lon="6.7073345758923235">
				<ele>95.0</ele>
				<time>2011-02-15T17:07:50Z</time>
			</trkpt>
			<trkpt lat="50.896783285262366" lon="6.7073911110414866">
				<ele>95.0</ele>
				<time>2011-02-15T17:07:51Z</time>
			</trkpt>
			<trkpt lat="50.896823029237474" lon="6.70744457251911">
				<ele>95.0</ele>
				<time>2011-02-15T17:07:52Z</time>
			</trkpt>
			<trkpt lat="50.89685854558323" lon="6.70749383734451">
				<ele>95.0</ele>
				<time>2011-02-15T17:07:53Z</time>
			</trkpt>
			<trkpt lat="50.89689756512052" lon="6.707543580568706">
				<ele>95.0</ele>
				<time>2011-02-15T17:07:54Z</time>
			</trkpt>
			<trkpt lat="50.89689756512052" lon="6.707543580568706">
				<ele>95.0</ele>
				<time>2011-02-15T17:07:55Z</time>
			</trkpt>
			<trkpt lat="50.896981293730526" lon="6.707637273102566">
				<ele>95.0</ele>
				<time>2011-02-15T17:07:56Z</time>
			</trkpt>
			<trkpt lat="50.89702143061595" lon="6.70767445030034">
				<ele>95.0</ele>
				<time>2011-02-15T17:07:57Z</time>
			</trkpt>
			<trkpt lat="50.89705979919615" lon="6.707705122516279">
				<ele>95.0</ele>
				<time>2011-02-15T17:07:58Z</time>
			</trkpt>
			<trkpt lat="50.89709694537921" lon="6.707731581287856">
				<ele>95.0</ele>
				<time>2011-02-15T17:07:59Z</time>
			</trkpt>
			<trkpt lat="50.89713276135428" lon="6.707745649635368">
				<ele>95.0</ele>
				<time>2011-02-15T17:08:00Z</time>
			</trkpt>
			<trkpt lat="50.89716319476497" lon="6.707749825837846">
				<ele>95.0</ele>
				<time>2011-02-15T17:08:01Z</time>
			</trkpt>
			<trkpt lat="50.89719355266816" lon="6.707762674682921">
				<ele>95.0</ele>
				<time>2011-02-15T17:08:02Z</time>
			</trkpt>
			<trkpt lat="50.89722511333469" lon="6.707766346739256">
				<ele>95.0</ele>
				<time>2011-02-15T17:08:03Z</time>
			</trkpt>
			<trkpt lat="50.897257624299144" lon="6.707770128880254">
				<ele>95.0</ele>
				<time>2011-02-15T17:08:04Z</time>
			</trkpt>
			<trkpt lat="50.897289098688766" lon="6.707773912485944">
				<ele>95.0</ele>
				<time>2011-02-15T17:08:05Z</time>
			</trkpt>
			<trkpt lat="50.89731959728967" lon="6.707776723157583">
				<ele>96.0</ele>
				<time>2011-02-15T17:08:06Z</time>
			</trkpt>
			<trkpt lat="50.89734617994562" lon="6.70778130670354">
				<ele>96.0</ele>
				<time>2011-02-15T17:08:07Z</time>
			</trkpt>
			<trkpt lat="50.89737110354582" lon="6.707785992684479">
				<ele>96.0</ele>
				<time>2011-02-15T17:08:08Z</time>
			</trkpt>
			<trkpt lat="50.89737110354582" lon="6.707785992684479">
				<ele>96.0</ele>
				<time>2011-02-15T17:08:09Z</time>
			</trkpt>
			<trkpt lat="50.89737110354582" lon="6.707785992684479">
				<ele>96.0</ele>
				<time>2011-02-15T17:08:10Z</time>
			</trkpt>
			<trkpt lat="50.89737110354582" lon="6.707785992684479">
				<ele>96.0</ele>
				<time>2011-02-15T17:08:11Z</time>
			</trkpt>
			<trkpt lat="50.89737110354582" lon="6.707785992684479">
				<ele>96.0</ele>
				<time>2011-02-15T17:08:12Z</time>
			</trkpt>
			<trkpt lat="50.897459888800704" lon="6.707812433070288">
				<ele>96.0</ele>
				<time>2011-02-15T17:08:13Z</time>
			</trkpt>
			<trkpt lat="50.897459888800704" lon="6.707812433070288">
				<ele>96.0</ele>
				<time>2011-02-15T17:08:14Z</time>
			</trkpt>
			<trkpt lat="50.897459888800704" lon="6.707812433070288">
				<ele>96.0</ele>
				<time>2011-02-15T17:08:15Z</time>
			</trkpt>
			<trkpt lat="50.897459888800704" lon="6.707812433070288">
				<ele>96.0</ele>
				<time>2011-02-15T17:08:16Z</time>
			</trkpt>
			<trkpt lat="50.897459888800704" lon="6.707812433070288">
				<ele>96.0</ele>
				<time>2011-02-15T17:08:17Z</time>
			</trkpt>
			<trkpt lat="50.897459888800704" lon="6.707812433070288">
				<ele>96.0</ele>
				<time>2011-02-15T17:08:18Z</time>
			</trkpt>
			<trkpt lat="50.897459888800704" lon="6.707812433070288">
				<ele>96.0</ele>
				<time>2011-02-15T17:08:19Z</time>
			</trkpt>
			<trkpt lat="50.897459888800704" lon="6.707812433070288">
				<ele>96.0</ele>
				<time>2011-02-15T17:08:20Z</time>
			</trkpt>
			<trkpt lat="50.897459888800704" lon="6.707812433070288">
				<ele>96.0</ele>
				<time>2011-02-15T17:08:21Z</time>
			</trkpt>
			<trkpt lat="50.897459888800704" lon="6.707812433070288">
				<ele>96.0</ele>
				<time>2011-02-15T17:08:22Z</time>
			</trkpt>
			<trkpt lat="50.897459888800704" lon="6.707812433070288">
				<ele>96.0</ele>
				<time>2011-02-15T17:08:23Z</time>
			</trkpt>
			<trkpt lat="50.897459888800704" lon="6.707812433070288">
				<ele>96.0</ele>
				<time>2011-02-15T17:08:24Z</time>
			</trkpt>
			<trkpt lat="50.897459888800704" lon="6.707812433070288">
				<ele>96.0</ele>
				<time>2011-02-15T17:08:25Z</time>
			</trkpt>
			<trkpt lat="50.897459888800704" lon="6.707812433070288">
				<ele>96.0</ele>
				<time>2011-02-15T17:08:26Z</time>
			</trkpt>
			<trkpt lat="50.897459888800704" lon="6.707812433070288">
				<ele>96.0</ele>
				<time>2011-02-15T17:08:27Z</time>
			</trkpt>
			<trkpt lat="50.897459888800704" lon="6.707812433070288">
				<ele>96.0</ele>
				<time>2011-02-15T17:08:28Z</time>
			</trkpt>
			<trkpt lat="50.897459888800704" lon="6.707812433070288">
				<ele>96.0</ele>
				<time>2011-02-15T17:08:29Z</time>
			</trkpt>
			<trkpt lat="50.897459888800704" lon="6.707812433070288">
				<ele>96.0</ele>
				<time>2011-02-15T17:08:30Z</time>
			</trkpt>
			<trkpt lat="50.897459888800704" lon="6.707812433070288">
				<ele>96.0</ele>
				<time>2011-02-15T17:08:31Z</time>
			</trkpt>
			<trkpt lat="50.897459888800704" lon="6.707812433070288">
				<ele>96.0</ele>
				<time>2011-02-15T17:08:32Z</time>
			</trkpt>
			<trkpt lat="50.897459888800704" lon="6.707812433070288">
				<ele>96.0</ele>
				<time>2011-02-15T17:08:33Z</time>
			</trkpt>
			<trkpt lat="50.897519489406065" lon="6.70791968303045">
				<ele>96.0</ele>
				<time>2011-02-15T17:08:34Z</time>
			</trkpt>
			<trkpt lat="50.897519489406065" lon="6.70791968303045">
				<ele>96.0</ele>
				<time>2011-02-15T17:08:35Z</time>
			</trkpt>
			<trkpt lat="50.897519489406065" lon="6.70791968303045">
				<ele>96.0</ele>
				<time>2011-02-15T17:08:36Z</time>
			</trkpt>
			<trkpt lat="50.897519489406065" lon="6.70791968303045">
				<ele>96.0</ele>
				<time>2011-02-15T17:08:37Z</time>
			</trkpt>
			<trkpt lat="50.897519489406065" lon="6.70791968303045">
				<ele>96.0</ele>
				<time>2011-02-15T17:08:38Z</time>
			</trkpt>
			<trkpt lat="50.897519489406065" lon="6.70791968303045">
				<ele>96.0</ele>
				<time>2011-02-15T17:08:39Z</time>
			</trkpt>
			<trkpt lat="50.897519489406065" lon="6.70791968303045">
				<ele>96.0</ele>
				<time>2011-02-15T17:08:40Z</time>
			</trkpt>
			<trkpt lat="50.897519489406065" lon="6.70791968303045">
				<ele>96.0</ele>
				<time>2011-02-15T17:08:41Z</time>
			</trkpt>
			<trkpt lat="50.897519489406065" lon="6.70791968303045">
				<ele>96.0</ele>
				<time>2011-02-15T17:08:42Z</time>
			</trkpt>
			<trkpt lat="50.897519489406065" lon="6.70791968303045">
				<ele>96.0</ele>
				<time>2011-02-15T17:08:43Z</time>
			</trkpt>
			<trkpt lat="50.897519489406065" lon="6.70791968303045">
				<ele>96.0</ele>
				<time>2011-02-15T17:08:44Z</time>
			</trkpt>
			<trkpt lat="50.897519489406065" lon="6.70791968303045">
				<ele>96.0</ele>
				<time>2011-02-15T17:08:45Z</time>
			</trkpt>
			<trkpt lat="50.897519489406065" lon="6.70791968303045">
				<ele>96.0</ele>
				<time>2011-02-15T17:08:46Z</time>
			</trkpt>
			<trkpt lat="50.897519489406065" lon="6.70791968303045">
				<ele>96.0</ele>
				<time>2011-02-15T17:08:47Z</time>
			</trkpt>
			<trkpt lat="50.897519489406065" lon="6.70791968303045">
				<ele>96.0</ele>
				<time>2011-02-15T17:08:48Z</time>
			</trkpt>
			<trkpt lat="50.897519489406065" lon="6.70791968303045">
				<ele>96.0</ele>
				<time>2011-02-15T17:08:49Z</time>
			</trkpt>
			<trkpt lat="50.897519489406065" lon="6.70791968303045">
				<ele>96.0</ele>
				<time>2011-02-15T17:08:50Z</time>
			</trkpt>
			<trkpt lat="50.897519489406065" lon="6.70791968303045">
				<ele>96.0</ele>
				<time>2011-02-15T17:08:51Z</time>
			</trkpt>
			<trkpt lat="50.897519489406065" lon="6.70791968303045">
				<ele>96.0</ele>
				<time>2011-02-15T17:08:52Z</time>
			</trkpt>
			<trkpt lat="50.897519489406065" lon="6.70791968303045">
				<ele>96.0</ele>
				<time>2011-02-15T17:08:53Z</time>
			</trkpt>
			<trkpt lat="50.897519489406065" lon="6.70791968303045">
				<ele>96.0</ele>
				<time>2011-02-15T17:08:54Z</time>
			</trkpt>
			<trkpt lat="50.897519489406065" lon="6.70791968303045">
				<ele>96.0</ele>
				<time>2011-02-15T17:08:55Z</time>
			</trkpt>
			<trkpt lat="50.897519489406065" lon="6.70791968303045">
				<ele>96.0</ele>
				<time>2011-02-15T17:08:56Z</time>
			</trkpt>
			<trkpt lat="50.897519489406065" lon="6.70791968303045">
				<ele>96.0</ele>
				<time>2011-02-15T17:08:57Z</time>
			</trkpt>
			<trkpt lat="50.897519489406065" lon="6.70791968303045">
				<ele>96.0</ele>
				<time>2011-02-15T17:08:58Z</time>
			</trkpt>
			<trkpt lat="50.897519489406065" lon="6.70791968303045">
				<ele>96.0</ele>
				<time>2011-02-15T17:08:59Z</time>
			</trkpt>
			<trkpt lat="50.897519489406065" lon="6.70791968303045">
				<ele>96.0</ele>
				<time>2011-02-15T17:09:00Z</time>
			</trkpt>
			<trkpt lat="50.897519489406065" lon="6.70791968303045">
				<ele>96.0</ele>
				<time>2011-02-15T17:09:01Z</time>
			</trkpt>
			<trkpt lat="50.897519489406065" lon="6.70791968303045">
				<ele>96.0</ele>
				<time>2011-02-15T17:09:02Z</time>
			</trkpt>
			<trkpt lat="50.897519489406065" lon="6.70791968303045">
				<ele>96.0</ele>
				<time>2011-02-15T17:09:03Z</time>
			</trkpt>
			<trkpt lat="50.897519489406065" lon="6.70791968303045">
				<ele>96.0</ele>
				<time>2011-02-15T17:09:04Z</time>
			</trkpt>
			<trkpt lat="50.897519489406065" lon="6.70791968303045">
				<ele>96.0</ele>
				<time>2011-02-15T17:09:05Z</time>
			</trkpt>
			<trkpt lat="50.897519489406065" lon="6.70791968303045">
				<ele>96.0</ele>
				<time>2011-02-15T17:09:06Z</time>
			</trkpt>
			<trkpt lat="50.897519489406065" lon="6.70791968303045">
				<ele>96.0</ele>
				<time>2011-02-15T17:09:07Z</time>
			</trkpt>
			<trkpt lat="50.897519489406065" lon="6.70791968303045">
				<ele>96.0</ele>
				<time>2011-02-15T17:09:08Z</time>
			</trkpt>
			<trkpt lat="50.897519489406065" lon="6.70791968303045">
				<ele>96.0</ele>
				<time>2011-02-15T17:09:09Z</time>
			</trkpt>
			<trkpt lat="50.897519489406065" lon="6.70791968303045">
				<ele>96.0</ele>
				<time>2011-02-15T17:09:10Z</time>
			</trkpt>
			<trkpt lat="50.897519489406065" lon="6.70791968303045">
				<ele>96.0</ele>
				<time>2011-02-15T17:09:11Z</time>
			</trkpt>
			<trkpt lat="50.897519489406065" lon="6.70791968303045">
				<ele>96.0</ele>
				<time>2011-02-15T17:09:12Z</time>
			</trkpt>
			<trkpt lat="50.897519489406065" lon="6.70791968303045">
				<ele>96.0</ele>
				<time>2011-02-15T17:09:13Z</time>
			</trkpt>
			<trkpt lat="50.897519489406065" lon="6.70791968303045">
				<ele>96.0</ele>
				<time>2011-02-15T17:09:14Z</time>
			</trkpt>
			<trkpt lat="50.897519489406065" lon="6.70791968303045">
				<ele>96.0</ele>
				<time>2011-02-15T17:09:15Z</time>
			</trkpt>
			<trkpt lat="50.897519489406065" lon="6.70791968303045">
				<ele>96.0</ele>
				<time>2011-02-15T17:09:16Z</time>
			</trkpt>
			<trkpt lat="50.897519489406065" lon="6.70791968303045">
				<ele>96.0</ele>
				<time>2011-02-15T17:09:17Z</time>
			</trkpt>
			<trkpt lat="50.897519489406065" lon="6.70791968303045">
				<ele>96.0</ele>
				<time>2011-02-15T17:09:18Z</time>
			</trkpt>
			<trkpt lat="50.897519489406065" lon="6.70791968303045">
				<ele>96.0</ele>
				<time>2011-02-15T17:09:19Z</time>
			</trkpt>
			<trkpt lat="50.897519489406065" lon="6.70791968303045">
				<ele>96.0</ele>
				<time>2011-02-15T17:09:20Z</time>
			</trkpt>
			<trkpt lat="50.897519489406065" lon="6.70791968303045">
				<ele>96.0</ele>
				<time>2011-02-15T17:09:21Z</time>
			</trkpt>
			<trkpt lat="50.897519489406065" lon="6.70791968303045">
				<ele>96.0</ele>
				<time>2011-02-15T17:09:22Z</time>
			</trkpt>
			<trkpt lat="50.897519489406065" lon="6.70791968303045">
				<ele>96.0</ele>
				<time>2011-02-15T17:09:23Z</time>
			</trkpt>
			<trkpt lat="50.897519489406065" lon="6.70791968303045">
				<ele>96.0</ele>
				<time>2011-02-15T17:09:24Z</time>
			</trkpt>
			<trkpt lat="50.897519489406065" lon="6.70791968303045">
				<ele>96.0</ele>
				<time>2011-02-15T17:09:25Z</time>
			</trkpt>
			<trkpt lat="50.897519489406065" lon="6.70791968303045">
				<ele>96.0</ele>
				<time>2011-02-15T17:09:26Z</time>
			</trkpt>
			<trkpt lat="50.897519489406065" lon="6.70791968303045">
				<ele>96.0</ele>
				<time>2011-02-15T17:09:27Z</time>
			</trkpt>
			<trkpt lat="50.897519489406065" lon="6.70791968303045">
				<ele>96.0</ele>
				<time>2011-02-15T17:09:28Z</time>
			</trkpt>
			<trkpt lat="50.897519489406065" lon="6.70791968303045">
				<ele>96.0</ele>
				<time>2011-02-15T17:09:29Z</time>
			</trkpt>
			<trkpt lat="50.897519489406065" lon="6.70791968303045">
				<ele>96.0</ele>
				<time>2011-02-15T17:09:30Z</time>
			</trkpt>
			<trkpt lat="50.897519489406065" lon="6.70791968303045">
				<ele>96.0</ele>
				<time>2011-02-15T17:09:31Z</time>
			</trkpt>
			<trkpt lat="50.897519489406065" lon="6.70791968303045">
				<ele>96.0</ele>
				<time>2011-02-15T17:09:32Z</time>
			</trkpt>
			<trkpt lat="50.897519489406065" lon="6.70791968303045">
				<ele>96.0</ele>
				<time>2011-02-15T17:09:33Z</time>
			</trkpt>
			<trkpt lat="50.897519489406065" lon="6.70791968303045">
				<ele>96.0</ele>
				<time>2011-02-15T17:09:34Z</time>
			</trkpt>
			<trkpt lat="50.897519489406065" lon="6.70791968303045">
				<ele>96.0</ele>
				<time>2011-02-15T17:09:35Z</time>
			</trkpt>
			<trkpt lat="50.897519489406065" lon="6.70791968303045">
				<ele>96.0</ele>
				<time>2011-02-15T17:09:36Z</time>
			</trkpt>
			<trkpt lat="50.89750465923531" lon="6.708011415805139">
				<ele>97.0</ele>
				<time>2011-02-15T17:09:37Z</time>
			</trkpt>
			<trkpt lat="50.89750465923531" lon="6.708011415805139">
				<ele>97.0</ele>
				<time>2011-02-15T17:09:38Z</time>
			</trkpt>
			<trkpt lat="50.89750465923531" lon="6.708011415805139">
				<ele>97.0</ele>
				<time>2011-02-15T17:09:39Z</time>
			</trkpt>
			<trkpt lat="50.89750465923531" lon="6.708011415805139">
				<ele>97.0</ele>
				<time>2011-02-15T17:09:40Z</time>
			</trkpt>
			<trkpt lat="50.89750465923531" lon="6.708011415805139">
				<ele>97.0</ele>
				<time>2011-02-15T17:09:41Z</time>
			</trkpt>
			<trkpt lat="50.89750465923531" lon="6.708011415805139">
				<ele>97.0</ele>
				<time>2011-02-15T17:09:42Z</time>
			</trkpt>
			<trkpt lat="50.89750465923531" lon="6.708011415805139">
				<ele>97.0</ele>
				<time>2011-02-15T17:09:43Z</time>
			</trkpt>
			<trkpt lat="50.89750465923531" lon="6.708011415805139">
				<ele>97.0</ele>
				<time>2011-02-15T17:09:44Z</time>
			</trkpt>
			<trkpt lat="50.89750465923531" lon="6.708011415805139">
				<ele>97.0</ele>
				<time>2011-02-15T17:09:45Z</time>
			</trkpt>
			<trkpt lat="50.89750465923531" lon="6.708011415805139">
				<ele>97.0</ele>
				<time>2011-02-15T17:09:46Z</time>
			</trkpt>
			<trkpt lat="50.89750465923531" lon="6.708011415805139">
				<ele>97.0</ele>
				<time>2011-02-15T17:09:47Z</time>
			</trkpt>
			<trkpt lat="50.89750465923531" lon="6.708011415805139">
				<ele>97.0</ele>
				<time>2011-02-15T17:09:48Z</time>
			</trkpt>
			<trkpt lat="50.89750465923531" lon="6.708011415805139">
				<ele>97.0</ele>
				<time>2011-02-15T17:09:49Z</time>
			</trkpt>
			<trkpt lat="50.89750465923531" lon="6.708011415805139">
				<ele>97.0</ele>
				<time>2011-02-15T17:09:50Z</time>
			</trkpt>
			<trkpt lat="50.89750465923531" lon="6.708011415805139">
				<ele>97.0</ele>
				<time>2011-02-15T17:09:51Z</time>
			</trkpt>
			<trkpt lat="50.89750465923531" lon="6.708011415805139">
				<ele>97.0</ele>
				<time>2011-02-15T17:09:52Z</time>
			</trkpt>
			<trkpt lat="50.89750465923531" lon="6.708011415805139">
				<ele>97.0</ele>
				<time>2011-02-15T17:09:53Z</time>
			</trkpt>
			<trkpt lat="50.89750465923531" lon="6.708011415805139">
				<ele>97.0</ele>
				<time>2011-02-15T17:09:54Z</time>
			</trkpt>
			<trkpt lat="50.89750465923531" lon="6.708011415805139">
				<ele>97.0</ele>
				<time>2011-02-15T17:09:55Z</time>
			</trkpt>
			<trkpt lat="50.89750465923531" lon="6.708011415805139">
				<ele>97.0</ele>
				<time>2011-02-15T17:09:56Z</time>
			</trkpt>
			<trkpt lat="50.89750465923531" lon="6.708011415805139">
				<ele>97.0</ele>
				<time>2011-02-15T17:09:57Z</time>
			</trkpt>
			<trkpt lat="50.89750465923531" lon="6.708011415805139">
				<ele>97.0</ele>
				<time>2011-02-15T17:09:58Z</time>
			</trkpt>
			<trkpt lat="50.89750465923531" lon="6.708011415805139">
				<ele>97.0</ele>
				<time>2011-02-15T17:09:59Z</time>
			</trkpt>
			<trkpt lat="50.89750465923531" lon="6.708011415805139">
				<ele>97.0</ele>
				<time>2011-02-15T17:10:00Z</time>
			</trkpt>
			<trkpt lat="50.89750465923531" lon="6.708011415805139">
				<ele>97.0</ele>
				<time>2011-02-15T17:10:01Z</time>
			</trkpt>
			<trkpt lat="50.89750465923531" lon="6.708011415805139">
				<ele>97.0</ele>
				<time>2011-02-15T17:10:02Z</time>
			</trkpt>
			<trkpt lat="50.89750465923531" lon="6.708011415805139">
				<ele>97.0</ele>
				<time>2011-02-15T17:10:03Z</time>
			</trkpt>
			<trkpt lat="50.89750465923531" lon="6.708011415805139">
				<ele>97.0</ele>
				<time>2011-02-15T17:10:04Z</time>
			</trkpt>
			<trkpt lat="50.89750465923531" lon="6.708011415805139">
				<ele>97.0</ele>
				<time>2011-02-15T17:10:05Z</time>
			</trkpt>
			<trkpt lat="50.89750465923531" lon="6.708011415805139">
				<ele>97.0</ele>
				<time>2011-02-15T17:10:06Z</time>
			</trkpt>
			<trkpt lat="50.89750465923531" lon="6.708011415805139">
				<ele>97.0</ele>
				<time>2011-02-15T17:10:07Z</time>
			</trkpt>
			<trkpt lat="50.89750465923531" lon="6.708011415805139">
				<ele>97.0</ele>
				<time>2011-02-15T17:10:08Z</time>
			</trkpt>
			<trkpt lat="50.89750465923531" lon="6.708011415805139">
				<ele>97.0</ele>
				<time>2011-02-15T17:10:09Z</time>
			</trkpt>
			<trkpt lat="50.89750465923531" lon="6.708011415805139">
				<ele>97.0</ele>
				<time>2011-02-15T17:10:10Z</time>
			</trkpt>
			<trkpt lat="50.89750465923531" lon="6.708011415805139">
				<ele>97.0</ele>
				<time>2011-02-15T17:10:11Z</time>
			</trkpt>
			<trkpt lat="50.89750465923531" lon="6.708011415805139">
				<ele>97.0</ele>
				<time>2011-02-15T17:10:12Z</time>
			</trkpt>
			<trkpt lat="50.89750465923531" lon="6.708011415805139">
				<ele>97.0</ele>
				<time>2011-02-15T17:10:13Z</time>
			</trkpt>
			<trkpt lat="50.89750465923531" lon="6.708011415805139">
				<ele>97.0</ele>
				<time>2011-02-15T17:10:14Z</time>
			</trkpt>
			<trkpt lat="50.89750465923531" lon="6.708011415805139">
				<ele>97.0</ele>
				<time>2011-02-15T17:10:15Z</time>
			</trkpt>
			<trkpt lat="50.89750465923531" lon="6.708011415805139">
				<ele>97.0</ele>
				<time>2011-02-15T17:10:16Z</time>
			</trkpt>
			<trkpt lat="50.89750465923531" lon="6.708011415805139">
				<ele>97.0</ele>
				<time>2011-02-15T17:10:17Z</time>
			</trkpt>
			<trkpt lat="50.89750465923531" lon="6.708011415805139">
				<ele>97.0</ele>
				<time>2011-02-15T17:10:18Z</time>
			</trkpt>
			<trkpt lat="50.89750465923531" lon="6.708011415805139">
				<ele>97.0</ele>
				<time>2011-02-15T17:10:19Z</time>
			</trkpt>
			<trkpt lat="50.89750465923531" lon="6.708011415805139">
				<ele>97.0</ele>
				<time>2011-02-15T17:10:20Z</time>
			</trkpt>
			<trkpt lat="50.89750465923531" lon="6.708011415805139">
				<ele>97.0</ele>
				<time>2011-02-15T17:10:21Z</time>
			</trkpt>
			<trkpt lat="50.89750465923531" lon="6.708011415805139">
				<ele>97.0</ele>
				<time>2011-02-15T17:10:22Z</time>
			</trkpt>
			<trkpt lat="50.89750465923531" lon="6.708011415805139">
				<ele>97.0</ele>
				<time>2011-02-15T17:10:23Z</time>
			</trkpt>
			<trkpt lat="50.89750465923531" lon="6.708011415805139">
				<ele>97.0</ele>
				<time>2011-02-15T17:10:24Z</time>
			</trkpt>
			<trkpt lat="50.89750465923531" lon="6.708011415805139">
				<ele>97.0</ele>
				<time>2011-02-15T17:10:25Z</time>
			</trkpt>
			<trkpt lat="50.89750465923531" lon="6.708011415805139">
				<ele>97.0</ele>
				<time>2011-02-15T17:10:26Z</time>
			</trkpt>
			<trkpt lat="50.89750465923531" lon="6.708011415805139">
				<ele>97.0</ele>
				<time>2011-02-15T17:10:27Z</time>
			</trkpt>
			<trkpt lat="50.89750465923531" lon="6.708011415805139">
				<ele>97.0</ele>
				<time>2011-02-15T17:10:28Z</time>
			</trkpt>
			<trkpt lat="50.89750465923531" lon="6.708011415805139">
				<ele>97.0</ele>
				<time>2011-02-15T17:10:29Z</time>
			</trkpt>
			<trkpt lat="50.89750465923531" lon="6.708011415805139">
				<ele>97.0</ele>
				<time>2011-02-15T17:10:30Z</time>
			</trkpt>
			<trkpt lat="50.89750465923531" lon="6.708011415805139">
				<ele>97.0</ele>
				<time>2011-02-15T17:10:31Z</time>
			</trkpt>
			<trkpt lat="50.89750465923531" lon="6.708011415805139">
				<ele>97.0</ele>
				<time>2011-02-15T17:10:32Z</time>
			</trkpt>
			<trkpt lat="50.89750465923531" lon="6.708011415805139">
				<ele>97.0</ele>
				<time>2011-02-15T17:10:33Z</time>
			</trkpt>
			<trkpt lat="50.89750465923531" lon="6.708011415805139">
				<ele>97.0</ele>
				<time>2011-02-15T17:10:34Z</time>
			</trkpt>
			<trkpt lat="50.89750465923531" lon="6.708011415805139">
				<ele>97.0</ele>
				<time>2011-02-15T17:10:35Z</time>
			</trkpt>
			<trkpt lat="50.89750465923531" lon="6.708011415805172">
				<ele>99.0</ele>
				<time>2011-02-15T17:10:36Z</time>
			</trkpt>
			<trkpt lat="50.89750474579563" lon="6.708011819586795">
				<ele>99.0</ele>
				<time>2011-02-15T17:10:37Z</time>
			</trkpt>
			<trkpt lat="50.89750495829924" lon="6.708012648971742">
				<ele>99.0</ele>
				<time>2011-02-15T17:10:38Z</time>
			</trkpt>
			<trkpt lat="50.89750531356988" lon="6.708013906097739">
				<ele>99.0</ele>
				<time>2011-02-15T17:10:39Z</time>
			</trkpt>
			<trkpt lat="50.897505983010504" lon="6.70801581686106">
				<ele>99.0</ele>
				<time>2011-02-15T17:10:40Z</time>
			</trkpt>
			<trkpt lat="50.89750740722538" lon="6.708018659609692">
				<ele>99.0</ele>
				<time>2011-02-15T17:10:41Z</time>
			</trkpt>
			<trkpt lat="50.897509426721015" lon="6.7080222629626505">
				<ele>99.0</ele>
				<time>2011-02-15T17:10:42Z</time>
			</trkpt>
			<trkpt lat="50.89751180999541" lon="6.708026333730575">
				<ele>99.0</ele>
				<time>2011-02-15T17:10:43Z</time>
			</trkpt>
			<trkpt lat="50.89751443943517" lon="6.70803436810632">
				<ele>100.0</ele>
				<time>2011-02-15T17:10:44Z</time>
			</trkpt>
			<trkpt lat="50.89751738041657" lon="6.708044391056444">
				<ele>100.0</ele>
				<time>2011-02-15T17:10:45Z</time>
			</trkpt>
			<trkpt lat="50.897520213577394" lon="6.708055218309134">
				<ele>100.0</ele>
				<time>2011-02-15T17:10:46Z</time>
			</trkpt>
			<trkpt lat="50.89752277049462" lon="6.7080659461695955">
				<ele>100.0</ele>
				<time>2011-02-15T17:10:47Z</time>
			</trkpt>
			<trkpt lat="50.89752512326354" lon="6.708076169076319">
				<ele>100.0</ele>
				<time>2011-02-15T17:10:48Z</time>
			</trkpt>
			<trkpt lat="50.897527244179" lon="6.708085594531404">
				<ele>100.0</ele>
				<time>2011-02-15T17:10:49Z</time>
			</trkpt>
			<trkpt lat="50.897528675613785" lon="6.708091950928913">
				<ele>100.0</ele>
				<time>2011-02-15T17:10:50Z</time>
			</trkpt>
			<trkpt lat="50.89752975324808" lon="6.7080965858508375">
				<ele>100.0</ele>
				<time>2011-02-15T17:10:51Z</time>
			</trkpt>
			<trkpt lat="50.897530702434395" lon="6.708100408689064">
				<ele>100.0</ele>
				<time>2011-02-15T17:10:52Z</time>
			</trkpt>
			<trkpt lat="50.897531610966624" lon="6.708103690638608">
				<ele>100.0</ele>
				<time>2011-02-15T17:10:53Z</time>
			</trkpt>
			<trkpt lat="50.897532523183415" lon="6.708106446242911">
				<ele>100.0</ele>
				<time>2011-02-15T17:10:54Z</time>
			</trkpt>
			<trkpt lat="50.89753343681549" lon="6.708108628723023">
				<ele>100.0</ele>
				<time>2011-02-15T17:10:55Z</time>
			</trkpt>
			<trkpt lat="50.89753412213033" lon="6.708109906076882">
				<ele>100.0</ele>
				<time>2011-02-15T17:10:56Z</time>
			</trkpt>
			<trkpt lat="50.89753471554158" lon="6.708110429680139">
				<ele>100.0</ele>
				<time>2011-02-15T17:10:57Z</time>
			</trkpt>
			<trkpt lat="50.89753522322681" lon="6.70811026692148">
				<ele>100.0</ele>
				<time>2011-02-15T17:10:58Z</time>
			</trkpt>
			<trkpt lat="50.897535625087215" lon="6.708109639330161">
				<ele>100.0</ele>
				<time>2011-02-15T17:10:59Z</time>
			</trkpt>
			<trkpt lat="50.897535994671884" lon="6.708108244037193">
				<ele>100.0</ele>
				<time>2011-02-15T17:11:00Z</time>
			</trkpt>
			<trkpt lat="50.89753630953206" lon="6.708106618462625">
				<ele>100.0</ele>
				<time>2011-02-15T17:11:01Z</time>
			</trkpt>
			<trkpt lat="50.89753653612742" lon="6.708104625060132">
				<ele>100.0</ele>
				<time>2011-02-15T17:11:02Z</time>
			</trkpt>
			<trkpt lat="50.897536690645" lon="6.708102742266984">
				<ele>100.0</ele>
				<time>2011-02-15T17:11:03Z</time>
			</trkpt>
			<trkpt lat="50.89753659880457" lon="6.708100413972576">
				<ele>100.0</ele>
				<time>2011-02-15T17:11:04Z</time>
			</trkpt>
			<trkpt lat="50.89753636898426" lon="6.7080980027856345">
				<ele>100.0</ele>
				<time>2011-02-15T17:11:05Z</time>
			</trkpt>
			<trkpt lat="50.89753605180666" lon="6.70809572724767">
				<ele>100.0</ele>
				<time>2011-02-15T17:11:06Z</time>
			</trkpt>
			<trkpt lat="50.89753570950798" lon="6.708093648808792">
				<ele>100.0</ele>
				<time>2011-02-15T17:11:07Z</time>
			</trkpt>
			<trkpt lat="50.89753538695922" lon="6.708092015277968">
				<ele>100.0</ele>
				<time>2011-02-15T17:11:08Z</time>
			</trkpt>
			<trkpt lat="50.89753496069251" lon="6.70808953177519">
				<ele>100.0</ele>
				<time>2011-02-15T17:11:09Z</time>
			</trkpt>
			<trkpt lat="50.89753439902434" lon="6.708085697402999">
				<ele>101.0</ele>
				<time>2011-02-15T17:11:10Z</time>
			</trkpt>
			<trkpt lat="50.8975337799848" lon="6.708080718723718">
				<ele>101.0</ele>
				<time>2011-02-15T17:11:11Z</time>
			</trkpt>
			<trkpt lat="50.89753314788667" lon="6.708074831021702">
				<ele>101.0</ele>
				<time>2011-02-15T17:11:12Z</time>
			</trkpt>
			<trkpt lat="50.89753255690645" lon="6.708068272063594">
				<ele>101.0</ele>
				<time>2011-02-15T17:11:13Z</time>
			</trkpt>
			<trkpt lat="50.89753202836632" lon="6.708061950039296">
				<ele>101.0</ele>
				<time>2011-02-15T17:11:14Z</time>
			</trkpt>
			<trkpt lat="50.89753162926094" lon="6.708056392004392">
				<ele>101.0</ele>
				<time>2011-02-15T17:11:16Z</time>
			</trkpt>
			<trkpt lat="50.89753110763799" lon="6.708051321273567">
				<ele>101.0</ele>
				<time>2011-02-15T17:11:17Z</time>
			</trkpt>
			<trkpt lat="50.8975304032042" lon="6.708046005862435">
				<ele>101.0</ele>
				<time>2011-02-15T17:11:18Z</time>
			</trkpt>
			<trkpt lat="50.89752955700652" lon="6.708040222079984">
				<ele>101.0</ele>
				<time>2011-02-15T17:11:19Z</time>
			</trkpt>
			<trkpt lat="50.89752712927286" lon="6.708033688600643">
				<ele>101.0</ele>
				<time>2011-02-15T17:11:20Z</time>
			</trkpt>
			<trkpt lat="50.89752384254173" lon="6.708026794916583">
				<ele>101.0</ele>
				<time>2011-02-15T17:11:21Z</time>
			</trkpt>
			<trkpt lat="50.89752041993828" lon="6.708019664633582">
				<ele>101.0</ele>
				<time>2011-02-15T17:11:22Z</time>
			</trkpt>
			<trkpt lat="50.89751757628818" lon="6.70801261413933">
				<ele>101.0</ele>
				<time>2011-02-15T17:11:23Z</time>
			</trkpt>
			<trkpt lat="50.897516397214076" lon="6.708005681507606">
				<ele>101.0</ele>
				<time>2011-02-15T17:11:24Z</time>
			</trkpt>
			<trkpt lat="50.89751741598498" lon="6.70799915906896">
				<ele>101.0</ele>
				<time>2011-02-15T17:11:25Z</time>
			</trkpt>
			<trkpt lat="50.8975194858849" lon="6.707992831147055">
				<ele>101.0</ele>
				<time>2011-02-15T17:11:26Z</time>
			</trkpt>
			<trkpt lat="50.8975231738125" lon="6.707987138561897">
				<ele>101.0</ele>
				<time>2011-02-15T17:11:27Z</time>
			</trkpt>
			<trkpt lat="50.89752821009438" lon="6.707981644874611">
				<ele>101.0</ele>
				<time>2011-02-15T17:11:28Z</time>
			</trkpt>
			<trkpt lat="50.89753267676109" lon="6.707981700235811">
				<ele>101.0</ele>
				<time>2011-02-15T17:11:29Z</time>
			</trkpt>
			<trkpt lat="50.89753739737253" lon="6.707983964291778">
				<ele>101.0</ele>
				<time>2011-02-15T17:11:30Z</time>
			</trkpt>
			<trkpt lat="50.89754240854615" lon="6.707986645637811">
				<ele>101.0</ele>
				<time>2011-02-15T17:11:31Z</time>
			</trkpt>
			<trkpt lat="50.89754626494019" lon="6.707988838710634">
				<ele>101.0</ele>
				<time>2011-02-15T17:11:32Z</time>
			</trkpt>
			<trkpt lat="50.89754906264294" lon="6.707990585943119">
				<ele>101.0</ele>
				<time>2011-02-15T17:11:33Z</time>
			</trkpt>
			<trkpt lat="50.89755113038862" lon="6.70799166377555">
				<ele>101.0</ele>
				<time>2011-02-15T17:11:34Z</time>
			</trkpt>
			<trkpt lat="50.89755255994665" lon="6.7079921062554035">
				<ele>101.0</ele>
				<time>2011-02-15T17:11:35Z</time>
			</trkpt>
			<trkpt lat="50.89755376278829" lon="6.707992186034513">
				<ele>101.0</ele>
				<time>2011-02-15T17:11:36Z</time>
			</trkpt>
			<trkpt lat="50.89755483947011" lon="6.707991880940611">
				<ele>101.0</ele>
				<time>2011-02-15T17:11:37Z</time>
			</trkpt>
			<trkpt lat="50.897555613918826" lon="6.7079915215581885">
				<ele>101.0</ele>
				<time>2011-02-15T17:11:38Z</time>
			</trkpt>
			<trkpt lat="50.8975560508823" lon="6.707991560180336">
				<ele>101.0</ele>
				<time>2011-02-15T17:11:39Z</time>
			</trkpt>
			<trkpt lat="50.89755626932457" lon="6.707991727105162">
				<ele>101.0</ele>
				<time>2011-02-15T17:11:40Z</time>
			</trkpt>
			<trkpt lat="50.897556403953246" lon="6.707992051581751">
				<ele>101.0</ele>
				<time>2011-02-15T17:11:41Z</time>
			</trkpt>
			<trkpt lat="50.89755646555655" lon="6.707992325195697">
				<ele>101.0</ele>
				<time>2011-02-15T17:11:42Z</time>
			</trkpt>
			<trkpt lat="50.89755685538135" lon="6.70799274098561">
				<ele>101.0</ele>
				<time>2011-02-15T17:11:43Z</time>
			</trkpt>
			<trkpt lat="50.89755807007856" lon="6.707994749012603">
				<ele>101.0</ele>
				<time>2011-02-15T17:11:44Z</time>
			</trkpt>
			<trkpt lat="50.89755987035314" lon="6.707997661305839">
				<ele>101.0</ele>
				<time>2011-02-15T17:11:45Z</time>
			</trkpt>
			<trkpt lat="50.89756217369138" lon="6.708000980243317">
				<ele>101.0</ele>
				<time>2011-02-15T17:11:46Z</time>
			</trkpt>
			<trkpt lat="50.89756485376796" lon="6.708004590480418">
				<ele>101.0</ele>
				<time>2011-02-15T17:11:47Z</time>
			</trkpt>
			<trkpt lat="50.89756763485835" lon="6.7080090329830195">
				<ele>102.0</ele>
				<time>2011-02-15T17:11:48Z</time>
			</trkpt>
			<trkpt lat="50.897570308592165" lon="6.7080147103009296">
				<ele>102.0</ele>
				<time>2011-02-15T17:11:49Z</time>
			</trkpt>
			<trkpt lat="50.897573051317515" lon="6.708020819711271">
				<ele>102.0</ele>
				<time>2011-02-15T17:11:50Z</time>
			</trkpt>
			<trkpt lat="50.897575965681696" lon="6.708026983388086">
				<ele>102.0</ele>
				<time>2011-02-15T17:11:51Z</time>
			</trkpt>
			<trkpt lat="50.89757882636295" lon="6.7080323650959235">
				<ele>102.0</ele>
				<time>2011-02-15T17:11:52Z</time>
			</trkpt>
			<trkpt lat="50.89758176424847" lon="6.708037197821797">
				<ele>102.0</ele>
				<time>2011-02-15T17:11:53Z</time>
			</trkpt>
			<trkpt lat="50.89758478853258" lon="6.70804154507001">
				<ele>102.0</ele>
				<time>2011-02-15T17:11:54Z</time>
			</trkpt>
			<trkpt lat="50.897587415182315" lon="6.70804494525094">
				<ele>102.0</ele>
				<time>2011-02-15T17:11:55Z</time>
			</trkpt>
			<trkpt lat="50.89758982245375" lon="6.7080479517236995">
				<ele>102.0</ele>
				<time>2011-02-15T17:11:56Z</time>
			</trkpt>
			<trkpt lat="50.89759198866892" lon="6.7080513047091195">
				<ele>102.0</ele>
				<time>2011-02-15T17:11:57Z</time>
			</trkpt>
			<trkpt lat="50.897594374731526" lon="6.708054586183836">
				<ele>102.0</ele>
				<time>2011-02-15T17:11:58Z</time>
			</trkpt>
			<trkpt lat="50.89759715354552" lon="6.708057581902409">
				<ele>102.0</ele>
				<time>2011-02-15T17:11:59Z</time>
			</trkpt>
			<trkpt lat="50.89760038159923" lon="6.708060198624261">
				<ele>102.0</ele>
				<time>2011-02-15T17:12:00Z</time>
			</trkpt>
			<trkpt lat="50.897603887871774" lon="6.708062796724693">
				<ele>102.0</ele>
				<time>2011-02-15T17:12:01Z</time>
			</trkpt>
			<trkpt lat="50.897607834937865" lon="6.708065090932478">
				<ele>102.0</ele>
				<time>2011-02-15T17:12:02Z</time>
			</trkpt>
			<trkpt lat="50.89761296522673" lon="6.708067578357473">
				<ele>102.0</ele>
				<time>2011-02-15T17:12:03Z</time>
			</trkpt>
			<trkpt lat="50.89761966490956" lon="6.708071490212024">
				<ele>102.0</ele>
				<time>2011-02-15T17:12:04Z</time>
			</trkpt>
			<trkpt lat="50.89762796879913" lon="6.708076194844041">
				<ele>102.0</ele>
				<time>2011-02-15T17:12:05Z</time>
			</trkpt>
			<trkpt lat="50.897644626051786" lon="6.70808280656928">
				<ele>102.0</ele>
				<time>2011-02-15T17:12:06Z</time>
			</trkpt>
			<trkpt lat="50.897674105418886" lon="6.708092330334473">
				<ele>102.0</ele>
				<time>2011-02-15T17:12:07Z</time>
			</trkpt>
			<trkpt lat="50.89771452010943" lon="6.708103022378877">
				<ele>103.0</ele>
				<time>2011-02-15T17:12:08Z</time>
			</trkpt>
			<trkpt lat="50.89776128338143" lon="6.7081142012960235">
				<ele>104.0</ele>
				<time>2011-02-15T17:12:09Z</time>
			</trkpt>
			<trkpt lat="50.89780850357259" lon="6.7081247936315815">
				<ele>104.0</ele>
				<time>2011-02-15T17:12:10Z</time>
			</trkpt>
			<trkpt lat="50.8978565999025" lon="6.7081356249426145">
				<ele>104.0</ele>
				<time>2011-02-15T17:12:11Z</time>
			</trkpt>
			<trkpt lat="50.89790787257731" lon="6.708146662197464">
				<ele>104.0</ele>
				<time>2011-02-15T17:12:12Z</time>
			</trkpt>
			<trkpt lat="50.897965390511544" lon="6.708156793700654">
				<ele>104.0</ele>
				<time>2011-02-15T17:12:13Z</time>
			</trkpt>
			<trkpt lat="50.89808574321668" lon="6.708176671464195">
				<ele>104.0</ele>
				<time>2011-02-15T17:12:14Z</time>
			</trkpt>
			<trkpt lat="50.89814101990935" lon="6.708181687941877">
				<ele>104.0</ele>
				<time>2011-02-15T17:12:15Z</time>
			</trkpt>
			<trkpt lat="50.898197654793314" lon="6.7081888945830945">
				<ele>103.0</ele>
				<time>2011-02-15T17:12:16Z</time>
			</trkpt>
			<trkpt lat="50.89825367112806" lon="6.708201081434214">
				<ele>102.0</ele>
				<time>2011-02-15T17:12:17Z</time>
			</trkpt>
			<trkpt lat="50.89830876463155" lon="6.7082117722973935">
				<ele>102.0</ele>
				<time>2011-02-15T17:12:18Z</time>
			</trkpt>
			<trkpt lat="50.89836344051612" lon="6.708225500005729">
				<ele>101.0</ele>
				<time>2011-02-15T17:12:19Z</time>
			</trkpt>
			<trkpt lat="50.8984191252141" lon="6.708241666307356">
				<ele>101.0</ele>
				<time>2011-02-15T17:12:20Z</time>
			</trkpt>
			<trkpt lat="50.8984750215663" lon="6.708256473574938">
				<ele>101.0</ele>
				<time>2011-02-15T17:12:21Z</time>
			</trkpt>
			<trkpt lat="50.898530568898025" lon="6.708271015368431">
				<ele>100.0</ele>
				<time>2011-02-15T17:12:22Z</time>
			</trkpt>
			<trkpt lat="50.89858563737466" lon="6.708286720115245">
				<ele>100.0</ele>
				<time>2011-02-15T17:12:23Z</time>
			</trkpt>
			<trkpt lat="50.898639991943924" lon="6.708305507062779">
				<ele>100.0</ele>
				<time>2011-02-15T17:12:24Z</time>
			</trkpt>
			<trkpt lat="50.89869307968589" lon="6.708327112140235">
				<ele>100.0</ele>
				<time>2011-02-15T17:12:25Z</time>
			</trkpt>
			<trkpt lat="50.898743319916065" lon="6.708347828688757">
				<ele>100.0</ele>
				<time>2011-02-15T17:12:26Z</time>
			</trkpt>
			<trkpt lat="50.89879222875247" lon="6.7083745234377155">
				<ele>100.0</ele>
				<time>2011-02-15T17:12:27Z</time>
			</trkpt>
			<trkpt lat="50.89883955555669" lon="6.708404148894266">
				<ele>100.0</ele>
				<time>2011-02-15T17:12:28Z</time>
			</trkpt>
			<trkpt lat="50.89888734626896" lon="6.708437052134766">
				<ele>100.0</ele>
				<time>2011-02-15T17:12:29Z</time>
			</trkpt>
			<trkpt lat="50.89893101634802" lon="6.708488956142048">
				<ele>100.0</ele>
				<time>2011-02-15T17:12:30Z</time>
			</trkpt>
			<trkpt lat="50.89897654442534" lon="6.708542227474345">
				<ele>100.0</ele>
				<time>2011-02-15T17:12:31Z</time>
			</trkpt>
			<trkpt lat="50.899023459993515" lon="6.70860030100897">
				<ele>100.0</ele>
				<time>2011-02-15T17:12:32Z</time>
			</trkpt>
			<trkpt lat="50.89907014194687" lon="6.708658816854222">
				<ele>100.0</ele>
				<time>2011-02-15T17:12:33Z</time>
			</trkpt>
			<trkpt lat="50.89912130672448" lon="6.708718913062714">
				<ele>100.0</ele>
				<time>2011-02-15T17:12:34Z</time>
			</trkpt>
			<trkpt lat="50.89916875456112" lon="6.708766506498114">
				<ele>100.0</ele>
				<time>2011-02-15T17:12:35Z</time>
			</trkpt>
			<trkpt lat="50.899216812067614" lon="6.708812954993236">
				<ele>100.0</ele>
				<time>2011-02-15T17:12:36Z</time>
			</trkpt>
			<trkpt lat="50.89926327875997" lon="6.708860592959873">
				<ele>100.0</ele>
				<time>2011-02-15T17:12:37Z</time>
			</trkpt>
			<trkpt lat="50.89930903391796" lon="6.708913658809347">
				<ele>100.0</ele>
				<time>2011-02-15T17:12:38Z</time>
			</trkpt>
			<trkpt lat="50.8993523087005" lon="6.70896686854118">
				<ele>100.0</ele>
				<time>2011-02-15T17:12:39Z</time>
			</trkpt>
			<trkpt lat="50.899397233093296" lon="6.70901297643479">
				<ele>101.0</ele>
				<time>2011-02-15T17:12:40Z</time>
			</trkpt>
			<trkpt lat="50.899440285258834" lon="6.709060085547531">
				<ele>101.0</ele>
				<time>2011-02-15T17:12:41Z</time>
			</trkpt>
			<trkpt lat="50.89948179084993" lon="6.7091052077267195">
				<ele>101.0</ele>
				<time>2011-02-15T17:12:42Z</time>
			</trkpt>
			<trkpt lat="50.89952245161935" lon="6.709149599466124">
				<ele>101.0</ele>
				<time>2011-02-15T17:12:43Z</time>
			</trkpt>
			<trkpt lat="50.89956864405077" lon="6.709163265002217">
				<ele>101.0</ele>
				<time>2011-02-15T17:12:44Z</time>
			</trkpt>
			<trkpt lat="50.899614211411844" lon="6.70918114461757">
				<ele>101.0</ele>
				<time>2011-02-15T17:12:45Z</time>
			</trkpt>
			<trkpt lat="50.89965624977836" lon="6.709226001653535">
				<ele>101.0</ele>
				<time>2011-02-15T17:12:46Z</time>
			</trkpt>
			<trkpt lat="50.899692691815986" lon="6.709296419652213">
				<ele>101.0</ele>
				<time>2011-02-15T17:12:47Z</time>
			</trkpt>
			<trkpt lat="50.899730115670664" lon="6.709351402616486">
				<ele>101.0</ele>
				<time>2011-02-15T17:12:48Z</time>
			</trkpt>
			<trkpt lat="50.899767624910865" lon="6.709401061393497">
				<ele>101.0</ele>
				<time>2011-02-15T17:12:49Z</time>
			</trkpt>
			<trkpt lat="50.89980805470016" lon="6.709440529045475">
				<ele>101.0</ele>
				<time>2011-02-15T17:12:50Z</time>
			</trkpt>
			<trkpt lat="50.89984855857774" lon="6.709478239644571">
				<ele>101.0</ele>
				<time>2011-02-15T17:12:51Z</time>
			</trkpt>
			<trkpt lat="50.89988803320206" lon="6.7095194497615225">
				<ele>101.0</ele>
				<time>2011-02-15T17:12:52Z</time>
			</trkpt>
			<trkpt lat="50.89992446615605" lon="6.709571540403252">
				<ele>101.0</ele>
				<time>2011-02-15T17:12:53Z</time>
			</trkpt>
			<trkpt lat="50.89996429889505" lon="6.709606326883596">
				<ele>101.0</ele>
				<time>2011-02-15T17:12:54Z</time>
			</trkpt>
			<trkpt lat="50.90000442473076" lon="6.709642677748948">
				<ele>101.0</ele>
				<time>2011-02-15T17:12:55Z</time>
			</trkpt>
			<trkpt lat="50.90003809972578" lon="6.709699231650513">
				<ele>101.0</ele>
				<time>2011-02-15T17:12:56Z</time>
			</trkpt>
			<trkpt lat="50.90007227553778" lon="6.709758944747892">
				<ele>101.0</ele>
				<time>2011-02-15T17:12:57Z</time>
			</trkpt>
			<trkpt lat="50.90010813594089" lon="6.709818008483741">
				<ele>101.0</ele>
				<time>2011-02-15T17:12:58Z</time>
			</trkpt>
			<trkpt lat="50.900144626382236" lon="6.709883801042546">
				<ele>101.0</ele>
				<time>2011-02-15T17:12:59Z</time>
			</trkpt>
			<trkpt lat="50.90018282250095" lon="6.709946858281687">
				<ele>101.0</ele>
				<time>2011-02-15T17:13:00Z</time>
			</trkpt>
			<trkpt lat="50.900224090290266" lon="6.7100120253979405">
				<ele>101.0</ele>
				<time>2011-02-15T17:13:01Z</time>
			</trkpt>
			<trkpt lat="50.900263683463095" lon="6.71008344662258">
				<ele>102.0</ele>
				<time>2011-02-15T17:13:02Z</time>
			</trkpt>
			<trkpt lat="50.90030424700783" lon="6.710150382370037">
				<ele>102.0</ele>
				<time>2011-02-15T17:13:03Z</time>
			</trkpt>
			<trkpt lat="50.90034646990058" lon="6.710214317104625">
				<ele>102.0</ele>
				<time>2011-02-15T17:13:04Z</time>
			</trkpt>
			<trkpt lat="50.90038817201104" lon="6.710277916090363">
				<ele>101.0</ele>
				<time>2011-02-15T17:13:05Z</time>
			</trkpt>
			<trkpt lat="50.900428931596" lon="6.710345528675101">
				<ele>101.0</ele>
				<time>2011-02-15T17:13:06Z</time>
			</trkpt>
			<trkpt lat="50.90046808777849" lon="6.710409575914554">
				<ele>101.0</ele>
				<time>2011-02-15T17:13:07Z</time>
			</trkpt>
			<trkpt lat="50.90050603063282" lon="6.710473009797148">
				<ele>101.0</ele>
				<time>2011-02-15T17:13:08Z</time>
			</trkpt>
			<trkpt lat="50.90054297356163" lon="6.710538570954152">
				<ele>102.0</ele>
				<time>2011-02-15T17:13:09Z</time>
			</trkpt>
			<trkpt lat="50.90057944317054" lon="6.71060153882548">
				<ele>102.0</ele>
				<time>2011-02-15T17:13:10Z</time>
			</trkpt>
			<trkpt lat="50.900615273298676" lon="6.7106650361560884">
				<ele>102.0</ele>
				<time>2011-02-15T17:13:11Z</time>
			</trkpt>
			<trkpt lat="50.90064991468733" lon="6.710728696066863">
				<ele>102.0</ele>
				<time>2011-02-15T17:13:12Z</time>
			</trkpt>
			<trkpt lat="50.9006866054691" lon="6.710793654027659">
				<ele>102.0</ele>
				<time>2011-02-15T17:13:13Z</time>
			</trkpt>
			<trkpt lat="50.90072217364961" lon="6.710861305730586">
				<ele>103.0</ele>
				<time>2011-02-15T17:13:14Z</time>
			</trkpt>
			<trkpt lat="50.90075557193093" lon="6.710932192100363">
				<ele>103.0</ele>
				<time>2011-02-15T17:13:15Z</time>
			</trkpt>
			<trkpt lat="50.90078729166427" lon="6.710999448202451">
				<ele>103.0</ele>
				<time>2011-02-15T17:13:16Z</time>
			</trkpt>
			<trkpt lat="50.90081735560715" lon="6.711065726075997">
				<ele>104.0</ele>
				<time>2011-02-15T17:13:17Z</time>
			</trkpt>
			<trkpt lat="50.900839360863394" lon="6.711137621486992">
				<ele>104.0</ele>
				<time>2011-02-15T17:13:18Z</time>
			</trkpt>
			<trkpt lat="50.90087667178087" lon="6.7111907333126215">
				<ele>104.0</ele>
				<time>2011-02-15T17:13:19Z</time>
			</trkpt>
			<trkpt lat="50.900908667793196" lon="6.711248469599452">
				<ele>104.0</ele>
				<time>2011-02-15T17:13:20Z</time>
			</trkpt>
			<trkpt lat="50.900928361660554" lon="6.711314390000864">
				<ele>104.0</ele>
				<time>2011-02-15T17:13:21Z</time>
			</trkpt>
			<trkpt lat="50.90094734363784" lon="6.7113808346291615">
				<ele>104.0</ele>
				<time>2011-02-15T17:13:22Z</time>
			</trkpt>
			<trkpt lat="50.90097071081464" lon="6.711452387254819">
				<ele>104.0</ele>
				<time>2011-02-15T17:13:23Z</time>
			</trkpt>
			<trkpt lat="50.90099735025486" lon="6.71152217864605">
				<ele>104.0</ele>
				<time>2011-02-15T17:13:24Z</time>
			</trkpt>
			<trkpt lat="50.90102290300825" lon="6.711593874718591">
				<ele>103.0</ele>
				<time>2011-02-15T17:13:25Z</time>
			</trkpt>
			<trkpt lat="50.90104756365584" lon="6.7116683044746415">
				<ele>103.0</ele>
				<time>2011-02-15T17:13:26Z</time>
			</trkpt>
			<trkpt lat="50.901072144782745" lon="6.711742516773672">
				<ele>103.0</ele>
				<time>2011-02-15T17:13:27Z</time>
			</trkpt>
			<trkpt lat="50.901095078239806" lon="6.711813825924448">
				<ele>103.0</ele>
				<time>2011-02-15T17:13:28Z</time>
			</trkpt>
			<trkpt lat="50.90111457449101" lon="6.711886298004377">
				<ele>103.0</ele>
				<time>2011-02-15T17:13:29Z</time>
			</trkpt>
			<trkpt lat="50.901116579172545" lon="6.711964173734999">
				<ele>103.0</ele>
				<time>2011-02-15T17:13:30Z</time>
			</trkpt>
			<trkpt lat="50.90111474963933" lon="6.712043653077092">
				<ele>103.0</ele>
				<time>2011-02-15T17:13:31Z</time>
			</trkpt>
			<trkpt lat="50.90110009776602" lon="6.712122664403929">
				<ele>103.0</ele>
				<time>2011-02-15T17:13:32Z</time>
			</trkpt>
			<trkpt lat="50.90108490316206" lon="6.7122018619553865">
				<ele>104.0</ele>
				<time>2011-02-15T17:13:33Z</time>
			</trkpt>
			<trkpt lat="50.901067756391" lon="6.712280970891342">
				<ele>104.0</ele>
				<time>2011-02-15T17:13:34Z</time>
			</trkpt>
			<trkpt lat="50.90104946685654" lon="6.712359578268158">
				<ele>104.0</ele>
				<time>2011-02-15T17:13:35Z</time>
			</trkpt>
			<trkpt lat="50.901027941413965" lon="6.712437289701818">
				<ele>104.0</ele>
				<time>2011-02-15T17:13:36Z</time>
			</trkpt>
			<trkpt lat="50.9010047685031" lon="6.712512157519388">
				<ele>104.0</ele>
				<time>2011-02-15T17:13:37Z</time>
			</trkpt>
			<trkpt lat="50.90097758012642" lon="6.712583701750265">
				<ele>104.0</ele>
				<time>2011-02-15T17:13:38Z</time>
			</trkpt>
			<trkpt lat="50.900950779296025" lon="6.712654492661734">
				<ele>105.0</ele>
				<time>2011-02-15T17:13:39Z</time>
			</trkpt>
			<trkpt lat="50.90092218726009" lon="6.712724036002663">
				<ele>105.0</ele>
				<time>2011-02-15T17:13:40Z</time>
			</trkpt>
			<trkpt lat="50.90089234102026" lon="6.712791920602913">
				<ele>106.0</ele>
				<time>2011-02-15T17:13:41Z</time>
			</trkpt>
			<trkpt lat="50.900863034246285" lon="6.712859564252069">
				<ele>106.0</ele>
				<time>2011-02-15T17:13:42Z</time>
			</trkpt>
			<trkpt lat="50.90083298923751" lon="6.712930308940732">
				<ele>107.0</ele>
				<time>2011-02-15T17:13:43Z</time>
			</trkpt>
			<trkpt lat="50.900806336874524" lon="6.713000431869826">
				<ele>107.0</ele>
				<time>2011-02-15T17:13:44Z</time>
			</trkpt>
			<trkpt lat="50.900780757852516" lon="6.713070503132015">
				<ele>108.0</ele>
				<time>2011-02-15T17:13:45Z</time>
			</trkpt>
			<trkpt lat="50.9007576729803" lon="6.713140869531177">
				<ele>108.0</ele>
				<time>2011-02-15T17:13:46Z</time>
			</trkpt>
			<trkpt lat="50.90075303192492" lon="6.713216381805165">
				<ele>108.0</ele>
				<time>2011-02-15T17:13:47Z</time>
			</trkpt>
			<trkpt lat="50.90074861950557" lon="6.713290334123521">
				<ele>109.0</ele>
				<time>2011-02-15T17:13:48Z</time>
			</trkpt>
			<trkpt lat="50.900744849946136" lon="6.713363469099111">
				<ele>109.0</ele>
				<time>2011-02-15T17:13:49Z</time>
			</trkpt>
			<trkpt lat="50.900741070931204" lon="6.713435113018153">
				<ele>109.0</ele>
				<time>2011-02-15T17:13:50Z</time>
			</trkpt>
			<trkpt lat="50.900737414133495" lon="6.713505171908274">
				<ele>109.0</ele>
				<time>2011-02-15T17:13:51Z</time>
			</trkpt>
			<trkpt lat="50.90073539746922" lon="6.713572356461669">
				<ele>110.0</ele>
				<time>2011-02-15T17:13:52Z</time>
			</trkpt>
			<trkpt lat="50.90073338087013" lon="6.713638098348923">
				<ele>110.0</ele>
				<time>2011-02-15T17:13:53Z</time>
			</trkpt>
			<trkpt lat="50.90072834267579" lon="6.713703635913086">
				<ele>110.0</ele>
				<time>2011-02-15T17:13:54Z</time>
			</trkpt>
			<trkpt lat="50.90072263994771" lon="6.713767755270667">
				<ele>110.0</ele>
				<time>2011-02-15T17:13:55Z</time>
			</trkpt>
			<trkpt lat="50.900717614078545" lon="6.713824581307382">
				<ele>110.0</ele>
				<time>2011-02-15T17:13:56Z</time>
			</trkpt>
			<trkpt lat="50.90071510158369" lon="6.713876713816185">
				<ele>110.0</ele>
				<time>2011-02-15T17:13:57Z</time>
			</trkpt>
			<trkpt lat="50.90071260551107" lon="6.713927755375269">
				<ele>110.0</ele>
				<time>2011-02-15T17:13:58Z</time>
			</trkpt>
			<trkpt lat="50.900711518345034" lon="6.71397657428354">
				<ele>110.0</ele>
				<time>2011-02-15T17:13:59Z</time>
			</trkpt>
			<trkpt lat="50.90071135102119" lon="6.71402256539442">
				<ele>110.0</ele>
				<time>2011-02-15T17:14:00Z</time>
			</trkpt>
			<trkpt lat="50.900711203050285" lon="6.71406531901698">
				<ele>110.0</ele>
				<time>2011-02-15T17:14:01Z</time>
			</trkpt>
			<trkpt lat="50.90071105855251" lon="6.714105646798944">
				<ele>110.0</ele>
				<time>2011-02-15T17:14:02Z</time>
			</trkpt>
			<trkpt lat="50.900719357529226" lon="6.714143218226571">
				<ele>110.0</ele>
				<time>2011-02-15T17:14:03Z</time>
			</trkpt>
			<trkpt lat="50.90072663100577" lon="6.714181024300536">
				<ele>110.0</ele>
				<time>2011-02-15T17:14:04Z</time>
			</trkpt>
			<trkpt lat="50.90073193776427" lon="6.714216837484239">
				<ele>110.0</ele>
				<time>2011-02-15T17:14:05Z</time>
			</trkpt>
			<trkpt lat="50.90073193776427" lon="6.714216837484239">
				<ele>110.0</ele>
				<time>2011-02-15T17:14:06Z</time>
			</trkpt>
			<trkpt lat="50.90073193776427" lon="6.714216837484239">
				<ele>110.0</ele>
				<time>2011-02-15T17:14:07Z</time>
			</trkpt>
			<trkpt lat="50.90073193776427" lon="6.714216837484239">
				<ele>110.0</ele>
				<time>2011-02-15T17:14:08Z</time>
			</trkpt>
			<trkpt lat="50.900731269151066" lon="6.714360553921995">
				<ele>110.0</ele>
				<time>2011-02-15T17:14:09Z</time>
			</trkpt>
			<trkpt lat="50.900731269151066" lon="6.714360553921995">
				<ele>110.0</ele>
				<time>2011-02-15T17:14:10Z</time>
			</trkpt>
			<trkpt lat="50.900731269151066" lon="6.714360553921995">
				<ele>110.0</ele>
				<time>2011-02-15T17:14:11Z</time>
			</trkpt>
			<trkpt lat="50.90070125704172" lon="6.714474627207706">
				<ele>110.0</ele>
				<time>2011-02-15T17:14:12Z</time>
			</trkpt>
			<trkpt lat="50.90067860958628" lon="6.71451921715875">
				<ele>110.0</ele>
				<time>2011-02-15T17:14:13Z</time>
			</trkpt>
			<trkpt lat="50.900653624441496" lon="6.714563959232531">
				<ele>110.0</ele>
				<time>2011-02-15T17:14:14Z</time>
			</trkpt>
			<trkpt lat="50.90062585590992" lon="6.714612039421585">
				<ele>110.0</ele>
				<time>2011-02-15T17:14:15Z</time>
			</trkpt>
			<trkpt lat="50.90059770470978" lon="6.714661022663736">
				<ele>110.0</ele>
				<time>2011-02-15T17:14:16Z</time>
			</trkpt>
			<trkpt lat="50.900584615737394" lon="6.714713673777622">
				<ele>111.0</ele>
				<time>2011-02-15T17:14:17Z</time>
			</trkpt>
			<trkpt lat="50.90057164064213" lon="6.7147654375857355">
				<ele>111.0</ele>
				<time>2011-02-15T17:14:18Z</time>
			</trkpt>
			<trkpt lat="50.90056108316128" lon="6.714815552777333">
				<ele>111.0</ele>
				<time>2011-02-15T17:14:19Z</time>
			</trkpt>
			<trkpt lat="50.90055215280667" lon="6.7148642800532965">
				<ele>111.0</ele>
				<time>2011-02-15T17:14:20Z</time>
			</trkpt>
			<trkpt lat="50.900543657289134" lon="6.714911351543563">
				<ele>111.0</ele>
				<time>2011-02-15T17:14:21Z</time>
			</trkpt>
			<trkpt lat="50.90053571152074" lon="6.7149559667414165">
				<ele>111.0</ele>
				<time>2011-02-15T17:14:22Z</time>
			</trkpt>
			<trkpt lat="50.90052784523079" lon="6.7150003818733754">
				<ele>111.0</ele>
				<time>2011-02-15T17:14:23Z</time>
			</trkpt>
			<trkpt lat="50.900520573515024" lon="6.715044136723594">
				<ele>112.0</ele>
				<time>2011-02-15T17:14:24Z</time>
			</trkpt>
			<trkpt lat="50.90051390863662" lon="6.715087247845763">
				<ele>112.0</ele>
				<time>2011-02-15T17:14:25Z</time>
			</trkpt>
			<trkpt lat="50.90050810137596" lon="6.715132449933773">
				<ele>112.0</ele>
				<time>2011-02-15T17:14:26Z</time>
			</trkpt>
			<trkpt lat="50.90050330978143" lon="6.715178392324456">
				<ele>112.0</ele>
				<time>2011-02-15T17:14:27Z</time>
			</trkpt>
			<trkpt lat="50.90050039233688" lon="6.715222945238414">
				<ele>112.0</ele>
				<time>2011-02-15T17:14:28Z</time>
			</trkpt>
			<trkpt lat="50.900496710471465" lon="6.715264552052907">
				<ele>112.0</ele>
				<time>2011-02-15T17:14:29Z</time>
			</trkpt>
			<trkpt lat="50.900492462142935" lon="6.715305244680113">
				<ele>113.0</ele>
				<time>2011-02-15T17:14:30Z</time>
			</trkpt>
			<trkpt lat="50.900492462142935" lon="6.715305244680113">
				<ele>113.0</ele>
				<time>2011-02-15T17:14:31Z</time>
			</trkpt>
			<trkpt lat="50.900492462142935" lon="6.715305244680113">
				<ele>113.0</ele>
				<time>2011-02-15T17:14:32Z</time>
			</trkpt>
			<trkpt lat="50.900492462142935" lon="6.715305244680113">
				<ele>113.0</ele>
				<time>2011-02-15T17:14:33Z</time>
			</trkpt>
			<trkpt lat="50.900492462142935" lon="6.715305244680113">
				<ele>113.0</ele>
				<time>2011-02-15T17:14:34Z</time>
			</trkpt>
			<trkpt lat="50.90048794706104" lon="6.715396317629857">
				<ele>113.0</ele>
				<time>2011-02-15T17:14:35Z</time>
			</trkpt>
			<trkpt lat="50.90048794706104" lon="6.715396317629857">
				<ele>113.0</ele>
				<time>2011-02-15T17:14:36Z</time>
			</trkpt>
			<trkpt lat="50.90048794706104" lon="6.715396317629857">
				<ele>113.0</ele>
				<time>2011-02-15T17:14:37Z</time>
			</trkpt>
			<trkpt lat="50.90048794706104" lon="6.715396317629857">
				<ele>113.0</ele>
				<time>2011-02-15T17:14:38Z</time>
			</trkpt>
			<trkpt lat="50.90048794706104" lon="6.715396317629857">
				<ele>113.0</ele>
				<time>2011-02-15T17:14:39Z</time>
			</trkpt>
			<trkpt lat="50.90058381319042" lon="6.715411810390888">
				<ele>114.0</ele>
				<time>2011-02-15T17:14:40Z</time>
			</trkpt>
			<trkpt lat="50.900612205308065" lon="6.715415890777742">
				<ele>114.0</ele>
				<time>2011-02-15T17:14:41Z</time>
			</trkpt>
			<trkpt lat="50.90064091454977" lon="6.715418892716981">
				<ele>115.0</ele>
				<time>2011-02-15T17:14:42Z</time>
			</trkpt>
			<trkpt lat="50.900669494651076" lon="6.715420571158123">
				<ele>115.0</ele>
				<time>2011-02-15T17:14:43Z</time>
			</trkpt>
			<trkpt lat="50.90069897649752" lon="6.7154222223014">
				<ele>115.0</ele>
				<time>2011-02-15T17:14:44Z</time>
			</trkpt>
			<trkpt lat="50.90072854973922" lon="6.715422461404394">
				<ele>115.0</ele>
				<time>2011-02-15T17:14:45Z</time>
			</trkpt>
			<trkpt lat="50.90075882139646" lon="6.715420812487142">
				<ele>115.0</ele>
				<time>2011-02-15T17:14:46Z</time>
			</trkpt>
			<trkpt lat="50.90079071007353" lon="6.715418991446434">
				<ele>115.0</ele>
				<time>2011-02-15T17:14:47Z</time>
			</trkpt>
			<trkpt lat="50.900820486860276" lon="6.71541840176413">
				<ele>115.0</ele>
				<time>2011-02-15T17:14:48Z</time>
			</trkpt>
			<trkpt lat="50.90084813682822" lon="6.715415860573044">
				<ele>116.0</ele>
				<time>2011-02-15T17:14:49Z</time>
			</trkpt>
			<trkpt lat="50.90087125954047" lon="6.715411298618817">
				<ele>116.0</ele>
				<time>2011-02-15T17:14:50Z</time>
			</trkpt>
			<trkpt lat="50.90087125954047" lon="6.715411298618817">
				<ele>116.0</ele>
				<time>2011-02-15T17:14:51Z</time>
			</trkpt>
			<trkpt lat="50.90087125954047" lon="6.715411298618817">
				<ele>116.0</ele>
				<time>2011-02-15T17:14:52Z</time>
			</trkpt>
			<trkpt lat="50.90087125954047" lon="6.715411298618817">
				<ele>116.0</ele>
				<time>2011-02-15T17:14:53Z</time>
			</trkpt>
			<trkpt lat="50.90087125954047" lon="6.715411298618817">
				<ele>116.0</ele>
				<time>2011-02-15T17:14:54Z</time>
			</trkpt>
			<trkpt lat="50.90087125954047" lon="6.715411298618817">
				<ele>116.0</ele>
				<time>2011-02-15T17:14:55Z</time>
			</trkpt>
			<trkpt lat="50.90087125954047" lon="6.715411298618817">
				<ele>116.0</ele>
				<time>2011-02-15T17:14:56Z</time>
			</trkpt>
			<trkpt lat="50.90087125954047" lon="6.715411298618817">
				<ele>116.0</ele>
				<time>2011-02-15T17:14:57Z</time>
			</trkpt>
			<trkpt lat="50.90087125954047" lon="6.715411298618817">
				<ele>116.0</ele>
				<time>2011-02-15T17:14:58Z</time>
			</trkpt>
			<trkpt lat="50.90087125954047" lon="6.715411298618817">
				<ele>116.0</ele>
				<time>2011-02-15T17:14:59Z</time>
			</trkpt>
			<trkpt lat="50.90087125954047" lon="6.715411298618817">
				<ele>116.0</ele>
				<time>2011-02-15T17:15:00Z</time>
			</trkpt>
			<trkpt lat="50.90087125954047" lon="6.715411298618817">
				<ele>116.0</ele>
				<time>2011-02-15T17:15:01Z</time>
			</trkpt>
			<trkpt lat="50.90087125954047" lon="6.715411298618817">
				<ele>116.0</ele>
				<time>2011-02-15T17:15:02Z</time>
			</trkpt>
			<trkpt lat="50.90087125954047" lon="6.715411298618817">
				<ele>116.0</ele>
				<time>2011-02-15T17:15:03Z</time>
			</trkpt>
			<trkpt lat="50.90087125954047" lon="6.715411298618817">
				<ele>116.0</ele>
				<time>2011-02-15T17:15:04Z</time>
			</trkpt>
			<trkpt lat="50.90087125954047" lon="6.715411298618817">
				<ele>116.0</ele>
				<time>2011-02-15T17:15:05Z</time>
			</trkpt>
			<trkpt lat="50.90087125954047" lon="6.715411298618817">
				<ele>116.0</ele>
				<time>2011-02-15T17:15:06Z</time>
			</trkpt>
			<trkpt lat="50.90087125954047" lon="6.715411298618817">
				<ele>116.0</ele>
				<time>2011-02-15T17:15:07Z</time>
			</trkpt>
			<trkpt lat="50.90087125954047" lon="6.715411298618817">
				<ele>116.0</ele>
				<time>2011-02-15T17:15:08Z</time>
			</trkpt>
			<trkpt lat="50.90087125954047" lon="6.715411298618817">
				<ele>116.0</ele>
				<time>2011-02-15T17:15:09Z</time>
			</trkpt>
			<trkpt lat="50.90087125954047" lon="6.715411298618817">
				<ele>116.0</ele>
				<time>2011-02-15T17:15:10Z</time>
			</trkpt>
			<trkpt lat="50.90087125954047" lon="6.715411298618817">
				<ele>116.0</ele>
				<time>2011-02-15T17:15:11Z</time>
			</trkpt>
			<trkpt lat="50.90087125954047" lon="6.715411298618817">
				<ele>116.0</ele>
				<time>2011-02-15T17:15:12Z</time>
			</trkpt>
			<trkpt lat="50.90087125954047" lon="6.715411298618817">
				<ele>116.0</ele>
				<time>2011-02-15T17:15:13Z</time>
			</trkpt>
			<trkpt lat="50.90087125954047" lon="6.715411298618817">
				<ele>116.0</ele>
				<time>2011-02-15T17:15:14Z</time>
			</trkpt>
			<trkpt lat="50.90087125954047" lon="6.715411298618817">
				<ele>116.0</ele>
				<time>2011-02-15T17:15:15Z</time>
			</trkpt>
			<trkpt lat="50.90087125954047" lon="6.715411298618817">
				<ele>116.0</ele>
				<time>2011-02-15T17:15:16Z</time>
			</trkpt>
			<trkpt lat="50.90087125954047" lon="6.715411298618817">
				<ele>116.0</ele>
				<time>2011-02-15T17:15:17Z</time>
			</trkpt>
			<trkpt lat="50.90087125954047" lon="6.715411298618817">
				<ele>116.0</ele>
				<time>2011-02-15T17:15:18Z</time>
			</trkpt>
			<trkpt lat="50.90087125954047" lon="6.715411298618817">
				<ele>116.0</ele>
				<time>2011-02-15T17:15:19Z</time>
			</trkpt>
			<trkpt lat="50.90087125954047" lon="6.715411298618817">
				<ele>116.0</ele>
				<time>2011-02-15T17:15:20Z</time>
			</trkpt>
			<trkpt lat="50.90087125954047" lon="6.715411298618817">
				<ele>116.0</ele>
				<time>2011-02-15T17:15:21Z</time>
			</trkpt>
			<trkpt lat="50.90087125954047" lon="6.715411298618817">
				<ele>116.0</ele>
				<time>2011-02-15T17:15:22Z</time>
			</trkpt>
			<trkpt lat="50.90087125954047" lon="6.715411298618817">
				<ele>116.0</ele>
				<time>2011-02-15T17:15:23Z</time>
			</trkpt>
			<trkpt lat="50.90087125954047" lon="6.715411298618817">
				<ele>116.0</ele>
				<time>2011-02-15T17:15:24Z</time>
			</trkpt>
			<trkpt lat="50.90087125954047" lon="6.715411298618817">
				<ele>116.0</ele>
				<time>2011-02-15T17:15:25Z</time>
			</trkpt>
			<trkpt lat="50.90087125954047" lon="6.715411298618817">
				<ele>116.0</ele>
				<time>2011-02-15T17:15:26Z</time>
			</trkpt>
			<trkpt lat="50.90087125954047" lon="6.715411298618817">
				<ele>116.0</ele>
				<time>2011-02-15T17:15:27Z</time>
			</trkpt>
			<trkpt lat="50.90087125954047" lon="6.715411298618817">
				<ele>116.0</ele>
				<time>2011-02-15T17:15:28Z</time>
			</trkpt>
			<trkpt lat="50.90087125954047" lon="6.715411298618817">
				<ele>116.0</ele>
				<time>2011-02-15T17:15:29Z</time>
			</trkpt>
			<trkpt lat="50.90087125954047" lon="6.715411298618817">
				<ele>116.0</ele>
				<time>2011-02-15T17:15:30Z</time>
			</trkpt>
			<trkpt lat="50.90087125954047" lon="6.715411298618817">
				<ele>116.0</ele>
				<time>2011-02-15T17:15:31Z</time>
			</trkpt>
			<trkpt lat="50.90087125954047" lon="6.715411298618817">
				<ele>116.0</ele>
				<time>2011-02-15T17:15:32Z</time>
			</trkpt>
			<trkpt lat="50.90087125954047" lon="6.715411298618817">
				<ele>116.0</ele>
				<time>2011-02-15T17:15:33Z</time>
			</trkpt>
			<trkpt lat="50.90087125954047" lon="6.715411298618817">
				<ele>116.0</ele>
				<time>2011-02-15T17:15:34Z</time>
			</trkpt>
			<trkpt lat="50.90087125954047" lon="6.715411298618817">
				<ele>116.0</ele>
				<time>2011-02-15T17:15:35Z</time>
			</trkpt>
			<trkpt lat="50.90087125954047" lon="6.715411298618817">
				<ele>116.0</ele>
				<time>2011-02-15T17:15:36Z</time>
			</trkpt>
			<trkpt lat="50.90087125954047" lon="6.715411298618817">
				<ele>116.0</ele>
				<time>2011-02-15T17:15:37Z</time>
			</trkpt>
			<trkpt lat="50.90087125954047" lon="6.715411298618817">
				<ele>116.0</ele>
				<time>2011-02-15T17:15:38Z</time>
			</trkpt>
			<trkpt lat="50.90087125954047" lon="6.715411298618817">
				<ele>116.0</ele>
				<time>2011-02-15T17:15:39Z</time>
			</trkpt>
			<trkpt lat="50.90087125954047" lon="6.715411298618817">
				<ele>116.0</ele>
				<time>2011-02-15T17:15:40Z</time>
			</trkpt>
			<trkpt lat="50.90087125954047" lon="6.715411298618817">
				<ele>116.0</ele>
				<time>2011-02-15T17:15:41Z</time>
			</trkpt>
			<trkpt lat="50.90087125954047" lon="6.715411298618817">
				<ele>116.0</ele>
				<time>2011-02-15T17:15:42Z</time>
			</trkpt>
			<trkpt lat="50.90087125954047" lon="6.715411298618817">
				<ele>116.0</ele>
				<time>2011-02-15T17:15:43Z</time>
			</trkpt>
			<trkpt lat="50.90087125954047" lon="6.715411298618817">
				<ele>116.0</ele>
				<time>2011-02-15T17:15:44Z</time>
			</trkpt>
			<trkpt lat="50.90087125954047" lon="6.715411298618817">
				<ele>116.0</ele>
				<time>2011-02-15T17:15:45Z</time>
			</trkpt>
			<trkpt lat="50.90087125954047" lon="6.715411298618817">
				<ele>116.0</ele>
				<time>2011-02-15T17:15:46Z</time>
			</trkpt>
			<trkpt lat="50.90087125954047" lon="6.715411298618817">
				<ele>116.0</ele>
				<time>2011-02-15T17:15:47Z</time>
			</trkpt>
			<trkpt lat="50.90087125954047" lon="6.715411298618817">
				<ele>116.0</ele>
				<time>2011-02-15T17:15:48Z</time>
			</trkpt>
			<trkpt lat="50.90087125954047" lon="6.715411298618817">
				<ele>116.0</ele>
				<time>2011-02-15T17:15:49Z</time>
			</trkpt>
			<trkpt lat="50.90087125954047" lon="6.715411298618817">
				<ele>116.0</ele>
				<time>2011-02-15T17:15:50Z</time>
			</trkpt>
			<trkpt lat="50.90087125954047" lon="6.715411298618817">
				<ele>116.0</ele>
				<time>2011-02-15T17:15:51Z</time>
			</trkpt>
			<trkpt lat="50.90087125954047" lon="6.715411298618817">
				<ele>116.0</ele>
				<time>2011-02-15T17:15:52Z</time>
			</trkpt>
			<trkpt lat="50.90087125954047" lon="6.715411298618817">
				<ele>116.0</ele>
				<time>2011-02-15T17:15:53Z</time>
			</trkpt>
			<trkpt lat="50.90087125954047" lon="6.715411298618817">
				<ele>116.0</ele>
				<time>2011-02-15T17:15:54Z</time>
			</trkpt>
			<trkpt lat="50.90087125954047" lon="6.715411298618817">
				<ele>116.0</ele>
				<time>2011-02-15T17:15:55Z</time>
			</trkpt>
			<trkpt lat="50.90087125954047" lon="6.715411298618817">
				<ele>116.0</ele>
				<time>2011-02-15T17:15:56Z</time>
			</trkpt>
			<trkpt lat="50.90087125954047" lon="6.715411298618817">
				<ele>116.0</ele>
				<time>2011-02-15T17:15:57Z</time>
			</trkpt>
			<trkpt lat="50.90087125954047" lon="6.715411298618817">
				<ele>116.0</ele>
				<time>2011-02-15T17:15:58Z</time>
			</trkpt>
			<trkpt lat="50.90087125954047" lon="6.715411298618817">
				<ele>116.0</ele>
				<time>2011-02-15T17:15:59Z</time>
			</trkpt>
			<trkpt lat="50.90087125954047" lon="6.715411298618817">
				<ele>116.0</ele>
				<time>2011-02-15T17:16:00Z</time>
			</trkpt>
			<trkpt lat="50.90087125954047" lon="6.715411298618817">
				<ele>116.0</ele>
				<time>2011-02-15T17:16:01Z</time>
			</trkpt>
			<trkpt lat="50.90087125954047" lon="6.715411298618817">
				<ele>116.0</ele>
				<time>2011-02-15T17:16:02Z</time>
			</trkpt>
			<trkpt lat="50.90087125954047" lon="6.715411298618817">
				<ele>116.0</ele>
				<time>2011-02-15T17:16:03Z</time>
			</trkpt>
			<trkpt lat="50.90087125954047" lon="6.715411298618817">
				<ele>116.0</ele>
				<time>2011-02-15T17:16:04Z</time>
			</trkpt>
			<trkpt lat="50.90087125954047" lon="6.715411298618817">
				<ele>116.0</ele>
				<time>2011-02-15T17:16:05Z</time>
			</trkpt>
			<trkpt lat="50.90087125954047" lon="6.715411298618817">
				<ele>116.0</ele>
				<time>2011-02-15T17:16:06Z</time>
			</trkpt>
			<trkpt lat="50.90087125954047" lon="6.715411298618817">
				<ele>116.0</ele>
				<time>2011-02-15T17:16:07Z</time>
			</trkpt>
			<trkpt lat="50.90087125954047" lon="6.715411298618817">
				<ele>116.0</ele>
				<time>2011-02-15T17:16:08Z</time>
			</trkpt>
			<trkpt lat="50.90087125954047" lon="6.715411298618817">
				<ele>116.0</ele>
				<time>2011-02-15T17:16:09Z</time>
			</trkpt>
			<trkpt lat="50.90087125954047" lon="6.715411298618817">
				<ele>116.0</ele>
				<time>2011-02-15T17:16:10Z</time>
			</trkpt>
			<trkpt lat="50.90087125954047" lon="6.715411298618817">
				<ele>116.0</ele>
				<time>2011-02-15T17:16:11Z</time>
			</trkpt>
			<trkpt lat="50.90087125954047" lon="6.715411298618817">
				<ele>116.0</ele>
				<time>2011-02-15T17:16:12Z</time>
			</trkpt>
			<trkpt lat="50.90087125954047" lon="6.715411298618817">
				<ele>116.0</ele>
				<time>2011-02-15T17:16:13Z</time>
			</trkpt>
			<trkpt lat="50.90087125954047" lon="6.715411298618817">
				<ele>116.0</ele>
				<time>2011-02-15T17:16:14Z</time>
			</trkpt>
			<trkpt lat="50.90087125954047" lon="6.715411298618817">
				<ele>116.0</ele>
				<time>2011-02-15T17:16:15Z</time>
			</trkpt>
			<trkpt lat="50.90087125954047" lon="6.715411298618817">
				<ele>116.0</ele>
				<time>2011-02-15T17:16:16Z</time>
			</trkpt>
			<trkpt lat="50.90087125954047" lon="6.715411298618817">
				<ele>116.0</ele>
				<time>2011-02-15T17:16:17Z</time>
			</trkpt>
			<trkpt lat="50.90087125954047" lon="6.715411298618817">
				<ele>116.0</ele>
				<time>2011-02-15T17:16:18Z</time>
			</trkpt>
			<trkpt lat="50.90087125954047" lon="6.715411298618817">
				<ele>116.0</ele>
				<time>2011-02-15T17:16:19Z</time>
			</trkpt>
			<trkpt lat="50.90087125954047" lon="6.715411298618817">
				<ele>116.0</ele>
				<time>2011-02-15T17:16:20Z</time>
			</trkpt>
			<trkpt lat="50.90087125954047" lon="6.715411298618817">
				<ele>116.0</ele>
				<time>2011-02-15T17:16:21Z</time>
			</trkpt>
			<trkpt lat="50.90087125954047" lon="6.715411298618817">
				<ele>116.0</ele>
				<time>2011-02-15T17:16:22Z</time>
			</trkpt>
			<trkpt lat="50.90087125954047" lon="6.715411298618817">
				<ele>116.0</ele>
				<time>2011-02-15T17:16:23Z</time>
			</trkpt>
			<trkpt lat="50.90087125954047" lon="6.715411298618817">
				<ele>116.0</ele>
				<time>2011-02-15T17:16:24Z</time>
			</trkpt>
			<trkpt lat="50.90087125954047" lon="6.715411298618817">
				<ele>116.0</ele>
				<time>2011-02-15T17:16:25Z</time>
			</trkpt>
			<trkpt lat="50.90093770502303" lon="6.7154162774277255">
				<ele>117.0</ele>
				<time>2011-02-15T17:16:26Z</time>
			</trkpt>
			<trkpt lat="50.90093770502303" lon="6.7154162774277255">
				<ele>117.0</ele>
				<time>2011-02-15T17:16:27Z</time>
			</trkpt>
			<trkpt lat="50.90098495141961" lon="6.715409332584126">
				<ele>117.0</ele>
				<time>2011-02-15T17:16:28Z</time>
			</trkpt>
			<trkpt lat="50.90098495141961" lon="6.715409332584126">
				<ele>117.0</ele>
				<time>2011-02-15T17:16:29Z</time>
			</trkpt>
			<trkpt lat="50.90103521015216" lon="6.715401513255403">
				<ele>117.0</ele>
				<time>2011-02-15T17:16:30Z</time>
			</trkpt>
			<trkpt lat="50.90103521015216" lon="6.715401513255403">
				<ele>117.0</ele>
				<time>2011-02-15T17:16:31Z</time>
			</trkpt>
			<trkpt lat="50.90108711644389" lon="6.715395807595371">
				<ele>118.0</ele>
				<time>2011-02-15T17:16:32Z</time>
			</trkpt>
			<trkpt lat="50.90111213690672" lon="6.715405018519539">
				<ele>118.0</ele>
				<time>2011-02-15T17:16:33Z</time>
			</trkpt>
			<trkpt lat="50.90113836934193" lon="6.715424849819725">
				<ele>118.0</ele>
				<time>2011-02-15T17:16:34Z</time>
			</trkpt>
			<trkpt lat="50.9011644926952" lon="6.7154461339160445">
				<ele>118.0</ele>
				<time>2011-02-15T17:16:35Z</time>
			</trkpt>
			<trkpt lat="50.90118887708433" lon="6.71546605487918">
				<ele>118.0</ele>
				<time>2011-02-15T17:16:36Z</time>
			</trkpt>
			<trkpt lat="50.90121144293002" lon="6.715482037556815">
				<ele>118.0</ele>
				<time>2011-02-15T17:16:37Z</time>
			</trkpt>
			<trkpt lat="50.901232669962326" lon="6.715495547076075">
				<ele>118.0</ele>
				<time>2011-02-15T17:16:38Z</time>
			</trkpt>
			<trkpt lat="50.901232669962326" lon="6.715495547076075">
				<ele>118.0</ele>
				<time>2011-02-15T17:16:39Z</time>
			</trkpt>
			<trkpt lat="50.901232669962326" lon="6.715495547076075">
				<ele>118.0</ele>
				<time>2011-02-15T17:16:40Z</time>
			</trkpt>
			<trkpt lat="50.901276346892935" lon="6.715515912220523">
				<ele>119.0</ele>
				<time>2011-02-15T17:16:41Z</time>
			</trkpt>
			<trkpt lat="50.901276346892935" lon="6.715515912220523">
				<ele>119.0</ele>
				<time>2011-02-15T17:16:42Z</time>
			</trkpt>
			<trkpt lat="50.901276346892935" lon="6.715515912220523">
				<ele>119.0</ele>
				<time>2011-02-15T17:16:43Z</time>
			</trkpt>
			<trkpt lat="50.901276346892935" lon="6.715515912220523">
				<ele>119.0</ele>
				<time>2011-02-15T17:16:44Z</time>
			</trkpt>
			<trkpt lat="50.901276346892935" lon="6.715515912220523">
				<ele>119.0</ele>
				<time>2011-02-15T17:16:45Z</time>
			</trkpt>
			<trkpt lat="50.901276346892935" lon="6.715515912220523">
				<ele>119.0</ele>
				<time>2011-02-15T17:16:46Z</time>
			</trkpt>
			<trkpt lat="50.901276346892935" lon="6.715515912220523">
				<ele>119.0</ele>
				<time>2011-02-15T17:16:47Z</time>
			</trkpt>
			<trkpt lat="50.901276346892935" lon="6.715515912220523">
				<ele>119.0</ele>
				<time>2011-02-15T17:16:48Z</time>
			</trkpt>
			<trkpt lat="50.901276346892935" lon="6.715515912220523">
				<ele>119.0</ele>
				<time>2011-02-15T17:16:49Z</time>
			</trkpt>
			<trkpt lat="50.901276346892935" lon="6.715515912220523">
				<ele>119.0</ele>
				<time>2011-02-15T17:16:50Z</time>
			</trkpt>
			<trkpt lat="50.901276346892935" lon="6.715515912220523">
				<ele>119.0</ele>
				<time>2011-02-15T17:16:51Z</time>
			</trkpt>
			<trkpt lat="50.901276346892935" lon="6.715515912220523">
				<ele>119.0</ele>
				<time>2011-02-15T17:16:52Z</time>
			</trkpt>
			<trkpt lat="50.901276346892935" lon="6.715515912220523">
				<ele>119.0</ele>
				<time>2011-02-15T17:16:53Z</time>
			</trkpt>
			<trkpt lat="50.901276346892935" lon="6.715515912220523">
				<ele>119.0</ele>
				<time>2011-02-15T17:16:54Z</time>
			</trkpt>
			<trkpt lat="50.901276346892935" lon="6.715515912220523">
				<ele>119.0</ele>
				<time>2011-02-15T17:16:55Z</time>
			</trkpt>
			<trkpt lat="50.901276346892935" lon="6.715515912220523">
				<ele>119.0</ele>
				<time>2011-02-15T17:16:56Z</time>
			</trkpt>
			<trkpt lat="50.90128361627868" lon="6.715516863066629">
				<ele>119.0</ele>
				<time>2011-02-15T17:16:57Z</time>
			</trkpt>
			<trkpt lat="50.90128262513798" lon="6.715516682937471">
				<ele>119.0</ele>
				<time>2011-02-15T17:16:58Z</time>
			</trkpt>
			<trkpt lat="50.90128021961796" lon="6.715516439095667">
				<ele>119.0</ele>
				<time>2011-02-15T17:16:59Z</time>
			</trkpt>
			<trkpt lat="50.9012767189806" lon="6.715516355845184">
				<ele>119.0</ele>
				<time>2011-02-15T17:17:00Z</time>
			</trkpt>
			<trkpt lat="50.90127381641795" lon="6.715516332033443">
				<ele>119.0</ele>
				<time>2011-02-15T17:17:01Z</time>
			</trkpt>
			<trkpt lat="50.901271178496145" lon="6.715516536627599">
				<ele>119.0</ele>
				<time>2011-02-15T17:17:02Z</time>
			</trkpt>
			<trkpt lat="50.90126890249531" lon="6.715516602936355">
				<ele>119.0</ele>
				<time>2011-02-15T17:17:03Z</time>
			</trkpt>
			<trkpt lat="50.90126677696264" lon="6.715516804416743">
				<ele>119.0</ele>
				<time>2011-02-15T17:17:04Z</time>
			</trkpt>
			<trkpt lat="50.90126482900176" lon="6.715516941186172">
				<ele>119.0</ele>
				<time>2011-02-15T17:17:05Z</time>
			</trkpt>
			<trkpt lat="50.90126288254268" lon="6.715517160178306">
				<ele>119.0</ele>
				<time>2011-02-15T17:17:06Z</time>
			</trkpt>
			<trkpt lat="50.90126098159651" lon="6.715517447313305">
				<ele>119.0</ele>
				<time>2011-02-15T17:17:07Z</time>
			</trkpt>
			<trkpt lat="50.901259213602145" lon="6.7155177854124455">
				<ele>119.0</ele>
				<time>2011-02-15T17:17:08Z</time>
			</trkpt>
			<trkpt lat="50.90125784691723" lon="6.7155173472361405">
				<ele>119.0</ele>
				<time>2011-02-15T17:17:09Z</time>
			</trkpt>
			<trkpt lat="50.90125691902514" lon="6.715516213701704">
				<ele>119.0</ele>
				<time>2011-02-15T17:17:10Z</time>
			</trkpt>
			<trkpt lat="50.9012562674224" lon="6.715514362358666">
				<ele>119.0</ele>
				<time>2011-02-15T17:17:11Z</time>
			</trkpt>
			<trkpt lat="50.90125607158594" lon="6.715511597204127">
				<ele>119.0</ele>
				<time>2011-02-15T17:17:12Z</time>
			</trkpt>
			<trkpt lat="50.901256215885695" lon="6.715507998209809">
				<ele>119.0</ele>
				<time>2011-02-15T17:17:13Z</time>
			</trkpt>
			<trkpt lat="50.90125645379278" lon="6.715504995942099">
				<ele>119.0</ele>
				<time>2011-02-15T17:17:14Z</time>
			</trkpt>
			<trkpt lat="50.90125674210265" lon="6.71550225534936">
				<ele>119.0</ele>
				<time>2011-02-15T17:17:15Z</time>
			</trkpt>
			<trkpt lat="50.90125701732394" lon="6.7154999398340065">
				<ele>119.0</ele>
				<time>2011-02-15T17:17:16Z</time>
			</trkpt>
			<trkpt lat="50.90125733229442" lon="6.715497725242982">
				<ele>119.0</ele>
				<time>2011-02-15T17:17:17Z</time>
			</trkpt>
			<trkpt lat="50.90125757367355" lon="6.715495725941862">
				<ele>119.0</ele>
				<time>2011-02-15T17:17:18Z</time>
			</trkpt>
			<trkpt lat="50.90125775098387" lon="6.71549385762609">
				<ele>119.0</ele>
				<time>2011-02-15T17:17:19Z</time>
			</trkpt>
			<trkpt lat="50.90125780524939" lon="6.715492043530395">
				<ele>119.0</ele>
				<time>2011-02-15T17:17:20Z</time>
			</trkpt>
			<trkpt lat="50.90125762143931" lon="6.715490217379353">
				<ele>119.0</ele>
				<time>2011-02-15T17:17:21Z</time>
			</trkpt>
			<trkpt lat="50.90125732648262" lon="6.715488374260752">
				<ele>119.0</ele>
				<time>2011-02-15T17:17:22Z</time>
			</trkpt>
			<trkpt lat="50.90125687399691" lon="6.715486634594422">
				<ele>119.0</ele>
				<time>2011-02-15T17:17:23Z</time>
			</trkpt>
			<trkpt lat="50.90125618438415" lon="6.715485243032795">
				<ele>119.0</ele>
				<time>2011-02-15T17:17:24Z</time>
			</trkpt>
			<trkpt lat="50.90125528768959" lon="6.715484221574098">
				<ele>119.0</ele>
				<time>2011-02-15T17:17:25Z</time>
			</trkpt>
			<trkpt lat="50.90125418331638" lon="6.715483484734401">
				<ele>119.0</ele>
				<time>2011-02-15T17:17:26Z</time>
			</trkpt>
			<trkpt lat="50.90125169370826" lon="6.715482270395932">
				<ele>119.0</ele>
				<time>2011-02-15T17:17:27Z</time>
			</trkpt>
			<trkpt lat="50.90125046351373" lon="6.71548191398063">
				<ele>119.0</ele>
				<time>2011-02-15T17:17:28Z</time>
			</trkpt>
			<trkpt lat="50.901249074278354" lon="6.7154815095810365">
				<ele>119.0</ele>
				<time>2011-02-15T17:17:29Z</time>
			</trkpt>
			<trkpt lat="50.90124830595675" lon="6.715481283174014">
				<ele>119.0</ele>
				<time>2011-02-15T17:17:30Z</time>
			</trkpt>
			<trkpt lat="50.90124743840571" lon="6.715481068097615">
				<ele>119.0</ele>
				<time>2011-02-15T17:17:31Z</time>
			</trkpt>
			<trkpt lat="50.90124656070522" lon="6.715481049715231">
				<ele>119.0</ele>
				<time>2011-02-15T17:17:32Z</time>
			</trkpt>
			<trkpt lat="50.901245596802795" lon="6.715481375930145">
				<ele>119.0</ele>
				<time>2011-02-15T17:17:33Z</time>
			</trkpt>
			<trkpt lat="50.901244613042934" lon="6.7154818626292805">
				<ele>119.0</ele>
				<time>2011-02-15T17:17:34Z</time>
			</trkpt>
			<trkpt lat="50.901243517007146" lon="6.715482893507224">
				<ele>119.0</ele>
				<time>2011-02-15T17:17:35Z</time>
			</trkpt>
			<trkpt lat="50.901242353710174" lon="6.71548399308954">
				<ele>119.0</ele>
				<time>2011-02-15T17:17:36Z</time>
			</trkpt>
			<trkpt lat="50.90124138712294" lon="6.715485112563931">
				<ele>119.0</ele>
				<time>2011-02-15T17:17:37Z</time>
			</trkpt>
			<trkpt lat="50.90124065485997" lon="6.715486268543534">
				<ele>119.0</ele>
				<time>2011-02-15T17:17:38Z</time>
			</trkpt>
			<trkpt lat="50.90124016229016" lon="6.715487204250607">
				<ele>119.0</ele>
				<time>2011-02-15T17:17:39Z</time>
			</trkpt>
			<trkpt lat="50.90123972725403" lon="6.715487882282214">
				<ele>119.0</ele>
				<time>2011-02-15T17:17:40Z</time>
			</trkpt>
			<trkpt lat="50.90123946530734" lon="6.715488433095617">
				<ele>119.0</ele>
				<time>2011-02-15T17:17:41Z</time>
			</trkpt>
			<trkpt lat="50.90124005063322" lon="6.715488621217455">
				<ele>119.0</ele>
				<time>2011-02-15T17:17:42Z</time>
			</trkpt>
			<trkpt lat="50.90124082905648" lon="6.715487465277843">
				<ele>119.0</ele>
				<time>2011-02-15T17:17:43Z</time>
			</trkpt>
			<trkpt lat="50.90124169325024" lon="6.71548599662014">
				<ele>119.0</ele>
				<time>2011-02-15T17:17:44Z</time>
			</trkpt>
			<trkpt lat="50.90124465033921" lon="6.7154827990861365">
				<ele>119.0</ele>
				<time>2011-02-15T17:17:45Z</time>
			</trkpt>
			<trkpt lat="50.90124788292549" lon="6.715479575773019">
				<ele>119.0</ele>
				<time>2011-02-15T17:17:46Z</time>
			</trkpt>
			<trkpt lat="50.90125119269062" lon="6.715476110344489">
				<ele>119.0</ele>
				<time>2011-02-15T17:17:47Z</time>
			</trkpt>
			<trkpt lat="50.9012551634141" lon="6.715471977131833">
				<ele>119.0</ele>
				<time>2011-02-15T17:17:48Z</time>
			</trkpt>
			<trkpt lat="50.9012690638062" lon="6.715464147035972">
				<ele>119.0</ele>
				<time>2011-02-15T17:17:49Z</time>
			</trkpt>
			<trkpt lat="50.901301828380724" lon="6.715447915750076">
				<ele>119.0</ele>
				<time>2011-02-15T17:17:50Z</time>
			</trkpt>
			<trkpt lat="50.90134988711582" lon="6.715423886383939">
				<ele>119.0</ele>
				<time>2011-02-15T17:17:51Z</time>
			</trkpt>
			<trkpt lat="50.90139938881482" lon="6.715397797472059">
				<ele>119.0</ele>
				<time>2011-02-15T17:17:52Z</time>
			</trkpt>
			<trkpt lat="50.901446676655226" lon="6.715372766777734">
				<ele>119.0</ele>
				<time>2011-02-15T17:17:53Z</time>
			</trkpt>
			<trkpt lat="50.90149263690884" lon="6.715345900376599">
				<ele>119.0</ele>
				<time>2011-02-15T17:17:54Z</time>
			</trkpt>
			<trkpt lat="50.901536412844116" lon="6.715311807325004">
				<ele>119.0</ele>
				<time>2011-02-15T17:17:55Z</time>
			</trkpt>
			<trkpt lat="50.901580018676675" lon="6.7152749519833215">
				<ele>119.0</ele>
				<time>2011-02-15T17:17:56Z</time>
			</trkpt>
			<trkpt lat="50.901630990038065" lon="6.715233805739596">
				<ele>118.0</ele>
				<time>2011-02-15T17:17:57Z</time>
			</trkpt>
			<trkpt lat="50.901680822211695" lon="6.715191195806529">
				<ele>118.0</ele>
				<time>2011-02-15T17:17:58Z</time>
			</trkpt>
			<trkpt lat="50.901732634963814" lon="6.715148698649213">
				<ele>118.0</ele>
				<time>2011-02-15T17:17:59Z</time>
			</trkpt>
			<trkpt lat="50.90178320304471" lon="6.715106822220395">
				<ele>118.0</ele>
				<time>2011-02-15T17:18:00Z</time>
			</trkpt>
			<trkpt lat="50.90183299287056" lon="6.715067079440448">
				<ele>118.0</ele>
				<time>2011-02-15T17:18:01Z</time>
			</trkpt>
			<trkpt lat="50.90188440942996" lon="6.715026911949186">
				<ele>118.0</ele>
				<time>2011-02-15T17:18:02Z</time>
			</trkpt>
			<trkpt lat="50.90193783942297" lon="6.714985434943807">
				<ele>118.0</ele>
				<time>2011-02-15T17:18:03Z</time>
			</trkpt>
			<trkpt lat="50.901993103845676" lon="6.714943098517846">
				<ele>118.0</ele>
				<time>2011-02-15T17:18:04Z</time>
			</trkpt>
			<trkpt lat="50.90204829175259" lon="6.714900854920158">
				<ele>117.0</ele>
				<time>2011-02-15T17:18:05Z</time>
			</trkpt>
			<trkpt lat="50.90210036356257" lon="6.714861236393047">
				<ele>117.0</ele>
				<time>2011-02-15T17:18:06Z</time>
			</trkpt>
			<trkpt lat="50.90215240451999" lon="6.714820119873665">
				<ele>117.0</ele>
				<time>2011-02-15T17:18:07Z</time>
			</trkpt>
			<trkpt lat="50.902206954085585" lon="6.714777082306278">
				<ele>117.0</ele>
				<time>2011-02-15T17:18:08Z</time>
			</trkpt>
			<trkpt lat="50.902262563949705" lon="6.714737099602892">
				<ele>117.0</ele>
				<time>2011-02-15T17:18:09Z</time>
			</trkpt>
			<trkpt lat="50.902318015622086" lon="6.714698044996324">
				<ele>117.0</ele>
				<time>2011-02-15T17:18:10Z</time>
			</trkpt>
			<trkpt lat="50.902373142329296" lon="6.714660630275251">
				<ele>117.0</ele>
				<time>2011-02-15T17:18:11Z</time>
			</trkpt>
			<trkpt lat="50.90242861156005" lon="6.714625760465113">
				<ele>117.0</ele>
				<time>2011-02-15T17:18:12Z</time>
			</trkpt>
			<trkpt lat="50.90248405563544" lon="6.714592544718818">
				<ele>117.0</ele>
				<time>2011-02-15T17:18:13Z</time>
			</trkpt>
			<trkpt lat="50.90253749812107" lon="6.7145562447383815">
				<ele>117.0</ele>
				<time>2011-02-15T17:18:14Z</time>
			</trkpt>
			<trkpt lat="50.90258971878478" lon="6.714519649493587">
				<ele>117.0</ele>
				<time>2011-02-15T17:18:15Z</time>
			</trkpt>
			<trkpt lat="50.90264267717029" lon="6.714483775013347">
				<ele>117.0</ele>
				<time>2011-02-15T17:18:16Z</time>
			</trkpt>
			<trkpt lat="50.9026912448062" lon="6.714445889756208">
				<ele>117.0</ele>
				<time>2011-02-15T17:18:17Z</time>
			</trkpt>
			<trkpt lat="50.90273981244211" lon="6.714408004499068">
				<ele>117.0</ele>
				<time>2011-02-15T17:18:18Z</time>
			</trkpt>
			<trkpt lat="50.902788380078015" lon="6.714370119241929">
				<ele>117.0</ele>
				<time>2011-02-15T17:18:19Z</time>
			</trkpt>
			<trkpt lat="50.90283694771392" lon="6.7143322339847895">
				<ele>117.0</ele>
				<time>2011-02-15T17:18:20Z</time>
			</trkpt>
			<trkpt lat="50.90290454604776" lon="6.714332942793105">
				<ele>117.0</ele>
				<time>2011-02-15T17:18:21Z</time>
			</trkpt>
			<trkpt lat="50.902961858267076" lon="6.714301549201208">
				<ele>117.0</ele>
				<time>2011-02-15T17:18:22Z</time>
			</trkpt>
			<trkpt lat="50.90301928852871" lon="6.714268000303911">
				<ele>117.0</ele>
				<time>2011-02-15T17:18:23Z</time>
			</trkpt>
			<trkpt lat="50.903075948542195" lon="6.714236732701121">
				<ele>117.0</ele>
				<time>2011-02-15T17:18:24Z</time>
			</trkpt>
			<trkpt lat="50.903131657329276" lon="6.714202786555928">
				<ele>117.0</ele>
				<time>2011-02-15T17:18:25Z</time>
			</trkpt>
			<trkpt lat="50.90318693664513" lon="6.7141667466954855">
				<ele>117.0</ele>
				<time>2011-02-15T17:18:26Z</time>
			</trkpt>
			<trkpt lat="50.90324387370985" lon="6.714131100088683">
				<ele>117.0</ele>
				<time>2011-02-15T17:18:27Z</time>
			</trkpt>
			<trkpt lat="50.90330119284343" lon="6.714096649201023">
				<ele>117.0</ele>
				<time>2011-02-15T17:18:28Z</time>
			</trkpt>
			<trkpt lat="50.903370486683535" lon="6.714057105691595">
				<ele>118.0</ele>
				<time>2011-02-15T17:18:29Z</time>
			</trkpt>
			<trkpt lat="50.90343805105312" lon="6.714017512934684">
				<ele>118.0</ele>
				<time>2011-02-15T17:18:30Z</time>
			</trkpt>
			<trkpt lat="50.903508136938974" lon="6.713975854769246">
				<ele>118.0</ele>
				<time>2011-02-15T17:18:31Z</time>
			</trkpt>
			<trkpt lat="50.90357329303251" lon="6.713937372792823">
				<ele>118.0</ele>
				<time>2011-02-15T17:18:32Z</time>
			</trkpt>
			<trkpt lat="50.903636765055985" lon="6.713899449394406">
				<ele>118.0</ele>
				<time>2011-02-15T17:18:33Z</time>
			</trkpt>
			<trkpt lat="50.903698191707036" lon="6.71386284234039">
				<ele>119.0</ele>
				<time>2011-02-15T17:18:34Z</time>
			</trkpt>
			<trkpt lat="50.90375864179762" lon="6.71382864352537">
				<ele>119.0</ele>
				<time>2011-02-15T17:18:35Z</time>
			</trkpt>
			<trkpt lat="50.90381791710516" lon="6.713795353622478">
				<ele>119.0</ele>
				<time>2011-02-15T17:18:36Z</time>
			</trkpt>
			<trkpt lat="50.90387599692493" lon="6.713761166856451">
				<ele>119.0</ele>
				<time>2011-02-15T17:18:37Z</time>
			</trkpt>
			<trkpt lat="50.90392708162611" lon="6.713735251499143">
				<ele>119.0</ele>
				<time>2011-02-15T17:18:38Z</time>
			</trkpt>
			<trkpt lat="50.903980702016554" lon="6.713713212529113">
				<ele>119.0</ele>
				<time>2011-02-15T17:18:39Z</time>
			</trkpt>
			<trkpt lat="50.90403057178725" lon="6.71369244428542">
				<ele>119.0</ele>
				<time>2011-02-15T17:18:40Z</time>
			</trkpt>
			<trkpt lat="50.9040748566943" lon="6.713690868465336">
				<ele>119.0</ele>
				<time>2011-02-15T17:18:41Z</time>
			</trkpt>
			<trkpt lat="50.90411291854175" lon="6.713704334939649">
				<ele>119.0</ele>
				<time>2011-02-15T17:18:42Z</time>
			</trkpt>
			<trkpt lat="50.90413898829393" lon="6.713741342637609">
				<ele>119.0</ele>
				<time>2011-02-15T17:18:43Z</time>
			</trkpt>
			<trkpt lat="50.904153716111324" lon="6.713791779741434">
				<ele>119.0</ele>
				<time>2011-02-15T17:18:44Z</time>
			</trkpt>
			<trkpt lat="50.90416067723095" lon="6.713846373873667">
				<ele>119.0</ele>
				<time>2011-02-15T17:18:45Z</time>
			</trkpt>
			<trkpt lat="50.904168733999924" lon="6.713901886450196">
				<ele>119.0</ele>
				<time>2011-02-15T17:18:46Z</time>
			</trkpt>
			<trkpt lat="50.90417725036357" lon="6.713960011858924">
				<ele>119.0</ele>
				<time>2011-02-15T17:18:47Z</time>
			</trkpt>
			<trkpt lat="50.904187094088805" lon="6.71401530911946">
				<ele>119.0</ele>
				<time>2011-02-15T17:18:48Z</time>
			</trkpt>
			<trkpt lat="50.904197259376424" lon="6.714072134870523">
				<ele>119.0</ele>
				<time>2011-02-15T17:18:49Z</time>
			</trkpt>
			<trkpt lat="50.9042073875452" lon="6.714126875492959">
				<ele>119.0</ele>
				<time>2011-02-15T17:18:50Z</time>
			</trkpt>
			<trkpt lat="50.904217111881856" lon="6.714178082375687">
				<ele>119.0</ele>
				<time>2011-02-15T17:18:51Z</time>
			</trkpt>
			<trkpt lat="50.90422595994754" lon="6.714228460093204">
				<ele>119.0</ele>
				<time>2011-02-15T17:18:52Z</time>
			</trkpt>
			<trkpt lat="50.904242845483836" lon="6.714264258566314">
				<ele>118.0</ele>
				<time>2011-02-15T17:18:53Z</time>
			</trkpt>
			<trkpt lat="50.904242845483836" lon="6.714264258566314">
				<ele>118.0</ele>
				<time>2011-02-15T17:18:54Z</time>
			</trkpt>
			<trkpt lat="50.904242845483836" lon="6.714264258566314">
				<ele>118.0</ele>
				<time>2011-02-15T17:18:55Z</time>
			</trkpt>
			<trkpt lat="50.904242845483836" lon="6.714264258566314">
				<ele>118.0</ele>
				<time>2011-02-15T17:18:56Z</time>
			</trkpt>
			<trkpt lat="50.904242845483836" lon="6.714264258566314">
				<ele>118.0</ele>
				<time>2011-02-15T17:18:57Z</time>
			</trkpt>
			<trkpt lat="50.904242845483836" lon="6.714264258566314">
				<ele>118.0</ele>
				<time>2011-02-15T17:18:58Z</time>
			</trkpt>
			<trkpt lat="50.904242845483836" lon="6.714264258566314">
				<ele>118.0</ele>
				<time>2011-02-15T17:18:59Z</time>
			</trkpt>
			<trkpt lat="50.904242845483836" lon="6.714264258566314">
				<ele>118.0</ele>
				<time>2011-02-15T17:19:00Z</time>
			</trkpt>
			<trkpt lat="50.904242845483836" lon="6.714264258566314">
				<ele>118.0</ele>
				<time>2011-02-15T17:19:01Z</time>
			</trkpt>
			<trkpt lat="50.904242845483836" lon="6.714264258566314">
				<ele>118.0</ele>
				<time>2011-02-15T17:19:02Z</time>
			</trkpt>
			<trkpt lat="50.904242845483836" lon="6.714264258566314">
				<ele>118.0</ele>
				<time>2011-02-15T17:19:03Z</time>
			</trkpt>
			<trkpt lat="50.904242845483836" lon="6.714264258566314">
				<ele>118.0</ele>
				<time>2011-02-15T17:19:04Z</time>
			</trkpt>
			<trkpt lat="50.904242845483836" lon="6.714264258566314">
				<ele>118.0</ele>
				<time>2011-02-15T17:19:05Z</time>
			</trkpt>
			<trkpt lat="50.90420988282729" lon="6.714318469122048">
				<ele>118.0</ele>
				<time>2011-02-15T17:19:06Z</time>
			</trkpt>
			<trkpt lat="50.90420193279551" lon="6.714319920703336">
				<ele>118.0</ele>
				<time>2011-02-15T17:19:07Z</time>
			</trkpt>
			<trkpt lat="50.90419470000666" lon="6.714327531046965">
				<ele>118.0</ele>
				<time>2011-02-15T17:19:08Z</time>
			</trkpt>
			<trkpt lat="50.90418640150582" lon="6.714334970572433">
				<ele>118.0</ele>
				<time>2011-02-15T17:19:09Z</time>
			</trkpt>
			<trkpt lat="50.90418640150582" lon="6.714334970572433">
				<ele>118.0</ele>
				<time>2011-02-15T17:19:10Z</time>
			</trkpt>
			<trkpt lat="50.90418640150582" lon="6.714334970572433">
				<ele>118.0</ele>
				<time>2011-02-15T17:19:11Z</time>
			</trkpt>
			<trkpt lat="50.90416179598778" lon="6.714357116431894">
				<ele>118.0</ele>
				<time>2011-02-15T17:19:12Z</time>
			</trkpt>
			<trkpt lat="50.90416179598778" lon="6.714357116431894">
				<ele>118.0</ele>
				<time>2011-02-15T17:19:13Z</time>
			</trkpt>
			<trkpt lat="50.90416179598778" lon="6.714357116431894">
				<ele>118.0</ele>
				<time>2011-02-15T17:19:14Z</time>
			</trkpt>
			<trkpt lat="50.90416179598778" lon="6.714357116431894">
				<ele>118.0</ele>
				<time>2011-02-15T17:19:15Z</time>
			</trkpt>
			<trkpt lat="50.90416179598778" lon="6.714357116431894">
				<ele>118.0</ele>
				<time>2011-02-15T17:19:16Z</time>
			</trkpt>
			<trkpt lat="50.90416179598778" lon="6.714357116431894">
				<ele>118.0</ele>
				<time>2011-02-15T17:19:17Z</time>
			</trkpt>
			<trkpt lat="50.90416179598778" lon="6.714357116431894">
				<ele>118.0</ele>
				<time>2011-02-15T17:19:18Z</time>
			</trkpt>
			<trkpt lat="50.90416179598778" lon="6.714357116431894">
				<ele>118.0</ele>
				<time>2011-02-15T17:19:19Z</time>
			</trkpt>
			<trkpt lat="50.90416179598778" lon="6.714357116431894">
				<ele>118.0</ele>
				<time>2011-02-15T17:19:20Z</time>
			</trkpt>
			<trkpt lat="50.90416179598778" lon="6.714357116431894">
				<ele>118.0</ele>
				<time>2011-02-15T17:19:21Z</time>
			</trkpt>
			<trkpt lat="50.90416179598778" lon="6.714357116431894">
				<ele>118.0</ele>
				<time>2011-02-15T17:19:22Z</time>
			</trkpt>
			<trkpt lat="50.90416179598778" lon="6.714357116431894">
				<ele>118.0</ele>
				<time>2011-02-15T17:19:23Z</time>
			</trkpt>
			<trkpt lat="50.90416179598778" lon="6.714357116431894">
				<ele>118.0</ele>
				<time>2011-02-15T17:19:24Z</time>
			</trkpt>
			<trkpt lat="50.90416179598778" lon="6.714357116431894">
				<ele>118.0</ele>
				<time>2011-02-15T17:19:25Z</time>
			</trkpt>
			<trkpt lat="50.90416179598778" lon="6.714357116431894">
				<ele>118.0</ele>
				<time>2011-02-15T17:19:26Z</time>
			</trkpt>
			<trkpt lat="50.90416179598778" lon="6.714357116431894">
				<ele>118.0</ele>
				<time>2011-02-15T17:19:27Z</time>
			</trkpt>
			<trkpt lat="50.90416179598778" lon="6.714357116431894">
				<ele>118.0</ele>
				<time>2011-02-15T17:19:28Z</time>
			</trkpt>
			<trkpt lat="50.90416179598778" lon="6.714357116431894">
				<ele>118.0</ele>
				<time>2011-02-15T17:19:29Z</time>
			</trkpt>
			<trkpt lat="50.90416179598778" lon="6.714357116431894">
				<ele>118.0</ele>
				<time>2011-02-15T17:19:30Z</time>
			</trkpt>
			<trkpt lat="50.90416179598778" lon="6.714357116431894">
				<ele>118.0</ele>
				<time>2011-02-15T17:19:31Z</time>
			</trkpt>
			<trkpt lat="50.90416179598778" lon="6.714357116431894">
				<ele>118.0</ele>
				<time>2011-02-15T17:19:32Z</time>
			</trkpt>
			<trkpt lat="50.90416179598778" lon="6.714357116431894">
				<ele>118.0</ele>
				<time>2011-02-15T17:19:33Z</time>
			</trkpt>
			<trkpt lat="50.90416179598778" lon="6.714357116431894">
				<ele>118.0</ele>
				<time>2011-02-15T17:19:34Z</time>
			</trkpt>
			<trkpt lat="50.90416179598778" lon="6.714357116431894">
				<ele>118.0</ele>
				<time>2011-02-15T17:19:35Z</time>
			</trkpt>
			<trkpt lat="50.90416179598778" lon="6.714357116431894">
				<ele>118.0</ele>
				<time>2011-02-15T17:19:36Z</time>
			</trkpt>
			<trkpt lat="50.90416179598778" lon="6.714357116431894">
				<ele>118.0</ele>
				<time>2011-02-15T17:19:37Z</time>
			</trkpt>
			<trkpt lat="50.90416179598778" lon="6.714357116431894">
				<ele>118.0</ele>
				<time>2011-02-15T17:19:38Z</time>
			</trkpt>
			<trkpt lat="50.90416179598778" lon="6.714357116431894">
				<ele>118.0</ele>
				<time>2011-02-15T17:19:39Z</time>
			</trkpt>
			<trkpt lat="50.90416179598778" lon="6.714357116431894">
				<ele>118.0</ele>
				<time>2011-02-15T17:19:40Z</time>
			</trkpt>
			<trkpt lat="50.90416179598778" lon="6.714357116431894">
				<ele>118.0</ele>
				<time>2011-02-15T17:19:41Z</time>
			</trkpt>
			<trkpt lat="50.90416179598778" lon="6.714357116431894">
				<ele>118.0</ele>
				<time>2011-02-15T17:19:42Z</time>
			</trkpt>
			<trkpt lat="50.90416179598778" lon="6.714357116431894">
				<ele>118.0</ele>
				<time>2011-02-15T17:19:43Z</time>
			</trkpt>
			<trkpt lat="50.90416179598778" lon="6.714357116431894">
				<ele>118.0</ele>
				<time>2011-02-15T17:19:44Z</time>
			</trkpt>
			<trkpt lat="50.90416179598778" lon="6.714357116431894">
				<ele>118.0</ele>
				<time>2011-02-15T17:19:45Z</time>
			</trkpt>
			<trkpt lat="50.90416179598778" lon="6.714357116431894">
				<ele>118.0</ele>
				<time>2011-02-15T17:19:46Z</time>
			</trkpt>
			<trkpt lat="50.90416179598778" lon="6.714357116431894">
				<ele>118.0</ele>
				<time>2011-02-15T17:19:47Z</time>
			</trkpt>
			<trkpt lat="50.90416179598778" lon="6.714357116431894">
				<ele>118.0</ele>
				<time>2011-02-15T17:19:48Z</time>
			</trkpt>
			<trkpt lat="50.90416179598778" lon="6.714357116431894">
				<ele>118.0</ele>
				<time>2011-02-15T17:19:49Z</time>
			</trkpt>
			<trkpt lat="50.90416179598778" lon="6.714357116431894">
				<ele>118.0</ele>
				<time>2011-02-15T17:19:50Z</time>
			</trkpt>
			<trkpt lat="50.90416179598778" lon="6.714357116431894">
				<ele>118.0</ele>
				<time>2011-02-15T17:19:51Z</time>
			</trkpt>
			<trkpt lat="50.90416179598778" lon="6.714357116431894">
				<ele>118.0</ele>
				<time>2011-02-15T17:19:52Z</time>
			</trkpt>
			<trkpt lat="50.90416179598778" lon="6.714357116431894">
				<ele>118.0</ele>
				<time>2011-02-15T17:19:53Z</time>
			</trkpt>
			<trkpt lat="50.90416179598778" lon="6.714357116431894">
				<ele>118.0</ele>
				<time>2011-02-15T17:19:54Z</time>
			</trkpt>
			<trkpt lat="50.90416179598778" lon="6.714357116431894">
				<ele>118.0</ele>
				<time>2011-02-15T17:19:55Z</time>
			</trkpt>
			<trkpt lat="50.90416179598778" lon="6.714357116431894">
				<ele>118.0</ele>
				<time>2011-02-15T17:19:56Z</time>
			</trkpt>
			<trkpt lat="50.90416179598778" lon="6.714357116431894">
				<ele>118.0</ele>
				<time>2011-02-15T17:19:57Z</time>
			</trkpt>
			<trkpt lat="50.90416179598778" lon="6.714357116431894">
				<ele>118.0</ele>
				<time>2011-02-15T17:19:58Z</time>
			</trkpt>
			<trkpt lat="50.90416179598778" lon="6.714357116431894">
				<ele>118.0</ele>
				<time>2011-02-15T17:19:59Z</time>
			</trkpt>
			<trkpt lat="50.90416179598778" lon="6.714357116431894">
				<ele>118.0</ele>
				<time>2011-02-15T17:20:00Z</time>
			</trkpt>
			<trkpt lat="50.90416179598778" lon="6.714357116431894">
				<ele>118.0</ele>
				<time>2011-02-15T17:20:01Z</time>
			</trkpt>
			<trkpt lat="50.90416179598778" lon="6.714357116431894">
				<ele>118.0</ele>
				<time>2011-02-15T17:20:02Z</time>
			</trkpt>
			<trkpt lat="50.90416179598778" lon="6.714357116431894">
				<ele>118.0</ele>
				<time>2011-02-15T17:20:03Z</time>
			</trkpt>
			<trkpt lat="50.90416179598778" lon="6.714357116431894">
				<ele>118.0</ele>
				<time>2011-02-15T17:20:04Z</time>
			</trkpt>
			<trkpt lat="50.90416179598778" lon="6.714357116431894">
				<ele>118.0</ele>
				<time>2011-02-15T17:20:05Z</time>
			</trkpt>
			<trkpt lat="50.90416179598778" lon="6.714357116431894">
				<ele>118.0</ele>
				<time>2011-02-15T17:20:06Z</time>
			</trkpt>
			<trkpt lat="50.90416179598778" lon="6.714357116431894">
				<ele>118.0</ele>
				<time>2011-02-15T17:20:07Z</time>
			</trkpt>
			<trkpt lat="50.90416179598778" lon="6.714357116431894">
				<ele>118.0</ele>
				<time>2011-02-15T17:20:08Z</time>
			</trkpt>
			<trkpt lat="50.90416179598778" lon="6.714357116431894">
				<ele>118.0</ele>
				<time>2011-02-15T17:20:09Z</time>
			</trkpt>
			<trkpt lat="50.90416179598778" lon="6.714357116431894">
				<ele>118.0</ele>
				<time>2011-02-15T17:20:10Z</time>
			</trkpt>
			<trkpt lat="50.90416179598778" lon="6.714357116431894">
				<ele>118.0</ele>
				<time>2011-02-15T17:20:11Z</time>
			</trkpt>
			<trkpt lat="50.90416179598778" lon="6.714357116431894">
				<ele>118.0</ele>
				<time>2011-02-15T17:20:12Z</time>
			</trkpt>
			<trkpt lat="50.90416179598778" lon="6.714357116431894">
				<ele>118.0</ele>
				<time>2011-02-15T17:20:13Z</time>
			</trkpt>
			<trkpt lat="50.90416179598778" lon="6.714357116431894">
				<ele>118.0</ele>
				<time>2011-02-15T17:20:14Z</time>
			</trkpt>
			<trkpt lat="50.90416179598778" lon="6.714357116431894">
				<ele>118.0</ele>
				<time>2011-02-15T17:20:15Z</time>
			</trkpt>
			<trkpt lat="50.90416179598778" lon="6.714357116431894">
				<ele>118.0</ele>
				<time>2011-02-15T17:20:16Z</time>
			</trkpt>
			<trkpt lat="50.90416179598778" lon="6.714357116431894">
				<ele>118.0</ele>
				<time>2011-02-15T17:20:17Z</time>
			</trkpt>
			<trkpt lat="50.90416179598778" lon="6.714357116431894">
				<ele>118.0</ele>
				<time>2011-02-15T17:20:18Z</time>
			</trkpt>
			<trkpt lat="50.90416179598778" lon="6.714357116431894">
				<ele>118.0</ele>
				<time>2011-02-15T17:20:19Z</time>
			</trkpt>
			<trkpt lat="50.90416179598778" lon="6.714357116431894">
				<ele>118.0</ele>
				<time>2011-02-15T17:20:20Z</time>
			</trkpt>
			<trkpt lat="50.90416179598778" lon="6.714357116431894">
				<ele>118.0</ele>
				<time>2011-02-15T17:20:21Z</time>
			</trkpt>
			<trkpt lat="50.90416179598778" lon="6.714357116431894">
				<ele>118.0</ele>
				<time>2011-02-15T17:20:22Z</time>
			</trkpt>
			<trkpt lat="50.90416179598778" lon="6.714357116431894">
				<ele>118.0</ele>
				<time>2011-02-15T17:20:23Z</time>
			</trkpt>
			<trkpt lat="50.90416179598778" lon="6.714357116431894">
				<ele>118.0</ele>
				<time>2011-02-15T17:20:24Z</time>
			</trkpt>
			<trkpt lat="50.90416179598778" lon="6.714357116431894">
				<ele>118.0</ele>
				<time>2011-02-15T17:20:25Z</time>
			</trkpt>
			<trkpt lat="50.90416179598778" lon="6.714357116431894">
				<ele>118.0</ele>
				<time>2011-02-15T17:20:26Z</time>
			</trkpt>
			<trkpt lat="50.90416179598778" lon="6.714357116431894">
				<ele>118.0</ele>
				<time>2011-02-15T17:20:27Z</time>
			</trkpt>
			<trkpt lat="50.90416179598778" lon="6.714357116431894">
				<ele>118.0</ele>
				<time>2011-02-15T17:20:28Z</time>
			</trkpt>
			<trkpt lat="50.90416179598778" lon="6.714357116431894">
				<ele>118.0</ele>
				<time>2011-02-15T17:34:13Z</time>
			</trkpt>
			<trkpt lat="50.904193776076156" lon="6.714137298822616">
				<ele>118.0</ele>
				<time>2011-02-15T17:34:15Z</time>
			</trkpt>
			<trkpt lat="50.904193776076156" lon="6.714137298822616">
				<ele>118.0</ele>
				<time>2011-02-15T17:34:16Z</time>
			</trkpt>
			<trkpt lat="50.90404619661511" lon="6.713943838060673">
				<ele>118.0</ele>
				<time>2011-02-15T17:34:21Z</time>
			</trkpt>
			<trkpt lat="50.90403451270119" lon="6.713948721901939">
				<ele>118.0</ele>
				<time>2011-02-15T17:34:22Z</time>
			</trkpt>
			<trkpt lat="50.90402413956185" lon="6.713956204049228">
				<ele>118.0</ele>
				<time>2011-02-15T17:34:23Z</time>
			</trkpt>
			<trkpt lat="50.90401534523791" lon="6.713966418964708">
				<ele>118.0</ele>
				<time>2011-02-15T17:34:24Z</time>
			</trkpt>
			<trkpt lat="50.90400715509968" lon="6.713977683028336">
				<ele>118.0</ele>
				<time>2011-02-15T17:34:25Z</time>
			</trkpt>
			<trkpt lat="50.90400079403419" lon="6.713989274246338">
				<ele>118.0</ele>
				<time>2011-02-15T17:34:26Z</time>
			</trkpt>
			<trkpt lat="50.904000045602714" lon="6.713993870984221">
				<ele>118.0</ele>
				<time>2011-02-15T17:34:27Z</time>
			</trkpt>
			<trkpt lat="50.903999911609525" lon="6.71399938074127">
				<ele>118.0</ele>
				<time>2011-02-15T17:34:28Z</time>
			</trkpt>
			<trkpt lat="50.90399989640059" lon="6.7140049690749235">
				<ele>118.0</ele>
				<time>2011-02-15T17:34:29Z</time>
			</trkpt>
			<trkpt lat="50.90399875342507" lon="6.714012802325323">
				<ele>119.0</ele>
				<time>2011-02-15T17:34:30Z</time>
			</trkpt>
			<trkpt lat="50.90400189048031" lon="6.7140186632252075">
				<ele>119.0</ele>
				<time>2011-02-15T17:34:31Z</time>
			</trkpt>
			<trkpt lat="50.90400454199001" lon="6.714024486479301">
				<ele>119.0</ele>
				<time>2011-02-15T17:34:32Z</time>
			</trkpt>
			<trkpt lat="50.90400684402182" lon="6.71403013577497">
				<ele>119.0</ele>
				<time>2011-02-15T17:34:33Z</time>
			</trkpt>
			<trkpt lat="50.904009356152564" lon="6.714035978281509">
				<ele>119.0</ele>
				<time>2011-02-15T17:34:34Z</time>
			</trkpt>
			<trkpt lat="50.90401259052877" lon="6.714042032222306">
				<ele>119.0</ele>
				<time>2011-02-15T17:34:35Z</time>
			</trkpt>
			<trkpt lat="50.90401484229703" lon="6.714049195158745">
				<ele>119.0</ele>
				<time>2011-02-15T17:34:36Z</time>
			</trkpt>
			<trkpt lat="50.9040169837261" lon="6.714056245555492">
				<ele>119.0</ele>
				<time>2011-02-15T17:34:37Z</time>
			</trkpt>
			<trkpt lat="50.90401975747647" lon="6.714061973232199">
				<ele>119.0</ele>
				<time>2011-02-15T17:34:38Z</time>
			</trkpt>
			<trkpt lat="50.90402209205248" lon="6.714067895632554">
				<ele>119.0</ele>
				<time>2011-02-15T17:34:39Z</time>
			</trkpt>
			<trkpt lat="50.90402504883492" lon="6.714073792087616">
				<ele>119.0</ele>
				<time>2011-02-15T17:34:40Z</time>
			</trkpt>
			<trkpt lat="50.90402068001472" lon="6.714067725750156">
				<ele>119.0</ele>
				<time>2011-02-15T17:34:41Z</time>
			</trkpt>
			<trkpt lat="50.90401686300632" lon="6.714063221066234">
				<ele>119.0</ele>
				<time>2011-02-15T17:34:42Z</time>
			</trkpt>
			<trkpt lat="50.90401230043125" lon="6.71405816017896">
				<ele>119.0</ele>
				<time>2011-02-15T17:34:43Z</time>
			</trkpt>
			<trkpt lat="50.90400814262197" lon="6.714054687532027">
				<ele>119.0</ele>
				<time>2011-02-15T17:34:44Z</time>
			</trkpt>
			<trkpt lat="50.904003706486115" lon="6.71405076011011">
				<ele>119.0</ele>
				<time>2011-02-15T17:34:45Z</time>
			</trkpt>
			<trkpt lat="50.903998561508985" lon="6.714046359187693">
				<ele>119.0</ele>
				<time>2011-02-15T17:34:46Z</time>
			</trkpt>
			<trkpt lat="50.90399383811071" lon="6.714042814012232">
				<ele>119.0</ele>
				<time>2011-02-15T17:34:47Z</time>
			</trkpt>
			<trkpt lat="50.903988973671375" lon="6.714039254191138">
				<ele>119.0</ele>
				<time>2011-02-15T17:34:48Z</time>
			</trkpt>
			<trkpt lat="50.903984483969914" lon="6.7140362414514305">
				<ele>119.0</ele>
				<time>2011-02-15T17:34:49Z</time>
			</trkpt>
			<trkpt lat="50.90398014646321" lon="6.714032726791379">
				<ele>119.0</ele>
				<time>2011-02-15T17:34:50Z</time>
			</trkpt>
			<trkpt lat="50.90397700533012" lon="6.71402854605985">
				<ele>119.0</ele>
				<time>2011-02-15T17:34:51Z</time>
			</trkpt>
			<trkpt lat="50.90397430328044" lon="6.714024945053834">
				<ele>119.0</ele>
				<time>2011-02-15T17:34:52Z</time>
			</trkpt>
			<trkpt lat="50.90397264603327" lon="6.714022878265537">
				<ele>119.0</ele>
				<time>2011-02-15T17:34:53Z</time>
			</trkpt>
			<trkpt lat="50.90397114811851" lon="6.714021892296277">
				<ele>119.0</ele>
				<time>2011-02-15T17:34:54Z</time>
			</trkpt>
			<trkpt lat="50.90396926840272" lon="6.714021725757756">
				<ele>119.0</ele>
				<time>2011-02-15T17:34:55Z</time>
			</trkpt>
			<trkpt lat="50.903967520584004" lon="6.714021690619189">
				<ele>119.0</ele>
				<time>2011-02-15T17:34:56Z</time>
			</trkpt>
			<trkpt lat="50.903965695031125" lon="6.714021357291042">
				<ele>119.0</ele>
				<time>2011-02-15T17:34:57Z</time>
			</trkpt>
			<trkpt lat="50.903964007435064" lon="6.7140209977810414">
				<ele>119.0</ele>
				<time>2011-02-15T17:34:58Z</time>
			</trkpt>
			<trkpt lat="50.903962402006286" lon="6.714021002618219">
				<ele>119.0</ele>
				<time>2011-02-15T17:34:59Z</time>
			</trkpt>
			<trkpt lat="50.903960783317494" lon="6.714021240954753">
				<ele>119.0</ele>
				<time>2011-02-15T17:35:00Z</time>
			</trkpt>
			<trkpt lat="50.9039592766131" lon="6.714020267259901">
				<ele>119.0</ele>
				<time>2011-02-15T17:35:01Z</time>
			</trkpt>
			<trkpt lat="50.903957892180706" lon="6.714019557785066">
				<ele>119.0</ele>
				<time>2011-02-15T17:35:02Z</time>
			</trkpt>
			<trkpt lat="50.90395667936248" lon="6.714019062919961">
				<ele>119.0</ele>
				<time>2011-02-15T17:35:03Z</time>
			</trkpt>
			<trkpt lat="50.90395562799292" lon="6.714018750178993">
				<ele>119.0</ele>
				<time>2011-02-15T17:35:04Z</time>
			</trkpt>
			<trkpt lat="50.90395471293184" lon="6.714018143329205">
				<ele>119.0</ele>
				<time>2011-02-15T17:35:05Z</time>
			</trkpt>
			<trkpt lat="50.90395385657267" lon="6.7140174721962556">
				<ele>119.0</ele>
				<time>2011-02-15T17:35:06Z</time>
			</trkpt>
			<trkpt lat="50.90395214689248" lon="6.714014517667678">
				<ele>119.0</ele>
				<time>2011-02-15T17:35:07Z</time>
			</trkpt>
			<trkpt lat="50.90394975813714" lon="6.7140098575752045">
				<ele>119.0</ele>
				<time>2011-02-15T17:35:08Z</time>
			</trkpt>
			<trkpt lat="50.90394765109206" lon="6.714005564599803">
				<ele>119.0</ele>
				<time>2011-02-15T17:35:09Z</time>
			</trkpt>
			<trkpt lat="50.903946074244594" lon="6.714002327503859">
				<ele>119.0</ele>
				<time>2011-02-15T17:35:10Z</time>
			</trkpt>
			<trkpt lat="50.903944782370694" lon="6.713999390943913">
				<ele>119.0</ele>
				<time>2011-02-15T17:35:11Z</time>
			</trkpt>
			<trkpt lat="50.90394366901162" lon="6.713996759948593">
				<ele>119.0</ele>
				<time>2011-02-15T17:35:12Z</time>
			</trkpt>
			<trkpt lat="50.90394268490303" lon="6.713994382009699">
				<ele>119.0</ele>
				<time>2011-02-15T17:35:13Z</time>
			</trkpt>
			<trkpt lat="50.903941856860136" lon="6.713992253830944">
				<ele>119.0</ele>
				<time>2011-02-15T17:35:14Z</time>
			</trkpt>
			<trkpt lat="50.90394102391961" lon="6.713990027391337">
				<ele>119.0</ele>
				<time>2011-02-15T17:35:15Z</time>
			</trkpt>
			<trkpt lat="50.90394029783655" lon="6.713987981984938">
				<ele>119.0</ele>
				<time>2011-02-15T17:35:16Z</time>
			</trkpt>
			<trkpt lat="50.90393966122452" lon="6.713986135286085">
				<ele>119.0</ele>
				<time>2011-02-15T17:35:17Z</time>
			</trkpt>
			<trkpt lat="50.903939102332316" lon="6.713984468374865">
				<ele>119.0</ele>
				<time>2011-02-15T17:35:18Z</time>
			</trkpt>
			<trkpt lat="50.903938642049035" lon="6.713982896053371">
				<ele>119.0</ele>
				<time>2011-02-15T17:35:19Z</time>
			</trkpt>
			<trkpt lat="50.90393819612285" lon="6.713981550905945">
				<ele>119.0</ele>
				<time>2011-02-15T17:35:20Z</time>
			</trkpt>
			<trkpt lat="50.903937750089774" lon="6.713978374428512">
				<ele>119.0</ele>
				<time>2011-02-15T17:35:21Z</time>
			</trkpt>
			<trkpt lat="50.90393730082133" lon="6.7139742147961785">
				<ele>119.0</ele>
				<time>2011-02-15T17:35:22Z</time>
			</trkpt>
			<trkpt lat="50.903936871887346" lon="6.713969986125076">
				<ele>119.0</ele>
				<time>2011-02-15T17:35:23Z</time>
			</trkpt>
			<trkpt lat="50.9039364926993" lon="6.713965700492412">
				<ele>119.0</ele>
				<time>2011-02-15T17:35:24Z</time>
			</trkpt>
			<trkpt lat="50.903936167485945" lon="6.713961441934341">
				<ele>119.0</ele>
				<time>2011-02-15T17:35:25Z</time>
			</trkpt>
			<trkpt lat="50.90393617484455" lon="6.713956792961828">
				<ele>119.0</ele>
				<time>2011-02-15T17:35:26Z</time>
			</trkpt>
			<trkpt lat="50.90393604309908" lon="6.713952114148815">
				<ele>119.0</ele>
				<time>2011-02-15T17:35:27Z</time>
			</trkpt>
			<trkpt lat="50.90393606122718" lon="6.7139468037348795">
				<ele>119.0</ele>
				<time>2011-02-15T17:35:28Z</time>
			</trkpt>
			<trkpt lat="50.90393613438354" lon="6.713941747123056">
				<ele>119.0</ele>
				<time>2011-02-15T17:35:29Z</time>
			</trkpt>
			<trkpt lat="50.90393615305611" lon="6.713936754343273">
				<ele>119.0</ele>
				<time>2011-02-15T17:35:30Z</time>
			</trkpt>
			<trkpt lat="50.90393615599609" lon="6.71393194006751">
				<ele>119.0</ele>
				<time>2011-02-15T17:35:31Z</time>
			</trkpt>
			<trkpt lat="50.90393615961598" lon="6.713926975894286">
				<ele>119.0</ele>
				<time>2011-02-15T17:35:32Z</time>
			</trkpt>
			<trkpt lat="50.90393623682667" lon="6.713922477658039">
				<ele>119.0</ele>
				<time>2011-02-15T17:35:33Z</time>
			</trkpt>
			<trkpt lat="50.9039362520075" lon="6.713917645122075">
				<ele>119.0</ele>
				<time>2011-02-15T17:35:34Z</time>
			</trkpt>
			<trkpt lat="50.90393613426942" lon="6.713912938962208">
				<ele>119.0</ele>
				<time>2011-02-15T17:35:35Z</time>
			</trkpt>
			<trkpt lat="50.903936032703655" lon="6.713908073784889">
				<ele>119.0</ele>
				<time>2011-02-15T17:35:36Z</time>
			</trkpt>
			<trkpt lat="50.90393601551607" lon="6.71390287868416">
				<ele>119.0</ele>
				<time>2011-02-15T17:35:37Z</time>
			</trkpt>
			<trkpt lat="50.903935673783735" lon="6.713898412237137">
				<ele>119.0</ele>
				<time>2011-02-15T17:35:38Z</time>
			</trkpt>
			<trkpt lat="50.90393526157013" lon="6.713894470293743">
				<ele>119.0</ele>
				<time>2011-02-15T17:35:39Z</time>
			</trkpt>
			<trkpt lat="50.90393461688934" lon="6.713890017192614">
				<ele>119.0</ele>
				<time>2011-02-15T17:35:40Z</time>
			</trkpt>
			<trkpt lat="50.90393402617617" lon="6.713885768070415">
				<ele>119.0</ele>
				<time>2011-02-15T17:35:41Z</time>
			</trkpt>
			<trkpt lat="50.9039334675719" lon="6.713881774840903">
				<ele>119.0</ele>
				<time>2011-02-15T17:35:42Z</time>
			</trkpt>
			<trkpt lat="50.903932466429" lon="6.713878525103409">
				<ele>119.0</ele>
				<time>2011-02-15T17:35:43Z</time>
			</trkpt>
			<trkpt lat="50.9039315436572" lon="6.71387533297436">
				<ele>119.0</ele>
				<time>2011-02-15T17:35:44Z</time>
			</trkpt>
			<trkpt lat="50.90393064121921" lon="6.713871626906405">
				<ele>119.0</ele>
				<time>2011-02-15T17:35:45Z</time>
			</trkpt>
			<trkpt lat="50.903929775008116" lon="6.713868216954797">
				<ele>119.0</ele>
				<time>2011-02-15T17:35:46Z</time>
			</trkpt>
			<trkpt lat="50.903929031984894" lon="6.7138648834686885">
				<ele>119.0</ele>
				<time>2011-02-15T17:35:47Z</time>
			</trkpt>
			<trkpt lat="50.90392823766906" lon="6.7138613725646525">
				<ele>119.0</ele>
				<time>2011-02-15T17:35:48Z</time>
			</trkpt>
			<trkpt lat="50.9039271416459" lon="6.713858496953793">
				<ele>119.0</ele>
				<time>2011-02-15T17:35:49Z</time>
			</trkpt>
			<trkpt lat="50.903925882789416" lon="6.713856124962979">
				<ele>119.0</ele>
				<time>2011-02-15T17:35:50Z</time>
			</trkpt>
			<trkpt lat="50.90392445013458" lon="6.713853810493281">
				<ele>119.0</ele>
				<time>2011-02-15T17:35:51Z</time>
			</trkpt>
			<trkpt lat="50.90392289337158" lon="6.713851525852796">
				<ele>119.0</ele>
				<time>2011-02-15T17:35:52Z</time>
			</trkpt>
			<trkpt lat="50.90392123377042" lon="6.713849148664489">
				<ele>119.0</ele>
				<time>2011-02-15T17:35:53Z</time>
			</trkpt>
			<trkpt lat="50.903919699934676" lon="6.7138465780974625">
				<ele>119.0</ele>
				<time>2011-02-15T17:35:54Z</time>
			</trkpt>
			<trkpt lat="50.903918284752805" lon="6.713844244064617">
				<ele>119.0</ele>
				<time>2011-02-15T17:35:55Z</time>
			</trkpt>
			<trkpt lat="50.903916944340615" lon="6.713842007629293">
				<ele>119.0</ele>
				<time>2011-02-15T17:35:56Z</time>
			</trkpt>
			<trkpt lat="50.90391558944929" lon="6.713839738845246">
				<ele>119.0</ele>
				<time>2011-02-15T17:35:57Z</time>
			</trkpt>
			<trkpt lat="50.90391425674175" lon="6.713837576689553">
				<ele>119.0</ele>
				<time>2011-02-15T17:35:58Z</time>
			</trkpt>
			<trkpt lat="50.903912860444855" lon="6.713835439738699">
				<ele>119.0</ele>
				<time>2011-02-15T17:35:59Z</time>
			</trkpt>
			<trkpt lat="50.90391132242296" lon="6.713833466976587">
				<ele>119.0</ele>
				<time>2011-02-15T17:36:00Z</time>
			</trkpt>
			<trkpt lat="50.90390988420809" lon="6.713831190078381">
				<ele>119.0</ele>
				<time>2011-02-15T17:36:01Z</time>
			</trkpt>
			<trkpt lat="50.90390870512382" lon="6.713828761587827">
				<ele>119.0</ele>
				<time>2011-02-15T17:36:02Z</time>
			</trkpt>
			<trkpt lat="50.9039074956202" lon="6.713826625539001">
				<ele>119.0</ele>
				<time>2011-02-15T17:36:03Z</time>
			</trkpt>
			<trkpt lat="50.90390629645137" lon="6.713824527724287">
				<ele>119.0</ele>
				<time>2011-02-15T17:36:04Z</time>
			</trkpt>
			<trkpt lat="50.903905255744434" lon="6.713822163215354">
				<ele>119.0</ele>
				<time>2011-02-15T17:36:05Z</time>
			</trkpt>
			<trkpt lat="50.903903825294066" lon="6.713821473286407">
				<ele>119.0</ele>
				<time>2011-02-15T17:36:06Z</time>
			</trkpt>
			<trkpt lat="50.90390172462993" lon="6.713821400217129">
				<ele>119.0</ele>
				<time>2011-02-15T17:36:07Z</time>
			</trkpt>
			<trkpt lat="50.90390013974617" lon="6.713820771200639">
				<ele>119.0</ele>
				<time>2011-02-15T17:36:08Z</time>
			</trkpt>
			<trkpt lat="50.903898207504625" lon="6.713820437438827">
				<ele>119.0</ele>
				<time>2011-02-15T17:36:09Z</time>
			</trkpt>
			<trkpt lat="50.90389642118118" lon="6.71382004220526">
				<ele>119.0</ele>
				<time>2011-02-15T17:36:10Z</time>
			</trkpt>
			<trkpt lat="50.90389421537708" lon="6.7138203684993085">
				<ele>119.0</ele>
				<time>2011-02-15T17:36:11Z</time>
			</trkpt>
			<trkpt lat="50.90389217737269" lon="6.7138206564325245">
				<ele>119.0</ele>
				<time>2011-02-15T17:36:12Z</time>
			</trkpt>
			<trkpt lat="50.90389025507489" lon="6.713821176899504">
				<ele>119.0</ele>
				<time>2011-02-15T17:36:13Z</time>
			</trkpt>
			<trkpt lat="50.90388731075592" lon="6.71382349555229">
				<ele>119.0</ele>
				<time>2011-02-15T17:36:14Z</time>
			</trkpt>
			<trkpt lat="50.90388431792494" lon="6.713826120155347">
				<ele>119.0</ele>
				<time>2011-02-15T17:36:15Z</time>
			</trkpt>
			<trkpt lat="50.90388171538356" lon="6.713828222977207">
				<ele>119.0</ele>
				<time>2011-02-15T17:36:16Z</time>
			</trkpt>
			<trkpt lat="50.90387977257059" lon="6.713829741371386">
				<ele>119.0</ele>
				<time>2011-02-15T17:36:17Z</time>
			</trkpt>
			<trkpt lat="50.903878274040615" lon="6.713831069965643">
				<ele>119.0</ele>
				<time>2011-02-15T17:36:18Z</time>
			</trkpt>
			<trkpt lat="50.90387698121437" lon="6.7138322327866335">
				<ele>119.0</ele>
				<time>2011-02-15T17:36:19Z</time>
			</trkpt>
			<trkpt lat="50.90387583904955" lon="6.713832831401354">
				<ele>119.0</ele>
				<time>2011-02-15T17:36:20Z</time>
			</trkpt>
			<trkpt lat="50.90387496919716" lon="6.713833116564769">
				<ele>119.0</ele>
				<time>2011-02-15T17:36:21Z</time>
			</trkpt>
			<trkpt lat="50.903874329858056" lon="6.713833238830222">
				<ele>119.0</ele>
				<time>2011-02-15T17:36:22Z</time>
			</trkpt>
			<trkpt lat="50.90387381437279" lon="6.713832879624338">
				<ele>119.0</ele>
				<time>2011-02-15T17:36:23Z</time>
			</trkpt>
			<trkpt lat="50.90387244178268" lon="6.713830798931354">
				<ele>119.0</ele>
				<time>2011-02-15T17:36:24Z</time>
			</trkpt>
			<trkpt lat="50.903871133681" lon="6.713828833063877">
				<ele>119.0</ele>
				<time>2011-02-15T17:36:25Z</time>
			</trkpt>
			<trkpt lat="50.90387034570098" lon="6.713827106486663">
				<ele>119.0</ele>
				<time>2011-02-15T17:36:26Z</time>
			</trkpt>
			<trkpt lat="50.90386933691416" lon="6.713825744018696">
				<ele>119.0</ele>
				<time>2011-02-15T17:36:27Z</time>
			</trkpt>
			<trkpt lat="50.903868515134846" lon="6.713824233967124">
				<ele>119.0</ele>
				<time>2011-02-15T17:36:28Z</time>
			</trkpt>
			<trkpt lat="50.90386658938317" lon="6.713823157879398">
				<ele>119.0</ele>
				<time>2011-02-15T17:36:29Z</time>
			</trkpt>
			<trkpt lat="50.90386405346792" lon="6.713820560265252">
				<ele>119.0</ele>
				<time>2011-02-15T17:36:30Z</time>
			</trkpt>
			<trkpt lat="50.903860842912586" lon="6.7138166781358635">
				<ele>119.0</ele>
				<time>2011-02-15T17:36:31Z</time>
			</trkpt>
			<trkpt lat="50.90385699739371" lon="6.713811266005019">
				<ele>119.0</ele>
				<time>2011-02-15T17:36:32Z</time>
			</trkpt>
			<trkpt lat="50.903853155189026" lon="6.713806068014108">
				<ele>119.0</ele>
				<time>2011-02-15T17:36:33Z</time>
			</trkpt>
			<trkpt lat="50.903849400763114" lon="6.713800971604894">
				<ele>119.0</ele>
				<time>2011-02-15T17:36:34Z</time>
			</trkpt>
			<trkpt lat="50.90384940138544" lon="6.713800966510676">
				<ele>119.0</ele>
				<time>2011-02-15T17:36:35Z</time>
			</trkpt>
			<trkpt lat="50.903845963601924" lon="6.713796572956847">
				<ele>119.0</ele>
				<time>2011-02-15T17:36:36Z</time>
			</trkpt>
			<trkpt lat="50.903844276810425" lon="6.713794331618351">
				<ele>119.0</ele>
				<time>2011-02-15T17:36:37Z</time>
			</trkpt>
			<trkpt lat="50.9038423009086" lon="6.713792740975922">
				<ele>119.0</ele>
				<time>2011-02-15T17:36:38Z</time>
			</trkpt>
			<trkpt lat="50.90384027356806" lon="6.71379130036564">
				<ele>119.0</ele>
				<time>2011-02-15T17:36:39Z</time>
			</trkpt>
			<trkpt lat="50.90383821246197" lon="6.713789893173872">
				<ele>119.0</ele>
				<time>2011-02-15T17:36:40Z</time>
			</trkpt>
			<trkpt lat="50.90383613701807" lon="6.71378825964273">
				<ele>119.0</ele>
				<time>2011-02-15T17:36:41Z</time>
			</trkpt>
			<trkpt lat="50.903834128918646" lon="6.713786644898253">
				<ele>119.0</ele>
				<time>2011-02-15T17:36:42Z</time>
			</trkpt>
			<trkpt lat="50.903832165857594" lon="6.713785039918131">
				<ele>119.0</ele>
				<time>2011-02-15T17:36:43Z</time>
			</trkpt>
			<trkpt lat="50.903830302749874" lon="6.7137833566205485">
				<ele>119.0</ele>
				<time>2011-02-15T17:36:44Z</time>
			</trkpt>
			<trkpt lat="50.90382892152797" lon="6.71378096287062">
				<ele>119.0</ele>
				<time>2011-02-15T17:36:45Z</time>
			</trkpt>
			<trkpt lat="50.90382811905133" lon="6.713777768016845">
				<ele>119.0</ele>
				<time>2011-02-15T17:36:46Z</time>
			</trkpt>
			<trkpt lat="50.90382811640771" lon="6.713773465285399">
				<ele>119.0</ele>
				<time>2011-02-15T17:36:47Z</time>
			</trkpt>
			<trkpt lat="50.90382803528575" lon="6.713769441233967">
				<ele>119.0</ele>
				<time>2011-02-15T17:36:48Z</time>
			</trkpt>
			<trkpt lat="50.903827779994955" lon="6.713765860049981">
				<ele>119.0</ele>
				<time>2011-02-15T17:36:49Z</time>
			</trkpt>
			<trkpt lat="50.90382789292931" lon="6.71376172601525">
				<ele>119.0</ele>
				<time>2011-02-15T17:36:50Z</time>
			</trkpt>
			<trkpt lat="50.903827868312604" lon="6.713757882794917">
				<ele>119.0</ele>
				<time>2011-02-15T17:36:51Z</time>
			</trkpt>
			<trkpt lat="50.90382777043213" lon="6.7137545143147515">
				<ele>119.0</ele>
				<time>2011-02-15T17:36:52Z</time>
			</trkpt>
			<trkpt lat="50.90382697871765" lon="6.71375217879025">
				<ele>119.0</ele>
				<time>2011-02-15T17:36:53Z</time>
			</trkpt>
			<trkpt lat="50.90382483463214" lon="6.713750911901981">
				<ele>119.0</ele>
				<time>2011-02-15T17:36:54Z</time>
			</trkpt>
			<trkpt lat="50.9038228246452" lon="6.713749582044561">
				<ele>119.0</ele>
				<time>2011-02-15T17:36:55Z</time>
			</trkpt>
			<trkpt lat="50.903821222015225" lon="6.71374776595555">
				<ele>119.0</ele>
				<time>2011-02-15T17:36:56Z</time>
			</trkpt>
			<trkpt lat="50.903819752581946" lon="6.713745778581052">
				<ele>119.0</ele>
				<time>2011-02-15T17:36:57Z</time>
			</trkpt>
			<trkpt lat="50.9038183014065" lon="6.713743952368511">
				<ele>119.0</ele>
				<time>2011-02-15T17:36:58Z</time>
			</trkpt>
			<trkpt lat="50.90381657468836" lon="6.713742390260213">
				<ele>119.0</ele>
				<time>2011-02-15T17:36:59Z</time>
			</trkpt>
			<trkpt lat="50.90381484694415" lon="6.713740475493342">
				<ele>119.0</ele>
				<time>2011-02-15T17:37:00Z</time>
			</trkpt>
			<trkpt lat="50.903812725173836" lon="6.713738325923485">
				<ele>119.0</ele>
				<time>2011-02-15T17:37:01Z</time>
			</trkpt>
			<trkpt lat="50.90381051815252" lon="6.713735240044289">
				<ele>119.0</ele>
				<time>2011-02-15T17:37:02Z</time>
			</trkpt>
			<trkpt lat="50.90380889454688" lon="6.713732598497076">
				<ele>119.0</ele>
				<time>2011-02-15T17:37:03Z</time>
			</trkpt>
			<trkpt lat="50.90381813865106" lon="6.71373962988708">
				<ele>119.0</ele>
				<time>2011-02-15T17:37:04Z</time>
			</trkpt>
			<trkpt lat="50.90384520045992" lon="6.71375469543604">
				<ele>119.0</ele>
				<time>2011-02-15T17:37:05Z</time>
			</trkpt>
			<trkpt lat="50.90387317371722" lon="6.713766423760998">
				<ele>119.0</ele>
				<time>2011-02-15T17:37:06Z</time>
			</trkpt>
			<trkpt lat="50.903907792151834" lon="6.713768758313816">
				<ele>119.0</ele>
				<time>2011-02-15T17:37:07Z</time>
			</trkpt>
			<trkpt lat="50.90394152815864" lon="6.713771083497578">
				<ele>119.0</ele>
				<time>2011-02-15T17:37:08Z</time>
			</trkpt>
			<trkpt lat="50.903999510077284" lon="6.713787751462072">
				<ele>119.0</ele>
				<time>2011-02-15T17:37:09Z</time>
			</trkpt>
			<trkpt lat="50.9040632497845" lon="6.713795598663635">
				<ele>119.0</ele>
				<time>2011-02-15T17:37:10Z</time>
			</trkpt>
			<trkpt lat="50.90411485782553" lon="6.713785766757965">
				<ele>120.0</ele>
				<time>2011-02-15T17:37:11Z</time>
			</trkpt>
			<trkpt lat="50.904169648453255" lon="6.713786084489577">
				<ele>120.0</ele>
				<time>2011-02-15T17:37:12Z</time>
			</trkpt>
			<trkpt lat="50.904206075267304" lon="6.7137593096438355">
				<ele>120.0</ele>
				<time>2011-02-15T17:37:13Z</time>
			</trkpt>
			<trkpt lat="50.90423487819203" lon="6.713738282676212">
				<ele>120.0</ele>
				<time>2011-02-15T17:37:14Z</time>
			</trkpt>
			<trkpt lat="50.904264642694194" lon="6.713718468017602">
				<ele>120.0</ele>
				<time>2011-02-15T17:37:15Z</time>
			</trkpt>
			<trkpt lat="50.904301347636014" lon="6.713718680439412">
				<ele>120.0</ele>
				<time>2011-02-15T17:37:16Z</time>
			</trkpt>
			<trkpt lat="50.90433942893249" lon="6.713716853636302">
				<ele>120.0</ele>
				<time>2011-02-15T17:37:17Z</time>
			</trkpt>
			<trkpt lat="50.904374319090586" lon="6.713712683434967">
				<ele>120.0</ele>
				<time>2011-02-15T17:37:18Z</time>
			</trkpt>
			<trkpt lat="50.904402231018516" lon="6.713695975688075">
				<ele>120.0</ele>
				<time>2011-02-15T17:37:19Z</time>
			</trkpt>
			<trkpt lat="50.90442888808349" lon="6.713679782805221">
				<ele>120.0</ele>
				<time>2011-02-15T17:37:20Z</time>
			</trkpt>
			<trkpt lat="50.90445497725108" lon="6.713663876567038">
				<ele>120.0</ele>
				<time>2011-02-15T17:37:21Z</time>
			</trkpt>
			<trkpt lat="50.90448204938902" lon="6.713648274422394">
				<ele>120.0</ele>
				<time>2011-02-15T17:37:22Z</time>
			</trkpt>
			<trkpt lat="50.904509002761884" lon="6.713632704166723">
				<ele>120.0</ele>
				<time>2011-02-15T17:37:23Z</time>
			</trkpt>
			<trkpt lat="50.90453716021161" lon="6.7136163810812155">
				<ele>120.0</ele>
				<time>2011-02-15T17:37:24Z</time>
			</trkpt>
			<trkpt lat="50.90456780384334" lon="6.713598600890798">
				<ele>120.0</ele>
				<time>2011-02-15T17:37:25Z</time>
			</trkpt>
			<trkpt lat="50.904601417860995" lon="6.713580610397026">
				<ele>120.0</ele>
				<time>2011-02-15T17:37:26Z</time>
			</trkpt>
			<trkpt lat="50.90463599603288" lon="6.713563552171536">
				<ele>120.0</ele>
				<time>2011-02-15T17:37:27Z</time>
			</trkpt>
			<trkpt lat="50.904669890477386" lon="6.7135438594880075">
				<ele>120.0</ele>
				<time>2011-02-15T17:37:28Z</time>
			</trkpt>
			<trkpt lat="50.90469628305891" lon="6.713528184604723">
				<ele>120.0</ele>
				<time>2011-02-15T17:37:29Z</time>
			</trkpt>
			<trkpt lat="50.904729894515675" lon="6.713509870885032">
				<ele>120.0</ele>
				<time>2011-02-15T17:37:30Z</time>
			</trkpt>
			<trkpt lat="50.90476360623878" lon="6.713493448513158">
				<ele>120.0</ele>
				<time>2011-02-15T17:37:31Z</time>
			</trkpt>
			<trkpt lat="50.90479649447743" lon="6.713477476733722">
				<ele>120.0</ele>
				<time>2011-02-15T17:37:32Z</time>
			</trkpt>
			<trkpt lat="50.9048292066735" lon="6.7134603962839074">
				<ele>120.0</ele>
				<time>2011-02-15T17:37:33Z</time>
			</trkpt>
			<trkpt lat="50.90486134861664" lon="6.713442187673966">
				<ele>120.0</ele>
				<time>2011-02-15T17:37:34Z</time>
			</trkpt>
			<trkpt lat="50.90489522936645" lon="6.713423058618035">
				<ele>120.0</ele>
				<time>2011-02-15T17:37:35Z</time>
			</trkpt>
			<trkpt lat="50.90492925452467" lon="6.713403818818128">
				<ele>120.0</ele>
				<time>2011-02-15T17:37:36Z</time>
			</trkpt>
			<trkpt lat="50.90496542601582" lon="6.713383443663781">
				<ele>120.0</ele>
				<time>2011-02-15T17:37:37Z</time>
			</trkpt>
			<trkpt lat="50.905002591928564" lon="6.713362533477017">
				<ele>120.0</ele>
				<time>2011-02-15T17:37:38Z</time>
			</trkpt>
			<trkpt lat="50.905041245892235" lon="6.713340158328318">
				<ele>120.0</ele>
				<time>2011-02-15T17:37:39Z</time>
			</trkpt>
			<trkpt lat="50.90507883010125" lon="6.713317092669611">
				<ele>120.0</ele>
				<time>2011-02-15T17:37:40Z</time>
			</trkpt>
			<trkpt lat="50.90511693685973" lon="6.713293336689186">
				<ele>120.0</ele>
				<time>2011-02-15T17:37:41Z</time>
			</trkpt>
			<trkpt lat="50.9051544302935" lon="6.713269017458045">
				<ele>120.0</ele>
				<time>2011-02-15T17:37:42Z</time>
			</trkpt>
			<trkpt lat="50.9051544302935" lon="6.713269017458045">
				<ele>120.0</ele>
				<time>2011-02-15T17:37:43Z</time>
			</trkpt>
			<trkpt lat="50.9051544302935" lon="6.713269017458045">
				<ele>120.0</ele>
				<time>2011-02-15T17:37:44Z</time>
			</trkpt>
			<trkpt lat="50.9051544302935" lon="6.713269017458045">
				<ele>120.0</ele>
				<time>2011-02-15T17:37:45Z</time>
			</trkpt>
			<trkpt lat="50.9051544302935" lon="6.713269017458045">
				<ele>120.0</ele>
				<time>2011-02-15T17:37:46Z</time>
			</trkpt>
			<trkpt lat="50.9051544302935" lon="6.713269017458045">
				<ele>120.0</ele>
				<time>2011-02-15T17:37:47Z</time>
			</trkpt>
			<trkpt lat="50.9051544302935" lon="6.713269017458045">
				<ele>120.0</ele>
				<time>2011-02-15T17:37:48Z</time>
			</trkpt>
			<trkpt lat="50.9051544302935" lon="6.713269017458045">
				<ele>120.0</ele>
				<time>2011-02-15T17:37:49Z</time>
			</trkpt>
			<trkpt lat="50.9051544302935" lon="6.713269017458045">
				<ele>120.0</ele>
				<time>2011-02-15T17:37:50Z</time>
			</trkpt>
			<trkpt lat="50.9051544302935" lon="6.713269017458045">
				<ele>120.0</ele>
				<time>2011-02-15T17:37:51Z</time>
			</trkpt>
			<trkpt lat="50.905232442503156" lon="6.713183225165336">
				<ele>119.0</ele>
				<time>2011-02-15T17:37:52Z</time>
			</trkpt>
			<trkpt lat="50.905232442503156" lon="6.713183225165336">
				<ele>119.0</ele>
				<time>2011-02-15T17:37:53Z</time>
			</trkpt>
			<trkpt lat="50.905232442503156" lon="6.713183225165336">
				<ele>119.0</ele>
				<time>2011-02-15T17:37:54Z</time>
			</trkpt>
			<trkpt lat="50.905232442503156" lon="6.713183225165336">
				<ele>119.0</ele>
				<time>2011-02-15T17:37:55Z</time>
			</trkpt>
			<trkpt lat="50.905232442503156" lon="6.713183225165336">
				<ele>119.0</ele>
				<time>2011-02-15T17:37:56Z</time>
			</trkpt>
			<trkpt lat="50.905232442503156" lon="6.713183225165336">
				<ele>119.0</ele>
				<time>2011-02-15T17:37:57Z</time>
			</trkpt>
			<trkpt lat="50.905232442503156" lon="6.713183225165336">
				<ele>119.0</ele>
				<time>2011-02-15T17:37:58Z</time>
			</trkpt>
			<trkpt lat="50.905232442503156" lon="6.713183225165336">
				<ele>119.0</ele>
				<time>2011-02-15T17:37:59Z</time>
			</trkpt>
			<trkpt lat="50.905232442503156" lon="6.713183225165336">
				<ele>119.0</ele>
				<time>2011-02-15T17:38:00Z</time>
			</trkpt>
			<trkpt lat="50.905232442503156" lon="6.713183225165336">
				<ele>119.0</ele>
				<time>2011-02-15T17:38:01Z</time>
			</trkpt>
			<trkpt lat="50.905232442503156" lon="6.713183225165336">
				<ele>119.0</ele>
				<time>2011-02-15T17:38:02Z</time>
			</trkpt>
			<trkpt lat="50.905232442503156" lon="6.713183225165336">
				<ele>119.0</ele>
				<time>2011-02-15T17:38:03Z</time>
			</trkpt>
			<trkpt lat="50.905232442503156" lon="6.713183225165336">
				<ele>119.0</ele>
				<time>2011-02-15T17:38:04Z</time>
			</trkpt>
			<trkpt lat="50.905232442503156" lon="6.713183225165336">
				<ele>119.0</ele>
				<time>2011-02-15T17:38:05Z</time>
			</trkpt>
			<trkpt lat="50.905232442503156" lon="6.713183225165336">
				<ele>119.0</ele>
				<time>2011-02-15T17:38:06Z</time>
			</trkpt>
			<trkpt lat="50.905232442503156" lon="6.713183225165336">
				<ele>119.0</ele>
				<time>2011-02-15T17:38:07Z</time>
			</trkpt>
			<trkpt lat="50.905232442503156" lon="6.713183225165336">
				<ele>119.0</ele>
				<time>2011-02-15T17:38:08Z</time>
			</trkpt>
			<trkpt lat="50.905232442503156" lon="6.713183225165336">
				<ele>119.0</ele>
				<time>2011-02-15T17:38:09Z</time>
			</trkpt>
			<trkpt lat="50.905232442503156" lon="6.713183225165336">
				<ele>119.0</ele>
				<time>2011-02-15T17:38:10Z</time>
			</trkpt>
			<trkpt lat="50.905232442503156" lon="6.713183225165336">
				<ele>119.0</ele>
				<time>2011-02-15T17:38:11Z</time>
			</trkpt>
			<trkpt lat="50.905232442503156" lon="6.713183225165336">
				<ele>119.0</ele>
				<time>2011-02-15T17:38:12Z</time>
			</trkpt>
			<trkpt lat="50.905232442503156" lon="6.713183225165336">
				<ele>119.0</ele>
				<time>2011-02-15T17:38:13Z</time>
			</trkpt>
			<trkpt lat="50.905232442503156" lon="6.713183225165336">
				<ele>119.0</ele>
				<time>2011-02-15T17:38:14Z</time>
			</trkpt>
			<trkpt lat="50.905232442503156" lon="6.713183225165336">
				<ele>119.0</ele>
				<time>2011-02-15T17:38:15Z</time>
			</trkpt>
			<trkpt lat="50.905232442503156" lon="6.713183225165336">
				<ele>119.0</ele>
				<time>2011-02-15T17:38:16Z</time>
			</trkpt>
			<trkpt lat="50.905232442503156" lon="6.713183225165336">
				<ele>119.0</ele>
				<time>2011-02-15T17:38:17Z</time>
			</trkpt>
			<trkpt lat="50.905232442503156" lon="6.713183225165336">
				<ele>119.0</ele>
				<time>2011-02-15T17:38:18Z</time>
			</trkpt>
			<trkpt lat="50.905232442503156" lon="6.713183225165336">
				<ele>119.0</ele>
				<time>2011-02-15T17:38:19Z</time>
			</trkpt>
			<trkpt lat="50.905232442503156" lon="6.713183225165336">
				<ele>119.0</ele>
				<time>2011-02-15T17:38:20Z</time>
			</trkpt>
			<trkpt lat="50.905232442503156" lon="6.713183225165336">
				<ele>119.0</ele>
				<time>2011-02-15T17:38:21Z</time>
			</trkpt>
			<trkpt lat="50.905232442503156" lon="6.713183225165336">
				<ele>119.0</ele>
				<time>2011-02-15T17:38:22Z</time>
			</trkpt>
			<trkpt lat="50.905232442503156" lon="6.713183225165336">
				<ele>119.0</ele>
				<time>2011-02-15T17:38:23Z</time>
			</trkpt>
			<trkpt lat="50.905232442503156" lon="6.713183225165336">
				<ele>119.0</ele>
				<time>2011-02-15T17:38:24Z</time>
			</trkpt>
			<trkpt lat="50.905232442503156" lon="6.713183225165336">
				<ele>119.0</ele>
				<time>2011-02-15T17:38:25Z</time>
			</trkpt>
			<trkpt lat="50.905232442503156" lon="6.713183225165336">
				<ele>119.0</ele>
				<time>2011-02-15T17:38:26Z</time>
			</trkpt>
			<trkpt lat="50.905232442503156" lon="6.713183225165336">
				<ele>119.0</ele>
				<time>2011-02-15T17:38:27Z</time>
			</trkpt>
			<trkpt lat="50.905232442503156" lon="6.713183225165336">
				<ele>119.0</ele>
				<time>2011-02-15T17:38:28Z</time>
			</trkpt>
			<trkpt lat="50.905232442503156" lon="6.713183225165336">
				<ele>119.0</ele>
				<time>2011-02-15T17:38:29Z</time>
			</trkpt>
			<trkpt lat="50.905232442503156" lon="6.713183225165336">
				<ele>119.0</ele>
				<time>2011-02-15T17:38:30Z</time>
			</trkpt>
			<trkpt lat="50.905232442503156" lon="6.713183225165336">
				<ele>119.0</ele>
				<time>2011-02-15T17:38:31Z</time>
			</trkpt>
			<trkpt lat="50.905232442503156" lon="6.713183225165336">
				<ele>119.0</ele>
				<time>2011-02-15T17:38:32Z</time>
			</trkpt>
			<trkpt lat="50.905232442503156" lon="6.713183225165336">
				<ele>119.0</ele>
				<time>2011-02-15T17:38:33Z</time>
			</trkpt>
			<trkpt lat="50.905232442503156" lon="6.713183225165336">
				<ele>119.0</ele>
				<time>2011-02-15T17:38:34Z</time>
			</trkpt>
			<trkpt lat="50.905232442503156" lon="6.713183225165336">
				<ele>119.0</ele>
				<time>2011-02-15T17:38:35Z</time>
			</trkpt>
			<trkpt lat="50.905232442503156" lon="6.713183225165336">
				<ele>119.0</ele>
				<time>2011-02-15T17:38:36Z</time>
			</trkpt>
			<trkpt lat="50.905232442503156" lon="6.713183225165336">
				<ele>119.0</ele>
				<time>2011-02-15T17:38:37Z</time>
			</trkpt>
			<trkpt lat="50.905232442503156" lon="6.713183225165336">
				<ele>119.0</ele>
				<time>2011-02-15T17:38:38Z</time>
			</trkpt>
			<trkpt lat="50.905232442503156" lon="6.713183225165336">
				<ele>119.0</ele>
				<time>2011-02-15T17:38:39Z</time>
			</trkpt>
			<trkpt lat="50.905232442503156" lon="6.713183225165336">
				<ele>119.0</ele>
				<time>2011-02-15T17:38:40Z</time>
			</trkpt>
			<trkpt lat="50.905232442503156" lon="6.713183225165336">
				<ele>119.0</ele>
				<time>2011-02-15T17:38:41Z</time>
			</trkpt>
			<trkpt lat="50.905232442503156" lon="6.713183225165336">
				<ele>119.0</ele>
				<time>2011-02-15T17:38:42Z</time>
			</trkpt>
			<trkpt lat="50.905232442503156" lon="6.713183225165336">
				<ele>119.0</ele>
				<time>2011-02-15T17:38:43Z</time>
			</trkpt>
			<trkpt lat="50.905232442503156" lon="6.713183225165336">
				<ele>119.0</ele>
				<time>2011-02-15T17:38:44Z</time>
			</trkpt>
			<trkpt lat="50.905232442503156" lon="6.713183225165336">
				<ele>119.0</ele>
				<time>2011-02-15T17:38:45Z</time>
			</trkpt>
			<trkpt lat="50.905232442503156" lon="6.713183225165336">
				<ele>119.0</ele>
				<time>2011-02-15T17:38:46Z</time>
			</trkpt>
			<trkpt lat="50.905232442503156" lon="6.713183225165336">
				<ele>119.0</ele>
				<time>2011-02-15T17:38:47Z</time>
			</trkpt>
			<trkpt lat="50.905232442503156" lon="6.713183225165336">
				<ele>119.0</ele>
				<time>2011-02-15T17:38:48Z</time>
			</trkpt>
			<trkpt lat="50.905232442503156" lon="6.713183225165336">
				<ele>119.0</ele>
				<time>2011-02-15T17:38:49Z</time>
			</trkpt>
			<trkpt lat="50.905232442503156" lon="6.713183225165336">
				<ele>119.0</ele>
				<time>2011-02-15T17:38:50Z</time>
			</trkpt>
			<trkpt lat="50.905232442503156" lon="6.713183225165336">
				<ele>119.0</ele>
				<time>2011-02-15T17:38:51Z</time>
			</trkpt>
			<trkpt lat="50.905232442503156" lon="6.713183225165336">
				<ele>119.0</ele>
				<time>2011-02-15T17:38:52Z</time>
			</trkpt>
			<trkpt lat="50.905232442503156" lon="6.713183225165336">
				<ele>119.0</ele>
				<time>2011-02-15T17:38:53Z</time>
			</trkpt>
			<trkpt lat="50.905232442503156" lon="6.713183225165336">
				<ele>119.0</ele>
				<time>2011-02-15T17:38:54Z</time>
			</trkpt>
			<trkpt lat="50.905232442503156" lon="6.713183225165336">
				<ele>119.0</ele>
				<time>2011-02-15T17:38:55Z</time>
			</trkpt>
			<trkpt lat="50.905232442503156" lon="6.713183225165336">
				<ele>119.0</ele>
				<time>2011-02-15T17:38:56Z</time>
			</trkpt>
			<trkpt lat="50.905232442503156" lon="6.713183225165336">
				<ele>119.0</ele>
				<time>2011-02-15T17:38:57Z</time>
			</trkpt>
			<trkpt lat="50.905232442503156" lon="6.713183225165336">
				<ele>119.0</ele>
				<time>2011-02-15T17:38:58Z</time>
			</trkpt>
			<trkpt lat="50.90524332290254" lon="6.713102600029212">
				<ele>119.0</ele>
				<time>2011-02-15T17:38:59Z</time>
			</trkpt>
			<trkpt lat="50.905229938060785" lon="6.713083062857112">
				<ele>119.0</ele>
				<time>2011-02-15T17:39:00Z</time>
			</trkpt>
			<trkpt lat="50.905229938060785" lon="6.713083062857112">
				<ele>119.0</ele>
				<time>2011-02-15T17:39:01Z</time>
			</trkpt>
			<trkpt lat="50.905229938060785" lon="6.713083062857112">
				<ele>119.0</ele>
				<time>2011-02-15T17:39:02Z</time>
			</trkpt>
			<trkpt lat="50.905229938060785" lon="6.713083062857112">
				<ele>119.0</ele>
				<time>2011-02-15T17:39:03Z</time>
			</trkpt>
			<trkpt lat="50.905229938060785" lon="6.713083062857112">
				<ele>119.0</ele>
				<time>2011-02-15T17:39:04Z</time>
			</trkpt>
			<trkpt lat="50.90518537302305" lon="6.713024437288357">
				<ele>119.0</ele>
				<time>2011-02-15T17:39:05Z</time>
			</trkpt>
			<trkpt lat="50.90518537302305" lon="6.713024437288357">
				<ele>119.0</ele>
				<time>2011-02-15T17:39:06Z</time>
			</trkpt>
			<trkpt lat="50.90518537302305" lon="6.713024437288357">
				<ele>119.0</ele>
				<time>2011-02-15T17:39:07Z</time>
			</trkpt>
			<trkpt lat="50.90518537302305" lon="6.713024437288357">
				<ele>119.0</ele>
				<time>2011-02-15T17:39:08Z</time>
			</trkpt>
			<trkpt lat="50.90518537302305" lon="6.713024437288357">
				<ele>119.0</ele>
				<time>2011-02-15T17:39:09Z</time>
			</trkpt>
			<trkpt lat="50.90518537302305" lon="6.713024437288357">
				<ele>119.0</ele>
				<time>2011-02-15T17:39:10Z</time>
			</trkpt>
			<trkpt lat="50.90518537302305" lon="6.713024437288357">
				<ele>119.0</ele>
				<time>2011-02-15T17:39:11Z</time>
			</trkpt>
			<trkpt lat="50.90518537302305" lon="6.713024437288357">
				<ele>119.0</ele>
				<time>2011-02-15T17:39:12Z</time>
			</trkpt>
			<trkpt lat="50.90518537302305" lon="6.713024437288357">
				<ele>119.0</ele>
				<time>2011-02-15T17:39:13Z</time>
			</trkpt>
			<trkpt lat="50.90518537302305" lon="6.713024437288357">
				<ele>119.0</ele>
				<time>2011-02-15T17:39:14Z</time>
			</trkpt>
			<trkpt lat="50.90518537302305" lon="6.713024437288357">
				<ele>119.0</ele>
				<time>2011-02-15T17:39:15Z</time>
			</trkpt>
			<trkpt lat="50.90518537302305" lon="6.713024437288357">
				<ele>119.0</ele>
				<time>2011-02-15T17:39:16Z</time>
			</trkpt>
			<trkpt lat="50.90518537302305" lon="6.713024437288357">
				<ele>119.0</ele>
				<time>2011-02-15T17:39:17Z</time>
			</trkpt>
			<trkpt lat="50.90518537302305" lon="6.713024437288357">
				<ele>119.0</ele>
				<time>2011-02-15T17:39:18Z</time>
			</trkpt>
			<trkpt lat="50.90518537302305" lon="6.713024437288357">
				<ele>119.0</ele>
				<time>2011-02-15T17:39:19Z</time>
			</trkpt>
			<trkpt lat="50.90518537302305" lon="6.713024437288357">
				<ele>119.0</ele>
				<time>2011-02-15T17:39:20Z</time>
			</trkpt>
			<trkpt lat="50.90518537302305" lon="6.713024437288357">
				<ele>119.0</ele>
				<time>2011-02-15T17:39:21Z</time>
			</trkpt>
			<trkpt lat="50.90518537302305" lon="6.713024437288357">
				<ele>119.0</ele>
				<time>2011-02-15T17:39:22Z</time>
			</trkpt>
			<trkpt lat="50.90518537302305" lon="6.713024437288357">
				<ele>119.0</ele>
				<time>2011-02-15T17:39:23Z</time>
			</trkpt>
			<trkpt lat="50.90518537302305" lon="6.713024437288357">
				<ele>119.0</ele>
				<time>2011-02-15T17:39:24Z</time>
			</trkpt>
			<trkpt lat="50.90518537302305" lon="6.713024437288357">
				<ele>119.0</ele>
				<time>2011-02-15T17:39:25Z</time>
			</trkpt>
			<trkpt lat="50.90518537302305" lon="6.713024437288357">
				<ele>119.0</ele>
				<time>2011-02-15T17:39:26Z</time>
			</trkpt>
			<trkpt lat="50.90518537302305" lon="6.713024437288357">
				<ele>119.0</ele>
				<time>2011-02-15T17:39:27Z</time>
			</trkpt>
			<trkpt lat="50.90518537302305" lon="6.713024437288357">
				<ele>119.0</ele>
				<time>2011-02-15T17:39:28Z</time>
			</trkpt>
			<trkpt lat="50.90518537302305" lon="6.713024437288357">
				<ele>119.0</ele>
				<time>2011-02-15T17:39:29Z</time>
			</trkpt>
			<trkpt lat="50.90518537302305" lon="6.713024437288357">
				<ele>119.0</ele>
				<time>2011-02-15T17:39:30Z</time>
			</trkpt>
			<trkpt lat="50.90518537302305" lon="6.713024437288357">
				<ele>119.0</ele>
				<time>2011-02-15T17:39:31Z</time>
			</trkpt>
			<trkpt lat="50.90518537302305" lon="6.713024437288357">
				<ele>119.0</ele>
				<time>2011-02-15T17:39:32Z</time>
			</trkpt>
			<trkpt lat="50.90518537302305" lon="6.713024437288357">
				<ele>119.0</ele>
				<time>2011-02-15T17:39:33Z</time>
			</trkpt>
			<trkpt lat="50.90518537302305" lon="6.713024437288357">
				<ele>119.0</ele>
				<time>2011-02-15T17:39:34Z</time>
			</trkpt>
			<trkpt lat="50.90518537302305" lon="6.713024437288357">
				<ele>119.0</ele>
				<time>2011-02-15T17:39:35Z</time>
			</trkpt>
			<trkpt lat="50.90518537302305" lon="6.713024437288357">
				<ele>119.0</ele>
				<time>2011-02-15T17:39:36Z</time>
			</trkpt>
			<trkpt lat="50.905176684957645" lon="6.713032798627992">
				<ele>119.0</ele>
				<time>2011-02-15T17:39:37Z</time>
			</trkpt>
			<trkpt lat="50.905176684957645" lon="6.713032798627992">
				<ele>119.0</ele>
				<time>2011-02-15T17:39:38Z</time>
			</trkpt>
			<trkpt lat="50.905176684957645" lon="6.713032798627992">
				<ele>119.0</ele>
				<time>2011-02-15T17:39:39Z</time>
			</trkpt>
			<trkpt lat="50.905168629801" lon="6.713056875804042">
				<ele>119.0</ele>
				<time>2011-02-15T17:39:40Z</time>
			</trkpt>
			<trkpt lat="50.90518375227926" lon="6.713038233724733">
				<ele>119.0</ele>
				<time>2011-02-15T17:39:41Z</time>
			</trkpt>
			<trkpt lat="50.90520392444184" lon="6.713023657956614">
				<ele>119.0</ele>
				<time>2011-02-15T17:39:42Z</time>
			</trkpt>
			<trkpt lat="50.90522522598122" lon="6.713008168899264">
				<ele>119.0</ele>
				<time>2011-02-15T17:39:43Z</time>
			</trkpt>
			<trkpt lat="50.90524778046222" lon="6.712991978035625">
				<ele>119.0</ele>
				<time>2011-02-15T17:39:44Z</time>
			</trkpt>
			<trkpt lat="50.905274615696854" lon="6.712974456069104">
				<ele>119.0</ele>
				<time>2011-02-15T17:39:45Z</time>
			</trkpt>
			<trkpt lat="50.90530239953874" lon="6.712956436513783">
				<ele>119.0</ele>
				<time>2011-02-15T17:39:46Z</time>
			</trkpt>
			<trkpt lat="50.90532949052412" lon="6.712939888405318">
				<ele>119.0</ele>
				<time>2011-02-15T17:39:47Z</time>
			</trkpt>
			<trkpt lat="50.90535715606287" lon="6.712922890934635">
				<ele>119.0</ele>
				<time>2011-02-15T17:39:48Z</time>
			</trkpt>
			<trkpt lat="50.90538418824151" lon="6.712905030173492">
				<ele>119.0</ele>
				<time>2011-02-15T17:39:49Z</time>
			</trkpt>
			<trkpt lat="50.905409772358716" lon="6.7128880483196225">
				<ele>119.0</ele>
				<time>2011-02-15T17:39:50Z</time>
			</trkpt>
			<trkpt lat="50.90543362613982" lon="6.712872199880739">
				<ele>119.0</ele>
				<time>2011-02-15T17:39:51Z</time>
			</trkpt>
			<trkpt lat="50.90545503551634" lon="6.712859150892918">
				<ele>119.0</ele>
				<time>2011-02-15T17:39:52Z</time>
			</trkpt>
			<trkpt lat="50.90547577123617" lon="6.712846675155643">
				<ele>119.0</ele>
				<time>2011-02-15T17:39:53Z</time>
			</trkpt>
			<trkpt lat="50.905496253116944" lon="6.712835386353051">
				<ele>119.0</ele>
				<time>2011-02-15T17:39:54Z</time>
			</trkpt>
			<trkpt lat="50.90551652636524" lon="6.7128251604991265">
				<ele>119.0</ele>
				<time>2011-02-15T17:39:55Z</time>
			</trkpt>
			<trkpt lat="50.90553670456912" lon="6.712814314873024">
				<ele>119.0</ele>
				<time>2011-02-15T17:39:56Z</time>
			</trkpt>
			<trkpt lat="50.905556253577245" lon="6.712804055243194">
				<ele>119.0</ele>
				<time>2011-02-15T17:39:57Z</time>
			</trkpt>
			<trkpt lat="50.9055742749189" lon="6.712794567247781">
				<ele>119.0</ele>
				<time>2011-02-15T17:39:58Z</time>
			</trkpt>
			<trkpt lat="50.9055742749189" lon="6.712794567247781">
				<ele>119.0</ele>
				<time>2011-02-15T17:39:59Z</time>
			</trkpt>
			<trkpt lat="50.9055742749189" lon="6.712794567247781">
				<ele>119.0</ele>
				<time>2011-02-15T17:40:00Z</time>
			</trkpt>
			<trkpt lat="50.90562549788178" lon="6.712769826998885">
				<ele>119.0</ele>
				<time>2011-02-15T17:40:01Z</time>
			</trkpt>
			<trkpt lat="50.905645262545164" lon="6.7127618846566515">
				<ele>119.0</ele>
				<time>2011-02-15T17:40:02Z</time>
			</trkpt>
			<trkpt lat="50.90566911135627" lon="6.712751985027903">
				<ele>119.0</ele>
				<time>2011-02-15T17:40:03Z</time>
			</trkpt>
			<trkpt lat="50.90569220642007" lon="6.712741344719032">
				<ele>119.0</ele>
				<time>2011-02-15T17:40:04Z</time>
			</trkpt>
			<trkpt lat="50.905719757158124" lon="6.712726861056577">
				<ele>119.0</ele>
				<time>2011-02-15T17:40:05Z</time>
			</trkpt>
			<trkpt lat="50.90575117840728" lon="6.712710376023101">
				<ele>119.0</ele>
				<time>2011-02-15T17:40:06Z</time>
			</trkpt>
			<trkpt lat="50.90578248773042" lon="6.712694243386348">
				<ele>119.0</ele>
				<time>2011-02-15T17:40:07Z</time>
			</trkpt>
			<trkpt lat="50.90581401228396" lon="6.712679430533366">
				<ele>119.0</ele>
				<time>2011-02-15T17:40:08Z</time>
			</trkpt>
			<trkpt lat="50.905845271303605" lon="6.7126647805157935">
				<ele>119.0</ele>
				<time>2011-02-15T17:40:09Z</time>
			</trkpt>
			<trkpt lat="50.90587590286598" lon="6.712650492161305">
				<ele>119.0</ele>
				<time>2011-02-15T17:40:10Z</time>
			</trkpt>
			<trkpt lat="50.90590686561945" lon="6.712635689566374">
				<ele>119.0</ele>
				<time>2011-02-15T17:40:11Z</time>
			</trkpt>
			<trkpt lat="50.9059349927835" lon="6.712622129023429">
				<ele>119.0</ele>
				<time>2011-02-15T17:40:12Z</time>
			</trkpt>
			<trkpt lat="50.90595893966289" lon="6.712608366086457">
				<ele>119.0</ele>
				<time>2011-02-15T17:40:13Z</time>
			</trkpt>
			<trkpt lat="50.905980021569704" lon="6.71259386948193">
				<ele>119.0</ele>
				<time>2011-02-15T17:40:14Z</time>
			</trkpt>
			<trkpt lat="50.906003764904824" lon="6.7125758285201735">
				<ele>119.0</ele>
				<time>2011-02-15T17:40:15Z</time>
			</trkpt>
			<trkpt lat="50.906026390748075" lon="6.7125584046943665">
				<ele>119.0</ele>
				<time>2011-02-15T17:40:16Z</time>
			</trkpt>
			<trkpt lat="50.906045709948664" lon="6.71254565301221">
				<ele>119.0</ele>
				<time>2011-02-15T17:40:17Z</time>
			</trkpt>
			<trkpt lat="50.906065289025065" lon="6.712542216715342">
				<ele>119.0</ele>
				<time>2011-02-15T17:40:18Z</time>
			</trkpt>
			<trkpt lat="50.906085698650394" lon="6.712539833222522">
				<ele>119.0</ele>
				<time>2011-02-15T17:40:19Z</time>
			</trkpt>
			<trkpt lat="50.90610685013728" lon="6.712536145885144">
				<ele>119.0</ele>
				<time>2011-02-15T17:40:20Z</time>
			</trkpt>
			<trkpt lat="50.9061287909052" lon="6.712530315986261">
				<ele>119.0</ele>
				<time>2011-02-15T17:40:21Z</time>
			</trkpt>
			<trkpt lat="50.906152387419354" lon="6.7125218366444335">
				<ele>119.0</ele>
				<time>2011-02-15T17:40:22Z</time>
			</trkpt>
			<trkpt lat="50.9061789138589" lon="6.712509772604295">
				<ele>119.0</ele>
				<time>2011-02-15T17:40:23Z</time>
			</trkpt>
			<trkpt lat="50.90620618784473" lon="6.712496418678707">
				<ele>119.0</ele>
				<time>2011-02-15T17:40:24Z</time>
			</trkpt>
			<trkpt lat="50.906233264765405" lon="6.7124820646331695">
				<ele>119.0</ele>
				<time>2011-02-15T17:40:25Z</time>
			</trkpt>
			<trkpt lat="50.90626003455079" lon="6.712469056405049">
				<ele>120.0</ele>
				<time>2011-02-15T17:40:26Z</time>
			</trkpt>
			<trkpt lat="50.9062851474944" lon="6.71245714538848">
				<ele>120.0</ele>
				<time>2011-02-15T17:40:27Z</time>
			</trkpt>
			<trkpt lat="50.90630768753805" lon="6.712446708608606">
				<ele>120.0</ele>
				<time>2011-02-15T17:40:28Z</time>
			</trkpt>
			<trkpt lat="50.90632814222276" lon="6.712437216284861">
				<ele>120.0</ele>
				<time>2011-02-15T17:40:29Z</time>
			</trkpt>
			<trkpt lat="50.906345059188176" lon="6.712427940654713">
				<ele>120.0</ele>
				<time>2011-02-15T17:40:30Z</time>
			</trkpt>
			<trkpt lat="50.90635928690592" lon="6.712419317020303">
				<ele>120.0</ele>
				<time>2011-02-15T17:40:31Z</time>
			</trkpt>
			<trkpt lat="50.90637011442973" lon="6.7124141649707125">
				<ele>120.0</ele>
				<time>2011-02-15T17:40:32Z</time>
			</trkpt>
			<trkpt lat="50.90637011442973" lon="6.7124141649707125">
				<ele>120.0</ele>
				<time>2011-02-15T17:40:33Z</time>
			</trkpt>
			<trkpt lat="50.90637011442973" lon="6.7124141649707125">
				<ele>120.0</ele>
				<time>2011-02-15T17:40:34Z</time>
			</trkpt>
			<trkpt lat="50.90637011442973" lon="6.7124141649707125">
				<ele>120.0</ele>
				<time>2011-02-15T17:40:35Z</time>
			</trkpt>
			<trkpt lat="50.90637011442973" lon="6.7124141649707125">
				<ele>120.0</ele>
				<time>2011-02-15T17:40:36Z</time>
			</trkpt>
			<trkpt lat="50.90637011442973" lon="6.7124141649707125">
				<ele>120.0</ele>
				<time>2011-02-15T17:40:37Z</time>
			</trkpt>
			<trkpt lat="50.90637011442973" lon="6.7124141649707125">
				<ele>120.0</ele>
				<time>2011-02-15T17:40:38Z</time>
			</trkpt>
			<trkpt lat="50.90637011442973" lon="6.7124141649707125">
				<ele>120.0</ele>
				<time>2011-02-15T17:40:39Z</time>
			</trkpt>
			<trkpt lat="50.90637011442973" lon="6.7124141649707125">
				<ele>120.0</ele>
				<time>2011-02-15T17:40:40Z</time>
			</trkpt>
			<trkpt lat="50.90637011442973" lon="6.7124141649707125">
				<ele>120.0</ele>
				<time>2011-02-15T17:40:41Z</time>
			</trkpt>
			<trkpt lat="50.90637011442973" lon="6.7124141649707125">
				<ele>120.0</ele>
				<time>2011-02-15T17:40:42Z</time>
			</trkpt>
			<trkpt lat="50.90638181310605" lon="6.712404126001752">
				<ele>120.0</ele>
				<time>2011-02-15T17:40:43Z</time>
			</trkpt>
			<trkpt lat="50.90638184993973" lon="6.712404210772818">
				<ele>120.0</ele>
				<time>2011-02-15T17:40:44Z</time>
			</trkpt>
			<trkpt lat="50.906382169004665" lon="6.71240440131988">
				<ele>120.0</ele>
				<time>2011-02-15T17:40:45Z</time>
			</trkpt>
			<trkpt lat="50.90638300627915" lon="6.712404634052503">
				<ele>120.0</ele>
				<time>2011-02-15T17:40:46Z</time>
			</trkpt>
			<trkpt lat="50.906384386191284" lon="6.712404258858451">
				<ele>120.0</ele>
				<time>2011-02-15T17:40:47Z</time>
			</trkpt>
			<trkpt lat="50.90638730051652" lon="6.712404013607118">
				<ele>120.0</ele>
				<time>2011-02-15T17:40:48Z</time>
			</trkpt>
			<trkpt lat="50.906391168505316" lon="6.712404319741811">
				<ele>120.0</ele>
				<time>2011-02-15T17:40:49Z</time>
			</trkpt>
			<trkpt lat="50.906394766123334" lon="6.712404340345171">
				<ele>120.0</ele>
				<time>2011-02-15T17:40:50Z</time>
			</trkpt>
			<trkpt lat="50.906397815746615" lon="6.712404388774384">
				<ele>120.0</ele>
				<time>2011-02-15T17:40:51Z</time>
			</trkpt>
			<trkpt lat="50.90640141229131" lon="6.712404358211763">
				<ele>120.0</ele>
				<time>2011-02-15T17:40:52Z</time>
			</trkpt>
			<trkpt lat="50.90640493955329" lon="6.7124035749836874">
				<ele>120.0</ele>
				<time>2011-02-15T17:40:53Z</time>
			</trkpt>
			<trkpt lat="50.906407101421124" lon="6.712403217039654">
				<ele>120.0</ele>
				<time>2011-02-15T17:40:54Z</time>
			</trkpt>
			<trkpt lat="50.90640963043748" lon="6.712403354238016">
				<ele>120.0</ele>
				<time>2011-02-15T17:40:55Z</time>
			</trkpt>
			<trkpt lat="50.906412176285755" lon="6.7124025528844715">
				<ele>120.0</ele>
				<time>2011-02-15T17:40:56Z</time>
			</trkpt>
			<trkpt lat="50.90641522431833" lon="6.712401616735789">
				<ele>120.0</ele>
				<time>2011-02-15T17:40:57Z</time>
			</trkpt>
			<trkpt lat="50.906417973321986" lon="6.712400002024794">
				<ele>120.0</ele>
				<time>2011-02-15T17:40:58Z</time>
			</trkpt>
			<trkpt lat="50.906420731181015" lon="6.712397243768301">
				<ele>120.0</ele>
				<time>2011-02-15T17:40:59Z</time>
			</trkpt>
			<trkpt lat="50.90642312240989" lon="6.712393400091579">
				<ele>120.0</ele>
				<time>2011-02-15T17:41:00Z</time>
			</trkpt>
			<trkpt lat="50.906424750517736" lon="6.71239000709066">
				<ele>120.0</ele>
				<time>2011-02-15T17:41:01Z</time>
			</trkpt>
			<trkpt lat="50.906426332434656" lon="6.712386956329329">
				<ele>120.0</ele>
				<time>2011-02-15T17:41:02Z</time>
			</trkpt>
			<trkpt lat="50.90642835823673" lon="6.71238418870897">
				<ele>120.0</ele>
				<time>2011-02-15T17:41:03Z</time>
			</trkpt>
			<trkpt lat="50.90643025192602" lon="6.712381494834289">
				<ele>120.0</ele>
				<time>2011-02-15T17:41:04Z</time>
			</trkpt>
			<trkpt lat="50.90643172864441" lon="6.712379111316215">
				<ele>120.0</ele>
				<time>2011-02-15T17:41:05Z</time>
			</trkpt>
			<trkpt lat="50.90643332524939" lon="6.7123770959190905">
				<ele>120.0</ele>
				<time>2011-02-15T17:41:06Z</time>
			</trkpt>
			<trkpt lat="50.90643536250203" lon="6.7123756734786255">
				<ele>120.0</ele>
				<time>2011-02-15T17:41:07Z</time>
			</trkpt>
			<trkpt lat="50.90643700872512" lon="6.712374356475788">
				<ele>120.0</ele>
				<time>2011-02-15T17:41:08Z</time>
			</trkpt>
			<trkpt lat="50.90643879000662" lon="6.7123736872928115">
				<ele>120.0</ele>
				<time>2011-02-15T17:41:09Z</time>
			</trkpt>
			<trkpt lat="50.906440378743795" lon="6.712372859913954">
				<ele>120.0</ele>
				<time>2011-02-15T17:41:10Z</time>
			</trkpt>
			<trkpt lat="50.906441301138265" lon="6.71237212285851">
				<ele>120.0</ele>
				<time>2011-02-15T17:41:11Z</time>
			</trkpt>
			<trkpt lat="50.906442524189885" lon="6.712371416201837">
				<ele>120.0</ele>
				<time>2011-02-15T17:41:12Z</time>
			</trkpt>
			<trkpt lat="50.9064433206348" lon="6.712370123107491">
				<ele>120.0</ele>
				<time>2011-02-15T17:41:13Z</time>
			</trkpt>
			<trkpt lat="50.90644345766994" lon="6.712369184312021">
				<ele>120.0</ele>
				<time>2011-02-15T17:41:14Z</time>
			</trkpt>
			<trkpt lat="50.906442848682836" lon="6.712367812263619">
				<ele>120.0</ele>
				<time>2011-02-15T17:41:15Z</time>
			</trkpt>
			<trkpt lat="50.90644235221533" lon="6.712366667354241">
				<ele>120.0</ele>
				<time>2011-02-15T17:41:16Z</time>
			</trkpt>
			<trkpt lat="50.906441914998595" lon="6.712365804099948">
				<ele>120.0</ele>
				<time>2011-02-15T17:41:17Z</time>
			</trkpt>
			<trkpt lat="50.90644239894932" lon="6.7123644725396225">
				<ele>120.0</ele>
				<time>2011-02-15T17:41:18Z</time>
			</trkpt>
			<trkpt lat="50.90644417261468" lon="6.712360332615203">
				<ele>120.0</ele>
				<time>2011-02-15T17:41:19Z</time>
			</trkpt>
			<trkpt lat="50.90645117982979" lon="6.7123476910962525">
				<ele>120.0</ele>
				<time>2011-02-15T17:41:20Z</time>
			</trkpt>
			<trkpt lat="50.90646523213792" lon="6.712330400698002">
				<ele>120.0</ele>
				<time>2011-02-15T17:41:21Z</time>
			</trkpt>
			<trkpt lat="50.90648270475706" lon="6.712314372496608">
				<ele>121.0</ele>
				<time>2011-02-15T17:41:22Z</time>
			</trkpt>
			<trkpt lat="50.906502285313586" lon="6.712301207141512">
				<ele>121.0</ele>
				<time>2011-02-15T17:41:23Z</time>
			</trkpt>
			<trkpt lat="50.90652420680606" lon="6.712287459595304">
				<ele>121.0</ele>
				<time>2011-02-15T17:41:24Z</time>
			</trkpt>
			<trkpt lat="50.90654656847318" lon="6.712275114419859">
				<ele>121.0</ele>
				<time>2011-02-15T17:41:25Z</time>
			</trkpt>
			<trkpt lat="50.906569971418335" lon="6.712265173018086">
				<ele>121.0</ele>
				<time>2011-02-15T17:41:26Z</time>
			</trkpt>
			<trkpt lat="50.906592735960686" lon="6.712256807042541">
				<ele>121.0</ele>
				<time>2011-02-15T17:41:27Z</time>
			</trkpt>
			<trkpt lat="50.90661601937705" lon="6.712248994703046">
				<ele>121.0</ele>
				<time>2011-02-15T17:41:28Z</time>
			</trkpt>
			<trkpt lat="50.9066388438493" lon="6.7122404270739">
				<ele>121.0</ele>
				<time>2011-02-15T17:41:29Z</time>
			</trkpt>
			<trkpt lat="50.9066613585438" lon="6.712230969135087">
				<ele>121.0</ele>
				<time>2011-02-15T17:41:30Z</time>
			</trkpt>
			<trkpt lat="50.90668318100422" lon="6.712222456995309">
				<ele>121.0</ele>
				<time>2011-02-15T17:41:31Z</time>
			</trkpt>
			<trkpt lat="50.906703326908996" lon="6.7122140721771375">
				<ele>121.0</ele>
				<time>2011-02-15T17:41:32Z</time>
			</trkpt>
			<trkpt lat="50.90672371096483" lon="6.712206842868872">
				<ele>121.0</ele>
				<time>2011-02-15T17:41:33Z</time>
			</trkpt>
			<trkpt lat="50.90674411693784" lon="6.71220833668335">
				<ele>121.0</ele>
				<time>2011-02-15T17:41:34Z</time>
			</trkpt>
			<trkpt lat="50.90676299864459" lon="6.7122154501256945">
				<ele>121.0</ele>
				<time>2011-02-15T17:41:35Z</time>
			</trkpt>
			<trkpt lat="50.90678070813161" lon="6.712234788966378">
				<ele>121.0</ele>
				<time>2011-02-15T17:41:36Z</time>
			</trkpt>
			<trkpt lat="50.90679712488184" lon="6.712257665894463">
				<ele>121.0</ele>
				<time>2011-02-15T17:41:37Z</time>
			</trkpt>
			<trkpt lat="50.90681476454938" lon="6.7122792706405905">
				<ele>121.0</ele>
				<time>2011-02-15T17:41:38Z</time>
			</trkpt>
			<trkpt lat="50.906834038841076" lon="6.712299963923164">
				<ele>122.0</ele>
				<time>2011-02-15T17:41:39Z</time>
			</trkpt>
			<trkpt lat="50.906854116692" lon="6.7123192661735365">
				<ele>122.0</ele>
				<time>2011-02-15T17:41:40Z</time>
			</trkpt>
			<trkpt lat="50.90687512679138" lon="6.712334677818672">
				<ele>122.0</ele>
				<time>2011-02-15T17:41:41Z</time>
			</trkpt>
			<trkpt lat="50.906897342495" lon="6.712340384435021">
				<ele>122.0</ele>
				<time>2011-02-15T17:41:42Z</time>
			</trkpt>
			<trkpt lat="50.906920155966915" lon="6.712341668617142">
				<ele>122.0</ele>
				<time>2011-02-15T17:41:43Z</time>
			</trkpt>
			<trkpt lat="50.90694379352015" lon="6.7123395391030956">
				<ele>122.0</ele>
				<time>2011-02-15T17:41:44Z</time>
			</trkpt>
			<trkpt lat="50.90697065210958" lon="6.7123348499618105">
				<ele>122.0</ele>
				<time>2011-02-15T17:41:45Z</time>
			</trkpt>
			<trkpt lat="50.90699802011577" lon="6.712328320646893">
				<ele>122.0</ele>
				<time>2011-02-15T17:41:46Z</time>
			</trkpt>
			<trkpt lat="50.907024977646294" lon="6.712318920243802">
				<ele>122.0</ele>
				<time>2011-02-15T17:41:47Z</time>
			</trkpt>
			<trkpt lat="50.90705204371372" lon="6.712309437522031">
				<ele>122.0</ele>
				<time>2011-02-15T17:41:48Z</time>
			</trkpt>
			<trkpt lat="50.90707919087644" lon="6.712300041981732">
				<ele>122.0</ele>
				<time>2011-02-15T17:41:49Z</time>
			</trkpt>
			<trkpt lat="50.90710597883335" lon="6.712289129201794">
				<ele>122.0</ele>
				<time>2011-02-15T17:41:50Z</time>
			</trkpt>
			<trkpt lat="50.90713113160994" lon="6.712278993684845">
				<ele>122.0</ele>
				<time>2011-02-15T17:41:51Z</time>
			</trkpt>
			<trkpt lat="50.9071465241601" lon="6.71227180946398">
				<ele>122.0</ele>
				<time>2011-02-15T17:41:52Z</time>
			</trkpt>
			<trkpt lat="50.90715921972342" lon="6.71226284750021">
				<ele>122.0</ele>
				<time>2011-02-15T17:41:53Z</time>
			</trkpt>
			<trkpt lat="50.90716826108833" lon="6.7122553632590165">
				<ele>122.0</ele>
				<time>2011-02-15T17:41:54Z</time>
			</trkpt>
			<trkpt lat="50.90717559079721" lon="6.712249084043645">
				<ele>122.0</ele>
				<time>2011-02-15T17:41:55Z</time>
			</trkpt>
			<trkpt lat="50.90717670541356" lon="6.712246783316705">
				<ele>122.0</ele>
				<time>2011-02-15T17:41:56Z</time>
			</trkpt>
			<trkpt lat="50.9071783237768" lon="6.712244554029536">
				<ele>122.0</ele>
				<time>2011-02-15T17:41:57Z</time>
			</trkpt>
			<trkpt lat="50.90717843373295" lon="6.712242678017886">
				<ele>122.0</ele>
				<time>2011-02-15T17:41:58Z</time>
			</trkpt>
			<trkpt lat="50.90717834243902" lon="6.712241601680339">
				<ele>122.0</ele>
				<time>2011-02-15T17:41:59Z</time>
			</trkpt>
			<trkpt lat="50.907178446472656" lon="6.712241790039757">
				<ele>122.0</ele>
				<time>2011-02-15T17:42:00Z</time>
			</trkpt>
			<trkpt lat="50.90717864813349" lon="6.712241642421407">
				<ele>122.0</ele>
				<time>2011-02-15T17:42:01Z</time>
			</trkpt>
			<trkpt lat="50.907179440864795" lon="6.712241713205916">
				<ele>122.0</ele>
				<time>2011-02-15T17:42:02Z</time>
			</trkpt>
			<trkpt lat="50.90718049845572" lon="6.7122419225380945">
				<ele>122.0</ele>
				<time>2011-02-15T17:42:03Z</time>
			</trkpt>
			<trkpt lat="50.90718217594126" lon="6.712240903028939">
				<ele>122.0</ele>
				<time>2011-02-15T17:42:04Z</time>
			</trkpt>
			<trkpt lat="50.90718362885584" lon="6.712238919223884">
				<ele>122.0</ele>
				<time>2011-02-15T17:42:05Z</time>
			</trkpt>
			<trkpt lat="50.90718440228849" lon="6.7122361198400515">
				<ele>122.0</ele>
				<time>2011-02-15T17:42:06Z</time>
			</trkpt>
			<trkpt lat="50.90718480338671" lon="6.712232419594841">
				<ele>122.0</ele>
				<time>2011-02-15T17:42:07Z</time>
			</trkpt>
			<trkpt lat="50.90718518187124" lon="6.712229442080609">
				<ele>122.0</ele>
				<time>2011-02-15T17:42:08Z</time>
			</trkpt>
			<trkpt lat="50.907182463983034" lon="6.712226931094473">
				<ele>122.0</ele>
				<time>2011-02-15T17:42:09Z</time>
			</trkpt>
			<trkpt lat="50.907177778321326" lon="6.71222426769878">
				<ele>122.0</ele>
				<time>2011-02-15T17:42:10Z</time>
			</trkpt>
			<trkpt lat="50.90717296533364" lon="6.712220342935321">
				<ele>122.0</ele>
				<time>2011-02-15T17:42:11Z</time>
			</trkpt>
			<trkpt lat="50.90716941932557" lon="6.712217252637477">
				<ele>122.0</ele>
				<time>2011-02-15T17:42:12Z</time>
			</trkpt>
			<trkpt lat="50.907166378677424" lon="6.712214242384975">
				<ele>122.0</ele>
				<time>2011-02-15T17:42:13Z</time>
			</trkpt>
			<trkpt lat="50.907163741001916" lon="6.712211452103217">
				<ele>122.0</ele>
				<time>2011-02-15T17:42:14Z</time>
			</trkpt>
			<trkpt lat="50.90716173535615" lon="6.712209054125562">
				<ele>122.0</ele>
				<time>2011-02-15T17:42:15Z</time>
			</trkpt>
			<trkpt lat="50.90716087494047" lon="6.712207413696939">
				<ele>122.0</ele>
				<time>2011-02-15T17:42:16Z</time>
			</trkpt>
			<trkpt lat="50.90716077369428" lon="6.712207174683121">
				<ele>122.0</ele>
				<time>2011-02-15T17:42:17Z</time>
			</trkpt>
			<trkpt lat="50.90716098846281" lon="6.7122073155424">
				<ele>122.0</ele>
				<time>2011-02-15T17:42:18Z</time>
			</trkpt>
			<trkpt lat="50.90716275472432" lon="6.712207089321119">
				<ele>122.0</ele>
				<time>2011-02-15T17:42:19Z</time>
			</trkpt>
			<trkpt lat="50.90716595629419" lon="6.712206410817271">
				<ele>122.0</ele>
				<time>2011-02-15T17:42:20Z</time>
			</trkpt>
			<trkpt lat="50.90716995597666" lon="6.712204666164924">
				<ele>122.0</ele>
				<time>2011-02-15T17:42:21Z</time>
			</trkpt>
			<trkpt lat="50.90717372871671" lon="6.712202599432098">
				<ele>122.0</ele>
				<time>2011-02-15T17:42:22Z</time>
			</trkpt>
			<trkpt lat="50.90717699204447" lon="6.712200272685384">
				<ele>122.0</ele>
				<time>2011-02-15T17:42:23Z</time>
			</trkpt>
			<trkpt lat="50.9071802135894" lon="6.712197944598493">
				<ele>122.0</ele>
				<time>2011-02-15T17:42:24Z</time>
			</trkpt>
			<trkpt lat="50.90718326481256" lon="6.712195604807189">
				<ele>122.0</ele>
				<time>2011-02-15T17:42:25Z</time>
			</trkpt>
			<trkpt lat="50.90718587219928" lon="6.712193184760099">
				<ele>122.0</ele>
				<time>2011-02-15T17:42:26Z</time>
			</trkpt>
			<trkpt lat="50.907188101820545" lon="6.71219063776152">
				<ele>122.0</ele>
				<time>2011-02-15T17:42:27Z</time>
			</trkpt>
			<trkpt lat="50.90719002744607" lon="6.712188230043195">
				<ele>122.0</ele>
				<time>2011-02-15T17:42:28Z</time>
			</trkpt>
			<trkpt lat="50.9071922710995" lon="6.712186989918424">
				<ele>122.0</ele>
				<time>2011-02-15T17:42:29Z</time>
			</trkpt>
			<trkpt lat="50.90719419313421" lon="6.712186242762737">
				<ele>122.0</ele>
				<time>2011-02-15T17:42:30Z</time>
			</trkpt>
			<trkpt lat="50.90719585327818" lon="6.712185721530399">
				<ele>122.0</ele>
				<time>2011-02-15T17:42:31Z</time>
			</trkpt>
			<trkpt lat="50.90719720417599" lon="6.71218503459477">
				<ele>122.0</ele>
				<time>2011-02-15T17:42:32Z</time>
			</trkpt>
			<trkpt lat="50.90719819840967" lon="6.712184064227555">
				<ele>122.0</ele>
				<time>2011-02-15T17:42:33Z</time>
			</trkpt>
			<trkpt lat="50.90719859473931" lon="6.712183595747801">
				<ele>122.0</ele>
				<time>2011-02-15T17:42:34Z</time>
			</trkpt>
			<trkpt lat="50.907198971051606" lon="6.712183340441648">
				<ele>122.0</ele>
				<time>2011-02-15T17:42:35Z</time>
			</trkpt>
			<trkpt lat="50.90719936750229" lon="6.712182816382062">
				<ele>122.0</ele>
				<time>2011-02-15T17:42:36Z</time>
			</trkpt>
			<trkpt lat="50.907199622119485" lon="6.712182238989969">
				<ele>122.0</ele>
				<time>2011-02-15T17:42:37Z</time>
			</trkpt>
			<trkpt lat="50.907200079122326" lon="6.7121814237315585">
				<ele>122.0</ele>
				<time>2011-02-15T17:42:38Z</time>
			</trkpt>
			<trkpt lat="50.907200701034284" lon="6.712180414532331">
				<ele>122.0</ele>
				<time>2011-02-15T17:42:39Z</time>
			</trkpt>
			<trkpt lat="50.90720130244927" lon="6.7121796087001115">
				<ele>122.0</ele>
				<time>2011-02-15T17:42:40Z</time>
			</trkpt>
			<trkpt lat="50.90720191833609" lon="6.712178733142097">
				<ele>122.0</ele>
				<time>2011-02-15T17:42:41Z</time>
			</trkpt>
			<trkpt lat="50.90720258963658" lon="6.712178112330885">
				<ele>122.0</ele>
				<time>2011-02-15T17:42:42Z</time>
			</trkpt>
			<trkpt lat="50.907204395741665" lon="6.712176502220704">
				<ele>122.0</ele>
				<time>2011-02-15T17:42:43Z</time>
			</trkpt>
			<trkpt lat="50.9072064389146" lon="6.712174738541977">
				<ele>122.0</ele>
				<time>2011-02-15T17:42:44Z</time>
			</trkpt>
			<trkpt lat="50.90720866088177" lon="6.712172829420219">
				<ele>122.0</ele>
				<time>2011-02-15T17:42:45Z</time>
			</trkpt>
			<trkpt lat="50.907209557351116" lon="6.712172482943264">
				<ele>122.0</ele>
				<time>2011-02-15T17:42:46Z</time>
			</trkpt>
			<trkpt lat="50.90721080073957" lon="6.712171809529038">
				<ele>122.0</ele>
				<time>2011-02-15T17:42:47Z</time>
			</trkpt>
			<trkpt lat="50.90721318232369" lon="6.712170114278502">
				<ele>122.0</ele>
				<time>2011-02-15T17:42:48Z</time>
			</trkpt>
			<trkpt lat="50.90721824431185" lon="6.712165697806402">
				<ele>122.0</ele>
				<time>2011-02-15T17:42:49Z</time>
			</trkpt>
			<trkpt lat="50.90722981369719" lon="6.71215947505762">
				<ele>122.0</ele>
				<time>2011-02-15T17:42:50Z</time>
			</trkpt>
			<trkpt lat="50.90724345617228" lon="6.712151577911642">
				<ele>122.0</ele>
				<time>2011-02-15T17:42:51Z</time>
			</trkpt>
			<trkpt lat="50.90726339854394" lon="6.712140603470706">
				<ele>122.0</ele>
				<time>2011-02-15T17:42:52Z</time>
			</trkpt>
			<trkpt lat="50.90729097532887" lon="6.712125281898624">
				<ele>122.0</ele>
				<time>2011-02-15T17:42:53Z</time>
			</trkpt>
			<trkpt lat="50.907320800120864" lon="6.712108344599852">
				<ele>122.0</ele>
				<time>2011-02-15T17:42:54Z</time>
			</trkpt>
			<trkpt lat="50.90734887838007" lon="6.7120906390790305">
				<ele>122.0</ele>
				<time>2011-02-15T17:42:55Z</time>
			</trkpt>
			<trkpt lat="50.90737778638902" lon="6.712072635519113">
				<ele>122.0</ele>
				<time>2011-02-15T17:42:56Z</time>
			</trkpt>
			<trkpt lat="50.907409851235" lon="6.7120522699532446">
				<ele>122.0</ele>
				<time>2011-02-15T17:42:57Z</time>
			</trkpt>
			<trkpt lat="50.90744390306258" lon="6.712032790475675">
				<ele>122.0</ele>
				<time>2011-02-15T17:42:58Z</time>
			</trkpt>
			<trkpt lat="50.90748191194186" lon="6.712012205776199">
				<ele>122.0</ele>
				<time>2011-02-15T17:42:59Z</time>
			</trkpt>
			<trkpt lat="50.90751935704512" lon="6.711991408288815">
				<ele>122.0</ele>
				<time>2011-02-15T17:43:00Z</time>
			</trkpt>
			<trkpt lat="50.907557078238" lon="6.711971003007064">
				<ele>122.0</ele>
				<time>2011-02-15T17:43:01Z</time>
			</trkpt>
			<trkpt lat="50.907597624040065" lon="6.711949368473152">
				<ele>122.0</ele>
				<time>2011-02-15T17:43:02Z</time>
			</trkpt>
			<trkpt lat="50.90763865947588" lon="6.711926855684292">
				<ele>122.0</ele>
				<time>2011-02-15T17:43:03Z</time>
			</trkpt>
			<trkpt lat="50.90768088810033" lon="6.711902212682073">
				<ele>122.0</ele>
				<time>2011-02-15T17:43:04Z</time>
			</trkpt>
			<trkpt lat="50.907723254051845" lon="6.711877806455372">
				<ele>122.0</ele>
				<time>2011-02-15T17:43:05Z</time>
			</trkpt>
			<trkpt lat="50.90776860738811" lon="6.71184974923872">
				<ele>123.0</ele>
				<time>2011-02-15T17:43:06Z</time>
			</trkpt>
			<trkpt lat="50.907812818409994" lon="6.711824504421943">
				<ele>123.0</ele>
				<time>2011-02-15T17:43:07Z</time>
			</trkpt>
			<trkpt lat="50.90785766071706" lon="6.7117998599809345">
				<ele>123.0</ele>
				<time>2011-02-15T17:43:08Z</time>
			</trkpt>
			<trkpt lat="50.90790196104318" lon="6.711776282524303">
				<ele>123.0</ele>
				<time>2011-02-15T17:43:09Z</time>
			</trkpt>
			<trkpt lat="50.90794719754514" lon="6.711754558100645">
				<ele>123.0</ele>
				<time>2011-02-15T17:43:10Z</time>
			</trkpt>
			<trkpt lat="50.907992424827995" lon="6.711736888729524">
				<ele>124.0</ele>
				<time>2011-02-15T17:43:11Z</time>
			</trkpt>
			<trkpt lat="50.908036198113145" lon="6.711719849258848">
				<ele>124.0</ele>
				<time>2011-02-15T17:43:12Z</time>
			</trkpt>
			<trkpt lat="50.9080790192612" lon="6.711704835604796">
				<ele>124.0</ele>
				<time>2011-02-15T17:43:13Z</time>
			</trkpt>
			<trkpt lat="50.90812161890342" lon="6.71168943879965">
				<ele>124.0</ele>
				<time>2011-02-15T17:43:14Z</time>
			</trkpt>
			<trkpt lat="50.908163122613544" lon="6.711676247783493">
				<ele>124.0</ele>
				<time>2011-02-15T17:43:15Z</time>
			</trkpt>
			<trkpt lat="50.90820478364186" lon="6.711664395089183">
				<ele>124.0</ele>
				<time>2011-02-15T17:43:16Z</time>
			</trkpt>
			<trkpt lat="50.908245571829454" lon="6.711652448434929">
				<ele>124.0</ele>
				<time>2011-02-15T17:43:17Z</time>
			</trkpt>
			<trkpt lat="50.90828680300649" lon="6.711640739817519">
				<ele>124.0</ele>
				<time>2011-02-15T17:43:18Z</time>
			</trkpt>
			<trkpt lat="50.90832862355251" lon="6.711630654259946">
				<ele>124.0</ele>
				<time>2011-02-15T17:43:19Z</time>
			</trkpt>
			<trkpt lat="50.90836929374048" lon="6.711622998855">
				<ele>124.0</ele>
				<time>2011-02-15T17:43:20Z</time>
			</trkpt>
			<trkpt lat="50.9084037656033" lon="6.711615186857629">
				<ele>124.0</ele>
				<time>2011-02-15T17:43:21Z</time>
			</trkpt>
			<trkpt lat="50.908438967957714" lon="6.711609522695494">
				<ele>124.0</ele>
				<time>2011-02-15T17:43:22Z</time>
			</trkpt>
			<trkpt lat="50.90847299172065" lon="6.711606759177186">
				<ele>124.0</ele>
				<time>2011-02-15T17:43:23Z</time>
			</trkpt>
			<trkpt lat="50.90850597350025" lon="6.711604169055129">
				<ele>124.0</ele>
				<time>2011-02-15T17:43:24Z</time>
			</trkpt>
			<trkpt lat="50.90853828625837" lon="6.711604638245619">
				<ele>124.0</ele>
				<time>2011-02-15T17:43:25Z</time>
			</trkpt>
			<trkpt lat="50.9085685559665" lon="6.711606041598912">
				<ele>124.0</ele>
				<time>2011-02-15T17:43:26Z</time>
			</trkpt>
			<trkpt lat="50.90860283379353" lon="6.711607478214745">
				<ele>124.0</ele>
				<time>2011-02-15T17:43:27Z</time>
			</trkpt>
			<trkpt lat="50.908642858626635" lon="6.711609126749842">
				<ele>124.0</ele>
				<time>2011-02-15T17:43:28Z</time>
			</trkpt>
			<trkpt lat="50.90868385335206" lon="6.711613125854698">
				<ele>124.0</ele>
				<time>2011-02-15T17:43:29Z</time>
			</trkpt>
			<trkpt lat="50.90872452284071" lon="6.711617983757002">
				<ele>124.0</ele>
				<time>2011-02-15T17:43:30Z</time>
			</trkpt>
			<trkpt lat="50.90876605371341" lon="6.711625225851018">
				<ele>124.0</ele>
				<time>2011-02-15T17:43:31Z</time>
			</trkpt>
			<trkpt lat="50.90880985323596" lon="6.711633779088748">
				<ele>124.0</ele>
				<time>2011-02-15T17:43:32Z</time>
			</trkpt>
			<trkpt lat="50.908853786034925" lon="6.711645967162063">
				<ele>124.0</ele>
				<time>2011-02-15T17:43:33Z</time>
			</trkpt>
			<trkpt lat="50.90889887184257" lon="6.711661233758758">
				<ele>124.0</ele>
				<time>2011-02-15T17:43:34Z</time>
			</trkpt>
			<trkpt lat="50.908938031290575" lon="6.711691505163594">
				<ele>124.0</ele>
				<time>2011-02-15T17:43:35Z</time>
			</trkpt>
			<trkpt lat="50.90897671470214" lon="6.711719066937919">
				<ele>124.0</ele>
				<time>2011-02-15T17:43:36Z</time>
			</trkpt>
			<trkpt lat="50.90901464099622" lon="6.711746212552381">
				<ele>124.0</ele>
				<time>2011-02-15T17:43:37Z</time>
			</trkpt>
			<trkpt lat="50.909052316187235" lon="6.711771193202966">
				<ele>124.0</ele>
				<time>2011-02-15T17:43:38Z</time>
			</trkpt>
			<trkpt lat="50.90909077989117" lon="6.711792367424624">
				<ele>124.0</ele>
				<time>2011-02-15T17:43:39Z</time>
			</trkpt>
			<trkpt lat="50.90912900565386" lon="6.711810979386657">
				<ele>124.0</ele>
				<time>2011-02-15T17:43:40Z</time>
			</trkpt>
			<trkpt lat="50.90916865780117" lon="6.711827207510371">
				<ele>124.0</ele>
				<time>2011-02-15T17:43:41Z</time>
			</trkpt>
			<trkpt lat="50.90920762824707" lon="6.711845428315297">
				<ele>124.0</ele>
				<time>2011-02-15T17:43:42Z</time>
			</trkpt>
			<trkpt lat="50.90924461873371" lon="6.711860141597543">
				<ele>124.0</ele>
				<time>2011-02-15T17:43:43Z</time>
			</trkpt>
			<trkpt lat="50.90927803330556" lon="6.711870217360424">
				<ele>124.0</ele>
				<time>2011-02-15T17:43:44Z</time>
			</trkpt>
			<trkpt lat="50.90931136896573" lon="6.711879328359189">
				<ele>124.0</ele>
				<time>2011-02-15T17:43:45Z</time>
			</trkpt>
			<trkpt lat="50.909346262723325" lon="6.711886049403282">
				<ele>123.0</ele>
				<time>2011-02-15T17:43:46Z</time>
			</trkpt>
			<trkpt lat="50.90938549371429" lon="6.711891973006822">
				<ele>123.0</ele>
				<time>2011-02-15T17:43:47Z</time>
			</trkpt>
			<trkpt lat="50.90942622968577" lon="6.711897606114387">
				<ele>123.0</ele>
				<time>2011-02-15T17:43:48Z</time>
			</trkpt>
			<trkpt lat="50.90946692274286" lon="6.711901794394406">
				<ele>123.0</ele>
				<time>2011-02-15T17:43:49Z</time>
			</trkpt>
			<trkpt lat="50.90950909827313" lon="6.711909370397612">
				<ele>122.0</ele>
				<time>2011-02-15T17:43:50Z</time>
			</trkpt>
			<trkpt lat="50.90955210866485" lon="6.711915211145073">
				<ele>122.0</ele>
				<time>2011-02-15T17:43:51Z</time>
			</trkpt>
			<trkpt lat="50.909595726756116" lon="6.711921895461061">
				<ele>122.0</ele>
				<time>2011-02-15T17:43:52Z</time>
			</trkpt>
			<trkpt lat="50.90963961234177" lon="6.711927707921058">
				<ele>122.0</ele>
				<time>2011-02-15T17:43:53Z</time>
			</trkpt>
			<trkpt lat="50.90968316804173" lon="6.711933447945462">
				<ele>122.0</ele>
				<time>2011-02-15T17:43:54Z</time>
			</trkpt>
			<trkpt lat="50.90972351545977" lon="6.71193077445241">
				<ele>121.0</ele>
				<time>2011-02-15T17:43:55Z</time>
			</trkpt>
			<trkpt lat="50.909764053924846" lon="6.71192761185073">
				<ele>121.0</ele>
				<time>2011-02-15T17:43:56Z</time>
			</trkpt>
			<trkpt lat="50.90980341191304" lon="6.711923783505527">
				<ele>121.0</ele>
				<time>2011-02-15T17:43:57Z</time>
			</trkpt>
			<trkpt lat="50.90983261863952" lon="6.711916808441776">
				<ele>121.0</ele>
				<time>2011-02-15T17:43:58Z</time>
			</trkpt>
			<trkpt lat="50.90985850877067" lon="6.711909891164689">
				<ele>121.0</ele>
				<time>2011-02-15T17:43:59Z</time>
			</trkpt>
			<trkpt lat="50.90988329940245" lon="6.711909296259818">
				<ele>121.0</ele>
				<time>2011-02-15T17:44:00Z</time>
			</trkpt>
			<trkpt lat="50.90990813329369" lon="6.711908277810428">
				<ele>121.0</ele>
				<time>2011-02-15T17:44:01Z</time>
			</trkpt>
			<trkpt lat="50.909932261972685" lon="6.711906765199578">
				<ele>121.0</ele>
				<time>2011-02-15T17:44:02Z</time>
			</trkpt>
			<trkpt lat="50.90995550051517" lon="6.711904092869457">
				<ele>121.0</ele>
				<time>2011-02-15T17:44:03Z</time>
			</trkpt>
			<trkpt lat="50.90995550051517" lon="6.711904092869457">
				<ele>121.0</ele>
				<time>2011-02-15T17:44:04Z</time>
			</trkpt>
			<trkpt lat="50.90995550051517" lon="6.711904092869457">
				<ele>121.0</ele>
				<time>2011-02-15T17:44:05Z</time>
			</trkpt>
			<trkpt lat="50.90995550051517" lon="6.711904092869457">
				<ele>121.0</ele>
				<time>2011-02-15T17:44:06Z</time>
			</trkpt>
			<trkpt lat="50.90995550051517" lon="6.711904092869457">
				<ele>121.0</ele>
				<time>2011-02-15T17:44:07Z</time>
			</trkpt>
			<trkpt lat="50.910046276167506" lon="6.711883729497013">
				<ele>121.0</ele>
				<time>2011-02-15T17:44:08Z</time>
			</trkpt>
			<trkpt lat="50.910046276167506" lon="6.711883729497013">
				<ele>121.0</ele>
				<time>2011-02-15T17:44:09Z</time>
			</trkpt>
			<trkpt lat="50.910046276167506" lon="6.711883729497013">
				<ele>121.0</ele>
				<time>2011-02-15T17:44:10Z</time>
			</trkpt>
			<trkpt lat="50.910046276167506" lon="6.711883729497013">
				<ele>121.0</ele>
				<time>2011-02-15T17:44:11Z</time>
			</trkpt>
			<trkpt lat="50.910046276167506" lon="6.711883729497013">
				<ele>121.0</ele>
				<time>2011-02-15T17:44:12Z</time>
			</trkpt>
			<trkpt lat="50.91014745220764" lon="6.711881466866098">
				<ele>121.0</ele>
				<time>2011-02-15T17:44:13Z</time>
			</trkpt>
			<trkpt lat="50.91014745220764" lon="6.711881466866098">
				<ele>121.0</ele>
				<time>2011-02-15T17:44:14Z</time>
			</trkpt>
			<trkpt lat="50.91014745220764" lon="6.711881466866098">
				<ele>121.0</ele>
				<time>2011-02-15T17:44:15Z</time>
			</trkpt>
			<trkpt lat="50.91014745220764" lon="6.711881466866098">
				<ele>121.0</ele>
				<time>2011-02-15T17:44:16Z</time>
			</trkpt>
			<trkpt lat="50.91024400138021" lon="6.711881295171492">
				<ele>121.0</ele>
				<time>2011-02-15T17:44:17Z</time>
			</trkpt>
			<trkpt lat="50.91024400138021" lon="6.711881295171492">
				<ele>121.0</ele>
				<time>2011-02-15T17:44:18Z</time>
			</trkpt>
			<trkpt lat="50.91024400138021" lon="6.711881295171492">
				<ele>121.0</ele>
				<time>2011-02-15T17:44:19Z</time>
			</trkpt>
			<trkpt lat="50.91024400138021" lon="6.711881295171492">
				<ele>121.0</ele>
				<time>2011-02-15T17:44:20Z</time>
			</trkpt>
			<trkpt lat="50.910340313406785" lon="6.711876331752753">
				<ele>121.0</ele>
				<time>2011-02-15T17:44:21Z</time>
			</trkpt>
			<trkpt lat="50.910340313406785" lon="6.711876331752753">
				<ele>121.0</ele>
				<time>2011-02-15T17:44:22Z</time>
			</trkpt>
			<trkpt lat="50.910340313406785" lon="6.711876331752753">
				<ele>121.0</ele>
				<time>2011-02-15T17:44:23Z</time>
			</trkpt>
			<trkpt lat="50.910340313406785" lon="6.711876331752753">
				<ele>121.0</ele>
				<time>2011-02-15T17:44:24Z</time>
			</trkpt>
			<trkpt lat="50.910340313406785" lon="6.711876331752753">
				<ele>121.0</ele>
				<time>2011-02-15T17:44:25Z</time>
			</trkpt>
			<trkpt lat="50.910340313406785" lon="6.711876331752753">
				<ele>121.0</ele>
				<time>2011-02-15T17:44:26Z</time>
			</trkpt>
			<trkpt lat="50.910340313406785" lon="6.711876331752753">
				<ele>121.0</ele>
				<time>2011-02-15T17:44:27Z</time>
			</trkpt>
			<trkpt lat="50.910340313406785" lon="6.711876331752753">
				<ele>121.0</ele>
				<time>2011-02-15T17:44:28Z</time>
			</trkpt>
			<trkpt lat="50.910340313406785" lon="6.711876331752753">
				<ele>121.0</ele>
				<time>2011-02-15T17:44:29Z</time>
			</trkpt>
			<trkpt lat="50.910340313406785" lon="6.711876331752753">
				<ele>121.0</ele>
				<time>2011-02-15T17:44:30Z</time>
			</trkpt>
			<trkpt lat="50.910340313406785" lon="6.711876331752753">
				<ele>121.0</ele>
				<time>2011-02-15T17:44:31Z</time>
			</trkpt>
			<trkpt lat="50.910340313406785" lon="6.711876331752753">
				<ele>121.0</ele>
				<time>2011-02-15T17:44:32Z</time>
			</trkpt>
			<trkpt lat="50.910340313406785" lon="6.711876331752753">
				<ele>121.0</ele>
				<time>2011-02-15T17:44:33Z</time>
			</trkpt>
			<trkpt lat="50.910340313406785" lon="6.711876331752753">
				<ele>121.0</ele>
				<time>2011-02-15T17:44:34Z</time>
			</trkpt>
			<trkpt lat="50.910340313406785" lon="6.711876331752753">
				<ele>121.0</ele>
				<time>2011-02-15T17:44:35Z</time>
			</trkpt>
			<trkpt lat="50.910340313406785" lon="6.711876331752753">
				<ele>121.0</ele>
				<time>2011-02-15T17:44:36Z</time>
			</trkpt>
			<trkpt lat="50.910340313406785" lon="6.711876331752753">
				<ele>121.0</ele>
				<time>2011-02-15T17:44:37Z</time>
			</trkpt>
			<trkpt lat="50.910340313406785" lon="6.711876331752753">
				<ele>121.0</ele>
				<time>2011-02-15T17:44:38Z</time>
			</trkpt>
			<trkpt lat="50.910340313406785" lon="6.711876331752753">
				<ele>121.0</ele>
				<time>2011-02-15T17:44:39Z</time>
			</trkpt>
			<trkpt lat="50.910340313406785" lon="6.711876331752753">
				<ele>121.0</ele>
				<time>2011-02-15T17:44:40Z</time>
			</trkpt>
			<trkpt lat="50.910340313406785" lon="6.711876331752753">
				<ele>121.0</ele>
				<time>2011-02-15T17:44:41Z</time>
			</trkpt>
			<trkpt lat="50.910340313406785" lon="6.711876331752753">
				<ele>121.0</ele>
				<time>2011-02-15T17:44:42Z</time>
			</trkpt>
			<trkpt lat="50.910340313406785" lon="6.711876331752753">
				<ele>121.0</ele>
				<time>2011-02-15T17:44:43Z</time>
			</trkpt>
			<trkpt lat="50.910340313406785" lon="6.711876331752753">
				<ele>121.0</ele>
				<time>2011-02-15T17:44:44Z</time>
			</trkpt>
			<trkpt lat="50.910340313406785" lon="6.711876331752753">
				<ele>121.0</ele>
				<time>2011-02-15T17:44:45Z</time>
			</trkpt>
			<trkpt lat="50.910340313406785" lon="6.711876331752753">
				<ele>121.0</ele>
				<time>2011-02-15T17:44:46Z</time>
			</trkpt>
			<trkpt lat="50.910340313406785" lon="6.711876331752753">
				<ele>121.0</ele>
				<time>2011-02-15T17:44:47Z</time>
			</trkpt>
			<trkpt lat="50.910340313406785" lon="6.711876331752753">
				<ele>121.0</ele>
				<time>2011-02-15T17:44:48Z</time>
			</trkpt>
			<trkpt lat="50.910340313406785" lon="6.711876331752753">
				<ele>121.0</ele>
				<time>2011-02-15T17:44:49Z</time>
			</trkpt>
			<trkpt lat="50.910340313406785" lon="6.711876331752753">
				<ele>121.0</ele>
				<time>2011-02-15T17:44:50Z</time>
			</trkpt>
			<trkpt lat="50.910340313406785" lon="6.711876331752753">
				<ele>121.0</ele>
				<time>2011-02-15T17:44:51Z</time>
			</trkpt>
			<trkpt lat="50.910340313406785" lon="6.711876331752753">
				<ele>121.0</ele>
				<time>2011-02-15T17:44:52Z</time>
			</trkpt>
			<trkpt lat="50.910340313406785" lon="6.711876331752753">
				<ele>121.0</ele>
				<time>2011-02-15T17:44:53Z</time>
			</trkpt>
			<trkpt lat="50.910340313406785" lon="6.711876331752753">
				<ele>121.0</ele>
				<time>2011-02-15T17:44:54Z</time>
			</trkpt>
			<trkpt lat="50.910340313406785" lon="6.711876331752753">
				<ele>121.0</ele>
				<time>2011-02-15T17:44:55Z</time>
			</trkpt>
			<trkpt lat="50.910340313406785" lon="6.711876331752753">
				<ele>121.0</ele>
				<time>2011-02-15T17:44:56Z</time>
			</trkpt>
			<trkpt lat="50.910340313406785" lon="6.711876331752753">
				<ele>121.0</ele>
				<time>2011-02-15T17:44:57Z</time>
			</trkpt>
			<trkpt lat="50.910340313406785" lon="6.711876331752753">
				<ele>121.0</ele>
				<time>2011-02-15T17:44:58Z</time>
			</trkpt>
			<trkpt lat="50.910340313406785" lon="6.711876331752753">
				<ele>121.0</ele>
				<time>2011-02-15T17:44:59Z</time>
			</trkpt>
			<trkpt lat="50.910340313406785" lon="6.711876331752753">
				<ele>121.0</ele>
				<time>2011-02-15T17:45:00Z</time>
			</trkpt>
			<trkpt lat="50.910340313406785" lon="6.711876331752753">
				<ele>121.0</ele>
				<time>2011-02-15T17:45:01Z</time>
			</trkpt>
			<trkpt lat="50.910340313406785" lon="6.711876331752753">
				<ele>121.0</ele>
				<time>2011-02-15T17:45:02Z</time>
			</trkpt>
			<trkpt lat="50.910340313406785" lon="6.711876331752753">
				<ele>121.0</ele>
				<time>2011-02-15T17:45:03Z</time>
			</trkpt>
			<trkpt lat="50.910397585092255" lon="6.711861922627658">
				<ele>121.0</ele>
				<time>2011-02-15T17:45:04Z</time>
			</trkpt>
			<trkpt lat="50.910397585092255" lon="6.711861922627658">
				<ele>121.0</ele>
				<time>2011-02-15T17:45:05Z</time>
			</trkpt>
			<trkpt lat="50.91048128503368" lon="6.711850607724663">
				<ele>121.0</ele>
				<time>2011-02-15T17:45:06Z</time>
			</trkpt>
			<trkpt lat="50.91048128503368" lon="6.711850607724663">
				<ele>121.0</ele>
				<time>2011-02-15T17:45:07Z</time>
			</trkpt>
			<trkpt lat="50.91055413318646" lon="6.711849813248076">
				<ele>121.0</ele>
				<time>2011-02-15T17:45:08Z</time>
			</trkpt>
			<trkpt lat="50.91055413318646" lon="6.711849813248076">
				<ele>121.0</ele>
				<time>2011-02-15T17:45:09Z</time>
			</trkpt>
			<trkpt lat="50.91062026871259" lon="6.711857674041803">
				<ele>121.0</ele>
				<time>2011-02-15T17:45:10Z</time>
			</trkpt>
			<trkpt lat="50.91062026871259" lon="6.711857674041803">
				<ele>121.0</ele>
				<time>2011-02-15T17:45:11Z</time>
			</trkpt>
			<trkpt lat="50.91068059142264" lon="6.7118611109431985">
				<ele>121.0</ele>
				<time>2011-02-15T17:45:12Z</time>
			</trkpt>
			<trkpt lat="50.910709235334835" lon="6.711858900776844">
				<ele>121.0</ele>
				<time>2011-02-15T17:45:13Z</time>
			</trkpt>
			<trkpt lat="50.91073735738162" lon="6.711854589671411">
				<ele>122.0</ele>
				<time>2011-02-15T17:45:14Z</time>
			</trkpt>
			<trkpt lat="50.910763275267215" lon="6.711848858157567">
				<ele>122.0</ele>
				<time>2011-02-15T17:45:15Z</time>
			</trkpt>
			<trkpt lat="50.910763275267215" lon="6.711848858157567">
				<ele>122.0</ele>
				<time>2011-02-15T17:45:16Z</time>
			</trkpt>
			<trkpt lat="50.910763275267215" lon="6.711848858157567">
				<ele>122.0</ele>
				<time>2011-02-15T17:45:17Z</time>
			</trkpt>
			<trkpt lat="50.91080908727451" lon="6.7118332383803985">
				<ele>122.0</ele>
				<time>2011-02-15T17:45:18Z</time>
			</trkpt>
			<trkpt lat="50.91080908727451" lon="6.7118332383803985">
				<ele>122.0</ele>
				<time>2011-02-15T17:45:19Z</time>
			</trkpt>
			<trkpt lat="50.91080908727451" lon="6.7118332383803985">
				<ele>122.0</ele>
				<time>2011-02-15T17:45:20Z</time>
			</trkpt>
			<trkpt lat="50.91080908727451" lon="6.7118332383803985">
				<ele>122.0</ele>
				<time>2011-02-15T17:45:21Z</time>
			</trkpt>
			<trkpt lat="50.91080908727451" lon="6.7118332383803985">
				<ele>122.0</ele>
				<time>2011-02-15T17:45:22Z</time>
			</trkpt>
			<trkpt lat="50.91080908727451" lon="6.7118332383803985">
				<ele>122.0</ele>
				<time>2011-02-15T17:45:23Z</time>
			</trkpt>
			<trkpt lat="50.91080908727451" lon="6.7118332383803985">
				<ele>122.0</ele>
				<time>2011-02-15T17:45:24Z</time>
			</trkpt>
			<trkpt lat="50.91080908727451" lon="6.7118332383803985">
				<ele>122.0</ele>
				<time>2011-02-15T17:45:25Z</time>
			</trkpt>
			<trkpt lat="50.91080908727451" lon="6.7118332383803985">
				<ele>122.0</ele>
				<time>2011-02-15T17:45:26Z</time>
			</trkpt>
			<trkpt lat="50.91080908727451" lon="6.7118332383803985">
				<ele>122.0</ele>
				<time>2011-02-15T17:45:27Z</time>
			</trkpt>
			<trkpt lat="50.91080908727451" lon="6.7118332383803985">
				<ele>122.0</ele>
				<time>2011-02-15T17:45:28Z</time>
			</trkpt>
			<trkpt lat="50.91080908727451" lon="6.7118332383803985">
				<ele>122.0</ele>
				<time>2011-02-15T17:45:29Z</time>
			</trkpt>
			<trkpt lat="50.91080908727451" lon="6.7118332383803985">
				<ele>122.0</ele>
				<time>2011-02-15T17:45:30Z</time>
			</trkpt>
			<trkpt lat="50.91086277236206" lon="6.711811710484096">
				<ele>122.0</ele>
				<time>2011-02-15T17:45:31Z</time>
			</trkpt>
			<trkpt lat="50.91086277236206" lon="6.711811710484096">
				<ele>122.0</ele>
				<time>2011-02-15T17:45:32Z</time>
			</trkpt>
			<trkpt lat="50.91086277236206" lon="6.711811710484096">
				<ele>122.0</ele>
				<time>2011-02-15T17:45:33Z</time>
			</trkpt>
			<trkpt lat="50.910910440614174" lon="6.711800425798394">
				<ele>122.0</ele>
				<time>2011-02-15T17:45:34Z</time>
			</trkpt>
			<trkpt lat="50.910910440614174" lon="6.711800425798394">
				<ele>122.0</ele>
				<time>2011-02-15T17:45:35Z</time>
			</trkpt>
			<trkpt lat="50.910910440614174" lon="6.711800425798394">
				<ele>122.0</ele>
				<time>2011-02-15T17:45:36Z</time>
			</trkpt>
			<trkpt lat="50.910910440614174" lon="6.711800425798394">
				<ele>122.0</ele>
				<time>2011-02-15T17:45:37Z</time>
			</trkpt>
			<trkpt lat="50.91097723887394" lon="6.711789478052026">
				<ele>122.0</ele>
				<time>2011-02-15T17:45:38Z</time>
			</trkpt>
			<trkpt lat="50.91097723887394" lon="6.711789478052026">
				<ele>122.0</ele>
				<time>2011-02-15T17:45:39Z</time>
			</trkpt>
			<trkpt lat="50.91097723887394" lon="6.711789478052026">
				<ele>122.0</ele>
				<time>2011-02-15T17:45:40Z</time>
			</trkpt>
			<trkpt lat="50.911025731477764" lon="6.711782790368097">
				<ele>122.0</ele>
				<time>2011-02-15T17:45:41Z</time>
			</trkpt>
			<trkpt lat="50.911025731477764" lon="6.711782790368097">
				<ele>122.0</ele>
				<time>2011-02-15T17:45:42Z</time>
			</trkpt>
			<trkpt lat="50.911025731477764" lon="6.711782790368097">
				<ele>122.0</ele>
				<time>2011-02-15T17:45:43Z</time>
			</trkpt>
			<trkpt lat="50.911025731477764" lon="6.711782790368097">
				<ele>122.0</ele>
				<time>2011-02-15T17:45:44Z</time>
			</trkpt>
			<trkpt lat="50.911025731477764" lon="6.711782790368097">
				<ele>122.0</ele>
				<time>2011-02-15T17:45:45Z</time>
			</trkpt>
			<trkpt lat="50.911025731477764" lon="6.711782790368097">
				<ele>122.0</ele>
				<time>2011-02-15T17:45:46Z</time>
			</trkpt>
			<trkpt lat="50.911025731477764" lon="6.711782790368097">
				<ele>122.0</ele>
				<time>2011-02-15T17:45:47Z</time>
			</trkpt>
			<trkpt lat="50.911025731477764" lon="6.711782790368097">
				<ele>122.0</ele>
				<time>2011-02-15T17:45:48Z</time>
			</trkpt>
			<trkpt lat="50.911025731477764" lon="6.711782790368097">
				<ele>122.0</ele>
				<time>2011-02-15T17:45:49Z</time>
			</trkpt>
			<trkpt lat="50.911025731477764" lon="6.711782790368097">
				<ele>122.0</ele>
				<time>2011-02-15T17:45:50Z</time>
			</trkpt>
			<trkpt lat="50.911025731477764" lon="6.711782790368097">
				<ele>122.0</ele>
				<time>2011-02-15T17:45:51Z</time>
			</trkpt>
			<trkpt lat="50.911025731477764" lon="6.711782790368097">
				<ele>122.0</ele>
				<time>2011-02-15T17:45:52Z</time>
			</trkpt>
			<trkpt lat="50.911025731477764" lon="6.711782790368097">
				<ele>122.0</ele>
				<time>2011-02-15T17:45:53Z</time>
			</trkpt>
			<trkpt lat="50.911025731477764" lon="6.711782790368097">
				<ele>122.0</ele>
				<time>2011-02-15T17:45:54Z</time>
			</trkpt>
			<trkpt lat="50.911025731477764" lon="6.711782790368097">
				<ele>122.0</ele>
				<time>2011-02-15T17:45:55Z</time>
			</trkpt>
			<trkpt lat="50.911025731477764" lon="6.711782790368097">
				<ele>122.0</ele>
				<time>2011-02-15T17:45:56Z</time>
			</trkpt>
			<trkpt lat="50.911025731477764" lon="6.711782790368097">
				<ele>122.0</ele>
				<time>2011-02-15T17:45:57Z</time>
			</trkpt>
			<trkpt lat="50.911025731477764" lon="6.711782790368097">
				<ele>122.0</ele>
				<time>2011-02-15T17:45:58Z</time>
			</trkpt>
			<trkpt lat="50.911025731477764" lon="6.711782790368097">
				<ele>122.0</ele>
				<time>2011-02-15T17:45:59Z</time>
			</trkpt>
			<trkpt lat="50.911025731477764" lon="6.711782790368097">
				<ele>122.0</ele>
				<time>2011-02-15T17:46:00Z</time>
			</trkpt>
			<trkpt lat="50.911025731477764" lon="6.711782790368097">
				<ele>122.0</ele>
				<time>2011-02-15T17:46:01Z</time>
			</trkpt>
			<trkpt lat="50.911025731477764" lon="6.711782790368097">
				<ele>122.0</ele>
				<time>2011-02-15T17:46:02Z</time>
			</trkpt>
			<trkpt lat="50.911025731477764" lon="6.711782790368097">
				<ele>122.0</ele>
				<time>2011-02-15T17:46:03Z</time>
			</trkpt>
			<trkpt lat="50.911025731477764" lon="6.711782790368097">
				<ele>122.0</ele>
				<time>2011-02-15T17:46:04Z</time>
			</trkpt>
			<trkpt lat="50.91108459505911" lon="6.71181460408302">
				<ele>123.0</ele>
				<time>2011-02-15T17:46:05Z</time>
			</trkpt>
			<trkpt lat="50.91108459505911" lon="6.71181460408302">
				<ele>123.0</ele>
				<time>2011-02-15T17:46:06Z</time>
			</trkpt>
			<trkpt lat="50.91108459505911" lon="6.71181460408302">
				<ele>123.0</ele>
				<time>2011-02-15T17:46:07Z</time>
			</trkpt>
			<trkpt lat="50.91115393374114" lon="6.711798775750766">
				<ele>123.0</ele>
				<time>2011-02-15T17:46:08Z</time>
			</trkpt>
			<trkpt lat="50.911184383160474" lon="6.711791333430173">
				<ele>123.0</ele>
				<time>2011-02-15T17:46:09Z</time>
			</trkpt>
			<trkpt lat="50.9112139477574" lon="6.711784166474579">
				<ele>123.0</ele>
				<time>2011-02-15T17:46:10Z</time>
			</trkpt>
			<trkpt lat="50.911244648968456" lon="6.711776685580074">
				<ele>123.0</ele>
				<time>2011-02-15T17:46:11Z</time>
			</trkpt>
			<trkpt lat="50.9112779546498" lon="6.711769732647033">
				<ele>123.0</ele>
				<time>2011-02-15T17:46:12Z</time>
			</trkpt>
			<trkpt lat="50.91131126075682" lon="6.711762710177177">
				<ele>123.0</ele>
				<time>2011-02-15T17:46:13Z</time>
			</trkpt>
			<trkpt lat="50.9113439603174" lon="6.711754385677435">
				<ele>123.0</ele>
				<time>2011-02-15T17:46:14Z</time>
			</trkpt>
			<trkpt lat="50.91137813904908" lon="6.711745535893139">
				<ele>123.0</ele>
				<time>2011-02-15T17:46:15Z</time>
			</trkpt>
			<trkpt lat="50.91141506987966" lon="6.711736012892509">
				<ele>123.0</ele>
				<time>2011-02-15T17:46:16Z</time>
			</trkpt>
			<trkpt lat="50.911452040884825" lon="6.711726493789191">
				<ele>123.0</ele>
				<time>2011-02-15T17:46:17Z</time>
			</trkpt>
			<trkpt lat="50.911489340122436" lon="6.711718320859836">
				<ele>123.0</ele>
				<time>2011-02-15T17:46:18Z</time>
			</trkpt>
			<trkpt lat="50.911526801422134" lon="6.711711248720856">
				<ele>123.0</ele>
				<time>2011-02-15T17:46:19Z</time>
			</trkpt>
			<trkpt lat="50.911564101750386" lon="6.711703916905623">
				<ele>123.0</ele>
				<time>2011-02-15T17:46:20Z</time>
			</trkpt>
			<trkpt lat="50.91160115716866" lon="6.711696475257889">
				<ele>123.0</ele>
				<time>2011-02-15T17:46:21Z</time>
			</trkpt>
			<trkpt lat="50.91163790354562" lon="6.711689010798537">
				<ele>124.0</ele>
				<time>2011-02-15T17:46:22Z</time>
			</trkpt>
			<trkpt lat="50.911674150128654" lon="6.71168167315417">
				<ele>124.0</ele>
				<time>2011-02-15T17:46:23Z</time>
			</trkpt>
			<trkpt lat="50.911710265204995" lon="6.711674298209915">
				<ele>124.0</ele>
				<time>2011-02-15T17:46:24Z</time>
			</trkpt>
			<trkpt lat="50.91174499985146" lon="6.7116656616914145">
				<ele>124.0</ele>
				<time>2011-02-15T17:46:25Z</time>
			</trkpt>
			<trkpt lat="50.911777733631276" lon="6.711656460129764">
				<ele>124.0</ele>
				<time>2011-02-15T17:46:26Z</time>
			</trkpt>
			<trkpt lat="50.91180683308232" lon="6.711648130797923">
				<ele>124.0</ele>
				<time>2011-02-15T17:46:27Z</time>
			</trkpt>
			<trkpt lat="50.91183013518718" lon="6.71164016214491">
				<ele>124.0</ele>
				<time>2011-02-15T17:46:28Z</time>
			</trkpt>
			<trkpt lat="50.91183013518718" lon="6.71164016214491">
				<ele>124.0</ele>
				<time>2011-02-15T17:46:29Z</time>
			</trkpt>
			<trkpt lat="50.91183013518718" lon="6.71164016214491">
				<ele>124.0</ele>
				<time>2011-02-15T17:46:30Z</time>
			</trkpt>
			<trkpt lat="50.91183013518718" lon="6.71164016214491">
				<ele>124.0</ele>
				<time>2011-02-15T17:46:31Z</time>
			</trkpt>
			<trkpt lat="50.91183013518718" lon="6.71164016214491">
				<ele>124.0</ele>
				<time>2011-02-15T17:46:32Z</time>
			</trkpt>
			<trkpt lat="50.91183013518718" lon="6.71164016214491">
				<ele>124.0</ele>
				<time>2011-02-15T17:46:33Z</time>
			</trkpt>
			<trkpt lat="50.91183013518718" lon="6.71164016214491">
				<ele>124.0</ele>
				<time>2011-02-15T17:46:34Z</time>
			</trkpt>
			<trkpt lat="50.91183013518718" lon="6.71164016214491">
				<ele>124.0</ele>
				<time>2011-02-15T17:46:35Z</time>
			</trkpt>
			<trkpt lat="50.91183013518718" lon="6.71164016214491">
				<ele>124.0</ele>
				<time>2011-02-15T17:46:36Z</time>
			</trkpt>
			<trkpt lat="50.91183013518718" lon="6.71164016214491">
				<ele>124.0</ele>
				<time>2011-02-15T17:46:37Z</time>
			</trkpt>
			<trkpt lat="50.91183013518718" lon="6.71164016214491">
				<ele>124.0</ele>
				<time>2011-02-15T17:46:38Z</time>
			</trkpt>
			<trkpt lat="50.91183013518718" lon="6.71164016214491">
				<ele>124.0</ele>
				<time>2011-02-15T17:46:39Z</time>
			</trkpt>
			<trkpt lat="50.91183013518718" lon="6.71164016214491">
				<ele>124.0</ele>
				<time>2011-02-15T17:46:40Z</time>
			</trkpt>
			<trkpt lat="50.91183013518718" lon="6.71164016214491">
				<ele>124.0</ele>
				<time>2011-02-15T17:46:41Z</time>
			</trkpt>
			<trkpt lat="50.91183013518718" lon="6.71164016214491">
				<ele>124.0</ele>
				<time>2011-02-15T17:46:42Z</time>
			</trkpt>
			<trkpt lat="50.91183013518718" lon="6.71164016214491">
				<ele>124.0</ele>
				<time>2011-02-15T17:46:43Z</time>
			</trkpt>
			<trkpt lat="50.91183013518718" lon="6.71164016214491">
				<ele>124.0</ele>
				<time>2011-02-15T17:46:44Z</time>
			</trkpt>
			<trkpt lat="50.91183013518718" lon="6.71164016214491">
				<ele>124.0</ele>
				<time>2011-02-15T17:46:45Z</time>
			</trkpt>
			<trkpt lat="50.91183013518718" lon="6.71164016214491">
				<ele>124.0</ele>
				<time>2011-02-15T17:46:46Z</time>
			</trkpt>
			<trkpt lat="50.91183013518718" lon="6.71164016214491">
				<ele>124.0</ele>
				<time>2011-02-15T17:46:47Z</time>
			</trkpt>
			<trkpt lat="50.91183013518718" lon="6.71164016214491">
				<ele>124.0</ele>
				<time>2011-02-15T17:46:48Z</time>
			</trkpt>
			<trkpt lat="50.91183013518718" lon="6.71164016214491">
				<ele>124.0</ele>
				<time>2011-02-15T17:46:49Z</time>
			</trkpt>
			<trkpt lat="50.91183013518718" lon="6.71164016214491">
				<ele>124.0</ele>
				<time>2011-02-15T17:46:50Z</time>
			</trkpt>
			<trkpt lat="50.91183013518718" lon="6.71164016214491">
				<ele>124.0</ele>
				<time>2011-02-15T17:46:51Z</time>
			</trkpt>
			<trkpt lat="50.91183013518718" lon="6.71164016214491">
				<ele>124.0</ele>
				<time>2011-02-15T17:46:52Z</time>
			</trkpt>
			<trkpt lat="50.91183013518718" lon="6.71164016214491">
				<ele>124.0</ele>
				<time>2011-02-15T17:46:53Z</time>
			</trkpt>
			<trkpt lat="50.91183013518718" lon="6.71164016214491">
				<ele>124.0</ele>
				<time>2011-02-15T17:46:54Z</time>
			</trkpt>
			<trkpt lat="50.91183013518718" lon="6.71164016214491">
				<ele>124.0</ele>
				<time>2011-02-15T17:46:55Z</time>
			</trkpt>
			<trkpt lat="50.91183013518718" lon="6.71164016214491">
				<ele>124.0</ele>
				<time>2011-02-15T17:46:56Z</time>
			</trkpt>
			<trkpt lat="50.91183013518718" lon="6.71164016214491">
				<ele>124.0</ele>
				<time>2011-02-15T17:46:57Z</time>
			</trkpt>
			<trkpt lat="50.91187069806593" lon="6.711625761810417">
				<ele>124.0</ele>
				<time>2011-02-15T17:46:58Z</time>
			</trkpt>
			<trkpt lat="50.91187925623869" lon="6.711619485589448">
				<ele>124.0</ele>
				<time>2011-02-15T17:46:59Z</time>
			</trkpt>
			<trkpt lat="50.91189561430465" lon="6.711608830743193">
				<ele>124.0</ele>
				<time>2011-02-15T17:47:00Z</time>
			</trkpt>
			<trkpt lat="50.91191668206305" lon="6.711596979303836">
				<ele>124.0</ele>
				<time>2011-02-15T17:47:01Z</time>
			</trkpt>
			<trkpt lat="50.91194062987856" lon="6.711584943082038">
				<ele>124.0</ele>
				<time>2011-02-15T17:47:02Z</time>
			</trkpt>
			<trkpt lat="50.911966893486905" lon="6.7115728131675585">
				<ele>124.0</ele>
				<time>2011-02-15T17:47:03Z</time>
			</trkpt>
			<trkpt lat="50.911993766092436" lon="6.7115603777844">
				<ele>124.0</ele>
				<time>2011-02-15T17:47:04Z</time>
			</trkpt>
			<trkpt lat="50.91202314551339" lon="6.711549852438724">
				<ele>124.0</ele>
				<time>2011-02-15T17:47:05Z</time>
			</trkpt>
			<trkpt lat="50.91205408127411" lon="6.711538983345127">
				<ele>124.0</ele>
				<time>2011-02-15T17:47:06Z</time>
			</trkpt>
			<trkpt lat="50.91208608611514" lon="6.711527662456444">
				<ele>124.0</ele>
				<time>2011-02-15T17:47:07Z</time>
			</trkpt>
			<trkpt lat="50.91211929917892" lon="6.711516149410902">
				<ele>124.0</ele>
				<time>2011-02-15T17:47:08Z</time>
			</trkpt>
			<trkpt lat="50.91215342596179" lon="6.711504266401434">
				<ele>124.0</ele>
				<time>2011-02-15T17:47:09Z</time>
			</trkpt>
			<trkpt lat="50.91218897949709" lon="6.71149205791277">
				<ele>124.0</ele>
				<time>2011-02-15T17:47:10Z</time>
			</trkpt>
			<trkpt lat="50.91222584834246" lon="6.711480811167171">
				<ele>124.0</ele>
				<time>2011-02-15T17:47:11Z</time>
			</trkpt>
			<trkpt lat="50.912263719061386" lon="6.711470078849235">
				<ele>124.0</ele>
				<time>2011-02-15T17:47:12Z</time>
			</trkpt>
			<trkpt lat="50.91230255775042" lon="6.7114590467960875">
				<ele>124.0</ele>
				<time>2011-02-15T17:47:13Z</time>
			</trkpt>
			<trkpt lat="50.91234251446562" lon="6.711447865174062">
				<ele>124.0</ele>
				<time>2011-02-15T17:47:14Z</time>
			</trkpt>
			<trkpt lat="50.912383874347256" lon="6.711435639931491">
				<ele>124.0</ele>
				<time>2011-02-15T17:47:15Z</time>
			</trkpt>
			<trkpt lat="50.91242662978367" lon="6.711422446326774">
				<ele>124.0</ele>
				<time>2011-02-15T17:47:16Z</time>
			</trkpt>
			<trkpt lat="50.91251350150148" lon="6.711394022335806">
				<ele>124.0</ele>
				<time>2011-02-15T17:47:17Z</time>
			</trkpt>
			<trkpt lat="50.91255665032391" lon="6.7113769956695">
				<ele>124.0</ele>
				<time>2011-02-15T17:47:18Z</time>
			</trkpt>
			<trkpt lat="50.91259980586612" lon="6.7113595888512565">
				<ele>124.0</ele>
				<time>2011-02-15T17:47:19Z</time>
			</trkpt>
			<trkpt lat="50.912641854625804" lon="6.711340209439761">
				<ele>124.0</ele>
				<time>2011-02-15T17:47:20Z</time>
			</trkpt>
			<trkpt lat="50.91268229903718" lon="6.711320469486144">
				<ele>124.0</ele>
				<time>2011-02-15T17:47:21Z</time>
			</trkpt>
			<trkpt lat="50.91272173134239" lon="6.711301509179217">
				<ele>124.0</ele>
				<time>2011-02-15T17:47:22Z</time>
			</trkpt>
			<trkpt lat="50.91276063010542" lon="6.711283683549547">
				<ele>124.0</ele>
				<time>2011-02-15T17:47:23Z</time>
			</trkpt>
			<trkpt lat="50.912797591209525" lon="6.711266078882984">
				<ele>124.0</ele>
				<time>2011-02-15T17:47:24Z</time>
			</trkpt>
			<trkpt lat="50.912834419070876" lon="6.711247806194021">
				<ele>124.0</ele>
				<time>2011-02-15T17:47:25Z</time>
			</trkpt>
			<trkpt lat="50.912869933712685" lon="6.71122942825518">
				<ele>124.0</ele>
				<time>2011-02-15T17:47:26Z</time>
			</trkpt>
			<trkpt lat="50.9129047490153" lon="6.711208381187213">
				<ele>124.0</ele>
				<time>2011-02-15T17:47:27Z</time>
			</trkpt>
			<trkpt lat="50.912939427509336" lon="6.711186169919252">
				<ele>124.0</ele>
				<time>2011-02-15T17:47:28Z</time>
			</trkpt>
			<trkpt lat="50.91297444600756" lon="6.7111639291551155">
				<ele>124.0</ele>
				<time>2011-02-15T17:47:29Z</time>
			</trkpt>
			<trkpt lat="50.91300800855624" lon="6.71113764159671">
				<ele>124.0</ele>
				<time>2011-02-15T17:47:30Z</time>
			</trkpt>
			<trkpt lat="50.91304026483199" lon="6.71110876891467">
				<ele>124.0</ele>
				<time>2011-02-15T17:47:31Z</time>
			</trkpt>
			<trkpt lat="50.91307295803894" lon="6.711080621232865">
				<ele>124.0</ele>
				<time>2011-02-15T17:47:32Z</time>
			</trkpt>
			<trkpt lat="50.91310580185436" lon="6.711052835474092">
				<ele>124.0</ele>
				<time>2011-02-15T17:47:33Z</time>
			</trkpt>
			<trkpt lat="50.9131390632657" lon="6.711030360763544">
				<ele>124.0</ele>
				<time>2011-02-15T17:47:34Z</time>
			</trkpt>
			<trkpt lat="50.91317211270573" lon="6.711006891322664">
				<ele>124.0</ele>
				<time>2011-02-15T17:47:35Z</time>
			</trkpt>
			<trkpt lat="50.91320445384421" lon="6.7109838628991785">
				<ele>124.0</ele>
				<time>2011-02-15T17:47:36Z</time>
			</trkpt>
			<trkpt lat="50.9132350811887" lon="6.710963270177672">
				<ele>124.0</ele>
				<time>2011-02-15T17:47:37Z</time>
			</trkpt>
			<trkpt lat="50.91326568776888" lon="6.710942842613606">
				<ele>124.0</ele>
				<time>2011-02-15T17:47:38Z</time>
			</trkpt>
			<trkpt lat="50.913289892216206" lon="6.710926532502788">
				<ele>124.0</ele>
				<time>2011-02-15T17:47:39Z</time>
			</trkpt>
			<trkpt lat="50.91331505199305" lon="6.710910588986331">
				<ele>124.0</ele>
				<time>2011-02-15T17:47:40Z</time>
			</trkpt>
			<trkpt lat="50.91334036291298" lon="6.710891924121834">
				<ele>124.0</ele>
				<time>2011-02-15T17:47:41Z</time>
			</trkpt>
			<trkpt lat="50.9133669366394" lon="6.7108723355343525">
				<ele>123.0</ele>
				<time>2011-02-15T17:47:42Z</time>
			</trkpt>
			<trkpt lat="50.91339288164357" lon="6.7108508445021835">
				<ele>123.0</ele>
				<time>2011-02-15T17:47:43Z</time>
			</trkpt>
			<trkpt lat="50.913418072049886" lon="6.7108277551535656">
				<ele>123.0</ele>
				<time>2011-02-15T17:47:44Z</time>
			</trkpt>
			<trkpt lat="50.91344138448468" lon="6.710805303446315">
				<ele>123.0</ele>
				<time>2011-02-15T17:47:45Z</time>
			</trkpt>
			<trkpt lat="50.913464843054236" lon="6.710783108594611">
				<ele>123.0</ele>
				<time>2011-02-15T17:47:46Z</time>
			</trkpt>
			<trkpt lat="50.91348807171318" lon="6.71075932173328">
				<ele>123.0</ele>
				<time>2011-02-15T17:47:47Z</time>
			</trkpt>
			<trkpt lat="50.9135098440714" lon="6.710735221732184">
				<ele>123.0</ele>
				<time>2011-02-15T17:47:48Z</time>
			</trkpt>
			<trkpt lat="50.913532128323624" lon="6.710712912129989">
				<ele>123.0</ele>
				<time>2011-02-15T17:47:49Z</time>
			</trkpt>
			<trkpt lat="50.91355391321125" lon="6.710689930504849">
				<ele>123.0</ele>
				<time>2011-02-15T17:47:50Z</time>
			</trkpt>
			<trkpt lat="50.913573501516844" lon="6.710667882412265">
				<ele>123.0</ele>
				<time>2011-02-15T17:47:51Z</time>
			</trkpt>
			<trkpt lat="50.913573501516844" lon="6.710667882412265">
				<ele>123.0</ele>
				<time>2011-02-15T17:47:52Z</time>
			</trkpt>
			<trkpt lat="50.913573501516844" lon="6.710667882412265">
				<ele>123.0</ele>
				<time>2011-02-15T17:47:53Z</time>
			</trkpt>
			<trkpt lat="50.913573501516844" lon="6.710667882412265">
				<ele>123.0</ele>
				<time>2011-02-15T17:47:54Z</time>
			</trkpt>
			<trkpt lat="50.913573501516844" lon="6.710667882412265">
				<ele>123.0</ele>
				<time>2011-02-15T17:47:55Z</time>
			</trkpt>
			<trkpt lat="50.913573501516844" lon="6.710667882412265">
				<ele>123.0</ele>
				<time>2011-02-15T17:47:56Z</time>
			</trkpt>
			<trkpt lat="50.913667795204525" lon="6.7105861100514455">
				<ele>123.0</ele>
				<time>2011-02-15T17:47:57Z</time>
			</trkpt>
			<trkpt lat="50.913667795204525" lon="6.7105861100514455">
				<ele>123.0</ele>
				<time>2011-02-15T17:47:58Z</time>
			</trkpt>
			<trkpt lat="50.913667795204525" lon="6.7105861100514455">
				<ele>123.0</ele>
				<time>2011-02-15T17:47:59Z</time>
			</trkpt>
			<trkpt lat="50.913667795204525" lon="6.7105861100514455">
				<ele>123.0</ele>
				<time>2011-02-15T17:48:00Z</time>
			</trkpt>
			<trkpt lat="50.913780555775716" lon="6.710578552782695">
				<ele>123.0</ele>
				<time>2011-02-15T17:48:01Z</time>
			</trkpt>
			<trkpt lat="50.913810138574924" lon="6.710585770966906">
				<ele>122.0</ele>
				<time>2011-02-15T17:48:02Z</time>
			</trkpt>
			<trkpt lat="50.91384207303552" lon="6.710590738318303">
				<ele>122.0</ele>
				<time>2011-02-15T17:48:03Z</time>
			</trkpt>
			<trkpt lat="50.91384207303552" lon="6.710590738318303">
				<ele>122.0</ele>
				<time>2011-02-15T17:48:04Z</time>
			</trkpt>
			<trkpt lat="50.91384207303552" lon="6.710590738318303">
				<ele>122.0</ele>
				<time>2011-02-15T17:48:05Z</time>
			</trkpt>
			<trkpt lat="50.91384207303552" lon="6.710590738318303">
				<ele>122.0</ele>
				<time>2011-02-15T17:48:06Z</time>
			</trkpt>
			<trkpt lat="50.91384207303552" lon="6.710590738318303">
				<ele>122.0</ele>
				<time>2011-02-15T17:48:07Z</time>
			</trkpt>
			<trkpt lat="50.913936020312" lon="6.710590517702349">
				<ele>122.0</ele>
				<time>2011-02-15T17:48:08Z</time>
			</trkpt>
			<trkpt lat="50.913936020312" lon="6.710590517702349">
				<ele>122.0</ele>
				<time>2011-02-15T17:48:09Z</time>
			</trkpt>
			<trkpt lat="50.913936020312" lon="6.710590517702349">
				<ele>122.0</ele>
				<time>2011-02-15T17:48:10Z</time>
			</trkpt>
			<trkpt lat="50.913936020312" lon="6.710590517702349">
				<ele>122.0</ele>
				<time>2011-02-15T17:48:11Z</time>
			</trkpt>
			<trkpt lat="50.913936020312" lon="6.710590517702349">
				<ele>122.0</ele>
				<time>2011-02-15T17:48:12Z</time>
			</trkpt>
			<trkpt lat="50.913936020312" lon="6.710590517702349">
				<ele>122.0</ele>
				<time>2011-02-15T17:48:13Z</time>
			</trkpt>
			<trkpt lat="50.913936020312" lon="6.710590517702349">
				<ele>122.0</ele>
				<time>2011-02-15T17:48:14Z</time>
			</trkpt>
			<trkpt lat="50.913936020312" lon="6.710590517702349">
				<ele>122.0</ele>
				<time>2011-02-15T17:48:15Z</time>
			</trkpt>
			<trkpt lat="50.913936020312" lon="6.710590517702349">
				<ele>122.0</ele>
				<time>2011-02-15T17:48:16Z</time>
			</trkpt>
			<trkpt lat="50.913936020312" lon="6.710590517702349">
				<ele>122.0</ele>
				<time>2011-02-15T17:48:17Z</time>
			</trkpt>
			<trkpt lat="50.913936020312" lon="6.710590517702349">
				<ele>122.0</ele>
				<time>2011-02-15T17:48:18Z</time>
			</trkpt>
			<trkpt lat="50.913936020312" lon="6.710590517702349">
				<ele>122.0</ele>
				<time>2011-02-15T17:48:19Z</time>
			</trkpt>
			<trkpt lat="50.913936020312" lon="6.710590517702349">
				<ele>122.0</ele>
				<time>2011-02-15T17:48:20Z</time>
			</trkpt>
			<trkpt lat="50.913936020312" lon="6.710590517702349">
				<ele>122.0</ele>
				<time>2011-02-15T17:48:21Z</time>
			</trkpt>
			<trkpt lat="50.913936020312" lon="6.710590517702349">
				<ele>122.0</ele>
				<time>2011-02-15T17:48:22Z</time>
			</trkpt>
			<trkpt lat="50.913936020312" lon="6.710590517702349">
				<ele>122.0</ele>
				<time>2011-02-15T17:48:23Z</time>
			</trkpt>
			<trkpt lat="50.913936020312" lon="6.710590517702349">
				<ele>122.0</ele>
				<time>2011-02-15T17:48:24Z</time>
			</trkpt>
			<trkpt lat="50.913936020312" lon="6.710590517702349">
				<ele>122.0</ele>
				<time>2011-02-15T17:48:25Z</time>
			</trkpt>
			<trkpt lat="50.91403086508527" lon="6.7105909141686135">
				<ele>123.0</ele>
				<time>2011-02-15T17:48:26Z</time>
			</trkpt>
			<trkpt lat="50.91403086508527" lon="6.7105909141686135">
				<ele>123.0</ele>
				<time>2011-02-15T17:48:27Z</time>
			</trkpt>
			<trkpt lat="50.91403086508527" lon="6.7105909141686135">
				<ele>123.0</ele>
				<time>2011-02-15T17:48:28Z</time>
			</trkpt>
			<trkpt lat="50.91403086508527" lon="6.7105909141686135">
				<ele>123.0</ele>
				<time>2011-02-15T17:48:29Z</time>
			</trkpt>
			<trkpt lat="50.91403086508527" lon="6.7105909141686135">
				<ele>123.0</ele>
				<time>2011-02-15T17:48:30Z</time>
			</trkpt>
			<trkpt lat="50.91403086508527" lon="6.7105909141686135">
				<ele>123.0</ele>
				<time>2011-02-15T17:48:31Z</time>
			</trkpt>
			<trkpt lat="50.91403086508527" lon="6.7105909141686135">
				<ele>123.0</ele>
				<time>2011-02-15T17:48:32Z</time>
			</trkpt>
			<trkpt lat="50.91403086508527" lon="6.7105909141686135">
				<ele>123.0</ele>
				<time>2011-02-15T17:48:33Z</time>
			</trkpt>
			<trkpt lat="50.91412031967441" lon="6.710660379570586">
				<ele>123.0</ele>
				<time>2011-02-15T17:48:34Z</time>
			</trkpt>
			<trkpt lat="50.91412031967441" lon="6.710660379570586">
				<ele>123.0</ele>
				<time>2011-02-15T17:48:35Z</time>
			</trkpt>
			<trkpt lat="50.91412031967441" lon="6.710660379570586">
				<ele>123.0</ele>
				<time>2011-02-15T17:48:36Z</time>
			</trkpt>
			<trkpt lat="50.91412031967441" lon="6.710660379570586">
				<ele>123.0</ele>
				<time>2011-02-15T17:48:37Z</time>
			</trkpt>
			<trkpt lat="50.91412031967441" lon="6.710660379570586">
				<ele>123.0</ele>
				<time>2011-02-15T17:48:38Z</time>
			</trkpt>
			<trkpt lat="50.91412031967441" lon="6.710660379570586">
				<ele>123.0</ele>
				<time>2011-02-15T17:48:39Z</time>
			</trkpt>
			<trkpt lat="50.91412031967441" lon="6.710660379570586">
				<ele>123.0</ele>
				<time>2011-02-15T17:48:40Z</time>
			</trkpt>
			<trkpt lat="50.91420291388651" lon="6.710758127834337">
				<ele>124.0</ele>
				<time>2011-02-15T17:48:41Z</time>
			</trkpt>
			<trkpt lat="50.9142152710491" lon="6.710775923799381">
				<ele>124.0</ele>
				<time>2011-02-15T17:48:42Z</time>
			</trkpt>
			<trkpt lat="50.9142152710491" lon="6.710775923799381">
				<ele>124.0</ele>
				<time>2011-02-15T17:48:43Z</time>
			</trkpt>
			<trkpt lat="50.91423882811889" lon="6.710811272630548">
				<ele>124.0</ele>
				<time>2011-02-15T17:48:44Z</time>
			</trkpt>
			<trkpt lat="50.914250589289054" lon="6.710829404616364">
				<ele>124.0</ele>
				<time>2011-02-15T17:48:45Z</time>
			</trkpt>
			<trkpt lat="50.9142620348948" lon="6.710847838285513">
				<ele>124.0</ele>
				<time>2011-02-15T17:48:46Z</time>
			</trkpt>
			<trkpt lat="50.914273237761215" lon="6.710866446480446">
				<ele>124.0</ele>
				<time>2011-02-15T17:48:46Z</time>
			</trkpt>
			<trkpt lat="50.914284437143536" lon="6.710886382948784">
				<ele>124.0</ele>
				<time>2011-02-15T17:48:47Z</time>
			</trkpt>
			<trkpt lat="50.914295440495266" lon="6.710906521569436">
				<ele>124.0</ele>
				<time>2011-02-15T17:48:48Z</time>
			</trkpt>
			<trkpt lat="50.91430622126018" lon="6.710926823799805">
				<ele>124.0</ele>
				<time>2011-02-15T17:48:49Z</time>
			</trkpt>
			<trkpt lat="50.9143167130533" lon="6.71094740649364">
				<ele>124.0</ele>
				<time>2011-02-15T17:48:50Z</time>
			</trkpt>
			<trkpt lat="50.9143167130533" lon="6.71094740649364">
				<ele>124.0</ele>
				<time>2011-02-15T17:48:51Z</time>
			</trkpt>
			<trkpt lat="50.9143167130533" lon="6.71094740649364">
				<ele>124.0</ele>
				<time>2011-02-15T17:48:52Z</time>
			</trkpt>
			<trkpt lat="50.9143167130533" lon="6.71094740649364">
				<ele>124.0</ele>
				<time>2011-02-15T17:48:53Z</time>
			</trkpt>
			<trkpt lat="50.9143167130533" lon="6.71094740649364">
				<ele>124.0</ele>
				<time>2011-02-15T17:48:54Z</time>
			</trkpt>
			<trkpt lat="50.9143167130533" lon="6.71094740649364">
				<ele>124.0</ele>
				<time>2011-02-15T17:48:55Z</time>
			</trkpt>
			<trkpt lat="50.9143167130533" lon="6.71094740649364">
				<ele>124.0</ele>
				<time>2011-02-15T17:48:56Z</time>
			</trkpt>
			<trkpt lat="50.9143167130533" lon="6.71094740649364">
				<ele>124.0</ele>
				<time>2011-02-15T17:48:57Z</time>
			</trkpt>
			<trkpt lat="50.91438407609533" lon="6.711048483542136">
				<ele>124.0</ele>
				<time>2011-02-15T17:48:58Z</time>
			</trkpt>
			<trkpt lat="50.91438407609533" lon="6.711048483542136">
				<ele>124.0</ele>
				<time>2011-02-15T17:48:59Z</time>
			</trkpt>
			<trkpt lat="50.91438407609533" lon="6.711048483542136">
				<ele>124.0</ele>
				<time>2011-02-15T17:49:00Z</time>
			</trkpt>
			<trkpt lat="50.91438407609533" lon="6.711048483542136">
				<ele>124.0</ele>
				<time>2011-02-15T17:49:01Z</time>
			</trkpt>
			<trkpt lat="50.91438407609533" lon="6.711048483542136">
				<ele>124.0</ele>
				<time>2011-02-15T17:49:02Z</time>
			</trkpt>
			<trkpt lat="50.91438407609533" lon="6.711048483542136">
				<ele>124.0</ele>
				<time>2011-02-15T17:49:03Z</time>
			</trkpt>
			<trkpt lat="50.91438407609533" lon="6.711048483542136">
				<ele>124.0</ele>
				<time>2011-02-15T17:49:04Z</time>
			</trkpt>
			<trkpt lat="50.914413439114" lon="6.71086362321569">
				<ele>124.0</ele>
				<time>2011-02-15T17:49:05Z</time>
			</trkpt>
			<trkpt lat="50.914413439114" lon="6.71086362321569">
				<ele>124.0</ele>
				<time>2011-02-15T17:49:06Z</time>
			</trkpt>
			<trkpt lat="50.914413439114" lon="6.71086362321569">
				<ele>124.0</ele>
				<time>2011-02-15T17:49:07Z</time>
			</trkpt>
			<trkpt lat="50.91440555152603" lon="6.710699179658254">
				<ele>124.0</ele>
				<time>2011-02-15T17:49:08Z</time>
			</trkpt>
			<trkpt lat="50.91440555152603" lon="6.710699179658254">
				<ele>124.0</ele>
				<time>2011-02-15T17:49:09Z</time>
			</trkpt>
			<trkpt lat="50.91440555152603" lon="6.710699179658254">
				<ele>124.0</ele>
				<time>2011-02-15T17:49:10Z</time>
			</trkpt>
			<trkpt lat="50.91442669586978" lon="6.710513291848421">
				<ele>124.0</ele>
				<time>2011-02-15T17:49:11Z</time>
			</trkpt>
			<trkpt lat="50.91444203346216" lon="6.710446956867382">
				<ele>124.0</ele>
				<time>2011-02-15T17:49:12Z</time>
			</trkpt>
			<trkpt lat="50.91447230322585" lon="6.710408864954362">
				<ele>124.0</ele>
				<time>2011-02-15T17:49:13Z</time>
			</trkpt>
			<trkpt lat="50.914501091743304" lon="6.710366780554343">
				<ele>124.0</ele>
				<time>2011-02-15T17:49:14Z</time>
			</trkpt>
			<trkpt lat="50.91453219038755" lon="6.710329634372807">
				<ele>124.0</ele>
				<time>2011-02-15T17:49:15Z</time>
			</trkpt>
			<trkpt lat="50.91456065202177" lon="6.710288046849191">
				<ele>124.0</ele>
				<time>2011-02-15T17:49:16Z</time>
			</trkpt>
			<trkpt lat="50.914591865537304" lon="6.710245031482074">
				<ele>124.0</ele>
				<time>2011-02-15T17:49:17Z</time>
			</trkpt>
			<trkpt lat="50.91462438680346" lon="6.71021368425896">
				<ele>124.0</ele>
				<time>2011-02-15T17:49:18Z</time>
			</trkpt>
			<trkpt lat="50.91465607359623" lon="6.710180767370701">
				<ele>124.0</ele>
				<time>2011-02-15T17:49:19Z</time>
			</trkpt>
			<trkpt lat="50.91467587157159" lon="6.710155522401752">
				<ele>124.0</ele>
				<time>2011-02-15T17:49:20Z</time>
			</trkpt>
			<trkpt lat="50.914696593585774" lon="6.710133377200445">
				<ele>124.0</ele>
				<time>2011-02-15T17:49:21Z</time>
			</trkpt>
			<trkpt lat="50.91471933696816" lon="6.710103042061664">
				<ele>124.0</ele>
				<time>2011-02-15T17:49:22Z</time>
			</trkpt>
			<trkpt lat="50.91474092825512" lon="6.710067010775315">
				<ele>124.0</ele>
				<time>2011-02-15T17:49:23Z</time>
			</trkpt>
			<trkpt lat="50.91476127987457" lon="6.710028705703923">
				<ele>123.0</ele>
				<time>2011-02-15T17:49:24Z</time>
			</trkpt>
			<trkpt lat="50.91478134024494" lon="6.7099889085921784">
				<ele>123.0</ele>
				<time>2011-02-15T17:49:25Z</time>
			</trkpt>
			<trkpt lat="50.91480174453456" lon="6.709949105792507">
				<ele>123.0</ele>
				<time>2011-02-15T17:49:26Z</time>
			</trkpt>
			<trkpt lat="50.91482199661972" lon="6.709908717447677">
				<ele>123.0</ele>
				<time>2011-02-15T17:49:27Z</time>
			</trkpt>
			<trkpt lat="50.91484338666724" lon="6.709866299893261">
				<ele>123.0</ele>
				<time>2011-02-15T17:49:28Z</time>
			</trkpt>
			<trkpt lat="50.91486525838468" lon="6.709823548520854">
				<ele>123.0</ele>
				<time>2011-02-15T17:49:29Z</time>
			</trkpt>
			<trkpt lat="50.914888299204335" lon="6.709777990347528">
				<ele>123.0</ele>
				<time>2011-02-15T17:49:30Z</time>
			</trkpt>
			<trkpt lat="50.91491469304309" lon="6.70976919981686">
				<ele>123.0</ele>
				<time>2011-02-15T17:49:31Z</time>
			</trkpt>
			<trkpt lat="50.91494213902747" lon="6.709758688002493">
				<ele>123.0</ele>
				<time>2011-02-15T17:49:32Z</time>
			</trkpt>
			<trkpt lat="50.91496840887049" lon="6.709747781630595">
				<ele>123.0</ele>
				<time>2011-02-15T17:49:33Z</time>
			</trkpt>
			<trkpt lat="50.914996546006634" lon="6.709738016778235">
				<ele>123.0</ele>
				<time>2011-02-15T17:49:34Z</time>
			</trkpt>
			<trkpt lat="50.91502661476625" lon="6.709724176467811">
				<ele>123.0</ele>
				<time>2011-02-15T17:49:35Z</time>
			</trkpt>
			<trkpt lat="50.915057653675994" lon="6.709708272431418">
				<ele>123.0</ele>
				<time>2011-02-15T17:49:36Z</time>
			</trkpt>
			<trkpt lat="50.91508687119072" lon="6.709689805047844">
				<ele>123.0</ele>
				<time>2011-02-15T17:49:37Z</time>
			</trkpt>
			<trkpt lat="50.91511620948723" lon="6.709668413531558">
				<ele>123.0</ele>
				<time>2011-02-15T17:49:38Z</time>
			</trkpt>
			<trkpt lat="50.91514404821815" lon="6.709645153036782">
				<ele>123.0</ele>
				<time>2011-02-15T17:49:39Z</time>
			</trkpt>
			<trkpt lat="50.91516942405474" lon="6.709626001774721">
				<ele>123.0</ele>
				<time>2011-02-15T17:49:40Z</time>
			</trkpt>
			<trkpt lat="50.915195300020144" lon="6.709607992283602">
				<ele>123.0</ele>
				<time>2011-02-15T17:49:41Z</time>
			</trkpt>
			<trkpt lat="50.915225206839445" lon="6.709588411798115">
				<ele>123.0</ele>
				<time>2011-02-15T17:49:42Z</time>
			</trkpt>
			<trkpt lat="50.91525447838485" lon="6.7095669290444055">
				<ele>123.0</ele>
				<time>2011-02-15T17:49:43Z</time>
			</trkpt>
			<trkpt lat="50.915287732888515" lon="6.70954174463876">
				<ele>122.0</ele>
				<time>2011-02-15T17:49:44Z</time>
			</trkpt>
			<trkpt lat="50.91532430859648" lon="6.709516670418856">
				<ele>122.0</ele>
				<time>2011-02-15T17:49:45Z</time>
			</trkpt>
			<trkpt lat="50.915361586773706" lon="6.709492215945862">
				<ele>122.0</ele>
				<time>2011-02-15T17:49:46Z</time>
			</trkpt>
			<trkpt lat="50.91539796923278" lon="6.709468411145648">
				<ele>122.0</ele>
				<time>2011-02-15T17:49:47Z</time>
			</trkpt>
			<trkpt lat="50.91543609211473" lon="6.709447229592918">
				<ele>122.0</ele>
				<time>2011-02-15T17:49:48Z</time>
			</trkpt>
			<trkpt lat="50.915476572641005" lon="6.70942776701332">
				<ele>122.0</ele>
				<time>2011-02-15T17:49:49Z</time>
			</trkpt>
			<trkpt lat="50.91551571149851" lon="6.709409220524591">
				<ele>122.0</ele>
				<time>2011-02-15T17:49:50Z</time>
			</trkpt>
			<trkpt lat="50.915556683046425" lon="6.709393684347182">
				<ele>122.0</ele>
				<time>2011-02-15T17:49:51Z</time>
			</trkpt>
			<trkpt lat="50.91559973432919" lon="6.709379808872781">
				<ele>122.0</ele>
				<time>2011-02-15T17:49:52Z</time>
			</trkpt>
			<trkpt lat="50.91564498146036" lon="6.709369237618749">
				<ele>122.0</ele>
				<time>2011-02-15T17:49:53Z</time>
			</trkpt>
			<trkpt lat="50.915687543163614" lon="6.709358767709122">
				<ele>122.0</ele>
				<time>2011-02-15T17:49:54Z</time>
			</trkpt>
			<trkpt lat="50.91573064468397" lon="6.709346277896082">
				<ele>122.0</ele>
				<time>2011-02-15T17:49:55Z</time>
			</trkpt>
			<trkpt lat="50.91577468045782" lon="6.709333787939484">
				<ele>122.0</ele>
				<time>2011-02-15T17:49:56Z</time>
			</trkpt>
			<trkpt lat="50.915822461977065" lon="6.709324845662984">
				<ele>122.0</ele>
				<time>2011-02-15T17:49:57Z</time>
			</trkpt>
			<trkpt lat="50.915865691228866" lon="6.709316702810517">
				<ele>122.0</ele>
				<time>2011-02-15T17:49:58Z</time>
			</trkpt>
			<trkpt lat="50.91590861186135" lon="6.7093074999429465">
				<ele>122.0</ele>
				<time>2011-02-15T17:49:59Z</time>
			</trkpt>
			<trkpt lat="50.915947912277844" lon="6.709299099285525">
				<ele>122.0</ele>
				<time>2011-02-15T17:50:00Z</time>
			</trkpt>
			<trkpt lat="50.91598966743166" lon="6.709293247494319">
				<ele>122.0</ele>
				<time>2011-02-15T17:50:01Z</time>
			</trkpt>
			<trkpt lat="50.916032048491736" lon="6.709288766480187">
				<ele>122.0</ele>
				<time>2011-02-15T17:50:02Z</time>
			</trkpt>
			<trkpt lat="50.916071627077805" lon="6.709285389157505">
				<ele>122.0</ele>
				<time>2011-02-15T17:50:03Z</time>
			</trkpt>
			<trkpt lat="50.91611357124282" lon="6.709284999811681">
				<ele>122.0</ele>
				<time>2011-02-15T17:50:04Z</time>
			</trkpt>
			<trkpt lat="50.91616045039605" lon="6.709287971962964">
				<ele>122.0</ele>
				<time>2011-02-15T17:50:05Z</time>
			</trkpt>
			<trkpt lat="50.91620792892104" lon="6.709293223249992">
				<ele>122.0</ele>
				<time>2011-02-15T17:50:06Z</time>
			</trkpt>
			<trkpt lat="50.91625685122303" lon="6.70930045556816">
				<ele>123.0</ele>
				<time>2011-02-15T17:50:07Z</time>
			</trkpt>
			<trkpt lat="50.91630628396497" lon="6.709310755963392">
				<ele>123.0</ele>
				<time>2011-02-15T17:50:08Z</time>
			</trkpt>
			<trkpt lat="50.916355654038504" lon="6.709321325629058">
				<ele>123.0</ele>
				<time>2011-02-15T17:50:09Z</time>
			</trkpt>
			<trkpt lat="50.91640441384888" lon="6.709328423946686">
				<ele>122.0</ele>
				<time>2011-02-15T17:50:10Z</time>
			</trkpt>
			<trkpt lat="50.916456458958784" lon="6.709335750683789">
				<ele>122.0</ele>
				<time>2011-02-15T17:50:11Z</time>
			</trkpt>
			<trkpt lat="50.916509598685096" lon="6.709339508709792">
				<ele>122.0</ele>
				<time>2011-02-15T17:50:12Z</time>
			</trkpt>
			<trkpt lat="50.916563695193666" lon="6.709341455264051">
				<ele>122.0</ele>
				<time>2011-02-15T17:50:13Z</time>
			</trkpt>
			<trkpt lat="50.9166191732763" lon="6.7093425565906895">
				<ele>122.0</ele>
				<time>2011-02-15T17:50:14Z</time>
			</trkpt>
			<trkpt lat="50.91667411922864" lon="6.7093428930463235">
				<ele>122.0</ele>
				<time>2011-02-15T17:50:15Z</time>
			</trkpt>
			<trkpt lat="50.91672726378233" lon="6.709340258255137">
				<ele>122.0</ele>
				<time>2011-02-15T17:50:16Z</time>
			</trkpt>
			<trkpt lat="50.91678004291123" lon="6.709333567845436">
				<ele>121.0</ele>
				<time>2011-02-15T17:50:17Z</time>
			</trkpt>
			<trkpt lat="50.916833502068805" lon="6.70932050384353">
				<ele>121.0</ele>
				<time>2011-02-15T17:50:18Z</time>
			</trkpt>
			<trkpt lat="50.916886967356156" lon="6.7093043172154685">
				<ele>121.0</ele>
				<time>2011-02-15T17:50:19Z</time>
			</trkpt>
			<trkpt lat="50.916934385341136" lon="6.709272724213793">
				<ele>122.0</ele>
				<time>2011-02-15T17:50:20Z</time>
			</trkpt>
			<trkpt lat="50.9169793307593" lon="6.709241796663162">
				<ele>122.0</ele>
				<time>2011-02-15T17:50:21Z</time>
			</trkpt>
			<trkpt lat="50.91701947487387" lon="6.709209440137991">
				<ele>122.0</ele>
				<time>2011-02-15T17:50:22Z</time>
			</trkpt>
			<trkpt lat="50.91705034867964" lon="6.70917174581538">
				<ele>122.0</ele>
				<time>2011-02-15T17:50:23Z</time>
			</trkpt>
			<trkpt lat="50.91707542666156" lon="6.709131465231563">
				<ele>122.0</ele>
				<time>2011-02-15T17:50:24Z</time>
			</trkpt>
			<trkpt lat="50.9170992466571" lon="6.7090933191727595">
				<ele>122.0</ele>
				<time>2011-02-15T17:50:25Z</time>
			</trkpt>
			<trkpt lat="50.91712432235124" lon="6.709058540534238">
				<ele>122.0</ele>
				<time>2011-02-15T17:50:26Z</time>
			</trkpt>
			<trkpt lat="50.917146897432275" lon="6.7090229023137535">
				<ele>122.0</ele>
				<time>2011-02-15T17:50:27Z</time>
			</trkpt>
			<trkpt lat="50.91716589987123" lon="6.708989167085891">
				<ele>122.0</ele>
				<time>2011-02-15T17:50:28Z</time>
			</trkpt>
			<trkpt lat="50.91717868050151" lon="6.708951515387327">
				<ele>122.0</ele>
				<time>2011-02-15T17:50:29Z</time>
			</trkpt>
			<trkpt lat="50.91718978565788" lon="6.70891127146001">
				<ele>122.0</ele>
				<time>2011-02-15T17:50:30Z</time>
			</trkpt>
			<trkpt lat="50.91720092659273" lon="6.708870962561971">
				<ele>122.0</ele>
				<time>2011-02-15T17:50:31Z</time>
			</trkpt>
			<trkpt lat="50.91721242259472" lon="6.7088314533472735">
				<ele>122.0</ele>
				<time>2011-02-15T17:50:32Z</time>
			</trkpt>
			<trkpt lat="50.91722342053072" lon="6.708793645509463">
				<ele>122.0</ele>
				<time>2011-02-15T17:50:33Z</time>
			</trkpt>
			<trkpt lat="50.91723243020775" lon="6.708763047435333">
				<ele>122.0</ele>
				<time>2011-02-15T17:50:34Z</time>
			</trkpt>
			<trkpt lat="50.917241609160705" lon="6.708731599801536">
				<ele>122.0</ele>
				<time>2011-02-15T17:50:35Z</time>
			</trkpt>
			<trkpt lat="50.9172497397522" lon="6.708705551183675">
				<ele>122.0</ele>
				<time>2011-02-15T17:50:36Z</time>
			</trkpt>
			<trkpt lat="50.9172497397522" lon="6.708705551183675">
				<ele>122.0</ele>
				<time>2011-02-15T17:50:37Z</time>
			</trkpt>
			<trkpt lat="50.917267088774565" lon="6.708647429671541">
				<ele>122.0</ele>
				<time>2011-02-15T17:50:38Z</time>
			</trkpt>
			<trkpt lat="50.91727170265528" lon="6.708610429172174">
				<ele>122.0</ele>
				<time>2011-02-15T17:50:39Z</time>
			</trkpt>
			<trkpt lat="50.91728560857088" lon="6.708572586242579">
				<ele>122.0</ele>
				<time>2011-02-15T17:50:40Z</time>
			</trkpt>
			<trkpt lat="50.91729845524142" lon="6.708532032116468">
				<ele>122.0</ele>
				<time>2011-02-15T17:50:41Z</time>
			</trkpt>
			<trkpt lat="50.91731278430938" lon="6.70848681010801">
				<ele>122.0</ele>
				<time>2011-02-15T17:50:42Z</time>
			</trkpt>
			<trkpt lat="50.917327992633005" lon="6.708442009380866">
				<ele>122.0</ele>
				<time>2011-02-15T17:50:43Z</time>
			</trkpt>
			<trkpt lat="50.9173430670785" lon="6.708397550165653">
				<ele>122.0</ele>
				<time>2011-02-15T17:50:44Z</time>
			</trkpt>
			<trkpt lat="50.9173604941329" lon="6.708351111544727">
				<ele>122.0</ele>
				<time>2011-02-15T17:50:45Z</time>
			</trkpt>
			<trkpt lat="50.91738489333793" lon="6.7083091256297545">
				<ele>122.0</ele>
				<time>2011-02-15T17:50:46Z</time>
			</trkpt>
			<trkpt lat="50.917411880854615" lon="6.7082680945666215">
				<ele>122.0</ele>
				<time>2011-02-15T17:50:47Z</time>
			</trkpt>
			<trkpt lat="50.91743951934085" lon="6.708227660538495">
				<ele>122.0</ele>
				<time>2011-02-15T17:50:48Z</time>
			</trkpt>
			<trkpt lat="50.91747460449854" lon="6.708204358566292">
				<ele>122.0</ele>
				<time>2011-02-15T17:50:49Z</time>
			</trkpt>
			<trkpt lat="50.91751144608574" lon="6.708184325953441">
				<ele>122.0</ele>
				<time>2011-02-15T17:50:50Z</time>
			</trkpt>
			<trkpt lat="50.917547140470475" lon="6.7081651498292745">
				<ele>122.0</ele>
				<time>2011-02-15T17:50:51Z</time>
			</trkpt>
			<trkpt lat="50.91758307654073" lon="6.708148802742833">
				<ele>122.0</ele>
				<time>2011-02-15T17:50:52Z</time>
			</trkpt>
			<trkpt lat="50.91762005154997" lon="6.708134153353235">
				<ele>122.0</ele>
				<time>2011-02-15T17:50:53Z</time>
			</trkpt>
			<trkpt lat="50.91765671554714" lon="6.7081215573077415">
				<ele>122.0</ele>
				<time>2011-02-15T17:50:54Z</time>
			</trkpt>
			<trkpt lat="50.91769193755703" lon="6.708109462052612">
				<ele>122.0</ele>
				<time>2011-02-15T17:50:55Z</time>
			</trkpt>
			<trkpt lat="50.91772640801033" lon="6.708098748725302">
				<ele>122.0</ele>
				<time>2011-02-15T17:50:56Z</time>
			</trkpt>
			<trkpt lat="50.91776051356042" lon="6.708088145724282">
				<ele>122.0</ele>
				<time>2011-02-15T17:50:57Z</time>
			</trkpt>
			<trkpt lat="50.917794203535664" lon="6.708077716050916">
				<ele>122.0</ele>
				<time>2011-02-15T17:50:58Z</time>
			</trkpt>
			<trkpt lat="50.917828431129784" lon="6.708068078420515">
				<ele>122.0</ele>
				<time>2011-02-15T17:50:59Z</time>
			</trkpt>
			<trkpt lat="50.917862381336235" lon="6.708056330429372">
				<ele>122.0</ele>
				<time>2011-02-15T17:51:00Z</time>
			</trkpt>
			<trkpt lat="50.91789648528583" lon="6.708045271154373">
				<ele>122.0</ele>
				<time>2011-02-15T17:51:01Z</time>
			</trkpt>
			<trkpt lat="50.91793137720298" lon="6.708034284375427">
				<ele>122.0</ele>
				<time>2011-02-15T17:51:02Z</time>
			</trkpt>
			<trkpt lat="50.91796792218176" lon="6.708025401832558">
				<ele>122.0</ele>
				<time>2011-02-15T17:51:03Z</time>
			</trkpt>
			<trkpt lat="50.91800531660112" lon="6.708018270673028">
				<ele>122.0</ele>
				<time>2011-02-15T17:51:04Z</time>
			</trkpt>
			<trkpt lat="50.918042607743836" lon="6.708011683025723">
				<ele>122.0</ele>
				<time>2011-02-15T17:51:05Z</time>
			</trkpt>
			<trkpt lat="50.918078214684016" lon="6.708003758403789">
				<ele>122.0</ele>
				<time>2011-02-15T17:51:06Z</time>
			</trkpt>
			<trkpt lat="50.918116661546705" lon="6.707996275785036">
				<ele>121.0</ele>
				<time>2011-02-15T17:51:07Z</time>
			</trkpt>
			<trkpt lat="50.91815464959923" lon="6.707988905207552">
				<ele>121.0</ele>
				<time>2011-02-15T17:51:08Z</time>
			</trkpt>
			<trkpt lat="50.91819215347555" lon="6.707983621981889">
				<ele>121.0</ele>
				<time>2011-02-15T17:51:09Z</time>
			</trkpt>
			<trkpt lat="50.918227841164075" lon="6.7079793253521744">
				<ele>121.0</ele>
				<time>2011-02-15T17:51:10Z</time>
			</trkpt>
			<trkpt lat="50.91826225981058" lon="6.707977447227878">
				<ele>121.0</ele>
				<time>2011-02-15T17:51:11Z</time>
			</trkpt>
			<trkpt lat="50.91829591054661" lon="6.7079722020640915">
				<ele>121.0</ele>
				<time>2011-02-15T17:51:12Z</time>
			</trkpt>
			<trkpt lat="50.91832949228605" lon="6.707968002947646">
				<ele>121.0</ele>
				<time>2011-02-15T17:51:13Z</time>
			</trkpt>
			<trkpt lat="50.91836337691105" lon="6.70796381290533">
				<ele>121.0</ele>
				<time>2011-02-15T17:51:14Z</time>
			</trkpt>
			<trkpt lat="50.9183975308705" lon="6.70796094205488">
				<ele>121.0</ele>
				<time>2011-02-15T17:51:15Z</time>
			</trkpt>
			<trkpt lat="50.91843218457752" lon="6.707958059481703">
				<ele>121.0</ele>
				<time>2011-02-15T17:51:16Z</time>
			</trkpt>
			<trkpt lat="50.918468910232704" lon="6.707954939773522">
				<ele>121.0</ele>
				<time>2011-02-15T17:51:17Z</time>
			</trkpt>
			<trkpt lat="50.918511962270244" lon="6.70794955535988">
				<ele>121.0</ele>
				<time>2011-02-15T17:51:18Z</time>
			</trkpt>
			<trkpt lat="50.918555516822465" lon="6.707944494221067">
				<ele>121.0</ele>
				<time>2011-02-15T17:51:19Z</time>
			</trkpt>
			<trkpt lat="50.9185943067427" lon="6.707935775865363">
				<ele>121.0</ele>
				<time>2011-02-15T17:51:20Z</time>
			</trkpt>
			<trkpt lat="50.918631973009944" lon="6.707927119023192">
				<ele>121.0</ele>
				<time>2011-02-15T17:51:21Z</time>
			</trkpt>
			<trkpt lat="50.918671286633085" lon="6.707917911303314">
				<ele>121.0</ele>
				<time>2011-02-15T17:51:22Z</time>
			</trkpt>
			<trkpt lat="50.91870753522022" lon="6.707908001893918">
				<ele>121.0</ele>
				<time>2011-02-15T17:51:23Z</time>
			</trkpt>
			<trkpt lat="50.918743755202506" lon="6.707896606327604">
				<ele>121.0</ele>
				<time>2011-02-15T17:51:24Z</time>
			</trkpt>
			<trkpt lat="50.91877995196199" lon="6.707885155027376">
				<ele>121.0</ele>
				<time>2011-02-15T17:51:25Z</time>
			</trkpt>
			<trkpt lat="50.918816215839854" lon="6.70787479851057">
				<ele>121.0</ele>
				<time>2011-02-15T17:51:26Z</time>
			</trkpt>
			<trkpt lat="50.91885810842201" lon="6.707862709838555">
				<ele>121.0</ele>
				<time>2011-02-15T17:51:27Z</time>
			</trkpt>
			<trkpt lat="50.91890458144393" lon="6.707850870403639">
				<ele>121.0</ele>
				<time>2011-02-15T17:51:28Z</time>
			</trkpt>
			<trkpt lat="50.91895174972608" lon="6.7078390469506095">
				<ele>121.0</ele>
				<time>2011-02-15T17:51:29Z</time>
			</trkpt>
			<trkpt lat="50.91899940871321" lon="6.707825174077985">
				<ele>121.0</ele>
				<time>2011-02-15T17:51:30Z</time>
			</trkpt>
			<trkpt lat="50.919046281678746" lon="6.7078115626968255">
				<ele>121.0</ele>
				<time>2011-02-15T17:51:31Z</time>
			</trkpt>
			<trkpt lat="50.919093728727745" lon="6.707797799946978">
				<ele>121.0</ele>
				<time>2011-02-15T17:51:32Z</time>
			</trkpt>
			<trkpt lat="50.9191420439439" lon="6.707788114699892">
				<ele>121.0</ele>
				<time>2011-02-15T17:51:33Z</time>
			</trkpt>
			<trkpt lat="50.91919124613169" lon="6.707778594275512">
				<ele>121.0</ele>
				<time>2011-02-15T17:51:34Z</time>
			</trkpt>
			<trkpt lat="50.91924028096313" lon="6.7077693530238705">
				<ele>121.0</ele>
				<time>2011-02-15T17:51:35Z</time>
			</trkpt>
			<trkpt lat="50.91928725420596" lon="6.707760716027472">
				<ele>121.0</ele>
				<time>2011-02-15T17:51:36Z</time>
			</trkpt>
			<trkpt lat="50.919333520000684" lon="6.707755204215886">
				<ele>121.0</ele>
				<time>2011-02-15T17:51:37Z</time>
			</trkpt>
			<trkpt lat="50.91938001401096" lon="6.70775000758857">
				<ele>121.0</ele>
				<time>2011-02-15T17:51:38Z</time>
			</trkpt>
			<trkpt lat="50.919426103465575" lon="6.707745028705443">
				<ele>121.0</ele>
				<time>2011-02-15T17:51:39Z</time>
			</trkpt>
			<trkpt lat="50.91946810387361" lon="6.707736078628376">
				<ele>121.0</ele>
				<time>2011-02-15T17:51:40Z</time>
			</trkpt>
			<trkpt lat="50.919511235219346" lon="6.707729488974907">
				<ele>121.0</ele>
				<time>2011-02-15T17:51:41Z</time>
			</trkpt>
			<trkpt lat="50.91955487265726" lon="6.707725373057583">
				<ele>121.0</ele>
				<time>2011-02-15T17:51:42Z</time>
			</trkpt>
			<trkpt lat="50.91959729326601" lon="6.7077165201756985">
				<ele>121.0</ele>
				<time>2011-02-15T17:51:43Z</time>
			</trkpt>
			<trkpt lat="50.91963836571647" lon="6.707708539884725">
				<ele>121.0</ele>
				<time>2011-02-15T17:51:44Z</time>
			</trkpt>
			<trkpt lat="50.91967701174913" lon="6.707700167189861">
				<ele>121.0</ele>
				<time>2011-02-15T17:51:45Z</time>
			</trkpt>
			<trkpt lat="50.91971618871342" lon="6.707692099464558">
				<ele>121.0</ele>
				<time>2011-02-15T17:51:46Z</time>
			</trkpt>
			<trkpt lat="50.919754263173296" lon="6.707684947214697">
				<ele>121.0</ele>
				<time>2011-02-15T17:51:47Z</time>
			</trkpt>
			<trkpt lat="50.91979442075642" lon="6.707676520954357">
				<ele>121.0</ele>
				<time>2011-02-15T17:51:48Z</time>
			</trkpt>
			<trkpt lat="50.919835719611335" lon="6.7076675122848535">
				<ele>121.0</ele>
				<time>2011-02-15T17:51:49Z</time>
			</trkpt>
			<trkpt lat="50.919877902024126" lon="6.707658164393165">
				<ele>121.0</ele>
				<time>2011-02-15T17:51:50Z</time>
			</trkpt>
			<trkpt lat="50.919918808540665" lon="6.7076469510186385">
				<ele>121.0</ele>
				<time>2011-02-15T17:51:51Z</time>
			</trkpt>
			<trkpt lat="50.919954002291284" lon="6.7076363220229975">
				<ele>121.0</ele>
				<time>2011-02-15T17:51:52Z</time>
			</trkpt>
			<trkpt lat="50.91999048321879" lon="6.707625197230215">
				<ele>121.0</ele>
				<time>2011-02-15T17:51:53Z</time>
			</trkpt>
			<trkpt lat="50.92002608045943" lon="6.707612602151021">
				<ele>121.0</ele>
				<time>2011-02-15T17:51:54Z</time>
			</trkpt>
			<trkpt lat="50.92002608045943" lon="6.707612602151021">
				<ele>121.0</ele>
				<time>2011-02-15T17:51:55Z</time>
			</trkpt>
			<trkpt lat="50.92002608045943" lon="6.707612602151021">
				<ele>121.0</ele>
				<time>2011-02-15T17:51:56Z</time>
			</trkpt>
			<trkpt lat="50.92011001684722" lon="6.707602650811795">
				<ele>121.0</ele>
				<time>2011-02-15T17:51:57Z</time>
			</trkpt>
			<trkpt lat="50.92011001684722" lon="6.707602650811795">
				<ele>121.0</ele>
				<time>2011-02-15T17:51:58Z</time>
			</trkpt>
			<trkpt lat="50.92016091828361" lon="6.707612202515048">
				<ele>121.0</ele>
				<time>2011-02-15T17:51:59Z</time>
			</trkpt>
			<trkpt lat="50.92016091828361" lon="6.707612202515048">
				<ele>121.0</ele>
				<time>2011-02-15T17:52:00Z</time>
			</trkpt>
			<trkpt lat="50.920209941965695" lon="6.707610665589993">
				<ele>121.0</ele>
				<time>2011-02-15T17:52:01Z</time>
			</trkpt>
			<trkpt lat="50.920209941965695" lon="6.707610665589993">
				<ele>121.0</ele>
				<time>2011-02-15T17:52:02Z</time>
			</trkpt>
			<trkpt lat="50.920209941965695" lon="6.707610665589993">
				<ele>121.0</ele>
				<time>2011-02-15T17:52:03Z</time>
			</trkpt>
			<trkpt lat="50.9202843644775" lon="6.707596957738367">
				<ele>121.0</ele>
				<time>2011-02-15T17:52:04Z</time>
			</trkpt>
			<trkpt lat="50.9202843644775" lon="6.707596957738367">
				<ele>121.0</ele>
				<time>2011-02-15T17:52:05Z</time>
			</trkpt>
			<trkpt lat="50.92033842656678" lon="6.707584715722598">
				<ele>121.0</ele>
				<time>2011-02-15T17:52:06Z</time>
			</trkpt>
			<trkpt lat="50.920365479402044" lon="6.7075773575777955">
				<ele>121.0</ele>
				<time>2011-02-15T17:52:07Z</time>
			</trkpt>
			<trkpt lat="50.92039748401932" lon="6.707568548850172">
				<ele>121.0</ele>
				<time>2011-02-15T17:52:08Z</time>
			</trkpt>
			<trkpt lat="50.920430136173536" lon="6.707561811247065">
				<ele>121.0</ele>
				<time>2011-02-15T17:52:09Z</time>
			</trkpt>
			<trkpt lat="50.92046175228188" lon="6.707554245482071">
				<ele>121.0</ele>
				<time>2011-02-15T17:52:10Z</time>
			</trkpt>
			<trkpt lat="50.920496368809324" lon="6.707547516374512">
				<ele>121.0</ele>
				<time>2011-02-15T17:52:11Z</time>
			</trkpt>
			<trkpt lat="50.920530987658466" lon="6.707540183696524">
				<ele>121.0</ele>
				<time>2011-02-15T17:52:12Z</time>
			</trkpt>
			<trkpt lat="50.9205620176894" lon="6.707532757227003">
				<ele>121.0</ele>
				<time>2011-02-15T17:52:13Z</time>
			</trkpt>
			<trkpt lat="50.920593866316935" lon="6.707522794423125">
				<ele>121.0</ele>
				<time>2011-02-15T17:52:14Z</time>
			</trkpt>
			<trkpt lat="50.92063185205713" lon="6.707510673131005">
				<ele>121.0</ele>
				<time>2011-02-15T17:52:15Z</time>
			</trkpt>
			<trkpt lat="50.9206745801909" lon="6.707496844845686">
				<ele>121.0</ele>
				<time>2011-02-15T17:52:16Z</time>
			</trkpt>
			<trkpt lat="50.920715113015916" lon="6.707482216076308">
				<ele>121.0</ele>
				<time>2011-02-15T17:52:17Z</time>
			</trkpt>
			<trkpt lat="50.920756500828276" lon="6.707467160190712">
				<ele>121.0</ele>
				<time>2011-02-15T17:52:18Z</time>
			</trkpt>
			<trkpt lat="50.92079911724617" lon="6.707451671767344">
				<ele>121.0</ele>
				<time>2011-02-15T17:52:19Z</time>
			</trkpt>
			<trkpt lat="50.92084730455476" lon="6.707433982708935">
				<ele>121.0</ele>
				<time>2011-02-15T17:52:20Z</time>
			</trkpt>
			<trkpt lat="50.92089901895337" lon="6.707414889805098">
				<ele>121.0</ele>
				<time>2011-02-15T17:52:21Z</time>
			</trkpt>
			<trkpt lat="50.920951882001184" lon="6.7073978901678855">
				<ele>121.0</ele>
				<time>2011-02-15T17:52:22Z</time>
			</trkpt>
			<trkpt lat="50.92100349194105" lon="6.707381597902057">
				<ele>121.0</ele>
				<time>2011-02-15T17:52:23Z</time>
			</trkpt>
			<trkpt lat="50.92105283616231" lon="6.707366176482887">
				<ele>121.0</ele>
				<time>2011-02-15T17:52:24Z</time>
			</trkpt>
			<trkpt lat="50.92109878784823" lon="6.707346715239549">
				<ele>121.0</ele>
				<time>2011-02-15T17:52:25Z</time>
			</trkpt>
			<trkpt lat="50.92114373966967" lon="6.707333294460218">
				<ele>121.0</ele>
				<time>2011-02-15T17:52:26Z</time>
			</trkpt>
			<trkpt lat="50.9211877577514" lon="6.707317854991462">
				<ele>121.0</ele>
				<time>2011-02-15T17:52:27Z</time>
			</trkpt>
			<trkpt lat="50.92123008369552" lon="6.707300685300099">
				<ele>121.0</ele>
				<time>2011-02-15T17:52:28Z</time>
			</trkpt>
			<trkpt lat="50.921271392503705" lon="6.707283723419926">
				<ele>121.0</ele>
				<time>2011-02-15T17:52:29Z</time>
			</trkpt>
			<trkpt lat="50.92131105079585" lon="6.707267368317128">
				<ele>121.0</ele>
				<time>2011-02-15T17:52:30Z</time>
			</trkpt>
			<trkpt lat="50.92134565728334" lon="6.707253123719173">
				<ele>121.0</ele>
				<time>2011-02-15T17:52:31Z</time>
			</trkpt>
			<trkpt lat="50.92137888350335" lon="6.707238559379025">
				<ele>121.0</ele>
				<time>2011-02-15T17:52:32Z</time>
			</trkpt>
			<trkpt lat="50.921413000070494" lon="6.707225358226151">
				<ele>121.0</ele>
				<time>2011-02-15T17:52:33Z</time>
			</trkpt>
			<trkpt lat="50.92144884501968" lon="6.707211582662324">
				<ele>121.0</ele>
				<time>2011-02-15T17:52:34Z</time>
			</trkpt>
			<trkpt lat="50.9214823448676" lon="6.707196828156857">
				<ele>121.0</ele>
				<time>2011-02-15T17:52:35Z</time>
			</trkpt>
			<trkpt lat="50.92150307802346" lon="6.707176323986604">
				<ele>121.0</ele>
				<time>2011-02-15T17:52:36Z</time>
			</trkpt>
			<trkpt lat="50.92151861706899" lon="6.707160450246655">
				<ele>121.0</ele>
				<time>2011-02-15T17:52:37Z</time>
			</trkpt>
			<trkpt lat="50.92151861706899" lon="6.707160450246655">
				<ele>121.0</ele>
				<time>2011-02-15T17:52:38Z</time>
			</trkpt>
			<trkpt lat="50.92154491544635" lon="6.707136052168349">
				<ele>121.0</ele>
				<time>2011-02-15T17:52:39Z</time>
			</trkpt>
			<trkpt lat="50.92154491544635" lon="6.707136052168349">
				<ele>121.0</ele>
				<time>2011-02-15T17:52:40Z</time>
			</trkpt>
			<trkpt lat="50.92154491544635" lon="6.707136052168349">
				<ele>121.0</ele>
				<time>2011-02-15T17:52:41Z</time>
			</trkpt>
			<trkpt lat="50.92154491544635" lon="6.707136052168349">
				<ele>121.0</ele>
				<time>2011-02-15T17:52:42Z</time>
			</trkpt>
			<trkpt lat="50.92154491544635" lon="6.707136052168349">
				<ele>121.0</ele>
				<time>2011-02-15T17:52:43Z</time>
			</trkpt>
			<trkpt lat="50.92154491544635" lon="6.707136052168349">
				<ele>121.0</ele>
				<time>2011-02-15T17:52:44Z</time>
			</trkpt>
			<trkpt lat="50.92154491544635" lon="6.707136052168349">
				<ele>121.0</ele>
				<time>2011-02-15T17:52:45Z</time>
			</trkpt>
			<trkpt lat="50.92154491544635" lon="6.707136052168349">
				<ele>121.0</ele>
				<time>2011-02-15T17:52:46Z</time>
			</trkpt>
			<trkpt lat="50.92154491544635" lon="6.707136052168349">
				<ele>121.0</ele>
				<time>2011-02-15T17:52:47Z</time>
			</trkpt>
			<trkpt lat="50.92154491544635" lon="6.707136052168349">
				<ele>121.0</ele>
				<time>2011-02-15T17:52:48Z</time>
			</trkpt>
			<trkpt lat="50.92154491544635" lon="6.707136052168349">
				<ele>121.0</ele>
				<time>2011-02-15T17:52:49Z</time>
			</trkpt>
			<trkpt lat="50.92154491544635" lon="6.707136052168349">
				<ele>121.0</ele>
				<time>2011-02-15T17:52:50Z</time>
			</trkpt>
			<trkpt lat="50.92154491544635" lon="6.707136052168349">
				<ele>121.0</ele>
				<time>2011-02-15T17:52:51Z</time>
			</trkpt>
			<trkpt lat="50.92154491544635" lon="6.707136052168349">
				<ele>121.0</ele>
				<time>2011-02-15T17:52:52Z</time>
			</trkpt>
			<trkpt lat="50.92154491544635" lon="6.707136052168349">
				<ele>121.0</ele>
				<time>2011-02-15T17:52:53Z</time>
			</trkpt>
			<trkpt lat="50.92154491544635" lon="6.707136052168349">
				<ele>121.0</ele>
				<time>2011-02-15T17:52:54Z</time>
			</trkpt>
			<trkpt lat="50.92154491544635" lon="6.707136052168349">
				<ele>121.0</ele>
				<time>2011-02-15T17:52:55Z</time>
			</trkpt>
			<trkpt lat="50.92154491544635" lon="6.707136052168349">
				<ele>121.0</ele>
				<time>2011-02-15T17:52:56Z</time>
			</trkpt>
			<trkpt lat="50.92154491544635" lon="6.707136052168349">
				<ele>121.0</ele>
				<time>2011-02-15T17:52:57Z</time>
			</trkpt>
			<trkpt lat="50.92154491544635" lon="6.707136052168349">
				<ele>121.0</ele>
				<time>2011-02-15T17:52:58Z</time>
			</trkpt>
			<trkpt lat="50.92154491544635" lon="6.707136052168349">
				<ele>121.0</ele>
				<time>2011-02-15T17:52:59Z</time>
			</trkpt>
			<trkpt lat="50.92154491544635" lon="6.707136052168349">
				<ele>121.0</ele>
				<time>2011-02-15T17:53:00Z</time>
			</trkpt>
			<trkpt lat="50.92154491544635" lon="6.707136052168349">
				<ele>121.0</ele>
				<time>2011-02-15T17:53:01Z</time>
			</trkpt>
			<trkpt lat="50.92154491544635" lon="6.707136052168349">
				<ele>121.0</ele>
				<time>2011-02-15T17:53:02Z</time>
			</trkpt>
			<trkpt lat="50.92154491544635" lon="6.707136052168349">
				<ele>121.0</ele>
				<time>2011-02-15T17:53:03Z</time>
			</trkpt>
			<trkpt lat="50.92154491544635" lon="6.707136052168349">
				<ele>121.0</ele>
				<time>2011-02-15T17:53:04Z</time>
			</trkpt>
			<trkpt lat="50.92154491544635" lon="6.707136052168349">
				<ele>121.0</ele>
				<time>2011-02-15T17:53:05Z</time>
			</trkpt>
			<trkpt lat="50.92154491544635" lon="6.707136052168349">
				<ele>121.0</ele>
				<time>2011-02-15T17:53:06Z</time>
			</trkpt>
			<trkpt lat="50.92154491544635" lon="6.707136052168349">
				<ele>121.0</ele>
				<time>2011-02-15T17:53:07Z</time>
			</trkpt>
			<trkpt lat="50.92154491544635" lon="6.707136052168349">
				<ele>121.0</ele>
				<time>2011-02-15T17:53:08Z</time>
			</trkpt>
			<trkpt lat="50.92154491544635" lon="6.707136052168349">
				<ele>121.0</ele>
				<time>2011-02-15T17:53:09Z</time>
			</trkpt>
			<trkpt lat="50.92154491544635" lon="6.707136052168349">
				<ele>121.0</ele>
				<time>2011-02-15T17:53:10Z</time>
			</trkpt>
			<trkpt lat="50.92154491544635" lon="6.707136052168349">
				<ele>121.0</ele>
				<time>2011-02-15T17:53:11Z</time>
			</trkpt>
			<trkpt lat="50.92154491544635" lon="6.707136052168349">
				<ele>121.0</ele>
				<time>2011-02-15T17:53:12Z</time>
			</trkpt>
			<trkpt lat="50.92154491544635" lon="6.707136052168349">
				<ele>121.0</ele>
				<time>2011-02-15T17:53:13Z</time>
			</trkpt>
			<trkpt lat="50.92154491544635" lon="6.707136052168349">
				<ele>121.0</ele>
				<time>2011-02-15T17:53:14Z</time>
			</trkpt>
			<trkpt lat="50.92154491544635" lon="6.707136052168349">
				<ele>121.0</ele>
				<time>2011-02-15T17:53:15Z</time>
			</trkpt>
			<trkpt lat="50.92154491544635" lon="6.707136052168349">
				<ele>121.0</ele>
				<time>2011-02-15T17:53:16Z</time>
			</trkpt>
			<trkpt lat="50.92154491544635" lon="6.707136052168349">
				<ele>121.0</ele>
				<time>2011-02-15T17:53:17Z</time>
			</trkpt>
			<trkpt lat="50.92154491544635" lon="6.707136052168349">
				<ele>121.0</ele>
				<time>2011-02-15T17:53:18Z</time>
			</trkpt>
			<trkpt lat="50.92154491544635" lon="6.707136052168349">
				<ele>121.0</ele>
				<time>2011-02-15T17:53:19Z</time>
			</trkpt>
			<trkpt lat="50.92154491544635" lon="6.707136052168349">
				<ele>121.0</ele>
				<time>2011-02-15T17:53:20Z</time>
			</trkpt>
			<trkpt lat="50.92157650765225" lon="6.707130232881602">
				<ele>121.0</ele>
				<time>2011-02-15T17:53:21Z</time>
			</trkpt>
			<trkpt lat="50.92159279118251" lon="6.707126307007683">
				<ele>121.0</ele>
				<time>2011-02-15T17:53:22Z</time>
			</trkpt>
			<trkpt lat="50.92161481501552" lon="6.707120099915217">
				<ele>121.0</ele>
				<time>2011-02-15T17:53:23Z</time>
			</trkpt>
			<trkpt lat="50.92164240275474" lon="6.707120491404567">
				<ele>120.0</ele>
				<time>2011-02-15T17:53:24Z</time>
			</trkpt>
			<trkpt lat="50.92167408795546" lon="6.7071241950743765">
				<ele>120.0</ele>
				<time>2011-02-15T17:53:25Z</time>
			</trkpt>
			<trkpt lat="50.92170718653527" lon="6.707126131265704">
				<ele>120.0</ele>
				<time>2011-02-15T17:53:26Z</time>
			</trkpt>
			<trkpt lat="50.92174260086912" lon="6.707125181143914">
				<ele>121.0</ele>
				<time>2011-02-15T17:53:27Z</time>
			</trkpt>
			<trkpt lat="50.921779317406454" lon="6.707120163282689">
				<ele>121.0</ele>
				<time>2011-02-15T17:53:28Z</time>
			</trkpt>
			<trkpt lat="50.92181526745873" lon="6.707114053799652">
				<ele>121.0</ele>
				<time>2011-02-15T17:53:29Z</time>
			</trkpt>
			<trkpt lat="50.92185159393352" lon="6.707105051445145">
				<ele>121.0</ele>
				<time>2011-02-15T17:53:30Z</time>
			</trkpt>
			<trkpt lat="50.92188820563909" lon="6.707093962650655">
				<ele>121.0</ele>
				<time>2011-02-15T17:53:31Z</time>
			</trkpt>
			<trkpt lat="50.92192491578042" lon="6.707081110664149">
				<ele>121.0</ele>
				<time>2011-02-15T17:53:32Z</time>
			</trkpt>
			<trkpt lat="50.921962094175875" lon="6.707066064374827">
				<ele>121.0</ele>
				<time>2011-02-15T17:53:33Z</time>
			</trkpt>
			<trkpt lat="50.92199949288224" lon="6.707049938376103">
				<ele>121.0</ele>
				<time>2011-02-15T17:53:34Z</time>
			</trkpt>
			<trkpt lat="50.92203645137204" lon="6.707033372521572">
				<ele>122.0</ele>
				<time>2011-02-15T17:53:35Z</time>
			</trkpt>
			<trkpt lat="50.92207190827508" lon="6.707014934733863">
				<ele>122.0</ele>
				<time>2011-02-15T17:53:36Z</time>
			</trkpt>
			<trkpt lat="50.92210819128377" lon="6.706996582824896">
				<ele>123.0</ele>
				<time>2011-02-15T17:53:37Z</time>
			</trkpt>
			<trkpt lat="50.92214414737517" lon="6.706977980394725">
				<ele>123.0</ele>
				<time>2011-02-15T17:53:38Z</time>
			</trkpt>
			<trkpt lat="50.922179537255175" lon="6.706958121267282">
				<ele>123.0</ele>
				<time>2011-02-15T17:53:39Z</time>
			</trkpt>
			<trkpt lat="50.92221574678482" lon="6.706938420046434">
				<ele>123.0</ele>
				<time>2011-02-15T17:53:40Z</time>
			</trkpt>
			<trkpt lat="50.922252267801525" lon="6.706920139126096">
				<ele>124.0</ele>
				<time>2011-02-15T17:53:41Z</time>
			</trkpt>
			<trkpt lat="50.9222894081547" lon="6.7069015891319115">
				<ele>124.0</ele>
				<time>2011-02-15T17:53:42Z</time>
			</trkpt>
			<trkpt lat="50.922326417993126" lon="6.7068842905199055">
				<ele>124.0</ele>
				<time>2011-02-15T17:53:43Z</time>
			</trkpt>
			<trkpt lat="50.92236326357064" lon="6.706867161622861">
				<ele>124.0</ele>
				<time>2011-02-15T17:53:44Z</time>
			</trkpt>
			<trkpt lat="50.92239892162754" lon="6.70685075626862">
				<ele>124.0</ele>
				<time>2011-02-15T17:53:45Z</time>
			</trkpt>
			<trkpt lat="50.92243126103747" lon="6.706828608593919">
				<ele>124.0</ele>
				<time>2011-02-15T17:53:46Z</time>
			</trkpt>
			<trkpt lat="50.92244768080546" lon="6.706799554512829">
				<ele>124.0</ele>
				<time>2011-02-15T17:53:47Z</time>
			</trkpt>
			<trkpt lat="50.92244181556185" lon="6.706749495891809">
				<ele>125.0</ele>
				<time>2011-02-15T17:53:48Z</time>
			</trkpt>
			<trkpt lat="50.92242678591309" lon="6.706701716862798">
				<ele>125.0</ele>
				<time>2011-02-15T17:53:49Z</time>
			</trkpt>
			<trkpt lat="50.92241934746273" lon="6.706653328539588">
				<ele>125.0</ele>
				<time>2011-02-15T17:53:50Z</time>
			</trkpt>
			<trkpt lat="50.92241727226277" lon="6.706604030404013">
				<ele>125.0</ele>
				<time>2011-02-15T17:53:51Z</time>
			</trkpt>
			<trkpt lat="50.92241680963861" lon="6.706552487543581">
				<ele>125.0</ele>
				<time>2011-02-15T17:53:52Z</time>
			</trkpt>
			<trkpt lat="50.92241737241565" lon="6.706498952108294">
				<ele>125.0</ele>
				<time>2011-02-15T17:53:53Z</time>
			</trkpt>
			<trkpt lat="50.92241794601431" lon="6.706443924711955">
				<ele>125.0</ele>
				<time>2011-02-15T17:53:54Z</time>
			</trkpt>
			<trkpt lat="50.92241732897023" lon="6.706386432568276">
				<ele>125.0</ele>
				<time>2011-02-15T17:53:55Z</time>
			</trkpt>
			<trkpt lat="50.92241686621016" lon="6.706326456307463">
				<ele>125.0</ele>
				<time>2011-02-15T17:53:56Z</time>
			</trkpt>
			<trkpt lat="50.922417265521965" lon="6.706267048644645">
				<ele>125.0</ele>
				<time>2011-02-15T17:53:57Z</time>
			</trkpt>
			<trkpt lat="50.92241916777435" lon="6.706208710714861">
				<ele>125.0</ele>
				<time>2011-02-15T17:53:58Z</time>
			</trkpt>
			<trkpt lat="50.92243063789835" lon="6.706149750466287">
				<ele>125.0</ele>
				<time>2011-02-15T17:53:59Z</time>
			</trkpt>
			<trkpt lat="50.92244106009204" lon="6.7060895893716195">
				<ele>125.0</ele>
				<time>2011-02-15T17:54:00Z</time>
			</trkpt>
			<trkpt lat="50.92245120548832" lon="6.70602929621668">
				<ele>125.0</ele>
				<time>2011-02-15T17:54:01Z</time>
			</trkpt>
			<trkpt lat="50.92246019797351" lon="6.705966396904486">
				<ele>125.0</ele>
				<time>2011-02-15T17:54:02Z</time>
			</trkpt>
			<trkpt lat="50.92245975079185" lon="6.705903101662832">
				<ele>125.0</ele>
				<time>2011-02-15T17:54:03Z</time>
			</trkpt>
			<trkpt lat="50.922451271280146" lon="6.705855235272144">
				<ele>125.0</ele>
				<time>2011-02-15T17:54:04Z</time>
			</trkpt>
			<trkpt lat="50.922439068034215" lon="6.705823254784294">
				<ele>125.0</ele>
				<time>2011-02-15T17:54:05Z</time>
			</trkpt>
			<trkpt lat="50.92243011966433" lon="6.705805875710721">
				<ele>125.0</ele>
				<time>2011-02-15T17:54:06Z</time>
			</trkpt>
			<trkpt lat="50.92242312411478" lon="6.705791426255537">
				<ele>125.0</ele>
				<time>2011-02-15T17:54:07Z</time>
			</trkpt>
			<trkpt lat="50.92242312411478" lon="6.705791426255537">
				<ele>125.0</ele>
				<time>2011-02-15T17:54:08Z</time>
			</trkpt>
			<trkpt lat="50.92242312411478" lon="6.705791426255537">
				<ele>125.0</ele>
				<time>2011-02-15T17:54:09Z</time>
			</trkpt>
			<trkpt lat="50.92242312411478" lon="6.705791426255537">
				<ele>125.0</ele>
				<time>2011-02-15T17:54:10Z</time>
			</trkpt>
			<trkpt lat="50.92242312411478" lon="6.705791426255537">
				<ele>125.0</ele>
				<time>2011-02-15T17:54:11Z</time>
			</trkpt>
			<trkpt lat="50.92242312411478" lon="6.705791426255537">
				<ele>125.0</ele>
				<time>2011-02-15T17:54:12Z</time>
			</trkpt>
			<trkpt lat="50.92242312411478" lon="6.705791426255537">
				<ele>125.0</ele>
				<time>2011-02-15T17:54:13Z</time>
			</trkpt>
			<trkpt lat="50.92242312411478" lon="6.705791426255537">
				<ele>125.0</ele>
				<time>2011-02-15T17:54:14Z</time>
			</trkpt>
			<trkpt lat="50.92242312411478" lon="6.705791426255537">
				<ele>125.0</ele>
				<time>2011-02-15T17:54:15Z</time>
			</trkpt>
			<trkpt lat="50.92242312411478" lon="6.705791426255537">
				<ele>125.0</ele>
				<time>2011-02-15T17:54:16Z</time>
			</trkpt>
			<trkpt lat="50.92242312411478" lon="6.705791426255537">
				<ele>125.0</ele>
				<time>2011-02-15T17:54:17Z</time>
			</trkpt>
			<trkpt lat="50.92242312411478" lon="6.705791426255537">
				<ele>125.0</ele>
				<time>2011-02-15T17:54:18Z</time>
			</trkpt>
			<trkpt lat="50.92242312411478" lon="6.705791426255537">
				<ele>125.0</ele>
				<time>2011-02-15T17:54:19Z</time>
			</trkpt>
			<trkpt lat="50.92242312411478" lon="6.705791426255537">
				<ele>125.0</ele>
				<time>2011-02-15T17:54:20Z</time>
			</trkpt>
			<trkpt lat="50.92242312411478" lon="6.705791426255537">
				<ele>125.0</ele>
				<time>2011-02-15T17:54:21Z</time>
			</trkpt>
			<trkpt lat="50.92242312411478" lon="6.705791426255537">
				<ele>125.0</ele>
				<time>2011-02-15T17:54:22Z</time>
			</trkpt>
			<trkpt lat="50.92242312411478" lon="6.705791426255537">
				<ele>125.0</ele>
				<time>2011-02-15T17:54:23Z</time>
			</trkpt>
			<trkpt lat="50.92242312411478" lon="6.705791426255537">
				<ele>125.0</ele>
				<time>2011-02-15T17:54:24Z</time>
			</trkpt>
			<trkpt lat="50.92242312411478" lon="6.705791426255537">
				<ele>125.0</ele>
				<time>2011-02-15T17:54:25Z</time>
			</trkpt>
			<trkpt lat="50.92240235345903" lon="6.705786471482351">
				<ele>125.0</ele>
				<time>2011-02-15T17:54:26Z</time>
			</trkpt>
			<trkpt lat="50.92239035709856" lon="6.705795122479836">
				<ele>125.0</ele>
				<time>2011-02-15T17:54:27Z</time>
			</trkpt>
			<trkpt lat="50.922378372639066" lon="6.705805939500543">
				<ele>125.0</ele>
				<time>2011-02-15T17:54:28Z</time>
			</trkpt>
			<trkpt lat="50.92236548888924" lon="6.705816670210093">
				<ele>125.0</ele>
				<time>2011-02-15T17:54:29Z</time>
			</trkpt>
			<trkpt lat="50.922345544019066" lon="6.705819301396302">
				<ele>125.0</ele>
				<time>2011-02-15T17:54:30Z</time>
			</trkpt>
			<trkpt lat="50.922320754794065" lon="6.7058210054694465">
				<ele>125.0</ele>
				<time>2011-02-15T17:54:31Z</time>
			</trkpt>
			<trkpt lat="50.92228841753368" lon="6.7058218507672605">
				<ele>125.0</ele>
				<time>2011-02-15T17:54:32Z</time>
			</trkpt>
			<trkpt lat="50.922257409086875" lon="6.705822528228135">
				<ele>125.0</ele>
				<time>2011-02-15T17:54:33Z</time>
			</trkpt>
			<trkpt lat="50.92222237910557" lon="6.7058224114154505">
				<ele>125.0</ele>
				<time>2011-02-15T17:54:34Z</time>
			</trkpt>
			<trkpt lat="50.922184157527234" lon="6.705822515220857">
				<ele>125.0</ele>
				<time>2011-02-15T17:54:35Z</time>
			</trkpt>
			<trkpt lat="50.92214561038699" lon="6.705822753118751">
				<ele>125.0</ele>
				<time>2011-02-15T17:54:36Z</time>
			</trkpt>
			<trkpt lat="50.9221102812253" lon="6.705822914028633">
				<ele>125.0</ele>
				<time>2011-02-15T17:54:37Z</time>
			</trkpt>
			<trkpt lat="50.92207619039782" lon="6.705819271325273">
				<ele>125.0</ele>
				<time>2011-02-15T17:54:38Z</time>
			</trkpt>
			<trkpt lat="50.92204372814549" lon="6.705796383292953">
				<ele>125.0</ele>
				<time>2011-02-15T17:54:39Z</time>
			</trkpt>
			<trkpt lat="50.922011717303384" lon="6.7057703554515715">
				<ele>125.0</ele>
				<time>2011-02-15T17:54:40Z</time>
			</trkpt>
			<trkpt lat="50.9219840726627" lon="6.705732643034756">
				<ele>125.0</ele>
				<time>2011-02-15T17:54:41Z</time>
			</trkpt>
			<trkpt lat="50.92196210846895" lon="6.7056857373751075">
				<ele>125.0</ele>
				<time>2011-02-15T17:54:42Z</time>
			</trkpt>
			<trkpt lat="50.921941418300364" lon="6.705632583219386">
				<ele>125.0</ele>
				<time>2011-02-15T17:54:43Z</time>
			</trkpt>
			<trkpt lat="50.921938225824334" lon="6.705571737413251">
				<ele>125.0</ele>
				<time>2011-02-15T17:54:44Z</time>
			</trkpt>
			<trkpt lat="50.921935266708964" lon="6.705507122002137">
				<ele>125.0</ele>
				<time>2011-02-15T17:54:45Z</time>
			</trkpt>
			<trkpt lat="50.921932325003525" lon="6.70543981120083">
				<ele>124.0</ele>
				<time>2011-02-15T17:54:46Z</time>
			</trkpt>
			<trkpt lat="50.92193023190879" lon="6.705369990334671">
				<ele>124.0</ele>
				<time>2011-02-15T17:54:47Z</time>
			</trkpt>
			<trkpt lat="50.921928423970506" lon="6.705300313316246">
				<ele>124.0</ele>
				<time>2011-02-15T17:54:48Z</time>
			</trkpt>
			<trkpt lat="50.92192691465776" lon="6.7052307666063475">
				<ele>124.0</ele>
				<time>2011-02-15T17:54:49Z</time>
			</trkpt>
			<trkpt lat="50.92192718300446" lon="6.705161759339141">
				<ele>124.0</ele>
				<time>2011-02-15T17:54:50Z</time>
			</trkpt>
			<trkpt lat="50.921927785524886" lon="6.705091908899417">
				<ele>123.0</ele>
				<time>2011-02-15T17:54:51Z</time>
			</trkpt>
			<trkpt lat="50.92192823594215" lon="6.705020727856828">
				<ele>123.0</ele>
				<time>2011-02-15T17:54:52Z</time>
			</trkpt>
			<trkpt lat="50.921928701179674" lon="6.704947879390599">
				<ele>123.0</ele>
				<time>2011-02-15T17:54:53Z</time>
			</trkpt>
			<trkpt lat="50.92192905798439" lon="6.704874177414795">
				<ele>123.0</ele>
				<time>2011-02-15T17:54:54Z</time>
			</trkpt>
			<trkpt lat="50.92192970329108" lon="6.704800751027669">
				<ele>123.0</ele>
				<time>2011-02-15T17:54:55Z</time>
			</trkpt>
			<trkpt lat="50.921930616418905" lon="6.70472778547607">
				<ele>122.0</ele>
				<time>2011-02-15T17:54:56Z</time>
			</trkpt>
			<trkpt lat="50.9219316032486" lon="6.704656044182791">
				<ele>122.0</ele>
				<time>2011-02-15T17:54:57Z</time>
			</trkpt>
			<trkpt lat="50.921932527037754" lon="6.704586028991283">
				<ele>122.0</ele>
				<time>2011-02-15T17:54:58Z</time>
			</trkpt>
			<trkpt lat="50.92193315040723" lon="6.704518508495857">
				<ele>122.0</ele>
				<time>2011-02-15T17:54:59Z</time>
			</trkpt>
			<trkpt lat="50.92193390649071" lon="6.704451872942229">
				<ele>122.0</ele>
				<time>2011-02-15T17:55:00Z</time>
			</trkpt>
			<trkpt lat="50.92193445478402" lon="6.704386143828755">
				<ele>122.0</ele>
				<time>2011-02-15T17:55:01Z</time>
			</trkpt>
			<trkpt lat="50.9219352075477" lon="6.704322424110196">
				<ele>121.0</ele>
				<time>2011-02-15T17:55:02Z</time>
			</trkpt>
			<trkpt lat="50.92193503635589" lon="6.70425896703931">
				<ele>121.0</ele>
				<time>2011-02-15T17:55:03Z</time>
			</trkpt>
			<trkpt lat="50.92193622704861" lon="6.704197054762649">
				<ele>121.0</ele>
				<time>2011-02-15T17:55:04Z</time>
			</trkpt>
			<trkpt lat="50.92193732400798" lon="6.704135756003151">
				<ele>121.0</ele>
				<time>2011-02-15T17:55:05Z</time>
			</trkpt>
			<trkpt lat="50.92193862579671" lon="6.704073897541392">
				<ele>121.0</ele>
				<time>2011-02-15T17:55:06Z</time>
			</trkpt>
			<trkpt lat="50.92194128206676" lon="6.704011083897165">
				<ele>120.0</ele>
				<time>2011-02-15T17:55:07Z</time>
			</trkpt>
			<trkpt lat="50.92194408866848" lon="6.703944580084452">
				<ele>120.0</ele>
				<time>2011-02-15T17:55:08Z</time>
			</trkpt>
			<trkpt lat="50.92194679889654" lon="6.7038752341985095">
				<ele>120.0</ele>
				<time>2011-02-15T17:55:09Z</time>
			</trkpt>
			<trkpt lat="50.921948060729015" lon="6.703802535708475">
				<ele>120.0</ele>
				<time>2011-02-15T17:55:10Z</time>
			</trkpt>
			<trkpt lat="50.92194916825019" lon="6.703726522446256">
				<ele>120.0</ele>
				<time>2011-02-15T17:55:11Z</time>
			</trkpt>
			<trkpt lat="50.92195163607217" lon="6.703648961754642">
				<ele>119.0</ele>
				<time>2011-02-15T17:55:12Z</time>
			</trkpt>
			<trkpt lat="50.92195691007974" lon="6.703571254877757">
				<ele>119.0</ele>
				<time>2011-02-15T17:55:13Z</time>
			</trkpt>
			<trkpt lat="50.92196560823117" lon="6.7034955944396195">
				<ele>119.0</ele>
				<time>2011-02-15T17:55:14Z</time>
			</trkpt>
			<trkpt lat="50.921976704861734" lon="6.703427404875553">
				<ele>119.0</ele>
				<time>2011-02-15T17:55:15Z</time>
			</trkpt>
			<trkpt lat="50.92199633785709" lon="6.703375568741582">
				<ele>119.0</ele>
				<time>2011-02-15T17:55:16Z</time>
			</trkpt>
			<trkpt lat="50.922027614333736" lon="6.703348850572801">
				<ele>119.0</ele>
				<time>2011-02-15T17:55:17Z</time>
			</trkpt>
			<trkpt lat="50.9220593855568" lon="6.703327091723348">
				<ele>119.0</ele>
				<time>2011-02-15T17:55:18Z</time>
			</trkpt>
			<trkpt lat="50.92209293955207" lon="6.703322136494349">
				<ele>119.0</ele>
				<time>2011-02-15T17:55:19Z</time>
			</trkpt>
			<trkpt lat="50.922127599254814" lon="6.7033174305794825">
				<ele>119.0</ele>
				<time>2011-02-15T17:55:20Z</time>
			</trkpt>
			<trkpt lat="50.92216559191554" lon="6.7033130107911525">
				<ele>120.0</ele>
				<time>2011-02-15T17:55:21Z</time>
			</trkpt>
			<trkpt lat="50.92220538084148" lon="6.703309588238067">
				<ele>120.0</ele>
				<time>2011-02-15T17:55:22Z</time>
			</trkpt>
			<trkpt lat="50.92224454810541" lon="6.703309966045724">
				<ele>120.0</ele>
				<time>2011-02-15T17:55:23Z</time>
			</trkpt>
			<trkpt lat="50.92228471197918" lon="6.703313362445151">
				<ele>120.0</ele>
				<time>2011-02-15T17:55:24Z</time>
			</trkpt>
			<trkpt lat="50.92232753138548" lon="6.7033171367988365">
				<ele>120.0</ele>
				<time>2011-02-15T17:55:25Z</time>
			</trkpt>
			<trkpt lat="50.92237181468586" lon="6.703321166501775">
				<ele>120.0</ele>
				<time>2011-02-15T17:55:26Z</time>
			</trkpt>
			<trkpt lat="50.922420409737626" lon="6.703323084734094">
				<ele>120.0</ele>
				<time>2011-02-15T17:55:27Z</time>
			</trkpt>
			<trkpt lat="50.922471247703534" lon="6.703324669458386">
				<ele>120.0</ele>
				<time>2011-02-15T17:55:28Z</time>
			</trkpt>
			<trkpt lat="50.922521591320525" lon="6.703326527454589">
				<ele>120.0</ele>
				<time>2011-02-15T17:55:29Z</time>
			</trkpt>
			<trkpt lat="50.922571802577366" lon="6.703327034595875">
				<ele>120.0</ele>
				<time>2011-02-15T17:55:30Z</time>
			</trkpt>
			<trkpt lat="50.92262042560348" lon="6.703323434078312">
				<ele>120.0</ele>
				<time>2011-02-15T17:55:31Z</time>
			</trkpt>
			<trkpt lat="50.922665347693915" lon="6.703323077566237">
				<ele>120.0</ele>
				<time>2011-02-15T17:55:32Z</time>
			</trkpt>
			<trkpt lat="50.92271224992419" lon="6.703322536674095">
				<ele>120.0</ele>
				<time>2011-02-15T17:55:33Z</time>
			</trkpt>
			<trkpt lat="50.92275895032334" lon="6.703305417916402">
				<ele>120.0</ele>
				<time>2011-02-15T17:55:34Z</time>
			</trkpt>
			<trkpt lat="50.922797538030835" lon="6.703278292220246">
				<ele>120.0</ele>
				<time>2011-02-15T17:55:35Z</time>
			</trkpt>
			<trkpt lat="50.92282252444263" lon="6.703259354015801">
				<ele>120.0</ele>
				<time>2011-02-15T17:55:36Z</time>
			</trkpt>
			<trkpt lat="50.92282252444263" lon="6.703259354015801">
				<ele>120.0</ele>
				<time>2011-02-15T17:55:37Z</time>
			</trkpt>
			<trkpt lat="50.92282252444263" lon="6.703259354015801">
				<ele>120.0</ele>
				<time>2011-02-15T17:55:38Z</time>
			</trkpt>
			<trkpt lat="50.922870832808094" lon="6.703230069056149">
				<ele>120.0</ele>
				<time>2011-02-15T17:55:39Z</time>
			</trkpt>
			<trkpt lat="50.922870832808094" lon="6.703230069056149">
				<ele>120.0</ele>
				<time>2011-02-15T17:55:40Z</time>
			</trkpt>
			<trkpt lat="50.922902898601954" lon="6.703215812627604">
				<ele>121.0</ele>
				<time>2011-02-15T17:55:41Z</time>
			</trkpt>
			<trkpt lat="50.92291979246202" lon="6.703210558509935">
				<ele>121.0</ele>
				<time>2011-02-15T17:55:42Z</time>
			</trkpt>
			<trkpt lat="50.92291979246202" lon="6.703210558509935">
				<ele>121.0</ele>
				<time>2011-02-15T17:55:43Z</time>
			</trkpt>
			<trkpt lat="50.92291979246202" lon="6.703210558509935">
				<ele>121.0</ele>
				<time>2011-02-15T17:55:44Z</time>
			</trkpt>
			<trkpt lat="50.92291979246202" lon="6.703210558509935">
				<ele>121.0</ele>
				<time>2011-02-15T17:55:45Z</time>
			</trkpt>
			<trkpt lat="50.92291979246202" lon="6.703210558509935">
				<ele>121.0</ele>
				<time>2011-02-15T17:55:46Z</time>
			</trkpt>
			<trkpt lat="50.92291979246202" lon="6.703210558509935">
				<ele>121.0</ele>
				<time>2011-02-15T17:55:47Z</time>
			</trkpt>
			<trkpt lat="50.92291979246202" lon="6.703210558509935">
				<ele>121.0</ele>
				<time>2011-02-15T17:55:48Z</time>
			</trkpt>
			<trkpt lat="50.92291979246202" lon="6.703210558509935">
				<ele>121.0</ele>
				<time>2011-02-15T17:55:49Z</time>
			</trkpt>
			<trkpt lat="50.92291979246202" lon="6.703210558509935">
				<ele>121.0</ele>
				<time>2011-02-15T17:55:50Z</time>
			</trkpt>
			<trkpt lat="50.92291979246202" lon="6.703210558509935">
				<ele>121.0</ele>
				<time>2011-02-15T17:55:51Z</time>
			</trkpt>
			<trkpt lat="50.92291979246202" lon="6.703210558509935">
				<ele>121.0</ele>
				<time>2011-02-15T17:55:52Z</time>
			</trkpt>
			<trkpt lat="50.92291979246202" lon="6.703210558509935">
				<ele>121.0</ele>
				<time>2011-02-15T17:55:53Z</time>
			</trkpt>
			<trkpt lat="50.92291979246202" lon="6.703210558509935">
				<ele>121.0</ele>
				<time>2011-02-15T17:55:54Z</time>
			</trkpt>
			<trkpt lat="50.92291979246202" lon="6.703210558509935">
				<ele>121.0</ele>
				<time>2011-02-15T17:55:55Z</time>
			</trkpt>
			<trkpt lat="50.92291979246202" lon="6.703210558509935">
				<ele>121.0</ele>
				<time>2011-02-15T17:55:56Z</time>
			</trkpt>
			<trkpt lat="50.92291979246202" lon="6.703210558509935">
				<ele>121.0</ele>
				<time>2011-02-15T17:55:57Z</time>
			</trkpt>
			<trkpt lat="50.92291979246202" lon="6.703210558509935">
				<ele>121.0</ele>
				<time>2011-02-15T17:55:58Z</time>
			</trkpt>
			<trkpt lat="50.92291979246202" lon="6.703210558509935">
				<ele>121.0</ele>
				<time>2011-02-15T17:55:59Z</time>
			</trkpt>
			<trkpt lat="50.92291979246202" lon="6.703210558509935">
				<ele>121.0</ele>
				<time>2011-02-15T17:56:00Z</time>
			</trkpt>
			<trkpt lat="50.92291979246202" lon="6.703210558509935">
				<ele>121.0</ele>
				<time>2011-02-15T17:56:01Z</time>
			</trkpt>
			<trkpt lat="50.92291979246202" lon="6.703210558509935">
				<ele>121.0</ele>
				<time>2011-02-15T17:56:02Z</time>
			</trkpt>
			<trkpt lat="50.92291979246202" lon="6.703210558509935">
				<ele>121.0</ele>
				<time>2011-02-15T17:56:03Z</time>
			</trkpt>
			<trkpt lat="50.92291979246202" lon="6.703210558509935">
				<ele>121.0</ele>
				<time>2011-02-15T17:56:04Z</time>
			</trkpt>
			<trkpt lat="50.92291979246202" lon="6.703210558509935">
				<ele>121.0</ele>
				<time>2011-02-15T17:56:05Z</time>
			</trkpt>
			<trkpt lat="50.92291979246202" lon="6.703210558509935">
				<ele>121.0</ele>
				<time>2011-02-15T17:56:06Z</time>
			</trkpt>
			<trkpt lat="50.92291979246202" lon="6.703210558509935">
				<ele>121.0</ele>
				<time>2011-02-15T17:56:07Z</time>
			</trkpt>
			<trkpt lat="50.92291979246202" lon="6.703210558509935">
				<ele>121.0</ele>
				<time>2011-02-15T17:56:08Z</time>
			</trkpt>
			<trkpt lat="50.92291979246202" lon="6.703210558509935">
				<ele>121.0</ele>
				<time>2011-02-15T17:56:09Z</time>
			</trkpt>
			<trkpt lat="50.92291979246202" lon="6.703210558509935">
				<ele>121.0</ele>
				<time>2011-02-15T17:56:10Z</time>
			</trkpt>
			<trkpt lat="50.92291979246202" lon="6.703210558509935">
				<ele>121.0</ele>
				<time>2011-02-15T17:56:11Z</time>
			</trkpt>
			<trkpt lat="50.92291979246202" lon="6.703210558509935">
				<ele>121.0</ele>
				<time>2011-02-15T17:56:12Z</time>
			</trkpt>
			<trkpt lat="50.92291979246202" lon="6.703210558509935">
				<ele>121.0</ele>
				<time>2011-02-15T17:56:13Z</time>
			</trkpt>
			<trkpt lat="50.92291979246202" lon="6.703210558509935">
				<ele>121.0</ele>
				<time>2011-02-15T17:56:14Z</time>
			</trkpt>
			<trkpt lat="50.92291979246202" lon="6.703210558509935">
				<ele>121.0</ele>
				<time>2011-02-15T17:56:15Z</time>
			</trkpt>
			<trkpt lat="50.92291979246202" lon="6.703210558509935">
				<ele>121.0</ele>
				<time>2011-02-15T17:56:16Z</time>
			</trkpt>
			<trkpt lat="50.92291979246202" lon="6.703210558509935">
				<ele>121.0</ele>
				<time>2011-02-15T17:56:17Z</time>
			</trkpt>
			<trkpt lat="50.92291979246202" lon="6.703210558509935">
				<ele>121.0</ele>
				<time>2011-02-15T17:56:18Z</time>
			</trkpt>
			<trkpt lat="50.92291979246202" lon="6.703210558509935">
				<ele>121.0</ele>
				<time>2011-02-15T17:56:19Z</time>
			</trkpt>
			<trkpt lat="50.92291979246202" lon="6.703210558509935">
				<ele>121.0</ele>
				<time>2011-02-15T17:56:20Z</time>
			</trkpt>
			<trkpt lat="50.92291979246202" lon="6.703210558509935">
				<ele>121.0</ele>
				<time>2011-02-15T17:56:21Z</time>
			</trkpt>
			<trkpt lat="50.92291979246202" lon="6.703210558509935">
				<ele>121.0</ele>
				<time>2011-02-15T17:56:22Z</time>
			</trkpt>
			<trkpt lat="50.92291979246202" lon="6.703210558509935">
				<ele>121.0</ele>
				<time>2011-02-15T17:56:23Z</time>
			</trkpt>
			<trkpt lat="50.92291979246202" lon="6.703210558509935">
				<ele>121.0</ele>
				<time>2011-02-15T17:56:24Z</time>
			</trkpt>
			<trkpt lat="50.92291979246202" lon="6.703210558509935">
				<ele>121.0</ele>
				<time>2011-02-15T17:56:25Z</time>
			</trkpt>
			<trkpt lat="50.92291979246202" lon="6.703210558509935">
				<ele>121.0</ele>
				<time>2011-02-15T17:56:26Z</time>
			</trkpt>
			<trkpt lat="50.92291979246202" lon="6.703210558509935">
				<ele>121.0</ele>
				<time>2011-02-15T17:56:27Z</time>
			</trkpt>
			<trkpt lat="50.92291979246202" lon="6.703210558509935">
				<ele>121.0</ele>
				<time>2011-02-15T17:56:28Z</time>
			</trkpt>
			<trkpt lat="50.92291979246202" lon="6.703210558509935">
				<ele>121.0</ele>
				<time>2011-02-15T17:56:29Z</time>
			</trkpt>
			<trkpt lat="50.92291979246202" lon="6.703210558509935">
				<ele>121.0</ele>
				<time>2011-02-15T17:56:30Z</time>
			</trkpt>
			<trkpt lat="50.92291979246202" lon="6.703210558509935">
				<ele>121.0</ele>
				<time>2011-02-15T17:56:31Z</time>
			</trkpt>
			<trkpt lat="50.92291979246202" lon="6.703210558509935">
				<ele>121.0</ele>
				<time>2011-02-15T17:56:32Z</time>
			</trkpt>
			<trkpt lat="50.92291979246202" lon="6.703210558509935">
				<ele>121.0</ele>
				<time>2011-02-15T17:56:33Z</time>
			</trkpt>
			<trkpt lat="50.92291979246202" lon="6.703210558509935">
				<ele>121.0</ele>
				<time>2011-02-15T17:56:34Z</time>
			</trkpt>
			<trkpt lat="50.92291979246202" lon="6.703210558509935">
				<ele>121.0</ele>
				<time>2011-02-15T17:56:35Z</time>
			</trkpt>
			<trkpt lat="50.92291979246202" lon="6.703210558509935">
				<ele>121.0</ele>
				<time>2011-02-15T17:56:36Z</time>
			</trkpt>
			<trkpt lat="50.92291979246202" lon="6.703210558509935">
				<ele>121.0</ele>
				<time>2011-02-15T17:56:37Z</time>
			</trkpt>
			<trkpt lat="50.92291979246202" lon="6.703210558509935">
				<ele>121.0</ele>
				<time>2011-02-15T17:56:38Z</time>
			</trkpt>
			<trkpt lat="50.92291979246202" lon="6.703210558509935">
				<ele>121.0</ele>
				<time>2011-02-15T17:56:39Z</time>
			</trkpt>
			<trkpt lat="50.92291979246202" lon="6.703210558509935">
				<ele>121.0</ele>
				<time>2011-02-15T17:56:40Z</time>
			</trkpt>
		</trkseg>
	</trk>
	<wpt lat="50.89020980352513" lon="6.70027362752308">
		<ele>119.0</ele>
		<time>2011-02-15T17:03:01Z</time>
		<name><![CDATA[Sprachaufnahme]]></name>
		<link href="2011-02-15_18-02-37.3gpp">
			<text>2011-02-15_18-02-37.3gpp</text>
		</link>
		<sat>9</sat>
	</wpt>
	<wpt lat="50.897519489406065" lon="6.70791968303045">
		<ele>96.0</ele>
		<time>2011-02-15T17:09:15Z</time>
		<name><![CDATA[Fahrradweg]]></name>
		<sat>8</sat>
	</wpt>
	<wpt lat="50.897519489406065" lon="6.70791968303045">
		<ele>96.0</ele>
		<time>2011-02-15T17:09:28Z</time>
		<name><![CDATA[k1,regiogruen.erft.neffelbach.kaiser.wasserburgen]]></name>
		<sat>8</sat>
	</wpt>
	<wpt lat="50.90087125954047" lon="6.715411298618817">
		<ele>116.0</ele>
		<time>2011-02-15T17:15:50Z</time>
		<name><![CDATA[Bushaltestelle]]></name>
		<sat>9</sat>
	</wpt>
	<wpt lat="50.901276346892935" lon="6.715515912220523">
		<ele>119.0</ele>
		<time>2011-02-15T17:16:49Z</time>
		<name><![CDATA[Bushaltestelle]]></name>
		<sat>8</sat>
	</wpt>
	<wpt lat="50.90518537302305" lon="6.713024437288357">
		<ele>119.0</ele>
		<time>2011-02-15T17:39:13Z</time>
		<name><![CDATA[Briefkasten]]></name>
		<sat>9</sat>
	</wpt>
	<wpt lat="50.90638300627915" lon="6.712404634052503">
		<ele>120.0</ele>
		<time>2011-02-15T17:40:46Z</time>
		<name><![CDATA[Bushaltestelle]]></name>
		<sat>9</sat>
	</wpt>
	<wpt lat="50.90640963043748" lon="6.712403354238016">
		<ele>120.0</ele>
		<time>2011-02-15T17:40:55Z</time>
		<name><![CDATA[Wartehalle]]></name>
		<sat>9</sat>
	</wpt>
	<wpt lat="50.90717864813349" lon="6.712241642421407">
		<ele>122.0</ele>
		<time>2011-02-15T17:42:01Z</time>
		<name><![CDATA[Bushaltestelle]]></name>
		<sat>9</sat>
	</wpt>
	<wpt lat="50.90718362885584" lon="6.712238919223884">
		<ele>122.0</ele>
		<time>2011-02-15T17:42:05Z</time>
		<name><![CDATA[Wartehalle]]></name>
		<sat>8</sat>
	</wpt>
	<wpt lat="50.910340313406785" lon="6.711876331752753">
		<ele>121.0</ele>
		<time>2011-02-15T17:44:34Z</time>
		<name><![CDATA[Bushaltestelle]]></name>
		<sat>8</sat>
	</wpt>
	<wpt lat="50.911025731477764" lon="6.711782790368097">
		<ele>122.0</ele>
		<time>2011-02-15T17:45:49Z</time>
		<name><![CDATA[Bushaltestelle]]></name>
		<sat>8</sat>
	</wpt>
	<wpt lat="50.913936020312" lon="6.710590517702349">
		<ele>122.0</ele>
		<time>2011-02-15T17:48:13Z</time>
		<name><![CDATA[Briefkasten]]></name>
		<sat>6</sat>
	</wpt>
	<wpt lat="50.913936020312" lon="6.710590517702349">
		<ele>122.0</ele>
		<time>2011-02-15T17:48:17Z</time>
		<name><![CDATA[Bankautomat]]></name>
		<sat>5</sat>
	</wpt>
	<wpt lat="50.92154491544635" lon="6.707136052168349">
		<ele>121.0</ele>
		<time>2011-02-15T17:53:01Z</time>
		<name><![CDATA[Bushaltestelle]]></name>
		<sat>7</sat>
	</wpt>
	<wpt lat="50.92242312411478" lon="6.705791426255537">
		<ele>125.0</ele>
		<time>2011-02-15T17:54:12Z</time>
		<name><![CDATA[Briefkasten]]></name>
		<sat>7</sat>
	</wpt>
</gpx>